<?xml version="1.0" encoding="UTF-8" standalone="no" ?>
<gpx xmlns="http://www.topografix.com/GPX/1/1" xmlns:xsi="http://www.w3.org/2001/XMLSchema-instance" xsi:schemaLocation="http://www.topografix.com/GPX/1/1 http://www.topografix.com/GPX/1/1/gpx.xsd" version="1.1" creator="VisuGPX - https://www.visugpx.com">
  <metadata>
    <name>lundi 2015 03 30</name>
    <desc><![CDATA[rando du lundi]]></desc>
  </metadata>
  <trk>
    <name><![CDATA[30/03/2015 20:20]]></name>
    <desc><![CDATA[]]></desc>
    <trkseg>
      <trkpt lat="48.85759" lon="2.34719">
        <ele>92</ele>
        <time>2015-03-30T18:20:15.849Z</time>
      </trkpt>
      <trkpt lat="48.85768" lon="2.34722">
        <ele>91.1</ele>
        <time>2015-03-30T18:20:21.635Z</time>
      </trkpt>
      <trkpt lat="48.8577" lon="2.34723">
        <ele>91</ele>
        <time>2015-03-30T18:20:22.685Z</time>
      </trkpt>
      <trkpt lat="48.85775" lon="2.34726">
        <ele>91</ele>
        <time>2015-03-30T18:20:24.577Z</time>
      </trkpt>
      <trkpt lat="48.85778" lon="2.34727">
        <ele>91</ele>
        <time>2015-03-30T18:20:25.696Z</time>
      </trkpt>
      <trkpt lat="48.85787" lon="2.34727">
        <ele>91.5</ele>
        <time>2015-03-30T18:20:28.625Z</time>
      </trkpt>
      <trkpt lat="48.8579" lon="2.34727">
        <ele>91.4</ele>
        <time>2015-03-30T18:20:29.835Z</time>
      </trkpt>
      <trkpt lat="48.85796" lon="2.34727">
        <ele>91.9</ele>
        <time>2015-03-30T18:20:32.092Z</time>
      </trkpt>
      <trkpt lat="48.85799" lon="2.34727">
        <ele>92.3</ele>
        <time>2015-03-30T18:20:32.590Z</time>
      </trkpt>
      <trkpt lat="48.85806" lon="2.34728">
        <ele>92.5</ele>
        <time>2015-03-30T18:20:34.661Z</time>
      </trkpt>
      <trkpt lat="48.85809" lon="2.34729">
        <ele>92.8</ele>
        <time>2015-03-30T18:20:35.564Z</time>
      </trkpt>
      <trkpt lat="48.85817" lon="2.34729">
        <ele>93.1</ele>
        <time>2015-03-30T18:20:37.674Z</time>
      </trkpt>
      <trkpt lat="48.85822" lon="2.34729">
        <ele>93.4</ele>
        <time>2015-03-30T18:20:38.700Z</time>
      </trkpt>
      <trkpt lat="48.8583" lon="2.34731">
        <ele>93.9</ele>
        <time>2015-03-30T18:20:40.596Z</time>
      </trkpt>
      <trkpt lat="48.85834" lon="2.34732">
        <ele>94.3</ele>
        <time>2015-03-30T18:20:41.640Z</time>
      </trkpt>
      <trkpt lat="48.85842" lon="2.34737">
        <ele>94.9</ele>
        <time>2015-03-30T18:20:44.221Z</time>
      </trkpt>
      <trkpt lat="48.85845" lon="2.34737">
        <ele>95.4</ele>
        <time>2015-03-30T18:20:44.603Z</time>
      </trkpt>
      <trkpt lat="48.85852" lon="2.34739">
        <ele>95.6</ele>
        <time>2015-03-30T18:20:46.624Z</time>
      </trkpt>
      <trkpt lat="48.85856" lon="2.34738">
        <ele>95.6</ele>
        <time>2015-03-30T18:20:47.581Z</time>
      </trkpt>
      <trkpt lat="48.85864" lon="2.34736">
        <ele>95.6</ele>
        <time>2015-03-30T18:20:49.640Z</time>
      </trkpt>
      <trkpt lat="48.85868" lon="2.34736">
        <ele>95.6</ele>
        <time>2015-03-30T18:20:50.652Z</time>
      </trkpt>
      <trkpt lat="48.85875" lon="2.34736">
        <ele>95.7</ele>
        <time>2015-03-30T18:20:52.589Z</time>
      </trkpt>
      <trkpt lat="48.85879" lon="2.34734">
        <ele>95.6</ele>
        <time>2015-03-30T18:20:53.604Z</time>
      </trkpt>
      <trkpt lat="48.85883" lon="2.3473">
        <ele>95.5</ele>
        <time>2015-03-30T18:20:54.632Z</time>
      </trkpt>
      <trkpt lat="48.85886" lon="2.34725">
        <ele>95.9</ele>
        <time>2015-03-30T18:20:55.644Z</time>
      </trkpt>
      <trkpt lat="48.85893" lon="2.3472">
        <ele>96.1</ele>
        <time>2015-03-30T18:20:57.604Z</time>
      </trkpt>
      <trkpt lat="48.85896" lon="2.34716">
        <ele>96.1</ele>
        <time>2015-03-30T18:20:58.622Z</time>
      </trkpt>
      <trkpt lat="48.859" lon="2.34709">
        <ele>96</ele>
        <time>2015-03-30T18:21:00.601Z</time>
      </trkpt>
      <trkpt lat="48.85903" lon="2.34705">
        <ele>95.8</ele>
        <time>2015-03-30T18:21:01.600Z</time>
      </trkpt>
      <trkpt lat="48.85909" lon="2.347">
        <ele>95.6</ele>
        <time>2015-03-30T18:21:03.801Z</time>
      </trkpt>
      <trkpt lat="48.85912" lon="2.34699">
        <ele>95.5</ele>
        <time>2015-03-30T18:21:04.619Z</time>
      </trkpt>
      <trkpt lat="48.85918" lon="2.34693">
        <ele>95.4</ele>
        <time>2015-03-30T18:21:06.643Z</time>
      </trkpt>
      <trkpt lat="48.85922" lon="2.34691">
        <ele>95.3</ele>
        <time>2015-03-30T18:21:07.663Z</time>
      </trkpt>
      <trkpt lat="48.85923" lon="2.34681">
        <ele>94.6</ele>
        <time>2015-03-30T18:21:09.988Z</time>
      </trkpt>
      <trkpt lat="48.85921" lon="2.34676">
        <ele>94</ele>
        <time>2015-03-30T18:21:11.613Z</time>
      </trkpt>
      <trkpt lat="48.8592" lon="2.34665">
        <ele>93.5</ele>
        <time>2015-03-30T18:21:14.618Z</time>
      </trkpt>
      <trkpt lat="48.8592" lon="2.34659">
        <ele>93.8</ele>
        <time>2015-03-30T18:21:15.647Z</time>
      </trkpt>
      <trkpt lat="48.85921" lon="2.34648">
        <ele>95</ele>
        <time>2015-03-30T18:21:17.563Z</time>
      </trkpt>
      <trkpt lat="48.85922" lon="2.34643">
        <ele>95.5</ele>
        <time>2015-03-30T18:21:18.568Z</time>
      </trkpt>
      <trkpt lat="48.85926" lon="2.34631">
        <ele>96.2</ele>
        <time>2015-03-30T18:21:21.546Z</time>
      </trkpt>
      <trkpt lat="48.85927" lon="2.34627">
        <ele>96.5</ele>
        <time>2015-03-30T18:21:22.594Z</time>
      </trkpt>
      <trkpt lat="48.8593" lon="2.34619">
        <ele>96.7</ele>
        <time>2015-03-30T18:21:24.602Z</time>
      </trkpt>
      <trkpt lat="48.85932" lon="2.34615">
        <ele>96.7</ele>
        <time>2015-03-30T18:21:25.624Z</time>
      </trkpt>
      <trkpt lat="48.85936" lon="2.34606">
        <ele>96.9</ele>
        <time>2015-03-30T18:21:27.561Z</time>
      </trkpt>
      <trkpt lat="48.85938" lon="2.34601">
        <ele>97.1</ele>
        <time>2015-03-30T18:21:28.557Z</time>
      </trkpt>
      <trkpt lat="48.85942" lon="2.3459">
        <ele>97.3</ele>
        <time>2015-03-30T18:21:30.629Z</time>
      </trkpt>
      <trkpt lat="48.85943" lon="2.34585">
        <ele>97.4</ele>
        <time>2015-03-30T18:21:31.646Z</time>
      </trkpt>
      <trkpt lat="48.85948" lon="2.34575">
        <ele>97.5</ele>
        <time>2015-03-30T18:21:33.553Z</time>
      </trkpt>
      <trkpt lat="48.8595" lon="2.3457">
        <ele>97.6</ele>
        <time>2015-03-30T18:21:34.569Z</time>
      </trkpt>
      <trkpt lat="48.85953" lon="2.34562">
        <ele>97.7</ele>
        <time>2015-03-30T18:21:36.568Z</time>
      </trkpt>
      <trkpt lat="48.85955" lon="2.34557">
        <ele>97.7</ele>
        <time>2015-03-30T18:21:37.595Z</time>
      </trkpt>
      <trkpt lat="48.85956" lon="2.3455">
        <ele>97.8</ele>
        <time>2015-03-30T18:21:38.592Z</time>
      </trkpt>
      <trkpt lat="48.85957" lon="2.34544">
        <ele>97.7</ele>
        <time>2015-03-30T18:21:39.602Z</time>
      </trkpt>
      <trkpt lat="48.85959" lon="2.34537">
        <ele>97.9</ele>
        <time>2015-03-30T18:21:40.612Z</time>
      </trkpt>
      <trkpt lat="48.8596" lon="2.34528">
        <ele>98.5</ele>
        <time>2015-03-30T18:21:41.565Z</time>
      </trkpt>
      <trkpt lat="48.85963" lon="2.34523">
        <ele>98.7</ele>
        <time>2015-03-30T18:21:42.669Z</time>
      </trkpt>
      <trkpt lat="48.85842" lon="2.34641">
        <ele>98.8</ele>
        <time>2015-03-30T18:21:43.571Z</time>
      </trkpt>
      <trkpt lat="48.85871" lon="2.34611">
        <ele>98.8</ele>
        <time>2015-03-30T18:21:44.637Z</time>
      </trkpt>
      <trkpt lat="48.85896" lon="2.34585">
        <ele>98.5</ele>
        <time>2015-03-30T18:21:45.624Z</time>
      </trkpt>
      <trkpt lat="48.85896" lon="2.34585">
        <ele>98.5</ele>
        <time>2015-03-30T18:21:46.138Z</time>
      </trkpt>
      <trkpt lat="48.85915" lon="2.34563">
        <ele>97.8</ele>
        <time>2015-03-30T18:21:46.631Z</time>
      </trkpt>
      <trkpt lat="48.8593" lon="2.34544">
        <ele>97.6</ele>
        <time>2015-03-30T18:21:47.576Z</time>
      </trkpt>
      <trkpt lat="48.85941" lon="2.34529">
        <ele>97.7</ele>
        <time>2015-03-30T18:21:48.593Z</time>
      </trkpt>
      <trkpt lat="48.85957" lon="2.34506">
        <ele>97.8</ele>
        <time>2015-03-30T18:21:50.158Z</time>
      </trkpt>
      <trkpt lat="48.85964" lon="2.34495">
        <ele>98</ele>
        <time>2015-03-30T18:21:50.634Z</time>
      </trkpt>
      <trkpt lat="48.85969" lon="2.34486">
        <ele>98.1</ele>
        <time>2015-03-30T18:21:51.637Z</time>
      </trkpt>
      <trkpt lat="48.85973" lon="2.34479">
        <ele>98.3</ele>
        <time>2015-03-30T18:21:52.560Z</time>
      </trkpt>
      <trkpt lat="48.85978" lon="2.34469">
        <ele>98.8</ele>
        <time>2015-03-30T18:21:54.588Z</time>
      </trkpt>
      <trkpt lat="48.85979" lon="2.34465">
        <ele>99</ele>
        <time>2015-03-30T18:21:55.602Z</time>
      </trkpt>
      <trkpt lat="48.85981" lon="2.34458">
        <ele>99.1</ele>
        <time>2015-03-30T18:21:56.628Z</time>
      </trkpt>
      <trkpt lat="48.85983" lon="2.34452">
        <ele>99.7</ele>
        <time>2015-03-30T18:21:57.539Z</time>
      </trkpt>
      <trkpt lat="48.85984" lon="2.34442">
        <ele>99.8</ele>
        <time>2015-03-30T18:21:58.538Z</time>
      </trkpt>
      <trkpt lat="48.85986" lon="2.34433">
        <ele>100.1</ele>
        <time>2015-03-30T18:21:59.562Z</time>
      </trkpt>
      <trkpt lat="48.85987" lon="2.34424">
        <ele>100.4</ele>
        <time>2015-03-30T18:22:00.577Z</time>
      </trkpt>
      <trkpt lat="48.85989" lon="2.34415">
        <ele>101.1</ele>
        <time>2015-03-30T18:22:01.601Z</time>
      </trkpt>
      <trkpt lat="48.8599" lon="2.34407">
        <ele>101.9</ele>
        <time>2015-03-30T18:22:02.211Z</time>
      </trkpt>
      <trkpt lat="48.85992" lon="2.344">
        <ele>102.5</ele>
        <time>2015-03-30T18:22:03.612Z</time>
      </trkpt>
      <trkpt lat="48.85997" lon="2.34373">
        <ele>102.9</ele>
        <time>2015-03-30T18:22:04.642Z</time>
      </trkpt>
      <trkpt lat="48.86" lon="2.34367">
        <ele>103</ele>
        <time>2015-03-30T18:22:06.307Z</time>
      </trkpt>
      <trkpt lat="48.86003" lon="2.34362">
        <ele>103.2</ele>
        <time>2015-03-30T18:22:06.554Z</time>
      </trkpt>
      <trkpt lat="48.86006" lon="2.34356">
        <ele>103.4</ele>
        <time>2015-03-30T18:22:07.618Z</time>
      </trkpt>
      <trkpt lat="48.86007" lon="2.34348">
        <ele>103</ele>
        <time>2015-03-30T18:22:08.622Z</time>
      </trkpt>
      <trkpt lat="48.8601" lon="2.34335">
        <ele>103</ele>
        <time>2015-03-30T18:22:10.648Z</time>
      </trkpt>
      <trkpt lat="48.86012" lon="2.34329">
        <ele>103.2</ele>
        <time>2015-03-30T18:22:11.583Z</time>
      </trkpt>
      <trkpt lat="48.86015" lon="2.34321">
        <ele>103.6</ele>
        <time>2015-03-30T18:22:14.625Z</time>
      </trkpt>
      <trkpt lat="48.86017" lon="2.34315">
        <ele>103.7</ele>
        <time>2015-03-30T18:22:15.628Z</time>
      </trkpt>
      <trkpt lat="48.86019" lon="2.34309">
        <ele>103.6</ele>
        <time>2015-03-30T18:22:16.643Z</time>
      </trkpt>
      <trkpt lat="48.86021" lon="2.34302">
        <ele>103.5</ele>
        <time>2015-03-30T18:22:17.654Z</time>
      </trkpt>
      <trkpt lat="48.86027" lon="2.34286">
        <ele>103.5</ele>
        <time>2015-03-30T18:22:18.550Z</time>
      </trkpt>
      <trkpt lat="48.8603" lon="2.34279">
        <ele>103.5</ele>
        <time>2015-03-30T18:22:19.597Z</time>
      </trkpt>
      <trkpt lat="48.86032" lon="2.34272">
        <ele>103.7</ele>
        <time>2015-03-30T18:22:20.602Z</time>
      </trkpt>
      <trkpt lat="48.86035" lon="2.34266">
        <ele>103.8</ele>
        <time>2015-03-30T18:22:21.629Z</time>
      </trkpt>
      <trkpt lat="48.86038" lon="2.34259">
        <ele>103.8</ele>
        <time>2015-03-30T18:22:22.645Z</time>
      </trkpt>
      <trkpt lat="48.8604" lon="2.34253">
        <ele>103.9</ele>
        <time>2015-03-30T18:22:23.659Z</time>
      </trkpt>
      <trkpt lat="48.86042" lon="2.34246">
        <ele>104</ele>
        <time>2015-03-30T18:22:24.568Z</time>
      </trkpt>
      <trkpt lat="48.86045" lon="2.34239">
        <ele>104.2</ele>
        <time>2015-03-30T18:22:26.047Z</time>
      </trkpt>
      <trkpt lat="48.86047" lon="2.34232">
        <ele>104.4</ele>
        <time>2015-03-30T18:22:26.705Z</time>
      </trkpt>
      <trkpt lat="48.86049" lon="2.34225">
        <ele>104.4</ele>
        <time>2015-03-30T18:22:27.623Z</time>
      </trkpt>
      <trkpt lat="48.86051" lon="2.34218">
        <ele>104.5</ele>
        <time>2015-03-30T18:22:28.643Z</time>
      </trkpt>
      <trkpt lat="48.86053" lon="2.34211">
        <ele>104.4</ele>
        <time>2015-03-30T18:22:29.657Z</time>
      </trkpt>
      <trkpt lat="48.86056" lon="2.34205">
        <ele>104.5</ele>
        <time>2015-03-30T18:22:30.563Z</time>
      </trkpt>
      <trkpt lat="48.86058" lon="2.34199">
        <ele>104.6</ele>
        <time>2015-03-30T18:22:31.613Z</time>
      </trkpt>
      <trkpt lat="48.86062" lon="2.34195">
        <ele>104.6</ele>
        <time>2015-03-30T18:22:32.613Z</time>
      </trkpt>
      <trkpt lat="48.86065" lon="2.34189">
        <ele>104.6</ele>
        <time>2015-03-30T18:22:33.632Z</time>
      </trkpt>
      <trkpt lat="48.86068" lon="2.34183">
        <ele>104.8</ele>
        <time>2015-03-30T18:22:34.639Z</time>
      </trkpt>
      <trkpt lat="48.86071" lon="2.34177">
        <ele>105</ele>
        <time>2015-03-30T18:22:35.544Z</time>
      </trkpt>
      <trkpt lat="48.86073" lon="2.34171">
        <ele>105.3</ele>
        <time>2015-03-30T18:22:36.588Z</time>
      </trkpt>
      <trkpt lat="48.86076" lon="2.34165">
        <ele>105.5</ele>
        <time>2015-03-30T18:22:37.619Z</time>
      </trkpt>
      <trkpt lat="48.86079" lon="2.34159">
        <ele>105.7</ele>
        <time>2015-03-30T18:22:38.577Z</time>
      </trkpt>
      <trkpt lat="48.86081" lon="2.34152">
        <ele>105.6</ele>
        <time>2015-03-30T18:22:39.591Z</time>
      </trkpt>
      <trkpt lat="48.86084" lon="2.34145">
        <ele>105.6</ele>
        <time>2015-03-30T18:22:40.690Z</time>
      </trkpt>
      <trkpt lat="48.86086" lon="2.34139">
        <ele>105.8</ele>
        <time>2015-03-30T18:22:41.635Z</time>
      </trkpt>
      <trkpt lat="48.86088" lon="2.34132">
        <ele>105.9</ele>
        <time>2015-03-30T18:22:42.645Z</time>
      </trkpt>
      <trkpt lat="48.86091" lon="2.34122">
        <ele>106</ele>
        <time>2015-03-30T18:22:44.567Z</time>
      </trkpt>
      <trkpt lat="48.86091" lon="2.34115">
        <ele>105.6</ele>
        <time>2015-03-30T18:22:45.576Z</time>
      </trkpt>
      <trkpt lat="48.86091" lon="2.34104">
        <ele>104.9</ele>
        <time>2015-03-30T18:22:47.627Z</time>
      </trkpt>
      <trkpt lat="48.86091" lon="2.341">
        <ele>104.7</ele>
        <time>2015-03-30T18:22:48.639Z</time>
      </trkpt>
      <trkpt lat="48.86096" lon="2.34092">
        <ele>105.1</ele>
        <time>2015-03-30T18:22:50.615Z</time>
      </trkpt>
      <trkpt lat="48.86097" lon="2.34088">
        <ele>105.9</ele>
        <time>2015-03-30T18:22:51.629Z</time>
      </trkpt>
      <trkpt lat="48.86104" lon="2.34086">
        <ele>106.6</ele>
        <time>2015-03-30T18:22:54.626Z</time>
      </trkpt>
      <trkpt lat="48.86107" lon="2.34087">
        <ele>106.8</ele>
        <time>2015-03-30T18:22:55.663Z</time>
      </trkpt>
      <trkpt lat="48.86114" lon="2.3409">
        <ele>106.6</ele>
        <time>2015-03-30T18:22:57.578Z</time>
      </trkpt>
      <trkpt lat="48.86117" lon="2.34092">
        <ele>106.8</ele>
        <time>2015-03-30T18:22:58.597Z</time>
      </trkpt>
      <trkpt lat="48.86125" lon="2.34095">
        <ele>107</ele>
        <time>2015-03-30T18:23:00.740Z</time>
      </trkpt>
      <trkpt lat="48.86128" lon="2.34097">
        <ele>107.1</ele>
        <time>2015-03-30T18:23:01.676Z</time>
      </trkpt>
      <trkpt lat="48.86132" lon="2.341">
        <ele>107</ele>
        <time>2015-03-30T18:23:02.578Z</time>
      </trkpt>
      <trkpt lat="48.86137" lon="2.34102">
        <ele>107.1</ele>
        <time>2015-03-30T18:23:03.576Z</time>
      </trkpt>
      <trkpt lat="48.86142" lon="2.34104">
        <ele>107.2</ele>
        <time>2015-03-30T18:23:04.597Z</time>
      </trkpt>
      <trkpt lat="48.86147" lon="2.34106">
        <ele>107.4</ele>
        <time>2015-03-30T18:23:05.638Z</time>
      </trkpt>
      <trkpt lat="48.86154" lon="2.34108">
        <ele>107.8</ele>
        <time>2015-03-30T18:23:06.578Z</time>
      </trkpt>
      <trkpt lat="48.86158" lon="2.34112">
        <ele>108</ele>
        <time>2015-03-30T18:23:07.615Z</time>
      </trkpt>
      <trkpt lat="48.86162" lon="2.34115">
        <ele>107.8</ele>
        <time>2015-03-30T18:23:08.624Z</time>
      </trkpt>
      <trkpt lat="48.86166" lon="2.34119">
        <ele>107.7</ele>
        <time>2015-03-30T18:23:09.652Z</time>
      </trkpt>
      <trkpt lat="48.8617" lon="2.34122">
        <ele>107.9</ele>
        <time>2015-03-30T18:23:10.576Z</time>
      </trkpt>
      <trkpt lat="48.86174" lon="2.34125">
        <ele>107.8</ele>
        <time>2015-03-30T18:23:11.575Z</time>
      </trkpt>
      <trkpt lat="48.86178" lon="2.34129">
        <ele>107.9</ele>
        <time>2015-03-30T18:23:12.614Z</time>
      </trkpt>
      <trkpt lat="48.86183" lon="2.34132">
        <ele>107.8</ele>
        <time>2015-03-30T18:23:13.629Z</time>
      </trkpt>
      <trkpt lat="48.86188" lon="2.34135">
        <ele>108</ele>
        <time>2015-03-30T18:23:14.637Z</time>
      </trkpt>
      <trkpt lat="48.86194" lon="2.34137">
        <ele>108.1</ele>
        <time>2015-03-30T18:23:15.650Z</time>
      </trkpt>
      <trkpt lat="48.86199" lon="2.3414">
        <ele>108.2</ele>
        <time>2015-03-30T18:23:16.671Z</time>
      </trkpt>
      <trkpt lat="48.86203" lon="2.34142">
        <ele>108.1</ele>
        <time>2015-03-30T18:23:17.607Z</time>
      </trkpt>
      <trkpt lat="48.86208" lon="2.34144">
        <ele>108.3</ele>
        <time>2015-03-30T18:23:18.644Z</time>
      </trkpt>
      <trkpt lat="48.86213" lon="2.34146">
        <ele>108.3</ele>
        <time>2015-03-30T18:23:19.653Z</time>
      </trkpt>
      <trkpt lat="48.86217" lon="2.34149">
        <ele>107.9</ele>
        <time>2015-03-30T18:23:20.566Z</time>
      </trkpt>
      <trkpt lat="48.86222" lon="2.34152">
        <ele>107.9</ele>
        <time>2015-03-30T18:23:21.568Z</time>
      </trkpt>
      <trkpt lat="48.8623" lon="2.34155">
        <ele>107.7</ele>
        <time>2015-03-30T18:23:23.631Z</time>
      </trkpt>
      <trkpt lat="48.86234" lon="2.34157">
        <ele>107.5</ele>
        <time>2015-03-30T18:23:24.663Z</time>
      </trkpt>
      <trkpt lat="48.86241" lon="2.34159">
        <ele>107.3</ele>
        <time>2015-03-30T18:23:26.655Z</time>
      </trkpt>
      <trkpt lat="48.86245" lon="2.3416">
        <ele>107.2</ele>
        <time>2015-03-30T18:23:27.664Z</time>
      </trkpt>
      <trkpt lat="48.86249" lon="2.34159">
        <ele>106.9</ele>
        <time>2015-03-30T18:23:28.578Z</time>
      </trkpt>
      <trkpt lat="48.86254" lon="2.34159">
        <ele>107.3</ele>
        <time>2015-03-30T18:23:29.588Z</time>
      </trkpt>
      <trkpt lat="48.86259" lon="2.34161">
        <ele>107.2</ele>
        <time>2015-03-30T18:23:30.608Z</time>
      </trkpt>
      <trkpt lat="48.86264" lon="2.34163">
        <ele>107.3</ele>
        <time>2015-03-30T18:23:31.649Z</time>
      </trkpt>
      <trkpt lat="48.86269" lon="2.34166">
        <ele>107.6</ele>
        <time>2015-03-30T18:23:32.670Z</time>
      </trkpt>
      <trkpt lat="48.86274" lon="2.34167">
        <ele>107.7</ele>
        <time>2015-03-30T18:23:33.590Z</time>
      </trkpt>
      <trkpt lat="48.8628" lon="2.34172">
        <ele>107.7</ele>
        <time>2015-03-30T18:23:34.575Z</time>
      </trkpt>
      <trkpt lat="48.86287" lon="2.34177">
        <ele>107.6</ele>
        <time>2015-03-30T18:23:35.573Z</time>
      </trkpt>
      <trkpt lat="48.86292" lon="2.34182">
        <ele>107.3</ele>
        <time>2015-03-30T18:23:36.592Z</time>
      </trkpt>
      <trkpt lat="48.86297" lon="2.34184">
        <ele>106.9</ele>
        <time>2015-03-30T18:23:37.636Z</time>
      </trkpt>
      <trkpt lat="48.86304" lon="2.34184">
        <ele>109</ele>
        <time>2015-03-30T18:23:38.650Z</time>
      </trkpt>
      <trkpt lat="48.86309" lon="2.34186">
        <ele>109.9</ele>
        <time>2015-03-30T18:23:39.570Z</time>
      </trkpt>
      <trkpt lat="48.86314" lon="2.34188">
        <ele>109.9</ele>
        <time>2015-03-30T18:23:40.574Z</time>
      </trkpt>
      <trkpt lat="48.86318" lon="2.34191">
        <ele>109.9</ele>
        <time>2015-03-30T18:23:41.576Z</time>
      </trkpt>
      <trkpt lat="48.86323" lon="2.34193">
        <ele>109.8</ele>
        <time>2015-03-30T18:23:42.608Z</time>
      </trkpt>
      <trkpt lat="48.86327" lon="2.34196">
        <ele>110</ele>
        <time>2015-03-30T18:23:43.617Z</time>
      </trkpt>
      <trkpt lat="48.86331" lon="2.34199">
        <ele>109.7</ele>
        <time>2015-03-30T18:23:44.613Z</time>
      </trkpt>
      <trkpt lat="48.86335" lon="2.34203">
        <ele>109.5</ele>
        <time>2015-03-30T18:23:45.614Z</time>
      </trkpt>
      <trkpt lat="48.8634" lon="2.34205">
        <ele>109.5</ele>
        <time>2015-03-30T18:23:46.627Z</time>
      </trkpt>
      <trkpt lat="48.86344" lon="2.34207">
        <ele>109.2</ele>
        <time>2015-03-30T18:23:47.636Z</time>
      </trkpt>
      <trkpt lat="48.86351" lon="2.34214">
        <ele>108.4</ele>
        <time>2015-03-30T18:23:49.672Z</time>
      </trkpt>
      <trkpt lat="48.86355" lon="2.34218">
        <ele>108.2</ele>
        <time>2015-03-30T18:23:50.607Z</time>
      </trkpt>
      <trkpt lat="48.86364" lon="2.34222">
        <ele>108.5</ele>
        <time>2015-03-30T18:23:52.580Z</time>
      </trkpt>
      <trkpt lat="48.86368" lon="2.34223">
        <ele>108.8</ele>
        <time>2015-03-30T18:23:53.601Z</time>
      </trkpt>
      <trkpt lat="48.86372" lon="2.34223">
        <ele>108.8</ele>
        <time>2015-03-30T18:23:54.617Z</time>
      </trkpt>
      <trkpt lat="48.86377" lon="2.34222">
        <ele>108.8</ele>
        <time>2015-03-30T18:23:55.637Z</time>
      </trkpt>
      <trkpt lat="48.86386" lon="2.34223">
        <ele>108.8</ele>
        <time>2015-03-30T18:23:57.640Z</time>
      </trkpt>
      <trkpt lat="48.86389" lon="2.34226">
        <ele>109.1</ele>
        <time>2015-03-30T18:23:58.644Z</time>
      </trkpt>
      <trkpt lat="48.86397" lon="2.34232">
        <ele>109</ele>
        <time>2015-03-30T18:24:00.548Z</time>
      </trkpt>
      <trkpt lat="48.86402" lon="2.34234">
        <ele>108.8</ele>
        <time>2015-03-30T18:24:01.625Z</time>
      </trkpt>
      <trkpt lat="48.86407" lon="2.34236">
        <ele>108.5</ele>
        <time>2015-03-30T18:24:02.652Z</time>
      </trkpt>
      <trkpt lat="48.86412" lon="2.34239">
        <ele>108.2</ele>
        <time>2015-03-30T18:24:03.666Z</time>
      </trkpt>
      <trkpt lat="48.86418" lon="2.34241">
        <ele>108</ele>
        <time>2015-03-30T18:24:04.583Z</time>
      </trkpt>
      <trkpt lat="48.86423" lon="2.34244">
        <ele>107.8</ele>
        <time>2015-03-30T18:24:05.583Z</time>
      </trkpt>
      <trkpt lat="48.86427" lon="2.34247">
        <ele>107.7</ele>
        <time>2015-03-30T18:24:06.585Z</time>
      </trkpt>
      <trkpt lat="48.86432" lon="2.34249">
        <ele>107.6</ele>
        <time>2015-03-30T18:24:07.591Z</time>
      </trkpt>
      <trkpt lat="48.86437" lon="2.34252">
        <ele>107.7</ele>
        <time>2015-03-30T18:24:08.595Z</time>
      </trkpt>
      <trkpt lat="48.86443" lon="2.34255">
        <ele>107.9</ele>
        <time>2015-03-30T18:24:09.599Z</time>
      </trkpt>
      <trkpt lat="48.86448" lon="2.34258">
        <ele>107.9</ele>
        <time>2015-03-30T18:24:10.611Z</time>
      </trkpt>
      <trkpt lat="48.86452" lon="2.34262">
        <ele>107.7</ele>
        <time>2015-03-30T18:24:11.622Z</time>
      </trkpt>
      <trkpt lat="48.86457" lon="2.34266">
        <ele>107.5</ele>
        <time>2015-03-30T18:24:12.626Z</time>
      </trkpt>
      <trkpt lat="48.86462" lon="2.34268">
        <ele>107.5</ele>
        <time>2015-03-30T18:24:13.639Z</time>
      </trkpt>
      <trkpt lat="48.86466" lon="2.34271">
        <ele>107.2</ele>
        <time>2015-03-30T18:24:14.655Z</time>
      </trkpt>
      <trkpt lat="48.8647" lon="2.34274">
        <ele>107</ele>
        <time>2015-03-30T18:24:15.665Z</time>
      </trkpt>
      <trkpt lat="48.86474" lon="2.34277">
        <ele>106.9</ele>
        <time>2015-03-30T18:24:16.583Z</time>
      </trkpt>
      <trkpt lat="48.86479" lon="2.34279">
        <ele>106.8</ele>
        <time>2015-03-30T18:24:17.592Z</time>
      </trkpt>
      <trkpt lat="48.86487" lon="2.34284">
        <ele>106.7</ele>
        <time>2015-03-30T18:24:19.646Z</time>
      </trkpt>
      <trkpt lat="48.86491" lon="2.34286">
        <ele>106.9</ele>
        <time>2015-03-30T18:24:20.707Z</time>
      </trkpt>
      <trkpt lat="48.86496" lon="2.34288">
        <ele>107</ele>
        <time>2015-03-30T18:24:21.580Z</time>
      </trkpt>
      <trkpt lat="48.865" lon="2.34289">
        <ele>106.9</ele>
        <time>2015-03-30T18:24:22.576Z</time>
      </trkpt>
      <trkpt lat="48.86507" lon="2.34292">
        <ele>106.9</ele>
        <time>2015-03-30T18:24:24.600Z</time>
      </trkpt>
      <trkpt lat="48.8651" lon="2.34294">
        <ele>106.8</ele>
        <time>2015-03-30T18:24:25.673Z</time>
      </trkpt>
      <trkpt lat="48.86515" lon="2.34296">
        <ele>105.9</ele>
        <time>2015-03-30T18:24:28.705Z</time>
      </trkpt>
      <trkpt lat="48.86516" lon="2.34296">
        <ele>106.1</ele>
        <time>2015-03-30T18:24:29.650Z</time>
      </trkpt>
      <trkpt lat="48.86516" lon="2.34296">
        <ele>106.2</ele>
        <time>2015-03-30T18:25:05.614Z</time>
      </trkpt>
      <trkpt lat="48.86523" lon="2.34298">
        <ele>106.9</ele>
        <time>2015-03-30T18:25:06.585Z</time>
      </trkpt>
      <trkpt lat="48.86531" lon="2.34301">
        <ele>107</ele>
        <time>2015-03-30T18:25:11.668Z</time>
      </trkpt>
      <trkpt lat="48.86533" lon="2.34302">
        <ele>107.2</ele>
        <time>2015-03-30T18:25:12.709Z</time>
      </trkpt>
      <trkpt lat="48.86541" lon="2.34304">
        <ele>107.3</ele>
        <time>2015-03-30T18:25:15.645Z</time>
      </trkpt>
      <trkpt lat="48.86544" lon="2.34305">
        <ele>107.4</ele>
        <time>2015-03-30T18:25:16.603Z</time>
      </trkpt>
      <trkpt lat="48.86552" lon="2.34304">
        <ele>107.5</ele>
        <time>2015-03-30T18:25:18.591Z</time>
      </trkpt>
      <trkpt lat="48.86556" lon="2.34305">
        <ele>107.5</ele>
        <time>2015-03-30T18:25:19.642Z</time>
      </trkpt>
      <trkpt lat="48.86564" lon="2.34307">
        <ele>107.5</ele>
        <time>2015-03-30T18:25:21.595Z</time>
      </trkpt>
      <trkpt lat="48.86567" lon="2.34309">
        <ele>107.5</ele>
        <time>2015-03-30T18:25:22.598Z</time>
      </trkpt>
      <trkpt lat="48.86571" lon="2.34313">
        <ele>107.3</ele>
        <time>2015-03-30T18:25:23.608Z</time>
      </trkpt>
      <trkpt lat="48.86575" lon="2.34317">
        <ele>107.4</ele>
        <time>2015-03-30T18:25:24.626Z</time>
      </trkpt>
      <trkpt lat="48.86579" lon="2.34321">
        <ele>107.8</ele>
        <time>2015-03-30T18:25:25.659Z</time>
      </trkpt>
      <trkpt lat="48.86583" lon="2.34324">
        <ele>108</ele>
        <time>2015-03-30T18:25:26.573Z</time>
      </trkpt>
      <trkpt lat="48.86588" lon="2.34326">
        <ele>107.8</ele>
        <time>2015-03-30T18:25:27.576Z</time>
      </trkpt>
      <trkpt lat="48.86592" lon="2.34329">
        <ele>107.4</ele>
        <time>2015-03-30T18:25:28.582Z</time>
      </trkpt>
      <trkpt lat="48.866" lon="2.34335">
        <ele>107.2</ele>
        <time>2015-03-30T18:25:30.625Z</time>
      </trkpt>
      <trkpt lat="48.86604" lon="2.34337">
        <ele>107.2</ele>
        <time>2015-03-30T18:25:31.646Z</time>
      </trkpt>
      <trkpt lat="48.86608" lon="2.34339">
        <ele>107.2</ele>
        <time>2015-03-30T18:25:32.568Z</time>
      </trkpt>
      <trkpt lat="48.86612" lon="2.34342">
        <ele>107.2</ele>
        <time>2015-03-30T18:25:33.569Z</time>
      </trkpt>
      <trkpt lat="48.86619" lon="2.34349">
        <ele>107.3</ele>
        <time>2015-03-30T18:25:35.600Z</time>
      </trkpt>
      <trkpt lat="48.86623" lon="2.34351">
        <ele>107.2</ele>
        <time>2015-03-30T18:25:36.619Z</time>
      </trkpt>
      <trkpt lat="48.86629" lon="2.34357">
        <ele>107.2</ele>
        <time>2015-03-30T18:25:38.639Z</time>
      </trkpt>
      <trkpt lat="48.86631" lon="2.34359">
        <ele>107.3</ele>
        <time>2015-03-30T18:25:39.664Z</time>
      </trkpt>
      <trkpt lat="48.86636" lon="2.34364">
        <ele>107.5</ele>
        <time>2015-03-30T18:25:41.568Z</time>
      </trkpt>
      <trkpt lat="48.8664" lon="2.34364">
        <ele>107.6</ele>
        <time>2015-03-30T18:25:42.613Z</time>
      </trkpt>
      <trkpt lat="48.86646" lon="2.34367">
        <ele>107.6</ele>
        <time>2015-03-30T18:25:44.570Z</time>
      </trkpt>
      <trkpt lat="48.86649" lon="2.34369">
        <ele>107.7</ele>
        <time>2015-03-30T18:25:45.573Z</time>
      </trkpt>
      <trkpt lat="48.86655" lon="2.34373">
        <ele>107.8</ele>
        <time>2015-03-30T18:25:47.585Z</time>
      </trkpt>
      <trkpt lat="48.86661" lon="2.34376">
        <ele>108.5</ele>
        <time>2015-03-30T18:25:48.592Z</time>
      </trkpt>
      <trkpt lat="48.86669" lon="2.3438">
        <ele>108.5</ele>
        <time>2015-03-30T18:25:50.632Z</time>
      </trkpt>
      <trkpt lat="48.86673" lon="2.34381">
        <ele>108.6</ele>
        <time>2015-03-30T18:25:51.638Z</time>
      </trkpt>
      <trkpt lat="48.86681" lon="2.34384">
        <ele>108.5</ele>
        <time>2015-03-30T18:25:53.593Z</time>
      </trkpt>
      <trkpt lat="48.86685" lon="2.34385">
        <ele>108.5</ele>
        <time>2015-03-30T18:25:54.628Z</time>
      </trkpt>
      <trkpt lat="48.8669" lon="2.34385">
        <ele>108.6</ele>
        <time>2015-03-30T18:25:55.658Z</time>
      </trkpt>
      <trkpt lat="48.86698" lon="2.34381">
        <ele>108.5</ele>
        <time>2015-03-30T18:25:56.674Z</time>
      </trkpt>
      <trkpt lat="48.86703" lon="2.3438">
        <ele>109</ele>
        <time>2015-03-30T18:25:57.559Z</time>
      </trkpt>
      <trkpt lat="48.86707" lon="2.34381">
        <ele>109.6</ele>
        <time>2015-03-30T18:25:58.574Z</time>
      </trkpt>
      <trkpt lat="48.86715" lon="2.34384">
        <ele>110.4</ele>
        <time>2015-03-30T18:26:00.590Z</time>
      </trkpt>
      <trkpt lat="48.86718" lon="2.34386">
        <ele>111</ele>
        <time>2015-03-30T18:26:01.630Z</time>
      </trkpt>
      <trkpt lat="48.86724" lon="2.34387">
        <ele>111.4</ele>
        <time>2015-03-30T18:26:03.650Z</time>
      </trkpt>
      <trkpt lat="48.86727" lon="2.34388">
        <ele>111.4</ele>
        <time>2015-03-30T18:26:04.587Z</time>
      </trkpt>
      <trkpt lat="48.86735" lon="2.34387">
        <ele>111.7</ele>
        <time>2015-03-30T18:26:06.575Z</time>
      </trkpt>
      <trkpt lat="48.86739" lon="2.34387">
        <ele>111.8</ele>
        <time>2015-03-30T18:26:07.627Z</time>
      </trkpt>
      <trkpt lat="48.86744" lon="2.34387">
        <ele>111.9</ele>
        <time>2015-03-30T18:26:08.572Z</time>
      </trkpt>
      <trkpt lat="48.8675" lon="2.34387">
        <ele>111.8</ele>
        <time>2015-03-30T18:26:09.572Z</time>
      </trkpt>
      <trkpt lat="48.86756" lon="2.34387">
        <ele>111.8</ele>
        <time>2015-03-30T18:26:10.588Z</time>
      </trkpt>
      <trkpt lat="48.86762" lon="2.34385">
        <ele>111.8</ele>
        <time>2015-03-30T18:26:11.592Z</time>
      </trkpt>
      <trkpt lat="48.86767" lon="2.34384">
        <ele>111.8</ele>
        <time>2015-03-30T18:26:12.598Z</time>
      </trkpt>
      <trkpt lat="48.86772" lon="2.34383">
        <ele>111.9</ele>
        <time>2015-03-30T18:26:13.606Z</time>
      </trkpt>
      <trkpt lat="48.86777" lon="2.3438">
        <ele>111.9</ele>
        <time>2015-03-30T18:26:14.619Z</time>
      </trkpt>
      <trkpt lat="48.86784" lon="2.34375">
        <ele>111.7</ele>
        <time>2015-03-30T18:26:15.622Z</time>
      </trkpt>
      <trkpt lat="48.86796" lon="2.3436">
        <ele>110.9</ele>
        <time>2015-03-30T18:26:16.630Z</time>
      </trkpt>
      <trkpt lat="48.86803" lon="2.34352">
        <ele>110.9</ele>
        <time>2015-03-30T18:26:17.641Z</time>
      </trkpt>
      <trkpt lat="48.86807" lon="2.34349">
        <ele>111</ele>
        <time>2015-03-30T18:26:18.546Z</time>
      </trkpt>
      <trkpt lat="48.86816" lon="2.34345">
        <ele>111.1</ele>
        <time>2015-03-30T18:26:20.620Z</time>
      </trkpt>
      <trkpt lat="48.86819" lon="2.34344">
        <ele>111.3</ele>
        <time>2015-03-30T18:26:21.588Z</time>
      </trkpt>
      <trkpt lat="48.86827" lon="2.34341">
        <ele>111.5</ele>
        <time>2015-03-30T18:26:23.620Z</time>
      </trkpt>
      <trkpt lat="48.86831" lon="2.34341">
        <ele>111.6</ele>
        <time>2015-03-30T18:26:24.544Z</time>
      </trkpt>
      <trkpt lat="48.86836" lon="2.34341">
        <ele>111.6</ele>
        <time>2015-03-30T18:26:25.609Z</time>
      </trkpt>
      <trkpt lat="48.86841" lon="2.34339">
        <ele>111.7</ele>
        <time>2015-03-30T18:26:26.629Z</time>
      </trkpt>
      <trkpt lat="48.86845" lon="2.34337">
        <ele>111.5</ele>
        <time>2015-03-30T18:26:27.643Z</time>
      </trkpt>
      <trkpt lat="48.8685" lon="2.34334">
        <ele>111.3</ele>
        <time>2015-03-30T18:26:28.578Z</time>
      </trkpt>
      <trkpt lat="48.86855" lon="2.34332">
        <ele>111.2</ele>
        <time>2015-03-30T18:26:29.610Z</time>
      </trkpt>
      <trkpt lat="48.8686" lon="2.3433">
        <ele>111.1</ele>
        <time>2015-03-30T18:26:30.621Z</time>
      </trkpt>
      <trkpt lat="48.86866" lon="2.34329">
        <ele>111.5</ele>
        <time>2015-03-30T18:26:32.563Z</time>
      </trkpt>
      <trkpt lat="48.86869" lon="2.34328">
        <ele>111.6</ele>
        <time>2015-03-30T18:26:33.583Z</time>
      </trkpt>
      <trkpt lat="48.86876" lon="2.34327">
        <ele>111.8</ele>
        <time>2015-03-30T18:26:35.595Z</time>
      </trkpt>
      <trkpt lat="48.8688" lon="2.34325">
        <ele>112</ele>
        <time>2015-03-30T18:26:36.613Z</time>
      </trkpt>
      <trkpt lat="48.86884" lon="2.34324">
        <ele>112.1</ele>
        <time>2015-03-30T18:26:37.667Z</time>
      </trkpt>
      <trkpt lat="48.86889" lon="2.34323">
        <ele>112.1</ele>
        <time>2015-03-30T18:26:38.544Z</time>
      </trkpt>
      <trkpt lat="48.86894" lon="2.34322">
        <ele>112.1</ele>
        <time>2015-03-30T18:26:39.592Z</time>
      </trkpt>
      <trkpt lat="48.869" lon="2.34321">
        <ele>112.3</ele>
        <time>2015-03-30T18:26:40.607Z</time>
      </trkpt>
      <trkpt lat="48.86904" lon="2.3432">
        <ele>112.3</ele>
        <time>2015-03-30T18:26:41.616Z</time>
      </trkpt>
      <trkpt lat="48.86909" lon="2.3432">
        <ele>112.2</ele>
        <time>2015-03-30T18:26:42.653Z</time>
      </trkpt>
      <trkpt lat="48.86915" lon="2.34321">
        <ele>112.3</ele>
        <time>2015-03-30T18:26:43.670Z</time>
      </trkpt>
      <trkpt lat="48.8692" lon="2.34321">
        <ele>112.2</ele>
        <time>2015-03-30T18:26:44.557Z</time>
      </trkpt>
      <trkpt lat="48.86929" lon="2.34319">
        <ele>112.3</ele>
        <time>2015-03-30T18:26:47.339Z</time>
      </trkpt>
      <trkpt lat="48.86934" lon="2.34317">
        <ele>112.4</ele>
        <time>2015-03-30T18:26:47.598Z</time>
      </trkpt>
      <trkpt lat="48.8694" lon="2.34316">
        <ele>112.5</ele>
        <time>2015-03-30T18:26:48.605Z</time>
      </trkpt>
      <trkpt lat="48.86946" lon="2.34313">
        <ele>112.5</ele>
        <time>2015-03-30T18:26:49.618Z</time>
      </trkpt>
      <trkpt lat="48.8695" lon="2.3431">
        <ele>112.6</ele>
        <time>2015-03-30T18:26:50.631Z</time>
      </trkpt>
      <trkpt lat="48.86955" lon="2.34308">
        <ele>112.6</ele>
        <time>2015-03-30T18:26:51.646Z</time>
      </trkpt>
      <trkpt lat="48.86961" lon="2.34308">
        <ele>112.8</ele>
        <time>2015-03-30T18:26:53.563Z</time>
      </trkpt>
      <trkpt lat="48.86965" lon="2.34306">
        <ele>112.9</ele>
        <time>2015-03-30T18:26:54.584Z</time>
      </trkpt>
      <trkpt lat="48.8697" lon="2.34306">
        <ele>113.1</ele>
        <time>2015-03-30T18:26:55.618Z</time>
      </trkpt>
      <trkpt lat="48.86979" lon="2.34299">
        <ele>113.1</ele>
        <time>2015-03-30T18:26:56.655Z</time>
      </trkpt>
      <trkpt lat="48.86991" lon="2.34288">
        <ele>113.1</ele>
        <time>2015-03-30T18:26:57.564Z</time>
      </trkpt>
      <trkpt lat="48.86999" lon="2.34282">
        <ele>113.1</ele>
        <time>2015-03-30T18:26:58.574Z</time>
      </trkpt>
      <trkpt lat="48.87005" lon="2.3428">
        <ele>113.2</ele>
        <time>2015-03-30T18:26:59.596Z</time>
      </trkpt>
      <trkpt lat="48.87014" lon="2.34282">
        <ele>113.3</ele>
        <time>2015-03-30T18:27:01.634Z</time>
      </trkpt>
      <trkpt lat="48.87016" lon="2.34282">
        <ele>113.1</ele>
        <time>2015-03-30T18:27:02.646Z</time>
      </trkpt>
      <trkpt lat="48.87024" lon="2.34284">
        <ele>113.5</ele>
        <time>2015-03-30T18:27:04.568Z</time>
      </trkpt>
      <trkpt lat="48.87029" lon="2.34285">
        <ele>113.7</ele>
        <time>2015-03-30T18:27:05.610Z</time>
      </trkpt>
      <trkpt lat="48.87035" lon="2.34286">
        <ele>113.9</ele>
        <time>2015-03-30T18:27:06.627Z</time>
      </trkpt>
      <trkpt lat="48.8704" lon="2.34287">
        <ele>114</ele>
        <time>2015-03-30T18:27:07.645Z</time>
      </trkpt>
      <trkpt lat="48.87045" lon="2.34289">
        <ele>114.3</ele>
        <time>2015-03-30T18:27:08.535Z</time>
      </trkpt>
      <trkpt lat="48.8705" lon="2.34291">
        <ele>114.4</ele>
        <time>2015-03-30T18:27:09.569Z</time>
      </trkpt>
      <trkpt lat="48.87056" lon="2.34294">
        <ele>114.5</ele>
        <time>2015-03-30T18:27:10.561Z</time>
      </trkpt>
      <trkpt lat="48.8706" lon="2.34296">
        <ele>114.4</ele>
        <time>2015-03-30T18:27:11.572Z</time>
      </trkpt>
      <trkpt lat="48.87065" lon="2.34299">
        <ele>114.6</ele>
        <time>2015-03-30T18:27:12.589Z</time>
      </trkpt>
      <trkpt lat="48.87069" lon="2.343">
        <ele>114.8</ele>
        <time>2015-03-30T18:27:13.602Z</time>
      </trkpt>
      <trkpt lat="48.87074" lon="2.34301">
        <ele>115</ele>
        <time>2015-03-30T18:27:14.617Z</time>
      </trkpt>
      <trkpt lat="48.8708" lon="2.34302">
        <ele>115.1</ele>
        <time>2015-03-30T18:27:15.625Z</time>
      </trkpt>
      <trkpt lat="48.87088" lon="2.34304">
        <ele>115.3</ele>
        <time>2015-03-30T18:27:17.562Z</time>
      </trkpt>
      <trkpt lat="48.87092" lon="2.34305">
        <ele>115.5</ele>
        <time>2015-03-30T18:27:18.533Z</time>
      </trkpt>
      <trkpt lat="48.87097" lon="2.34306">
        <ele>115.6</ele>
        <time>2015-03-30T18:27:19.597Z</time>
      </trkpt>
      <trkpt lat="48.87102" lon="2.34306">
        <ele>115.8</ele>
        <time>2015-03-30T18:27:20.610Z</time>
      </trkpt>
      <trkpt lat="48.87107" lon="2.34308">
        <ele>115.9</ele>
        <time>2015-03-30T18:27:21.628Z</time>
      </trkpt>
      <trkpt lat="48.87112" lon="2.34309">
        <ele>115.9</ele>
        <time>2015-03-30T18:27:22.641Z</time>
      </trkpt>
      <trkpt lat="48.87116" lon="2.34309">
        <ele>115.9</ele>
        <time>2015-03-30T18:27:23.557Z</time>
      </trkpt>
      <trkpt lat="48.87121" lon="2.34309">
        <ele>115.6</ele>
        <time>2015-03-30T18:27:24.552Z</time>
      </trkpt>
      <trkpt lat="48.87132" lon="2.34303">
        <ele>114.4</ele>
        <time>2015-03-30T18:27:25.587Z</time>
      </trkpt>
      <trkpt lat="48.87136" lon="2.34302">
        <ele>114.3</ele>
        <time>2015-03-30T18:27:26.600Z</time>
      </trkpt>
      <trkpt lat="48.87142" lon="2.34301">
        <ele>114.1</ele>
        <time>2015-03-30T18:27:27.618Z</time>
      </trkpt>
      <trkpt lat="48.8715" lon="2.343">
        <ele>113.7</ele>
        <time>2015-03-30T18:27:31.582Z</time>
      </trkpt>
      <trkpt lat="48.87153" lon="2.34301">
        <ele>113.4</ele>
        <time>2015-03-30T18:27:32.605Z</time>
      </trkpt>
      <trkpt lat="48.87157" lon="2.34304">
        <ele>113.3</ele>
        <time>2015-03-30T18:27:34.548Z</time>
      </trkpt>
      <trkpt lat="48.87161" lon="2.34306">
        <ele>113.2</ele>
        <time>2015-03-30T18:27:35.546Z</time>
      </trkpt>
      <trkpt lat="48.87169" lon="2.34311">
        <ele>111.9</ele>
        <time>2015-03-30T18:27:39.617Z</time>
      </trkpt>
      <trkpt lat="48.87171" lon="2.34311">
        <ele>111.5</ele>
        <time>2015-03-30T18:27:40.632Z</time>
      </trkpt>
      <trkpt lat="48.87178" lon="2.34314">
        <ele>110.3</ele>
        <time>2015-03-30T18:27:43.579Z</time>
      </trkpt>
      <trkpt lat="48.87182" lon="2.34315">
        <ele>110.3</ele>
        <time>2015-03-30T18:27:44.626Z</time>
      </trkpt>
      <trkpt lat="48.8719" lon="2.34318">
        <ele>110.7</ele>
        <time>2015-03-30T18:27:46.564Z</time>
      </trkpt>
      <trkpt lat="48.87194" lon="2.34318">
        <ele>110.7</ele>
        <time>2015-03-30T18:27:47.567Z</time>
      </trkpt>
      <trkpt lat="48.87198" lon="2.34318">
        <ele>110.8</ele>
        <time>2015-03-30T18:27:48.570Z</time>
      </trkpt>
      <trkpt lat="48.87203" lon="2.34318">
        <ele>111.1</ele>
        <time>2015-03-30T18:27:49.591Z</time>
      </trkpt>
      <trkpt lat="48.87208" lon="2.34317">
        <ele>111.1</ele>
        <time>2015-03-30T18:27:50.592Z</time>
      </trkpt>
      <trkpt lat="48.87214" lon="2.34317">
        <ele>111.3</ele>
        <time>2015-03-30T18:27:51.610Z</time>
      </trkpt>
      <trkpt lat="48.87218" lon="2.34317">
        <ele>111.4</ele>
        <time>2015-03-30T18:27:52.637Z</time>
      </trkpt>
      <trkpt lat="48.87223" lon="2.34317">
        <ele>111.5</ele>
        <time>2015-03-30T18:27:53.646Z</time>
      </trkpt>
      <trkpt lat="48.87228" lon="2.34317">
        <ele>111.5</ele>
        <time>2015-03-30T18:27:54.529Z</time>
      </trkpt>
      <trkpt lat="48.87233" lon="2.34317">
        <ele>111.5</ele>
        <time>2015-03-30T18:27:55.579Z</time>
      </trkpt>
      <trkpt lat="48.8724" lon="2.34317">
        <ele>111.1</ele>
        <time>2015-03-30T18:27:57.598Z</time>
      </trkpt>
      <trkpt lat="48.87245" lon="2.34316">
        <ele>111.2</ele>
        <time>2015-03-30T18:27:58.598Z</time>
      </trkpt>
      <trkpt lat="48.8725" lon="2.34315">
        <ele>111</ele>
        <time>2015-03-30T18:27:59.623Z</time>
      </trkpt>
      <trkpt lat="48.87255" lon="2.34315">
        <ele>111.1</ele>
        <time>2015-03-30T18:28:00.628Z</time>
      </trkpt>
      <trkpt lat="48.8726" lon="2.34314">
        <ele>110.9</ele>
        <time>2015-03-30T18:28:01.643Z</time>
      </trkpt>
      <trkpt lat="48.87265" lon="2.34314">
        <ele>110.8</ele>
        <time>2015-03-30T18:28:02.522Z</time>
      </trkpt>
      <trkpt lat="48.87271" lon="2.34313">
        <ele>110.8</ele>
        <time>2015-03-30T18:28:03.550Z</time>
      </trkpt>
      <trkpt lat="48.87277" lon="2.34312">
        <ele>110.8</ele>
        <time>2015-03-30T18:28:04.546Z</time>
      </trkpt>
      <trkpt lat="48.87284" lon="2.34311">
        <ele>110.9</ele>
        <time>2015-03-30T18:28:05.574Z</time>
      </trkpt>
      <trkpt lat="48.87293" lon="2.3431">
        <ele>110.7</ele>
        <time>2015-03-30T18:28:06.582Z</time>
      </trkpt>
      <trkpt lat="48.87298" lon="2.34311">
        <ele>110.7</ele>
        <time>2015-03-30T18:28:07.583Z</time>
      </trkpt>
      <trkpt lat="48.87304" lon="2.34312">
        <ele>110.5</ele>
        <time>2015-03-30T18:28:08.589Z</time>
      </trkpt>
      <trkpt lat="48.87312" lon="2.34313">
        <ele>110.5</ele>
        <time>2015-03-30T18:28:10.620Z</time>
      </trkpt>
      <trkpt lat="48.87316" lon="2.34311">
        <ele>110.5</ele>
        <time>2015-03-30T18:28:11.624Z</time>
      </trkpt>
      <trkpt lat="48.87322" lon="2.34305">
        <ele>110.2</ele>
        <time>2015-03-30T18:28:13.642Z</time>
      </trkpt>
      <trkpt lat="48.87326" lon="2.34302">
        <ele>110.2</ele>
        <time>2015-03-30T18:28:14.550Z</time>
      </trkpt>
      <trkpt lat="48.87333" lon="2.34297">
        <ele>110</ele>
        <time>2015-03-30T18:28:16.565Z</time>
      </trkpt>
      <trkpt lat="48.87338" lon="2.34295">
        <ele>109.8</ele>
        <time>2015-03-30T18:28:17.593Z</time>
      </trkpt>
      <trkpt lat="48.87345" lon="2.34291">
        <ele>109.3</ele>
        <time>2015-03-30T18:28:18.606Z</time>
      </trkpt>
      <trkpt lat="48.87352" lon="2.34288">
        <ele>108.7</ele>
        <time>2015-03-30T18:28:19.622Z</time>
      </trkpt>
      <trkpt lat="48.87359" lon="2.34284">
        <ele>108.2</ele>
        <time>2015-03-30T18:28:20.626Z</time>
      </trkpt>
      <trkpt lat="48.87366" lon="2.34281">
        <ele>107.7</ele>
        <time>2015-03-30T18:28:21.638Z</time>
      </trkpt>
      <trkpt lat="48.87372" lon="2.34279">
        <ele>107.6</ele>
        <time>2015-03-30T18:28:22.552Z</time>
      </trkpt>
      <trkpt lat="48.87378" lon="2.34276">
        <ele>107.4</ele>
        <time>2015-03-30T18:28:23.555Z</time>
      </trkpt>
      <trkpt lat="48.87383" lon="2.34274">
        <ele>107.2</ele>
        <time>2015-03-30T18:28:24.560Z</time>
      </trkpt>
      <trkpt lat="48.87387" lon="2.34271">
        <ele>106.9</ele>
        <time>2015-03-30T18:28:25.595Z</time>
      </trkpt>
      <trkpt lat="48.87393" lon="2.34266">
        <ele>106.5</ele>
        <time>2015-03-30T18:28:28.602Z</time>
      </trkpt>
      <trkpt lat="48.87395" lon="2.34264">
        <ele>106.3</ele>
        <time>2015-03-30T18:28:29.584Z</time>
      </trkpt>
      <trkpt lat="48.874" lon="2.34261">
        <ele>105.6</ele>
        <time>2015-03-30T18:28:34.546Z</time>
      </trkpt>
      <trkpt lat="48.87404" lon="2.34257">
        <ele>104.9</ele>
        <time>2015-03-30T18:28:35.595Z</time>
      </trkpt>
      <trkpt lat="48.8741" lon="2.34248">
        <ele>105.9</ele>
        <time>2015-03-30T18:28:38.629Z</time>
      </trkpt>
      <trkpt lat="48.87413" lon="2.34245">
        <ele>106.2</ele>
        <time>2015-03-30T18:28:39.638Z</time>
      </trkpt>
      <trkpt lat="48.87418" lon="2.3424">
        <ele>106.3</ele>
        <time>2015-03-30T18:28:41.588Z</time>
      </trkpt>
      <trkpt lat="48.87422" lon="2.34238">
        <ele>106.3</ele>
        <time>2015-03-30T18:28:42.613Z</time>
      </trkpt>
      <trkpt lat="48.87427" lon="2.34235">
        <ele>106.4</ele>
        <time>2015-03-30T18:28:44.641Z</time>
      </trkpt>
      <trkpt lat="48.8743" lon="2.34233">
        <ele>106.3</ele>
        <time>2015-03-30T18:28:45.589Z</time>
      </trkpt>
      <trkpt lat="48.87437" lon="2.34227">
        <ele>106.3</ele>
        <time>2015-03-30T18:28:47.613Z</time>
      </trkpt>
      <trkpt lat="48.87294" lon="2.34268">
        <ele>106.3</ele>
        <time>2015-03-30T18:28:48.624Z</time>
      </trkpt>
      <trkpt lat="48.87359" lon="2.34247">
        <ele>106.2</ele>
        <time>2015-03-30T18:28:49.656Z</time>
      </trkpt>
      <trkpt lat="48.87402" lon="2.34231">
        <ele>106</ele>
        <time>2015-03-30T18:28:50.651Z</time>
      </trkpt>
      <trkpt lat="48.87423" lon="2.34223">
        <ele>105.8</ele>
        <time>2015-03-30T18:28:51.550Z</time>
      </trkpt>
      <trkpt lat="48.87457" lon="2.3421">
        <ele>105.7</ele>
        <time>2015-03-30T18:28:52.595Z</time>
      </trkpt>
      <trkpt lat="48.87465" lon="2.34205">
        <ele>105.3</ele>
        <time>2015-03-30T18:28:54.700Z</time>
      </trkpt>
      <trkpt lat="48.87469" lon="2.34202">
        <ele>105.1</ele>
        <time>2015-03-30T18:28:55.719Z</time>
      </trkpt>
      <trkpt lat="48.87473" lon="2.34199">
        <ele>105</ele>
        <time>2015-03-30T18:28:56.759Z</time>
      </trkpt>
      <trkpt lat="48.87477" lon="2.34196">
        <ele>105</ele>
        <time>2015-03-30T18:28:57.643Z</time>
      </trkpt>
      <trkpt lat="48.87481" lon="2.34193">
        <ele>104.8</ele>
        <time>2015-03-30T18:28:58.651Z</time>
      </trkpt>
      <trkpt lat="48.87485" lon="2.34189">
        <ele>104.7</ele>
        <time>2015-03-30T18:28:59.590Z</time>
      </trkpt>
      <trkpt lat="48.87492" lon="2.34183">
        <ele>104.6</ele>
        <time>2015-03-30T18:29:01.649Z</time>
      </trkpt>
      <trkpt lat="48.87496" lon="2.34179">
        <ele>104.5</ele>
        <time>2015-03-30T18:29:02.651Z</time>
      </trkpt>
      <trkpt lat="48.87503" lon="2.34172">
        <ele>104.4</ele>
        <time>2015-03-30T18:29:04.591Z</time>
      </trkpt>
      <trkpt lat="48.87507" lon="2.34169">
        <ele>104.3</ele>
        <time>2015-03-30T18:29:05.613Z</time>
      </trkpt>
      <trkpt lat="48.87514" lon="2.34163">
        <ele>104.1</ele>
        <time>2015-03-30T18:29:07.671Z</time>
      </trkpt>
      <trkpt lat="48.87517" lon="2.3416">
        <ele>104.1</ele>
        <time>2015-03-30T18:29:08.583Z</time>
      </trkpt>
      <trkpt lat="48.87525" lon="2.34154">
        <ele>104</ele>
        <time>2015-03-30T18:29:10.605Z</time>
      </trkpt>
      <trkpt lat="48.87529" lon="2.34153">
        <ele>103.9</ele>
        <time>2015-03-30T18:29:11.623Z</time>
      </trkpt>
      <trkpt lat="48.87534" lon="2.34142">
        <ele>102</ele>
        <time>2015-03-30T18:29:14.596Z</time>
      </trkpt>
      <trkpt lat="48.87532" lon="2.34134">
        <ele>101.4</ele>
        <time>2015-03-30T18:29:15.559Z</time>
      </trkpt>
      <trkpt lat="48.87533" lon="2.34122">
        <ele>100.5</ele>
        <time>2015-03-30T18:29:17.594Z</time>
      </trkpt>
      <trkpt lat="48.87542" lon="2.34113">
        <ele>100.6</ele>
        <time>2015-03-30T18:29:20.829Z</time>
      </trkpt>
      <trkpt lat="48.87546" lon="2.34109">
        <ele>100.5</ele>
        <time>2015-03-30T18:29:21.616Z</time>
      </trkpt>
      <trkpt lat="48.87549" lon="2.34105">
        <ele>100.4</ele>
        <time>2015-03-30T18:29:22.630Z</time>
      </trkpt>
      <trkpt lat="48.87553" lon="2.34101">
        <ele>100.4</ele>
        <time>2015-03-30T18:29:23.637Z</time>
      </trkpt>
      <trkpt lat="48.87558" lon="2.34098">
        <ele>100.3</ele>
        <time>2015-03-30T18:29:24.777Z</time>
      </trkpt>
      <trkpt lat="48.87563" lon="2.34095">
        <ele>100.2</ele>
        <time>2015-03-30T18:29:25.615Z</time>
      </trkpt>
      <trkpt lat="48.87568" lon="2.34093">
        <ele>100.1</ele>
        <time>2015-03-30T18:29:26.626Z</time>
      </trkpt>
      <trkpt lat="48.87573" lon="2.34092">
        <ele>100.2</ele>
        <time>2015-03-30T18:29:27.644Z</time>
      </trkpt>
      <trkpt lat="48.87578" lon="2.34089">
        <ele>100.1</ele>
        <time>2015-03-30T18:29:28.671Z</time>
      </trkpt>
      <trkpt lat="48.87584" lon="2.34088">
        <ele>100.1</ele>
        <time>2015-03-30T18:29:29.578Z</time>
      </trkpt>
      <trkpt lat="48.87588" lon="2.34087">
        <ele>100</ele>
        <time>2015-03-30T18:29:30.588Z</time>
      </trkpt>
      <trkpt lat="48.87592" lon="2.3408">
        <ele>100.2</ele>
        <time>2015-03-30T18:29:32.645Z</time>
      </trkpt>
      <trkpt lat="48.87593" lon="2.34074">
        <ele>100.4</ele>
        <time>2015-03-30T18:29:33.658Z</time>
      </trkpt>
      <trkpt lat="48.8759" lon="2.34065">
        <ele>100.9</ele>
        <time>2015-03-30T18:29:35.585Z</time>
      </trkpt>
      <trkpt lat="48.87588" lon="2.34061">
        <ele>101.4</ele>
        <time>2015-03-30T18:29:36.610Z</time>
      </trkpt>
      <trkpt lat="48.87583" lon="2.34052">
        <ele>100.9</ele>
        <time>2015-03-30T18:29:44.640Z</time>
      </trkpt>
      <trkpt lat="48.87584" lon="2.34049">
        <ele>100.8</ele>
        <time>2015-03-30T18:29:45.661Z</time>
      </trkpt>
      <trkpt lat="48.87588" lon="2.34043">
        <ele>103.3</ele>
        <time>2015-03-30T18:29:50.570Z</time>
      </trkpt>
      <trkpt lat="48.87588" lon="2.34042">
        <ele>103.6</ele>
        <time>2015-03-30T18:29:51.642Z</time>
      </trkpt>
      <trkpt lat="48.87588" lon="2.34042">
        <ele>103.5</ele>
        <time>2015-03-30T18:29:54.649Z</time>
      </trkpt>
      <trkpt lat="48.87588" lon="2.34038">
        <ele>104.3</ele>
        <time>2015-03-30T18:29:55.670Z</time>
      </trkpt>
      <trkpt lat="48.87594" lon="2.34032">
        <ele>104.5</ele>
        <time>2015-03-30T18:29:58.718Z</time>
      </trkpt>
      <trkpt lat="48.87597" lon="2.34029">
        <ele>104.2</ele>
        <time>2015-03-30T18:29:59.603Z</time>
      </trkpt>
      <trkpt lat="48.87601" lon="2.34021">
        <ele>102.3</ele>
        <time>2015-03-30T18:30:02.566Z</time>
      </trkpt>
      <trkpt lat="48.87603" lon="2.34018">
        <ele>102.1</ele>
        <time>2015-03-30T18:30:03.578Z</time>
      </trkpt>
      <trkpt lat="48.87607" lon="2.3401">
        <ele>101.7</ele>
        <time>2015-03-30T18:30:06.724Z</time>
      </trkpt>
      <trkpt lat="48.8761" lon="2.34006">
        <ele>102.2</ele>
        <time>2015-03-30T18:30:07.699Z</time>
      </trkpt>
      <trkpt lat="48.87617" lon="2.34002">
        <ele>102.1</ele>
        <time>2015-03-30T18:30:09.555Z</time>
      </trkpt>
      <trkpt lat="48.87621" lon="2.34001">
        <ele>102.1</ele>
        <time>2015-03-30T18:30:10.596Z</time>
      </trkpt>
      <trkpt lat="48.87626" lon="2.33998">
        <ele>102</ele>
        <time>2015-03-30T18:30:11.619Z</time>
      </trkpt>
      <trkpt lat="48.8763" lon="2.33997">
        <ele>102</ele>
        <time>2015-03-30T18:30:12.628Z</time>
      </trkpt>
      <trkpt lat="48.87638" lon="2.33993">
        <ele>102.1</ele>
        <time>2015-03-30T18:30:14.649Z</time>
      </trkpt>
      <trkpt lat="48.87642" lon="2.33989">
        <ele>102.2</ele>
        <time>2015-03-30T18:30:15.563Z</time>
      </trkpt>
      <trkpt lat="48.87646" lon="2.33986">
        <ele>102.1</ele>
        <time>2015-03-30T18:30:16.579Z</time>
      </trkpt>
      <trkpt lat="48.8765" lon="2.33983">
        <ele>102.1</ele>
        <time>2015-03-30T18:30:17.577Z</time>
      </trkpt>
      <trkpt lat="48.87658" lon="2.33976">
        <ele>102.1</ele>
        <time>2015-03-30T18:30:19.617Z</time>
      </trkpt>
      <trkpt lat="48.87662" lon="2.33972">
        <ele>102</ele>
        <time>2015-03-30T18:30:20.620Z</time>
      </trkpt>
      <trkpt lat="48.87666" lon="2.33966">
        <ele>102.2</ele>
        <time>2015-03-30T18:30:21.654Z</time>
      </trkpt>
      <trkpt lat="48.87669" lon="2.33959">
        <ele>102.5</ele>
        <time>2015-03-30T18:30:22.664Z</time>
      </trkpt>
      <trkpt lat="48.87672" lon="2.33953">
        <ele>102.8</ele>
        <time>2015-03-30T18:30:23.570Z</time>
      </trkpt>
      <trkpt lat="48.87673" lon="2.33947">
        <ele>103</ele>
        <time>2015-03-30T18:30:24.568Z</time>
      </trkpt>
      <trkpt lat="48.87676" lon="2.33934">
        <ele>103</ele>
        <time>2015-03-30T18:30:26.603Z</time>
      </trkpt>
      <trkpt lat="48.87678" lon="2.33927">
        <ele>102.8</ele>
        <time>2015-03-30T18:30:27.623Z</time>
      </trkpt>
      <trkpt lat="48.87666" lon="2.33943">
        <ele>102.7</ele>
        <time>2015-03-30T18:30:28.628Z</time>
      </trkpt>
      <trkpt lat="48.87669" lon="2.33938">
        <ele>102.8</ele>
        <time>2015-03-30T18:30:29.643Z</time>
      </trkpt>
      <trkpt lat="48.87672" lon="2.33932">
        <ele>102.8</ele>
        <time>2015-03-30T18:30:30.557Z</time>
      </trkpt>
      <trkpt lat="48.87674" lon="2.33925">
        <ele>102.8</ele>
        <time>2015-03-30T18:30:31.666Z</time>
      </trkpt>
      <trkpt lat="48.87676" lon="2.33918">
        <ele>102.7</ele>
        <time>2015-03-30T18:30:32.579Z</time>
      </trkpt>
      <trkpt lat="48.87678" lon="2.33911">
        <ele>102.8</ele>
        <time>2015-03-30T18:30:34.515Z</time>
      </trkpt>
      <trkpt lat="48.8768" lon="2.33903">
        <ele>103.3</ele>
        <time>2015-03-30T18:30:34.607Z</time>
      </trkpt>
      <trkpt lat="48.87682" lon="2.33897">
        <ele>103.3</ele>
        <time>2015-03-30T18:30:35.602Z</time>
      </trkpt>
      <trkpt lat="48.87684" lon="2.33888">
        <ele>103.4</ele>
        <time>2015-03-30T18:30:36.609Z</time>
      </trkpt>
      <trkpt lat="48.87686" lon="2.33876">
        <ele>103.4</ele>
        <time>2015-03-30T18:30:39.597Z</time>
      </trkpt>
      <trkpt lat="48.87687" lon="2.33868">
        <ele>103.3</ele>
        <time>2015-03-30T18:30:39.640Z</time>
      </trkpt>
      <trkpt lat="48.87689" lon="2.33855">
        <ele>103</ele>
        <time>2015-03-30T18:30:41.592Z</time>
      </trkpt>
      <trkpt lat="48.87689" lon="2.33849">
        <ele>102.9</ele>
        <time>2015-03-30T18:30:42.591Z</time>
      </trkpt>
      <trkpt lat="48.87689" lon="2.33842">
        <ele>102.8</ele>
        <time>2015-03-30T18:30:43.604Z</time>
      </trkpt>
      <trkpt lat="48.8769" lon="2.33835">
        <ele>102.8</ele>
        <time>2015-03-30T18:30:44.647Z</time>
      </trkpt>
      <trkpt lat="48.8769" lon="2.33835">
        <ele>102.8</ele>
        <time>2015-03-30T18:30:44.987Z</time>
      </trkpt>
      <trkpt lat="48.87688" lon="2.33812">
        <ele>102.7</ele>
        <time>2015-03-30T18:30:45.594Z</time>
      </trkpt>
      <trkpt lat="48.87687" lon="2.33803">
        <ele>102.6</ele>
        <time>2015-03-30T18:30:46.589Z</time>
      </trkpt>
      <trkpt lat="48.87686" lon="2.33794">
        <ele>102.4</ele>
        <time>2015-03-30T18:30:47.603Z</time>
      </trkpt>
      <trkpt lat="48.87685" lon="2.33786">
        <ele>102.4</ele>
        <time>2015-03-30T18:30:48.679Z</time>
      </trkpt>
      <trkpt lat="48.87685" lon="2.33778">
        <ele>102.4</ele>
        <time>2015-03-30T18:30:49.582Z</time>
      </trkpt>
      <trkpt lat="48.87684" lon="2.3377">
        <ele>102.6</ele>
        <time>2015-03-30T18:30:50.610Z</time>
      </trkpt>
      <trkpt lat="48.87684" lon="2.33763">
        <ele>102.7</ele>
        <time>2015-03-30T18:30:51.692Z</time>
      </trkpt>
      <trkpt lat="48.87684" lon="2.33755">
        <ele>102.7</ele>
        <time>2015-03-30T18:30:52.563Z</time>
      </trkpt>
      <trkpt lat="48.87684" lon="2.33747">
        <ele>102.8</ele>
        <time>2015-03-30T18:30:53.581Z</time>
      </trkpt>
      <trkpt lat="48.87683" lon="2.33737">
        <ele>102.9</ele>
        <time>2015-03-30T18:30:55.635Z</time>
      </trkpt>
      <trkpt lat="48.87682" lon="2.33734">
        <ele>102.9</ele>
        <time>2015-03-30T18:30:56.573Z</time>
      </trkpt>
      <trkpt lat="48.87682" lon="2.33729">
        <ele>102.6</ele>
        <time>2015-03-30T18:31:02.522Z</time>
      </trkpt>
      <trkpt lat="48.87682" lon="2.3373">
        <ele>102.5</ele>
        <time>2015-03-30T18:31:03.561Z</time>
      </trkpt>
      <trkpt lat="48.87682" lon="2.3373">
        <ele>102.4</ele>
        <time>2015-03-30T18:31:04.553Z</time>
      </trkpt>
      <trkpt lat="48.87689" lon="2.33731">
        <ele>102.2</ele>
        <time>2015-03-30T18:31:11.558Z</time>
      </trkpt>
      <trkpt lat="48.87691" lon="2.33733">
        <ele>102.2</ele>
        <time>2015-03-30T18:31:12.577Z</time>
      </trkpt>
      <trkpt lat="48.87691" lon="2.33742">
        <ele>102.1</ele>
        <time>2015-03-30T18:31:16.537Z</time>
      </trkpt>
      <trkpt lat="48.87712" lon="2.33735">
        <ele>102</ele>
        <time>2015-03-30T18:31:17.573Z</time>
      </trkpt>
      <trkpt lat="48.87718" lon="2.33736">
        <ele>102.1</ele>
        <time>2015-03-30T18:31:18.583Z</time>
      </trkpt>
      <trkpt lat="48.87723" lon="2.33737">
        <ele>102.1</ele>
        <time>2015-03-30T18:31:19.596Z</time>
      </trkpt>
      <trkpt lat="48.87732" lon="2.33737">
        <ele>102.3</ele>
        <time>2015-03-30T18:31:21.547Z</time>
      </trkpt>
      <trkpt lat="48.87734" lon="2.33735">
        <ele>102.5</ele>
        <time>2015-03-30T18:31:22.569Z</time>
      </trkpt>
      <trkpt lat="48.87741" lon="2.33727">
        <ele>102.7</ele>
        <time>2015-03-30T18:31:28.621Z</time>
      </trkpt>
      <trkpt lat="48.87743" lon="2.33727">
        <ele>102.8</ele>
        <time>2015-03-30T18:31:29.637Z</time>
      </trkpt>
      <trkpt lat="48.8775" lon="2.33725">
        <ele>103</ele>
        <time>2015-03-30T18:31:32.636Z</time>
      </trkpt>
      <trkpt lat="48.87766" lon="2.33721">
        <ele>102.8</ele>
        <time>2015-03-30T18:31:37.643Z</time>
      </trkpt>
      <trkpt lat="48.87773" lon="2.33719">
        <ele>102.7</ele>
        <time>2015-03-30T18:31:40.563Z</time>
      </trkpt>
      <trkpt lat="48.87775" lon="2.33717">
        <ele>102.9</ele>
        <time>2015-03-30T18:31:41.584Z</time>
      </trkpt>
      <trkpt lat="48.8778" lon="2.33711">
        <ele>103.1</ele>
        <time>2015-03-30T18:31:44.624Z</time>
      </trkpt>
      <trkpt lat="48.87783" lon="2.33709">
        <ele>103.2</ele>
        <time>2015-03-30T18:31:45.636Z</time>
      </trkpt>
      <trkpt lat="48.8779" lon="2.33704">
        <ele>103.5</ele>
        <time>2015-03-30T18:31:48.550Z</time>
      </trkpt>
      <trkpt lat="48.87793" lon="2.33702">
        <ele>103.5</ele>
        <time>2015-03-30T18:31:49.610Z</time>
      </trkpt>
      <trkpt lat="48.878" lon="2.33695">
        <ele>103.6</ele>
        <time>2015-03-30T18:31:52.581Z</time>
      </trkpt>
      <trkpt lat="48.87802" lon="2.33692">
        <ele>103.7</ele>
        <time>2015-03-30T18:31:53.596Z</time>
      </trkpt>
      <trkpt lat="48.87806" lon="2.33684">
        <ele>103.7</ele>
        <time>2015-03-30T18:31:55.609Z</time>
      </trkpt>
      <trkpt lat="48.87807" lon="2.3368">
        <ele>103.7</ele>
        <time>2015-03-30T18:31:56.636Z</time>
      </trkpt>
      <trkpt lat="48.87812" lon="2.33669">
        <ele>103.8</ele>
        <time>2015-03-30T18:31:59.577Z</time>
      </trkpt>
      <trkpt lat="48.87814" lon="2.33665">
        <ele>103.9</ele>
        <time>2015-03-30T18:32:00.671Z</time>
      </trkpt>
      <trkpt lat="48.87819" lon="2.33659">
        <ele>104</ele>
        <time>2015-03-30T18:32:02.550Z</time>
      </trkpt>
      <trkpt lat="48.87822" lon="2.33655">
        <ele>104.1</ele>
        <time>2015-03-30T18:32:03.552Z</time>
      </trkpt>
      <trkpt lat="48.87829" lon="2.33651">
        <ele>104.1</ele>
        <time>2015-03-30T18:32:05.586Z</time>
      </trkpt>
      <trkpt lat="48.87831" lon="2.33649">
        <ele>104.2</ele>
        <time>2015-03-30T18:32:06.607Z</time>
      </trkpt>
      <trkpt lat="48.87835" lon="2.33641">
        <ele>104.1</ele>
        <time>2015-03-30T18:32:09.570Z</time>
      </trkpt>
      <trkpt lat="48.87837" lon="2.33638">
        <ele>104.1</ele>
        <time>2015-03-30T18:32:10.527Z</time>
      </trkpt>
      <trkpt lat="48.87839" lon="2.33626">
        <ele>104</ele>
        <time>2015-03-30T18:32:13.562Z</time>
      </trkpt>
      <trkpt lat="48.87841" lon="2.33622">
        <ele>104</ele>
        <time>2015-03-30T18:32:14.583Z</time>
      </trkpt>
      <trkpt lat="48.87847" lon="2.33614">
        <ele>104.2</ele>
        <time>2015-03-30T18:32:17.524Z</time>
      </trkpt>
      <trkpt lat="48.8785" lon="2.33611">
        <ele>104.4</ele>
        <time>2015-03-30T18:32:18.572Z</time>
      </trkpt>
      <trkpt lat="48.87852" lon="2.33608">
        <ele>104.5</ele>
        <time>2015-03-30T18:32:19.586Z</time>
      </trkpt>
      <trkpt lat="48.87798" lon="2.3368">
        <ele>104.6</ele>
        <time>2015-03-30T18:32:20.620Z</time>
      </trkpt>
      <trkpt lat="48.87805" lon="2.33671">
        <ele>104.6</ele>
        <time>2015-03-30T18:32:21.567Z</time>
      </trkpt>
      <trkpt lat="48.87815" lon="2.33658">
        <ele>104.7</ele>
        <time>2015-03-30T18:32:22.566Z</time>
      </trkpt>
      <trkpt lat="48.87826" lon="2.33645">
        <ele>104.8</ele>
        <time>2015-03-30T18:32:23.577Z</time>
      </trkpt>
      <trkpt lat="48.87833" lon="2.33636">
        <ele>104.8</ele>
        <time>2015-03-30T18:32:24.590Z</time>
      </trkpt>
      <trkpt lat="48.8784" lon="2.33626">
        <ele>104.8</ele>
        <time>2015-03-30T18:32:25.607Z</time>
      </trkpt>
      <trkpt lat="48.87848" lon="2.33616">
        <ele>104.9</ele>
        <time>2015-03-30T18:32:26.617Z</time>
      </trkpt>
      <trkpt lat="48.87853" lon="2.33609">
        <ele>105</ele>
        <time>2015-03-30T18:32:27.632Z</time>
      </trkpt>
      <trkpt lat="48.87857" lon="2.33603">
        <ele>105.1</ele>
        <time>2015-03-30T18:32:28.636Z</time>
      </trkpt>
      <trkpt lat="48.87861" lon="2.33596">
        <ele>105.2</ele>
        <time>2015-03-30T18:32:30.279Z</time>
      </trkpt>
      <trkpt lat="48.87863" lon="2.33592">
        <ele>105.3</ele>
        <time>2015-03-30T18:32:30.558Z</time>
      </trkpt>
      <trkpt lat="48.87868" lon="2.33584">
        <ele>105.5</ele>
        <time>2015-03-30T18:32:32.601Z</time>
      </trkpt>
      <trkpt lat="48.8787" lon="2.33581">
        <ele>105.6</ele>
        <time>2015-03-30T18:32:33.604Z</time>
      </trkpt>
      <trkpt lat="48.87876" lon="2.33572">
        <ele>106.1</ele>
        <time>2015-03-30T18:32:37.566Z</time>
      </trkpt>
      <trkpt lat="48.87877" lon="2.33571">
        <ele>106.4</ele>
        <time>2015-03-30T18:32:38.577Z</time>
      </trkpt>
      <trkpt lat="48.87882" lon="2.33563">
        <ele>104.7</ele>
        <time>2015-03-30T18:32:41.604Z</time>
      </trkpt>
      <trkpt lat="48.87883" lon="2.33559">
        <ele>102.7</ele>
        <time>2015-03-30T18:32:42.615Z</time>
      </trkpt>
      <trkpt lat="48.87888" lon="2.33549">
        <ele>103</ele>
        <time>2015-03-30T18:32:45.532Z</time>
      </trkpt>
      <trkpt lat="48.87889" lon="2.33546">
        <ele>103.3</ele>
        <time>2015-03-30T18:32:46.596Z</time>
      </trkpt>
      <trkpt lat="48.8789" lon="2.33539">
        <ele>103.5</ele>
        <time>2015-03-30T18:32:48.635Z</time>
      </trkpt>
      <trkpt lat="48.87892" lon="2.33529">
        <ele>103.6</ele>
        <time>2015-03-30T18:32:49.675Z</time>
      </trkpt>
      <trkpt lat="48.87887" lon="2.3352">
        <ele>104.3</ele>
        <time>2015-03-30T18:32:55.595Z</time>
      </trkpt>
      <trkpt lat="48.87886" lon="2.33518">
        <ele>104.4</ele>
        <time>2015-03-30T18:32:55.629Z</time>
      </trkpt>
      <trkpt lat="48.87884" lon="2.33506">
        <ele>104.6</ele>
        <time>2015-03-30T18:33:02.563Z</time>
      </trkpt>
      <trkpt lat="48.87885" lon="2.33502">
        <ele>104.1</ele>
        <time>2015-03-30T18:33:03.580Z</time>
      </trkpt>
      <trkpt lat="48.87883" lon="2.335">
        <ele>104.5</ele>
        <time>2015-03-30T18:33:07.628Z</time>
      </trkpt>
      <trkpt lat="48.87882" lon="2.33499">
        <ele>104.8</ele>
        <time>2015-03-30T18:33:08.645Z</time>
      </trkpt>
      <trkpt lat="48.87882" lon="2.33499">
        <ele>105.1</ele>
        <time>2015-03-30T18:33:09.557Z</time>
      </trkpt>
      <trkpt lat="48.87883" lon="2.33492">
        <ele>108</ele>
        <time>2015-03-30T18:33:26.647Z</time>
      </trkpt>
      <trkpt lat="48.87884" lon="2.33484">
        <ele>108.1</ele>
        <time>2015-03-30T18:33:27.597Z</time>
      </trkpt>
      <trkpt lat="48.87893" lon="2.33485">
        <ele>108.7</ele>
        <time>2015-03-30T18:33:33.634Z</time>
      </trkpt>
      <trkpt lat="48.87895" lon="2.33484">
        <ele>108.9</ele>
        <time>2015-03-30T18:33:34.647Z</time>
      </trkpt>
      <trkpt lat="48.87904" lon="2.33481">
        <ele>110.5</ele>
        <time>2015-03-30T18:33:44.621Z</time>
      </trkpt>
      <trkpt lat="48.87905" lon="2.33481">
        <ele>110.7</ele>
        <time>2015-03-30T18:33:45.622Z</time>
      </trkpt>
      <trkpt lat="48.87913" lon="2.33476">
        <ele>111.2</ele>
        <time>2015-03-30T18:33:51.589Z</time>
      </trkpt>
      <trkpt lat="48.87915" lon="2.33474">
        <ele>111.4</ele>
        <time>2015-03-30T18:33:51.639Z</time>
      </trkpt>
      <trkpt lat="48.87922" lon="2.33471">
        <ele>112</ele>
        <time>2015-03-30T18:33:54.561Z</time>
      </trkpt>
      <trkpt lat="48.87924" lon="2.33469">
        <ele>112.2</ele>
        <time>2015-03-30T18:33:55.629Z</time>
      </trkpt>
      <trkpt lat="48.87931" lon="2.33464">
        <ele>112.6</ele>
        <time>2015-03-30T18:33:58.630Z</time>
      </trkpt>
      <trkpt lat="48.87933" lon="2.33462">
        <ele>112.3</ele>
        <time>2015-03-30T18:33:59.637Z</time>
      </trkpt>
      <trkpt lat="48.8794" lon="2.33456">
        <ele>111.5</ele>
        <time>2015-03-30T18:34:02.570Z</time>
      </trkpt>
      <trkpt lat="48.87941" lon="2.33454">
        <ele>111.6</ele>
        <time>2015-03-30T18:34:03.594Z</time>
      </trkpt>
      <trkpt lat="48.87945" lon="2.33449">
        <ele>111.9</ele>
        <time>2015-03-30T18:34:06.536Z</time>
      </trkpt>
      <trkpt lat="48.87948" lon="2.33443">
        <ele>112.5</ele>
        <time>2015-03-30T18:34:07.595Z</time>
      </trkpt>
      <trkpt lat="48.87951" lon="2.3343">
        <ele>113.1</ele>
        <time>2015-03-30T18:34:10.592Z</time>
      </trkpt>
      <trkpt lat="48.87952" lon="2.33426">
        <ele>113.5</ele>
        <time>2015-03-30T18:34:11.612Z</time>
      </trkpt>
      <trkpt lat="48.87959" lon="2.33428">
        <ele>113.4</ele>
        <time>2015-03-30T18:34:19.645Z</time>
      </trkpt>
      <trkpt lat="48.87962" lon="2.33429">
        <ele>113.3</ele>
        <time>2015-03-30T18:34:20.556Z</time>
      </trkpt>
      <trkpt lat="48.87968" lon="2.33434">
        <ele>113</ele>
        <time>2015-03-30T18:34:22.603Z</time>
      </trkpt>
      <trkpt lat="48.87972" lon="2.33436">
        <ele>113</ele>
        <time>2015-03-30T18:34:23.618Z</time>
      </trkpt>
      <trkpt lat="48.87978" lon="2.3344">
        <ele>112.9</ele>
        <time>2015-03-30T18:34:26.313Z</time>
      </trkpt>
      <trkpt lat="48.87981" lon="2.33442">
        <ele>112.9</ele>
        <time>2015-03-30T18:34:26.548Z</time>
      </trkpt>
      <trkpt lat="48.87987" lon="2.33448">
        <ele>112.6</ele>
        <time>2015-03-30T18:34:28.605Z</time>
      </trkpt>
      <trkpt lat="48.87991" lon="2.33453">
        <ele>112.5</ele>
        <time>2015-03-30T18:34:29.624Z</time>
      </trkpt>
      <trkpt lat="48.87997" lon="2.33462">
        <ele>112.2</ele>
        <time>2015-03-30T18:34:31.573Z</time>
      </trkpt>
      <trkpt lat="48.87999" lon="2.33465">
        <ele>112</ele>
        <time>2015-03-30T18:34:32.588Z</time>
      </trkpt>
      <trkpt lat="48.88005" lon="2.33475">
        <ele>111.2</ele>
        <time>2015-03-30T18:34:36.380Z</time>
      </trkpt>
      <trkpt lat="48.88008" lon="2.33478">
        <ele>111.1</ele>
        <time>2015-03-30T18:34:36.657Z</time>
      </trkpt>
      <trkpt lat="48.88015" lon="2.33485">
        <ele>111.5</ele>
        <time>2015-03-30T18:34:39.562Z</time>
      </trkpt>
      <trkpt lat="48.88017" lon="2.33486">
        <ele>111.5</ele>
        <time>2015-03-30T18:34:40.558Z</time>
      </trkpt>
      <trkpt lat="48.88025" lon="2.3349">
        <ele>112.6</ele>
        <time>2015-03-30T18:34:46.483Z</time>
      </trkpt>
      <trkpt lat="48.88027" lon="2.33491">
        <ele>112.6</ele>
        <time>2015-03-30T18:34:46.537Z</time>
      </trkpt>
      <trkpt lat="48.88031" lon="2.33492">
        <ele>112.8</ele>
        <time>2015-03-30T18:34:48.573Z</time>
      </trkpt>
      <trkpt lat="48.88036" lon="2.33494">
        <ele>112.8</ele>
        <time>2015-03-30T18:34:49.690Z</time>
      </trkpt>
      <trkpt lat="48.88044" lon="2.33489">
        <ele>113.9</ele>
        <time>2015-03-30T18:34:56.721Z</time>
      </trkpt>
      <trkpt lat="48.88046" lon="2.33488">
        <ele>113.9</ele>
        <time>2015-03-30T18:34:57.643Z</time>
      </trkpt>
      <trkpt lat="48.88054" lon="2.33485">
        <ele>113.7</ele>
        <time>2015-03-30T18:35:01.732Z</time>
      </trkpt>
      <trkpt lat="48.88057" lon="2.33484">
        <ele>113.7</ele>
        <time>2015-03-30T18:35:02.596Z</time>
      </trkpt>
      <trkpt lat="48.88064" lon="2.33481">
        <ele>113.7</ele>
        <time>2015-03-30T18:35:04.625Z</time>
      </trkpt>
      <trkpt lat="48.88068" lon="2.3348">
        <ele>113.5</ele>
        <time>2015-03-30T18:35:05.565Z</time>
      </trkpt>
      <trkpt lat="48.88071" lon="2.33478">
        <ele>113.5</ele>
        <time>2015-03-30T18:35:07.586Z</time>
      </trkpt>
      <trkpt lat="48.88076" lon="2.33474">
        <ele>113.3</ele>
        <time>2015-03-30T18:35:08.638Z</time>
      </trkpt>
      <trkpt lat="48.88078" lon="2.33474">
        <ele>112.7</ele>
        <time>2015-03-30T18:35:12.572Z</time>
      </trkpt>
      <trkpt lat="48.88091" lon="2.33467">
        <ele>112.7</ele>
        <time>2015-03-30T18:35:13.604Z</time>
      </trkpt>
      <trkpt lat="48.88091" lon="2.33466">
        <ele>112.6</ele>
        <time>2015-03-30T18:35:16.000Z</time>
      </trkpt>
      <trkpt lat="48.88103" lon="2.3346">
        <ele>112.6</ele>
        <time>2015-03-30T18:35:16.602Z</time>
      </trkpt>
      <trkpt lat="48.88111" lon="2.33456">
        <ele>112.5</ele>
        <time>2015-03-30T18:35:17.630Z</time>
      </trkpt>
      <trkpt lat="48.88115" lon="2.33453">
        <ele>112.4</ele>
        <time>2015-03-30T18:35:18.631Z</time>
      </trkpt>
      <trkpt lat="48.8812" lon="2.33451">
        <ele>112.3</ele>
        <time>2015-03-30T18:35:19.607Z</time>
      </trkpt>
      <trkpt lat="48.88124" lon="2.33448">
        <ele>112.3</ele>
        <time>2015-03-30T18:35:20.611Z</time>
      </trkpt>
      <trkpt lat="48.88129" lon="2.33446">
        <ele>112.3</ele>
        <time>2015-03-30T18:35:21.612Z</time>
      </trkpt>
      <trkpt lat="48.88133" lon="2.33444">
        <ele>112.3</ele>
        <time>2015-03-30T18:35:22.628Z</time>
      </trkpt>
      <trkpt lat="48.88138" lon="2.33442">
        <ele>112.3</ele>
        <time>2015-03-30T18:35:23.554Z</time>
      </trkpt>
      <trkpt lat="48.88142" lon="2.3344">
        <ele>112.5</ele>
        <time>2015-03-30T18:35:24.575Z</time>
      </trkpt>
      <trkpt lat="48.88147" lon="2.33439">
        <ele>112.5</ele>
        <time>2015-03-30T18:35:25.603Z</time>
      </trkpt>
      <trkpt lat="48.88151" lon="2.33437">
        <ele>112.5</ele>
        <time>2015-03-30T18:35:26.622Z</time>
      </trkpt>
      <trkpt lat="48.88159" lon="2.33433">
        <ele>112.4</ele>
        <time>2015-03-30T18:35:28.852Z</time>
      </trkpt>
      <trkpt lat="48.88163" lon="2.33431">
        <ele>112.4</ele>
        <time>2015-03-30T18:35:29.607Z</time>
      </trkpt>
      <trkpt lat="48.88171" lon="2.33425">
        <ele>112.5</ele>
        <time>2015-03-30T18:35:31.635Z</time>
      </trkpt>
      <trkpt lat="48.88174" lon="2.33422">
        <ele>112.5</ele>
        <time>2015-03-30T18:35:32.607Z</time>
      </trkpt>
      <trkpt lat="48.88182" lon="2.33415">
        <ele>112.5</ele>
        <time>2015-03-30T18:35:34.545Z</time>
      </trkpt>
      <trkpt lat="48.88186" lon="2.33412">
        <ele>112.5</ele>
        <time>2015-03-30T18:35:35.547Z</time>
      </trkpt>
      <trkpt lat="48.88192" lon="2.33405">
        <ele>113</ele>
        <time>2015-03-30T18:35:37.579Z</time>
      </trkpt>
      <trkpt lat="48.88196" lon="2.33401">
        <ele>113.1</ele>
        <time>2015-03-30T18:35:38.597Z</time>
      </trkpt>
      <trkpt lat="48.88201" lon="2.33393">
        <ele>113.6</ele>
        <time>2015-03-30T18:35:41.358Z</time>
      </trkpt>
      <trkpt lat="48.88204" lon="2.33389">
        <ele>113.7</ele>
        <time>2015-03-30T18:35:41.617Z</time>
      </trkpt>
      <trkpt lat="48.8821" lon="2.33381">
        <ele>113.9</ele>
        <time>2015-03-30T18:35:43.650Z</time>
      </trkpt>
      <trkpt lat="48.88213" lon="2.33378">
        <ele>113.9</ele>
        <time>2015-03-30T18:35:44.683Z</time>
      </trkpt>
      <trkpt lat="48.88219" lon="2.33373">
        <ele>113.9</ele>
        <time>2015-03-30T18:35:46.545Z</time>
      </trkpt>
      <trkpt lat="48.88222" lon="2.33371">
        <ele>113.9</ele>
        <time>2015-03-30T18:35:47.707Z</time>
      </trkpt>
      <trkpt lat="48.8823" lon="2.33367">
        <ele>113.4</ele>
        <time>2015-03-30T18:35:50.555Z</time>
      </trkpt>
      <trkpt lat="48.88234" lon="2.33366">
        <ele>113.4</ele>
        <time>2015-03-30T18:35:51.547Z</time>
      </trkpt>
      <trkpt lat="48.88242" lon="2.33363">
        <ele>113.4</ele>
        <time>2015-03-30T18:35:53.541Z</time>
      </trkpt>
      <trkpt lat="48.88246" lon="2.33363">
        <ele>113.5</ele>
        <time>2015-03-30T18:35:54.576Z</time>
      </trkpt>
      <trkpt lat="48.88251" lon="2.33362">
        <ele>113.7</ele>
        <time>2015-03-30T18:35:56.492Z</time>
      </trkpt>
      <trkpt lat="48.88264" lon="2.33358">
        <ele>113.9</ele>
        <time>2015-03-30T18:35:56.630Z</time>
      </trkpt>
      <trkpt lat="48.8827" lon="2.33351">
        <ele>114.6</ele>
        <time>2015-03-30T18:35:58.656Z</time>
      </trkpt>
      <trkpt lat="48.88274" lon="2.3335">
        <ele>114.7</ele>
        <time>2015-03-30T18:35:59.541Z</time>
      </trkpt>
      <trkpt lat="48.88277" lon="2.3334">
        <ele>115.8</ele>
        <time>2015-03-30T18:36:01.581Z</time>
      </trkpt>
      <trkpt lat="48.88281" lon="2.33336">
        <ele>116</ele>
        <time>2015-03-30T18:36:02.611Z</time>
      </trkpt>
      <trkpt lat="48.88286" lon="2.33332">
        <ele>116.2</ele>
        <time>2015-03-30T18:36:03.646Z</time>
      </trkpt>
      <trkpt lat="48.88292" lon="2.33328">
        <ele>116.4</ele>
        <time>2015-03-30T18:36:04.533Z</time>
      </trkpt>
      <trkpt lat="48.88298" lon="2.33322">
        <ele>116.6</ele>
        <time>2015-03-30T18:36:05.569Z</time>
      </trkpt>
      <trkpt lat="48.88303" lon="2.33317">
        <ele>116.7</ele>
        <time>2015-03-30T18:36:06.601Z</time>
      </trkpt>
      <trkpt lat="48.88303" lon="2.33317">
        <ele>116.7</ele>
        <time>2015-03-30T18:36:06.610Z</time>
      </trkpt>
      <trkpt lat="48.88321" lon="2.33302">
        <ele>115.4</ele>
        <time>2015-03-30T18:36:09.564Z</time>
      </trkpt>
      <trkpt lat="48.88353" lon="2.33278">
        <ele>114.2</ele>
        <time>2015-03-30T18:36:15.627Z</time>
      </trkpt>
      <trkpt lat="48.8836" lon="2.33271">
        <ele>113.5</ele>
        <time>2015-03-30T18:36:17.641Z</time>
      </trkpt>
      <trkpt lat="48.88362" lon="2.33269">
        <ele>113.2</ele>
        <time>2015-03-30T18:36:18.591Z</time>
      </trkpt>
      <trkpt lat="48.88364" lon="2.33267">
        <ele>112.7</ele>
        <time>2015-03-30T18:36:23.558Z</time>
      </trkpt>
      <trkpt lat="48.88363" lon="2.33267">
        <ele>112.9</ele>
        <time>2015-03-30T18:36:24.564Z</time>
      </trkpt>
      <trkpt lat="48.88363" lon="2.33267">
        <ele>113</ele>
        <time>2015-03-30T18:36:25.633Z</time>
      </trkpt>
      <trkpt lat="48.88355" lon="2.33263">
        <ele>120</ele>
        <time>2015-03-30T18:37:22.655Z</time>
      </trkpt>
      <trkpt lat="48.88355" lon="2.33263">
        <ele>120.1</ele>
        <time>2015-03-30T18:37:23.581Z</time>
      </trkpt>
      <trkpt lat="48.88355" lon="2.33263">
        <ele>120.1</ele>
        <time>2015-03-30T18:37:32.589Z</time>
      </trkpt>
      <trkpt lat="48.88355" lon="2.33266">
        <ele>121</ele>
        <time>2015-03-30T18:37:33.609Z</time>
      </trkpt>
      <trkpt lat="48.88362" lon="2.33271">
        <ele>117.6</ele>
        <time>2015-03-30T18:38:08.605Z</time>
      </trkpt>
      <trkpt lat="48.88365" lon="2.33272">
        <ele>117.5</ele>
        <time>2015-03-30T18:38:09.629Z</time>
      </trkpt>
      <trkpt lat="48.88372" lon="2.33274">
        <ele>117.9</ele>
        <time>2015-03-30T18:38:11.554Z</time>
      </trkpt>
      <trkpt lat="48.88376" lon="2.33275">
        <ele>118.1</ele>
        <time>2015-03-30T18:38:12.614Z</time>
      </trkpt>
      <trkpt lat="48.88383" lon="2.33274">
        <ele>118.1</ele>
        <time>2015-03-30T18:38:14.562Z</time>
      </trkpt>
      <trkpt lat="48.88386" lon="2.33271">
        <ele>117.7</ele>
        <time>2015-03-30T18:38:15.589Z</time>
      </trkpt>
      <trkpt lat="48.88393" lon="2.33264">
        <ele>117.5</ele>
        <time>2015-03-30T18:38:17.618Z</time>
      </trkpt>
      <trkpt lat="48.88396" lon="2.3326">
        <ele>117.5</ele>
        <time>2015-03-30T18:38:18.631Z</time>
      </trkpt>
      <trkpt lat="48.88401" lon="2.3325">
        <ele>117.4</ele>
        <time>2015-03-30T18:38:20.592Z</time>
      </trkpt>
      <trkpt lat="48.88402" lon="2.33245">
        <ele>117.4</ele>
        <time>2015-03-30T18:38:21.537Z</time>
      </trkpt>
      <trkpt lat="48.88404" lon="2.33239">
        <ele>117.2</ele>
        <time>2015-03-30T18:38:22.563Z</time>
      </trkpt>
      <trkpt lat="48.88381" lon="2.33252">
        <ele>116.9</ele>
        <time>2015-03-30T18:38:23.601Z</time>
      </trkpt>
      <trkpt lat="48.88393" lon="2.33241">
        <ele>116.8</ele>
        <time>2015-03-30T18:38:24.638Z</time>
      </trkpt>
      <trkpt lat="48.88398" lon="2.33235">
        <ele>116.7</ele>
        <time>2015-03-30T18:38:25.646Z</time>
      </trkpt>
      <trkpt lat="48.88404" lon="2.33228">
        <ele>116.8</ele>
        <time>2015-03-30T18:38:26.541Z</time>
      </trkpt>
      <trkpt lat="48.88407" lon="2.33223">
        <ele>116.7</ele>
        <time>2015-03-30T18:38:28.037Z</time>
      </trkpt>
      <trkpt lat="48.8841" lon="2.33216">
        <ele>116.7</ele>
        <time>2015-03-30T18:38:28.592Z</time>
      </trkpt>
      <trkpt lat="48.88412" lon="2.33211">
        <ele>116.6</ele>
        <time>2015-03-30T18:38:29.607Z</time>
      </trkpt>
      <trkpt lat="48.88415" lon="2.33204">
        <ele>116.8</ele>
        <time>2015-03-30T18:38:30.630Z</time>
      </trkpt>
      <trkpt lat="48.88418" lon="2.33194">
        <ele>116.8</ele>
        <time>2015-03-30T18:38:31.946Z</time>
      </trkpt>
      <trkpt lat="48.8842" lon="2.3319">
        <ele>116.8</ele>
        <time>2015-03-30T18:38:32.530Z</time>
      </trkpt>
      <trkpt lat="48.88424" lon="2.33179">
        <ele>116.9</ele>
        <time>2015-03-30T18:38:34.540Z</time>
      </trkpt>
      <trkpt lat="48.88426" lon="2.33172">
        <ele>117</ele>
        <time>2015-03-30T18:38:35.596Z</time>
      </trkpt>
      <trkpt lat="48.88429" lon="2.33159">
        <ele>116.8</ele>
        <time>2015-03-30T18:38:37.961Z</time>
      </trkpt>
      <trkpt lat="48.88431" lon="2.33152">
        <ele>117</ele>
        <time>2015-03-30T18:38:38.567Z</time>
      </trkpt>
      <trkpt lat="48.88433" lon="2.33145">
        <ele>117.2</ele>
        <time>2015-03-30T18:38:39.578Z</time>
      </trkpt>
      <trkpt lat="48.88435" lon="2.33138">
        <ele>117.3</ele>
        <time>2015-03-30T18:38:40.562Z</time>
      </trkpt>
      <trkpt lat="48.88438" lon="2.3313">
        <ele>117.5</ele>
        <time>2015-03-30T18:38:42.091Z</time>
      </trkpt>
      <trkpt lat="48.8844" lon="2.33122">
        <ele>117.7</ele>
        <time>2015-03-30T18:38:42.604Z</time>
      </trkpt>
      <trkpt lat="48.88443" lon="2.33115">
        <ele>117.9</ele>
        <time>2015-03-30T18:38:43.618Z</time>
      </trkpt>
      <trkpt lat="48.88446" lon="2.33108">
        <ele>118</ele>
        <time>2015-03-30T18:38:44.628Z</time>
      </trkpt>
      <trkpt lat="48.8845" lon="2.33097">
        <ele>118</ele>
        <time>2015-03-30T18:38:47.102Z</time>
      </trkpt>
      <trkpt lat="48.8845" lon="2.33091">
        <ele>118.5</ele>
        <time>2015-03-30T18:38:47.571Z</time>
      </trkpt>
      <trkpt lat="48.88456" lon="2.33081">
        <ele>119.2</ele>
        <time>2015-03-30T18:38:52.205Z</time>
      </trkpt>
      <trkpt lat="48.88458" lon="2.3308">
        <ele>119.3</ele>
        <time>2015-03-30T18:38:52.573Z</time>
      </trkpt>
      <trkpt lat="48.88466" lon="2.33078">
        <ele>119.6</ele>
        <time>2015-03-30T18:38:55.615Z</time>
      </trkpt>
      <trkpt lat="48.8847" lon="2.33078">
        <ele>119.6</ele>
        <time>2015-03-30T18:38:56.625Z</time>
      </trkpt>
      <trkpt lat="48.88475" lon="2.33078">
        <ele>120</ele>
        <time>2015-03-30T18:38:57.419Z</time>
      </trkpt>
      <trkpt lat="48.88479" lon="2.33079">
        <ele>120.1</ele>
        <time>2015-03-30T18:38:59.581Z</time>
      </trkpt>
      <trkpt lat="48.88484" lon="2.3308">
        <ele>120.7</ele>
        <time>2015-03-30T18:39:02.495Z</time>
      </trkpt>
      <trkpt lat="48.88488" lon="2.33082">
        <ele>120.8</ele>
        <time>2015-03-30T18:39:02.554Z</time>
      </trkpt>
      <trkpt lat="48.88494" lon="2.33085">
        <ele>121.1</ele>
        <time>2015-03-30T18:39:04.573Z</time>
      </trkpt>
      <trkpt lat="48.88497" lon="2.33086">
        <ele>121.1</ele>
        <time>2015-03-30T18:39:05.587Z</time>
      </trkpt>
      <trkpt lat="48.88504" lon="2.33088">
        <ele>121.3</ele>
        <time>2015-03-30T18:39:08.601Z</time>
      </trkpt>
      <trkpt lat="48.88511" lon="2.33089">
        <ele>121.6</ele>
        <time>2015-03-30T18:39:09.598Z</time>
      </trkpt>
      <trkpt lat="48.88518" lon="2.3309">
        <ele>121.8</ele>
        <time>2015-03-30T18:39:10.614Z</time>
      </trkpt>
      <trkpt lat="48.88523" lon="2.3309">
        <ele>121.9</ele>
        <time>2015-03-30T18:39:11.561Z</time>
      </trkpt>
      <trkpt lat="48.8853" lon="2.3309">
        <ele>122.1</ele>
        <time>2015-03-30T18:39:13.635Z</time>
      </trkpt>
      <trkpt lat="48.88536" lon="2.33088">
        <ele>122.1</ele>
        <time>2015-03-30T18:39:14.614Z</time>
      </trkpt>
      <trkpt lat="48.88535" lon="2.3308">
        <ele>120.8</ele>
        <time>2015-03-30T18:39:32.630Z</time>
      </trkpt>
      <trkpt lat="48.88535" lon="2.33079">
        <ele>120.9</ele>
        <time>2015-03-30T18:39:33.640Z</time>
      </trkpt>
      <trkpt lat="48.88537" lon="2.33077">
        <ele>121.2</ele>
        <time>2015-03-30T18:39:34.563Z</time>
      </trkpt>
      <trkpt lat="48.8854" lon="2.33083">
        <ele>120.7</ele>
        <time>2015-03-30T18:39:41.264Z</time>
      </trkpt>
      <trkpt lat="48.88541" lon="2.33084">
        <ele>120.2</ele>
        <time>2015-03-30T18:39:41.532Z</time>
      </trkpt>
      <trkpt lat="48.88541" lon="2.33084">
        <ele>119.9</ele>
        <time>2015-03-30T18:39:56.598Z</time>
      </trkpt>
      <trkpt lat="48.88543" lon="2.33087">
        <ele>119.5</ele>
        <time>2015-03-30T18:39:57.526Z</time>
      </trkpt>
      <trkpt lat="48.8855" lon="2.33087">
        <ele>119.3</ele>
        <time>2015-03-30T18:40:02.557Z</time>
      </trkpt>
      <trkpt lat="48.88552" lon="2.33089">
        <ele>119.2</ele>
        <time>2015-03-30T18:40:03.559Z</time>
      </trkpt>
      <trkpt lat="48.88553" lon="2.33099">
        <ele>118.8</ele>
        <time>2015-03-30T18:40:07.603Z</time>
      </trkpt>
      <trkpt lat="48.88555" lon="2.33104">
        <ele>118.7</ele>
        <time>2015-03-30T18:40:08.652Z</time>
      </trkpt>
      <trkpt lat="48.88558" lon="2.33113">
        <ele>118.5</ele>
        <time>2015-03-30T18:40:10.570Z</time>
      </trkpt>
      <trkpt lat="48.8856" lon="2.33118">
        <ele>118.6</ele>
        <time>2015-03-30T18:40:11.609Z</time>
      </trkpt>
      <trkpt lat="48.88563" lon="2.33124">
        <ele>118.4</ele>
        <time>2015-03-30T18:40:12.619Z</time>
      </trkpt>
      <trkpt lat="48.88566" lon="2.3313">
        <ele>118.3</ele>
        <time>2015-03-30T18:40:13.621Z</time>
      </trkpt>
      <trkpt lat="48.88575" lon="2.33146">
        <ele>118.3</ele>
        <time>2015-03-30T18:40:14.630Z</time>
      </trkpt>
      <trkpt lat="48.88578" lon="2.33152">
        <ele>118.3</ele>
        <time>2015-03-30T18:40:15.996Z</time>
      </trkpt>
      <trkpt lat="48.88582" lon="2.33158">
        <ele>118.2</ele>
        <time>2015-03-30T18:40:16.642Z</time>
      </trkpt>
      <trkpt lat="48.88585" lon="2.33163">
        <ele>118.2</ele>
        <time>2015-03-30T18:40:17.644Z</time>
      </trkpt>
      <trkpt lat="48.88588" lon="2.33168">
        <ele>118.2</ele>
        <time>2015-03-30T18:40:18.576Z</time>
      </trkpt>
      <trkpt lat="48.88594" lon="2.33178">
        <ele>118.3</ele>
        <time>2015-03-30T18:40:21.055Z</time>
      </trkpt>
      <trkpt lat="48.88596" lon="2.33182">
        <ele>118.3</ele>
        <time>2015-03-30T18:40:21.553Z</time>
      </trkpt>
      <trkpt lat="48.88601" lon="2.33191">
        <ele>118.3</ele>
        <time>2015-03-30T18:40:23.586Z</time>
      </trkpt>
      <trkpt lat="48.88603" lon="2.33196">
        <ele>118.2</ele>
        <time>2015-03-30T18:40:24.598Z</time>
      </trkpt>
      <trkpt lat="48.88607" lon="2.33201">
        <ele>118.1</ele>
        <time>2015-03-30T18:40:25.619Z</time>
      </trkpt>
      <trkpt lat="48.8861" lon="2.33207">
        <ele>118</ele>
        <time>2015-03-30T18:40:26.623Z</time>
      </trkpt>
      <trkpt lat="48.88616" lon="2.33217">
        <ele>117.9</ele>
        <time>2015-03-30T18:40:28.568Z</time>
      </trkpt>
      <trkpt lat="48.88619" lon="2.33222">
        <ele>117.9</ele>
        <time>2015-03-30T18:40:29.603Z</time>
      </trkpt>
      <trkpt lat="48.88625" lon="2.33231">
        <ele>118.1</ele>
        <time>2015-03-30T18:40:31.620Z</time>
      </trkpt>
      <trkpt lat="48.88627" lon="2.33235">
        <ele>118.2</ele>
        <time>2015-03-30T18:40:32.536Z</time>
      </trkpt>
      <trkpt lat="48.88629" lon="2.33239">
        <ele>118.5</ele>
        <time>2015-03-30T18:40:33.582Z</time>
      </trkpt>
      <trkpt lat="48.88607" lon="2.332">
        <ele>118.5</ele>
        <time>2015-03-30T18:40:34.571Z</time>
      </trkpt>
      <trkpt lat="48.88612" lon="2.33209">
        <ele>118.5</ele>
        <time>2015-03-30T18:40:35.579Z</time>
      </trkpt>
      <trkpt lat="48.88618" lon="2.3322">
        <ele>118.5</ele>
        <time>2015-03-30T18:40:36.593Z</time>
      </trkpt>
      <trkpt lat="48.88624" lon="2.33229">
        <ele>118.6</ele>
        <time>2015-03-30T18:40:37.595Z</time>
      </trkpt>
      <trkpt lat="48.88627" lon="2.33234">
        <ele>118.8</ele>
        <time>2015-03-30T18:40:38.620Z</time>
      </trkpt>
      <trkpt lat="48.88633" lon="2.33243">
        <ele>118.8</ele>
        <time>2015-03-30T18:40:40.544Z</time>
      </trkpt>
      <trkpt lat="48.88636" lon="2.33248">
        <ele>119</ele>
        <time>2015-03-30T18:40:41.519Z</time>
      </trkpt>
      <trkpt lat="48.88641" lon="2.33258">
        <ele>120.8</ele>
        <time>2015-03-30T18:40:48.609Z</time>
      </trkpt>
      <trkpt lat="48.88645" lon="2.33263">
        <ele>120.8</ele>
        <time>2015-03-30T18:40:49.609Z</time>
      </trkpt>
      <trkpt lat="48.88653" lon="2.33265">
        <ele>123.7</ele>
        <time>2015-03-30T18:41:10.557Z</time>
      </trkpt>
      <trkpt lat="48.88654" lon="2.33266">
        <ele>123.7</ele>
        <time>2015-03-30T18:41:11.556Z</time>
      </trkpt>
      <trkpt lat="48.88662" lon="2.33267">
        <ele>123.6</ele>
        <time>2015-03-30T18:41:16.001Z</time>
      </trkpt>
      <trkpt lat="48.88664" lon="2.33268">
        <ele>123.6</ele>
        <time>2015-03-30T18:41:16.512Z</time>
      </trkpt>
      <trkpt lat="48.88671" lon="2.33271">
        <ele>123.7</ele>
        <time>2015-03-30T18:41:21.065Z</time>
      </trkpt>
      <trkpt lat="48.88673" lon="2.33271">
        <ele>123.6</ele>
        <time>2015-03-30T18:41:21.554Z</time>
      </trkpt>
      <trkpt lat="48.88682" lon="2.33266">
        <ele>123.2</ele>
        <time>2015-03-30T18:41:26.620Z</time>
      </trkpt>
      <trkpt lat="48.88683" lon="2.33265">
        <ele>123.2</ele>
        <time>2015-03-30T18:41:27.637Z</time>
      </trkpt>
      <trkpt lat="48.8869" lon="2.33263">
        <ele>123.2</ele>
        <time>2015-03-30T18:41:30.546Z</time>
      </trkpt>
      <trkpt lat="48.88693" lon="2.33263">
        <ele>123.2</ele>
        <time>2015-03-30T18:41:31.613Z</time>
      </trkpt>
      <trkpt lat="48.88702" lon="2.33261">
        <ele>123.5</ele>
        <time>2015-03-30T18:41:34.623Z</time>
      </trkpt>
      <trkpt lat="48.88704" lon="2.33261">
        <ele>123.4</ele>
        <time>2015-03-30T18:41:35.613Z</time>
      </trkpt>
      <trkpt lat="48.88712" lon="2.3326">
        <ele>124</ele>
        <time>2015-03-30T18:41:39.666Z</time>
      </trkpt>
      <trkpt lat="48.88713" lon="2.33259">
        <ele>124</ele>
        <time>2015-03-30T18:41:40.560Z</time>
      </trkpt>
      <trkpt lat="48.88713" lon="2.33247">
        <ele>124.6</ele>
        <time>2015-03-30T18:41:48.582Z</time>
      </trkpt>
      <trkpt lat="48.88714" lon="2.33246">
        <ele>124.6</ele>
        <time>2015-03-30T18:41:49.693Z</time>
      </trkpt>
      <trkpt lat="48.88714" lon="2.33246">
        <ele>124.8</ele>
        <time>2015-03-30T18:41:50.620Z</time>
      </trkpt>
      <trkpt lat="48.88721" lon="2.33242">
        <ele>125.3</ele>
        <time>2015-03-30T18:41:53.590Z</time>
      </trkpt>
      <trkpt lat="48.88724" lon="2.3324">
        <ele>125.3</ele>
        <time>2015-03-30T18:41:54.636Z</time>
      </trkpt>
      <trkpt lat="48.88731" lon="2.33236">
        <ele>125.6</ele>
        <time>2015-03-30T18:41:57.572Z</time>
      </trkpt>
      <trkpt lat="48.88735" lon="2.33234">
        <ele>125.6</ele>
        <time>2015-03-30T18:41:58.583Z</time>
      </trkpt>
      <trkpt lat="48.88742" lon="2.3323">
        <ele>125.8</ele>
        <time>2015-03-30T18:42:00.627Z</time>
      </trkpt>
      <trkpt lat="48.88744" lon="2.33229">
        <ele>125.8</ele>
        <time>2015-03-30T18:42:01.635Z</time>
      </trkpt>
      <trkpt lat="48.8875" lon="2.33224">
        <ele>126.2</ele>
        <time>2015-03-30T18:42:03.529Z</time>
      </trkpt>
      <trkpt lat="48.88752" lon="2.33221">
        <ele>126.4</ele>
        <time>2015-03-30T18:42:04.535Z</time>
      </trkpt>
      <trkpt lat="48.88782" lon="2.3321">
        <ele>127</ele>
        <time>2015-03-30T18:42:12.600Z</time>
      </trkpt>
      <trkpt lat="48.88821" lon="2.33201">
        <ele>126.3</ele>
        <time>2015-03-30T18:42:24.602Z</time>
      </trkpt>
      <trkpt lat="48.88829" lon="2.33199">
        <ele>126.4</ele>
        <time>2015-03-30T18:42:26.518Z</time>
      </trkpt>
      <trkpt lat="48.88832" lon="2.33198">
        <ele>126.3</ele>
        <time>2015-03-30T18:42:27.551Z</time>
      </trkpt>
      <trkpt lat="48.88839" lon="2.33192">
        <ele>126.8</ele>
        <time>2015-03-30T18:42:32.544Z</time>
      </trkpt>
      <trkpt lat="48.8884" lon="2.33191">
        <ele>126.9</ele>
        <time>2015-03-30T18:42:33.546Z</time>
      </trkpt>
      <trkpt lat="48.88837" lon="2.33203">
        <ele>128.9</ele>
        <time>2015-03-30T18:42:45.607Z</time>
      </trkpt>
      <trkpt lat="48.88835" lon="2.33204">
        <ele>129.2</ele>
        <time>2015-03-30T18:42:46.523Z</time>
      </trkpt>
      <trkpt lat="48.88829" lon="2.33211">
        <ele>129.7</ele>
        <time>2015-03-30T18:42:51.579Z</time>
      </trkpt>
      <trkpt lat="48.88827" lon="2.33213">
        <ele>129.8</ele>
        <time>2015-03-30T18:42:52.533Z</time>
      </trkpt>
      <trkpt lat="48.88826" lon="2.33214">
        <ele>129.9</ele>
        <time>2015-03-30T18:42:53.554Z</time>
      </trkpt>
      <trkpt lat="48.88776" lon="2.33229">
        <ele>130.2</ele>
        <time>2015-03-30T18:42:54.631Z</time>
      </trkpt>
      <trkpt lat="48.88787" lon="2.33227">
        <ele>130.4</ele>
        <time>2015-03-30T18:42:55.569Z</time>
      </trkpt>
      <trkpt lat="48.88797" lon="2.33226">
        <ele>130.6</ele>
        <time>2015-03-30T18:42:56.577Z</time>
      </trkpt>
      <trkpt lat="48.88804" lon="2.33227">
        <ele>130.6</ele>
        <time>2015-03-30T18:42:57.588Z</time>
      </trkpt>
      <trkpt lat="48.88808" lon="2.33229">
        <ele>130.7</ele>
        <time>2015-03-30T18:42:58.604Z</time>
      </trkpt>
      <trkpt lat="48.88812" lon="2.33239">
        <ele>131.1</ele>
        <time>2015-03-30T18:43:02.566Z</time>
      </trkpt>
      <trkpt lat="48.8881" lon="2.33247">
        <ele>131.2</ele>
        <time>2015-03-30T18:43:03.557Z</time>
      </trkpt>
      <trkpt lat="48.88806" lon="2.3325">
        <ele>131.6</ele>
        <time>2015-03-30T18:43:06.870Z</time>
      </trkpt>
      <trkpt lat="48.88806" lon="2.33252">
        <ele>131.7</ele>
        <time>2015-03-30T18:43:07.670Z</time>
      </trkpt>
      <trkpt lat="48.88805" lon="2.33255">
        <ele>131.7</ele>
        <time>2015-03-30T18:43:08.522Z</time>
      </trkpt>
      <trkpt lat="48.88806" lon="2.33252">
        <ele>131.8</ele>
        <time>2015-03-30T18:43:10.534Z</time>
      </trkpt>
      <trkpt lat="48.88804" lon="2.33259">
        <ele>131.9</ele>
        <time>2015-03-30T18:43:11.577Z</time>
      </trkpt>
      <trkpt lat="48.88804" lon="2.33256">
        <ele>132.3</ele>
        <time>2015-03-30T18:43:14.612Z</time>
      </trkpt>
      <trkpt lat="48.88801" lon="2.33263">
        <ele>132.5</ele>
        <time>2015-03-30T18:43:15.611Z</time>
      </trkpt>
      <trkpt lat="48.88793" lon="2.33263">
        <ele>133.3</ele>
        <time>2015-03-30T18:43:21.279Z</time>
      </trkpt>
      <trkpt lat="48.8879" lon="2.33264">
        <ele>133.5</ele>
        <time>2015-03-30T18:43:21.585Z</time>
      </trkpt>
      <trkpt lat="48.88783" lon="2.33269">
        <ele>133.3</ele>
        <time>2015-03-30T18:43:26.607Z</time>
      </trkpt>
      <trkpt lat="48.88781" lon="2.33273">
        <ele>132.6</ele>
        <time>2015-03-30T18:43:27.603Z</time>
      </trkpt>
      <trkpt lat="48.88777" lon="2.33278">
        <ele>131.5</ele>
        <time>2015-03-30T18:43:28.598Z</time>
      </trkpt>
      <trkpt lat="48.88774" lon="2.33282">
        <ele>129.7</ele>
        <time>2015-03-30T18:43:29.613Z</time>
      </trkpt>
      <trkpt lat="48.88768" lon="2.33292">
        <ele>127.5</ele>
        <time>2015-03-30T18:43:31.577Z</time>
      </trkpt>
      <trkpt lat="48.88765" lon="2.33298">
        <ele>127.2</ele>
        <time>2015-03-30T18:43:32.533Z</time>
      </trkpt>
      <trkpt lat="48.88762" lon="2.33306">
        <ele>127.7</ele>
        <time>2015-03-30T18:43:34.552Z</time>
      </trkpt>
      <trkpt lat="48.88761" lon="2.33311">
        <ele>128.1</ele>
        <time>2015-03-30T18:43:35.552Z</time>
      </trkpt>
      <trkpt lat="48.88759" lon="2.3332">
        <ele>130.3</ele>
        <time>2015-03-30T18:43:38.623Z</time>
      </trkpt>
      <trkpt lat="48.88757" lon="2.33328">
        <ele>130.6</ele>
        <time>2015-03-30T18:43:39.641Z</time>
      </trkpt>
      <trkpt lat="48.8876" lon="2.33326">
        <ele>131.3</ele>
        <time>2015-03-30T18:43:43.622Z</time>
      </trkpt>
      <trkpt lat="48.88761" lon="2.33326">
        <ele>131.5</ele>
        <time>2015-03-30T18:43:44.545Z</time>
      </trkpt>
      <trkpt lat="48.88761" lon="2.33325">
        <ele>131.5</ele>
        <time>2015-03-30T18:44:05.522Z</time>
      </trkpt>
      <trkpt lat="48.8876" lon="2.33324">
        <ele>131.7</ele>
        <time>2015-03-30T18:44:06.560Z</time>
      </trkpt>
      <trkpt lat="48.88753" lon="2.33319">
        <ele>134.4</ele>
        <time>2015-03-30T18:44:17.626Z</time>
      </trkpt>
      <trkpt lat="48.8875" lon="2.33319">
        <ele>134.5</ele>
        <time>2015-03-30T18:44:18.643Z</time>
      </trkpt>
      <trkpt lat="48.88742" lon="2.33318">
        <ele>135.2</ele>
        <time>2015-03-30T18:44:21.596Z</time>
      </trkpt>
      <trkpt lat="48.88739" lon="2.33318">
        <ele>135.2</ele>
        <time>2015-03-30T18:44:22.602Z</time>
      </trkpt>
      <trkpt lat="48.88731" lon="2.3332">
        <ele>135.3</ele>
        <time>2015-03-30T18:44:26.081Z</time>
      </trkpt>
      <trkpt lat="48.88728" lon="2.33322">
        <ele>135.4</ele>
        <time>2015-03-30T18:44:26.558Z</time>
      </trkpt>
      <trkpt lat="48.88721" lon="2.33326">
        <ele>135.5</ele>
        <time>2015-03-30T18:44:28.571Z</time>
      </trkpt>
      <trkpt lat="48.88718" lon="2.33329">
        <ele>134.9</ele>
        <time>2015-03-30T18:44:29.617Z</time>
      </trkpt>
      <trkpt lat="48.88715" lon="2.33336">
        <ele>134.2</ele>
        <time>2015-03-30T18:44:31.593Z</time>
      </trkpt>
      <trkpt lat="48.88713" lon="2.3334">
        <ele>134.3</ele>
        <time>2015-03-30T18:44:32.627Z</time>
      </trkpt>
      <trkpt lat="48.88713" lon="2.33344">
        <ele>134.7</ele>
        <time>2015-03-30T18:44:33.560Z</time>
      </trkpt>
      <trkpt lat="48.88712" lon="2.33352">
        <ele>135.2</ele>
        <time>2015-03-30T18:44:34.551Z</time>
      </trkpt>
      <trkpt lat="48.88711" lon="2.33355">
        <ele>135.9</ele>
        <time>2015-03-30T18:44:38.589Z</time>
      </trkpt>
      <trkpt lat="48.88711" lon="2.33362">
        <ele>137.9</ele>
        <time>2015-03-30T18:44:39.599Z</time>
      </trkpt>
      <trkpt lat="48.88706" lon="2.33369">
        <ele>138.2</ele>
        <time>2015-03-30T18:44:44.566Z</time>
      </trkpt>
      <trkpt lat="48.88705" lon="2.33374">
        <ele>137.6</ele>
        <time>2015-03-30T18:44:45.577Z</time>
      </trkpt>
      <trkpt lat="48.88703" lon="2.33384">
        <ele>136.4</ele>
        <time>2015-03-30T18:44:47.621Z</time>
      </trkpt>
      <trkpt lat="48.88701" lon="2.3339">
        <ele>136</ele>
        <time>2015-03-30T18:44:48.629Z</time>
      </trkpt>
      <trkpt lat="48.88698" lon="2.33402">
        <ele>135.3</ele>
        <time>2015-03-30T18:44:51.375Z</time>
      </trkpt>
      <trkpt lat="48.88696" lon="2.33409">
        <ele>134.9</ele>
        <time>2015-03-30T18:44:51.538Z</time>
      </trkpt>
      <trkpt lat="48.88694" lon="2.33415">
        <ele>134.7</ele>
        <time>2015-03-30T18:44:52.556Z</time>
      </trkpt>
      <trkpt lat="48.88691" lon="2.33421">
        <ele>134.7</ele>
        <time>2015-03-30T18:44:53.578Z</time>
      </trkpt>
      <trkpt lat="48.88687" lon="2.33431">
        <ele>135</ele>
        <time>2015-03-30T18:44:56.526Z</time>
      </trkpt>
      <trkpt lat="48.88686" lon="2.33434">
        <ele>135.2</ele>
        <time>2015-03-30T18:44:57.575Z</time>
      </trkpt>
      <trkpt lat="48.88683" lon="2.33439">
        <ele>135.7</ele>
        <time>2015-03-30T18:44:59.600Z</time>
      </trkpt>
      <trkpt lat="48.8868" lon="2.33448">
        <ele>135.9</ele>
        <time>2015-03-30T18:45:00.622Z</time>
      </trkpt>
      <trkpt lat="48.88676" lon="2.33457">
        <ele>137.4</ele>
        <time>2015-03-30T18:45:05.585Z</time>
      </trkpt>
      <trkpt lat="48.88675" lon="2.33461">
        <ele>137.5</ele>
        <time>2015-03-30T18:45:06.596Z</time>
      </trkpt>
      <trkpt lat="48.88672" lon="2.33472">
        <ele>138</ele>
        <time>2015-03-30T18:45:09.554Z</time>
      </trkpt>
      <trkpt lat="48.88671" lon="2.33477">
        <ele>138.2</ele>
        <time>2015-03-30T18:45:10.574Z</time>
      </trkpt>
      <trkpt lat="48.88667" lon="2.33485">
        <ele>138.5</ele>
        <time>2015-03-30T18:45:12.611Z</time>
      </trkpt>
      <trkpt lat="48.88665" lon="2.3349">
        <ele>138.7</ele>
        <time>2015-03-30T18:45:13.676Z</time>
      </trkpt>
      <trkpt lat="48.88663" lon="2.33501">
        <ele>139.2</ele>
        <time>2015-03-30T18:45:16.602Z</time>
      </trkpt>
      <trkpt lat="48.88663" lon="2.33505">
        <ele>139.4</ele>
        <time>2015-03-30T18:45:17.606Z</time>
      </trkpt>
      <trkpt lat="48.88665" lon="2.33514">
        <ele>140.9</ele>
        <time>2015-03-30T18:45:19.678Z</time>
      </trkpt>
      <trkpt lat="48.88668" lon="2.33518">
        <ele>143.2</ele>
        <time>2015-03-30T18:45:20.650Z</time>
      </trkpt>
      <trkpt lat="48.88674" lon="2.33526">
        <ele>144</ele>
        <time>2015-03-30T18:45:22.566Z</time>
      </trkpt>
      <trkpt lat="48.88675" lon="2.33529">
        <ele>144.6</ele>
        <time>2015-03-30T18:45:23.571Z</time>
      </trkpt>
      <trkpt lat="48.88674" lon="2.33537">
        <ele>145.6</ele>
        <time>2015-03-30T18:45:27.564Z</time>
      </trkpt>
      <trkpt lat="48.88672" lon="2.33546">
        <ele>145.8</ele>
        <time>2015-03-30T18:45:28.576Z</time>
      </trkpt>
      <trkpt lat="48.88665" lon="2.33555">
        <ele>147</ele>
        <time>2015-03-30T18:45:33.562Z</time>
      </trkpt>
      <trkpt lat="48.88664" lon="2.33556">
        <ele>147</ele>
        <time>2015-03-30T18:45:34.551Z</time>
      </trkpt>
      <trkpt lat="48.88658" lon="2.33559">
        <ele>147.4</ele>
        <time>2015-03-30T18:45:38.552Z</time>
      </trkpt>
      <trkpt lat="48.88659" lon="2.33559">
        <ele>147.4</ele>
        <time>2015-03-30T18:45:39.629Z</time>
      </trkpt>
      <trkpt lat="48.8866" lon="2.33559">
        <ele>147.5</ele>
        <time>2015-03-30T18:45:40.569Z</time>
      </trkpt>
      <trkpt lat="48.88662" lon="2.3356">
        <ele>147.9</ele>
        <time>2015-03-30T18:45:43.621Z</time>
      </trkpt>
      <trkpt lat="48.88663" lon="2.33561">
        <ele>148</ele>
        <time>2015-03-30T18:45:44.635Z</time>
      </trkpt>
      <trkpt lat="48.88663" lon="2.33561">
        <ele>148.1</ele>
        <time>2015-03-30T18:46:06.747Z</time>
      </trkpt>
      <trkpt lat="48.88664" lon="2.33557">
        <ele>148</ele>
        <time>2015-03-30T18:46:07.653Z</time>
      </trkpt>
      <trkpt lat="48.88658" lon="2.33565">
        <ele>148.8</ele>
        <time>2015-03-30T18:46:15.611Z</time>
      </trkpt>
      <trkpt lat="48.88656" lon="2.33567">
        <ele>148.8</ele>
        <time>2015-03-30T18:46:16.531Z</time>
      </trkpt>
      <trkpt lat="48.88651" lon="2.33572">
        <ele>148.6</ele>
        <time>2015-03-30T18:46:19.579Z</time>
      </trkpt>
      <trkpt lat="48.88648" lon="2.33574">
        <ele>148.5</ele>
        <time>2015-03-30T18:46:20.576Z</time>
      </trkpt>
      <trkpt lat="48.88642" lon="2.33581">
        <ele>148</ele>
        <time>2015-03-30T18:46:24.511Z</time>
      </trkpt>
      <trkpt lat="48.88635" lon="2.3359">
        <ele>147.9</ele>
        <time>2015-03-30T18:46:25.580Z</time>
      </trkpt>
      <trkpt lat="48.88632" lon="2.33596">
        <ele>147.6</ele>
        <time>2015-03-30T18:46:28.505Z</time>
      </trkpt>
      <trkpt lat="48.88629" lon="2.33601">
        <ele>147.6</ele>
        <time>2015-03-30T18:46:29.566Z</time>
      </trkpt>
      <trkpt lat="48.88628" lon="2.33602">
        <ele>147.5</ele>
        <time>2015-03-30T18:46:31.191Z</time>
      </trkpt>
      <trkpt lat="48.88627" lon="2.33604">
        <ele>147.4</ele>
        <time>2015-03-30T18:46:31.588Z</time>
      </trkpt>
      <trkpt lat="48.88627" lon="2.33605">
        <ele>147.4</ele>
        <time>2015-03-30T18:46:32.538Z</time>
      </trkpt>
      <trkpt lat="48.88626" lon="2.33607">
        <ele>147.4</ele>
        <time>2015-03-30T18:46:33.528Z</time>
      </trkpt>
      <trkpt lat="48.88619" lon="2.33613">
        <ele>148.2</ele>
        <time>2015-03-30T18:46:48.556Z</time>
      </trkpt>
      <trkpt lat="48.88617" lon="2.33616">
        <ele>150.3</ele>
        <time>2015-03-30T18:46:49.625Z</time>
      </trkpt>
      <trkpt lat="48.88616" lon="2.33627">
        <ele>152</ele>
        <time>2015-03-30T18:47:00.638Z</time>
      </trkpt>
      <trkpt lat="48.88614" lon="2.33629">
        <ele>152</ele>
        <time>2015-03-30T18:47:01.661Z</time>
      </trkpt>
      <trkpt lat="48.8861" lon="2.33639">
        <ele>148.5</ele>
        <time>2015-03-30T18:47:05.621Z</time>
      </trkpt>
      <trkpt lat="48.88608" lon="2.33644">
        <ele>148.3</ele>
        <time>2015-03-30T18:47:06.625Z</time>
      </trkpt>
      <trkpt lat="48.88604" lon="2.33654">
        <ele>149.2</ele>
        <time>2015-03-30T18:47:08.529Z</time>
      </trkpt>
      <trkpt lat="48.88602" lon="2.33658">
        <ele>149.4</ele>
        <time>2015-03-30T18:47:09.552Z</time>
      </trkpt>
      <trkpt lat="48.88598" lon="2.3367">
        <ele>149.5</ele>
        <time>2015-03-30T18:47:12.556Z</time>
      </trkpt>
      <trkpt lat="48.88596" lon="2.33675">
        <ele>149.8</ele>
        <time>2015-03-30T18:47:13.628Z</time>
      </trkpt>
      <trkpt lat="48.88593" lon="2.33685">
        <ele>149.9</ele>
        <time>2015-03-30T18:47:15.580Z</time>
      </trkpt>
      <trkpt lat="48.8859" lon="2.33691">
        <ele>150</ele>
        <time>2015-03-30T18:47:16.621Z</time>
      </trkpt>
      <trkpt lat="48.88586" lon="2.33702">
        <ele>150.1</ele>
        <time>2015-03-30T18:47:18.546Z</time>
      </trkpt>
      <trkpt lat="48.88583" lon="2.33709">
        <ele>149.6</ele>
        <time>2015-03-30T18:47:19.584Z</time>
      </trkpt>
      <trkpt lat="48.88613" lon="2.33636">
        <ele>148.8</ele>
        <time>2015-03-30T18:47:20.618Z</time>
      </trkpt>
      <trkpt lat="48.88606" lon="2.33653">
        <ele>148</ele>
        <time>2015-03-30T18:47:21.624Z</time>
      </trkpt>
      <trkpt lat="48.886" lon="2.33669">
        <ele>146.6</ele>
        <time>2015-03-30T18:47:22.635Z</time>
      </trkpt>
      <trkpt lat="48.886" lon="2.33669">
        <ele>146.6</ele>
        <time>2015-03-30T18:47:23.373Z</time>
      </trkpt>
      <trkpt lat="48.88595" lon="2.33684">
        <ele>146.2</ele>
        <time>2015-03-30T18:47:23.529Z</time>
      </trkpt>
      <trkpt lat="48.88591" lon="2.33697">
        <ele>145.7</ele>
        <time>2015-03-30T18:47:24.561Z</time>
      </trkpt>
      <trkpt lat="48.88587" lon="2.3371">
        <ele>145.1</ele>
        <time>2015-03-30T18:47:25.614Z</time>
      </trkpt>
      <trkpt lat="48.88585" lon="2.33721">
        <ele>144.7</ele>
        <time>2015-03-30T18:47:26.634Z</time>
      </trkpt>
      <trkpt lat="48.88584" lon="2.3373">
        <ele>144.3</ele>
        <time>2015-03-30T18:47:27.636Z</time>
      </trkpt>
      <trkpt lat="48.88583" lon="2.33736">
        <ele>144.5</ele>
        <time>2015-03-30T18:47:28.529Z</time>
      </trkpt>
      <trkpt lat="48.88582" lon="2.33743">
        <ele>144.7</ele>
        <time>2015-03-30T18:47:29.573Z</time>
      </trkpt>
      <trkpt lat="48.88581" lon="2.33756">
        <ele>146.2</ele>
        <time>2015-03-30T18:47:32.638Z</time>
      </trkpt>
      <trkpt lat="48.88581" lon="2.3376">
        <ele>146.5</ele>
        <time>2015-03-30T18:47:33.526Z</time>
      </trkpt>
      <trkpt lat="48.88578" lon="2.33773">
        <ele>147.5</ele>
        <time>2015-03-30T18:47:37.675Z</time>
      </trkpt>
      <trkpt lat="48.88578" lon="2.33776">
        <ele>147.8</ele>
        <time>2015-03-30T18:47:38.560Z</time>
      </trkpt>
      <trkpt lat="48.88575" lon="2.3378">
        <ele>148.6</ele>
        <time>2015-03-30T18:47:40.584Z</time>
      </trkpt>
      <trkpt lat="48.88571" lon="2.33785">
        <ele>148.9</ele>
        <time>2015-03-30T18:47:41.617Z</time>
      </trkpt>
      <trkpt lat="48.88566" lon="2.33783">
        <ele>151.9</ele>
        <time>2015-03-30T18:47:56.601Z</time>
      </trkpt>
      <trkpt lat="48.88566" lon="2.33783">
        <ele>152.1</ele>
        <time>2015-03-30T18:47:57.514Z</time>
      </trkpt>
      <trkpt lat="48.88567" lon="2.33783">
        <ele>152.2</ele>
        <time>2015-03-30T18:47:58.515Z</time>
      </trkpt>
      <trkpt lat="48.8857" lon="2.33782">
        <ele>152.7</ele>
        <time>2015-03-30T18:48:00.546Z</time>
      </trkpt>
      <trkpt lat="48.88571" lon="2.33782">
        <ele>152.6</ele>
        <time>2015-03-30T18:48:01.594Z</time>
      </trkpt>
      <trkpt lat="48.88571" lon="2.33782">
        <ele>152.7</ele>
        <time>2015-03-30T18:48:02.622Z</time>
      </trkpt>
      <trkpt lat="48.88572" lon="2.33782">
        <ele>152.9</ele>
        <time>2015-03-30T18:48:03.516Z</time>
      </trkpt>
      <trkpt lat="48.88573" lon="2.33782">
        <ele>153.3</ele>
        <time>2015-03-30T18:48:05.552Z</time>
      </trkpt>
      <trkpt lat="48.88574" lon="2.33782">
        <ele>153.3</ele>
        <time>2015-03-30T18:48:06.563Z</time>
      </trkpt>
      <trkpt lat="48.88574" lon="2.33781">
        <ele>153.7</ele>
        <time>2015-03-30T18:48:32.590Z</time>
      </trkpt>
      <trkpt lat="48.88574" lon="2.33777">
        <ele>161.1</ele>
        <time>2015-03-30T18:48:33.588Z</time>
      </trkpt>
      <trkpt lat="48.88574" lon="2.33777">
        <ele>160.8</ele>
        <time>2015-03-30T18:48:36.345Z</time>
      </trkpt>
      <trkpt lat="48.88574" lon="2.33776">
        <ele>160.8</ele>
        <time>2015-03-30T18:48:36.503Z</time>
      </trkpt>
      <trkpt lat="48.88574" lon="2.33777">
        <ele>160.8</ele>
        <time>2015-03-30T18:48:37.531Z</time>
      </trkpt>
      <trkpt lat="48.88573" lon="2.33777">
        <ele>160.7</ele>
        <time>2015-03-30T18:48:38.538Z</time>
      </trkpt>
      <trkpt lat="48.88572" lon="2.33777">
        <ele>160.8</ele>
        <time>2015-03-30T18:48:39.504Z</time>
      </trkpt>
      <trkpt lat="48.88569" lon="2.33774">
        <ele>161.3</ele>
        <time>2015-03-30T18:49:02.603Z</time>
      </trkpt>
      <trkpt lat="48.8857" lon="2.33774">
        <ele>162.2</ele>
        <time>2015-03-30T18:49:03.614Z</time>
      </trkpt>
      <trkpt lat="48.88567" lon="2.33785">
        <ele>163.8</ele>
        <time>2015-03-30T18:49:10.510Z</time>
      </trkpt>
      <trkpt lat="48.88565" lon="2.33787">
        <ele>164</ele>
        <time>2015-03-30T18:49:11.548Z</time>
      </trkpt>
      <trkpt lat="48.88561" lon="2.33797">
        <ele>157.4</ele>
        <time>2015-03-30T18:49:16.614Z</time>
      </trkpt>
      <trkpt lat="48.8856" lon="2.33801">
        <ele>157.2</ele>
        <time>2015-03-30T18:49:17.550Z</time>
      </trkpt>
      <trkpt lat="48.88556" lon="2.3381">
        <ele>157</ele>
        <time>2015-03-30T18:49:19.662Z</time>
      </trkpt>
      <trkpt lat="48.88554" lon="2.33814">
        <ele>157.1</ele>
        <time>2015-03-30T18:49:20.553Z</time>
      </trkpt>
      <trkpt lat="48.88551" lon="2.33824">
        <ele>157.2</ele>
        <time>2015-03-30T18:49:23.597Z</time>
      </trkpt>
      <trkpt lat="48.88549" lon="2.33826">
        <ele>157.4</ele>
        <time>2015-03-30T18:49:24.613Z</time>
      </trkpt>
      <trkpt lat="48.88546" lon="2.33837">
        <ele>157.9</ele>
        <time>2015-03-30T18:49:27.542Z</time>
      </trkpt>
      <trkpt lat="48.88546" lon="2.33841">
        <ele>158</ele>
        <time>2015-03-30T18:49:28.580Z</time>
      </trkpt>
      <trkpt lat="48.88544" lon="2.3385">
        <ele>158.4</ele>
        <time>2015-03-30T18:49:31.618Z</time>
      </trkpt>
      <trkpt lat="48.88543" lon="2.33854">
        <ele>158.6</ele>
        <time>2015-03-30T18:49:32.572Z</time>
      </trkpt>
      <trkpt lat="48.88542" lon="2.33857">
        <ele>158.7</ele>
        <time>2015-03-30T18:49:33.587Z</time>
      </trkpt>
      <trkpt lat="48.88539" lon="2.3387">
        <ele>158.8</ele>
        <time>2015-03-30T18:49:34.574Z</time>
      </trkpt>
      <trkpt lat="48.88535" lon="2.33879">
        <ele>157.6</ele>
        <time>2015-03-30T18:49:36.600Z</time>
      </trkpt>
      <trkpt lat="48.88534" lon="2.33884">
        <ele>157</ele>
        <time>2015-03-30T18:49:37.612Z</time>
      </trkpt>
      <trkpt lat="48.88531" lon="2.33895">
        <ele>155.8</ele>
        <time>2015-03-30T18:49:41.482Z</time>
      </trkpt>
      <trkpt lat="48.88529" lon="2.33899">
        <ele>155.7</ele>
        <time>2015-03-30T18:49:41.566Z</time>
      </trkpt>
      <trkpt lat="48.88526" lon="2.33907">
        <ele>155.7</ele>
        <time>2015-03-30T18:49:43.590Z</time>
      </trkpt>
      <trkpt lat="48.88524" lon="2.33911">
        <ele>155.8</ele>
        <time>2015-03-30T18:49:44.625Z</time>
      </trkpt>
      <trkpt lat="48.88524" lon="2.33914">
        <ele>155.8</ele>
        <time>2015-03-30T18:49:45.570Z</time>
      </trkpt>
      <trkpt lat="48.88513" lon="2.33939">
        <ele>154.8</ele>
        <time>2015-03-30T18:49:51.570Z</time>
      </trkpt>
      <trkpt lat="48.88513" lon="2.33946">
        <ele>154</ele>
        <time>2015-03-30T18:49:52.580Z</time>
      </trkpt>
      <trkpt lat="48.88514" lon="2.33966">
        <ele>152.2</ele>
        <time>2015-03-30T18:49:56.499Z</time>
      </trkpt>
      <trkpt lat="48.88512" lon="2.33976">
        <ele>152</ele>
        <time>2015-03-30T18:49:58.534Z</time>
      </trkpt>
      <trkpt lat="48.88511" lon="2.33981">
        <ele>151.9</ele>
        <time>2015-03-30T18:49:59.541Z</time>
      </trkpt>
      <trkpt lat="48.88507" lon="2.33991">
        <ele>150.9</ele>
        <time>2015-03-30T18:50:01.598Z</time>
      </trkpt>
      <trkpt lat="48.88505" lon="2.33996">
        <ele>149.5</ele>
        <time>2015-03-30T18:50:02.603Z</time>
      </trkpt>
      <trkpt lat="48.88501" lon="2.34005">
        <ele>148.4</ele>
        <time>2015-03-30T18:50:04.526Z</time>
      </trkpt>
      <trkpt lat="48.88499" lon="2.34008">
        <ele>148.4</ele>
        <time>2015-03-30T18:50:05.558Z</time>
      </trkpt>
      <trkpt lat="48.88497" lon="2.34011">
        <ele>148.5</ele>
        <time>2015-03-30T18:50:06.525Z</time>
      </trkpt>
      <trkpt lat="48.8849" lon="2.3402">
        <ele>149</ele>
        <time>2015-03-30T18:50:10.578Z</time>
      </trkpt>
      <trkpt lat="48.88492" lon="2.34032">
        <ele>150.7</ele>
        <time>2015-03-30T18:50:15.506Z</time>
      </trkpt>
      <trkpt lat="48.88493" lon="2.34034">
        <ele>150.9</ele>
        <time>2015-03-30T18:50:16.602Z</time>
      </trkpt>
      <trkpt lat="48.88496" lon="2.34036">
        <ele>151.2</ele>
        <time>2015-03-30T18:50:17.629Z</time>
      </trkpt>
      <trkpt lat="48.88503" lon="2.34038">
        <ele>152.2</ele>
        <time>2015-03-30T18:50:18.541Z</time>
      </trkpt>
      <trkpt lat="48.88509" lon="2.34039">
        <ele>152.9</ele>
        <time>2015-03-30T18:50:23.590Z</time>
      </trkpt>
      <trkpt lat="48.88509" lon="2.34039">
        <ele>153.1</ele>
        <time>2015-03-30T18:50:24.608Z</time>
      </trkpt>
      <trkpt lat="48.88509" lon="2.34039">
        <ele>153.2</ele>
        <time>2015-03-30T18:50:25.651Z</time>
      </trkpt>
      <trkpt lat="48.8851" lon="2.34036">
        <ele>154.4</ele>
        <time>2015-03-30T18:50:31.623Z</time>
      </trkpt>
      <trkpt lat="48.88511" lon="2.34036">
        <ele>154.5</ele>
        <time>2015-03-30T18:50:32.561Z</time>
      </trkpt>
      <trkpt lat="48.88512" lon="2.34036">
        <ele>154.6</ele>
        <time>2015-03-30T18:50:33.536Z</time>
      </trkpt>
      <trkpt lat="48.88511" lon="2.34035">
        <ele>154.7</ele>
        <time>2015-03-30T18:50:34.540Z</time>
      </trkpt>
      <trkpt lat="48.88512" lon="2.34035">
        <ele>154.9</ele>
        <time>2015-03-30T18:50:35.561Z</time>
      </trkpt>
      <trkpt lat="48.88515" lon="2.33991">
        <ele>155.1</ele>
        <time>2015-03-30T18:50:36.571Z</time>
      </trkpt>
      <trkpt lat="48.88514" lon="2.34">
        <ele>155.2</ele>
        <time>2015-03-30T18:50:37.579Z</time>
      </trkpt>
      <trkpt lat="48.88514" lon="2.34008">
        <ele>155.4</ele>
        <time>2015-03-30T18:50:38.581Z</time>
      </trkpt>
      <trkpt lat="48.88512" lon="2.3402">
        <ele>155.4</ele>
        <time>2015-03-30T18:50:41.590Z</time>
      </trkpt>
      <trkpt lat="48.8851" lon="2.34028">
        <ele>155.4</ele>
        <time>2015-03-30T18:50:42.574Z</time>
      </trkpt>
      <trkpt lat="48.8851" lon="2.34027">
        <ele>155.4</ele>
        <time>2015-03-30T18:50:46.537Z</time>
      </trkpt>
      <trkpt lat="48.8851" lon="2.34028">
        <ele>155.4</ele>
        <time>2015-03-30T18:50:47.535Z</time>
      </trkpt>
      <trkpt lat="48.88511" lon="2.34029">
        <ele>155.3</ele>
        <time>2015-03-30T18:50:48.556Z</time>
      </trkpt>
      <trkpt lat="48.88511" lon="2.3403">
        <ele>155.5</ele>
        <time>2015-03-30T18:50:49.574Z</time>
      </trkpt>
      <trkpt lat="48.88511" lon="2.3403">
        <ele>155.5</ele>
        <time>2015-03-30T18:50:49.597Z</time>
      </trkpt>
      <trkpt lat="48.88511" lon="2.34031">
        <ele>155.4</ele>
        <time>2015-03-30T18:50:50.501Z</time>
      </trkpt>
      <trkpt lat="48.88517" lon="2.34037">
        <ele>161.1</ele>
        <time>2015-03-30T18:51:14.538Z</time>
      </trkpt>
      <trkpt lat="48.88528" lon="2.34045">
        <ele>161.2</ele>
        <time>2015-03-30T18:51:15.554Z</time>
      </trkpt>
      <trkpt lat="48.88534" lon="2.3405">
        <ele>161.6</ele>
        <time>2015-03-30T18:51:17.576Z</time>
      </trkpt>
      <trkpt lat="48.88537" lon="2.3405">
        <ele>161.9</ele>
        <time>2015-03-30T18:51:18.590Z</time>
      </trkpt>
      <trkpt lat="48.88545" lon="2.3405">
        <ele>162.7</ele>
        <time>2015-03-30T18:51:23.569Z</time>
      </trkpt>
      <trkpt lat="48.88546" lon="2.3405">
        <ele>163</ele>
        <time>2015-03-30T18:51:24.584Z</time>
      </trkpt>
      <trkpt lat="48.88554" lon="2.34049">
        <ele>165.1</ele>
        <time>2015-03-30T18:51:36.566Z</time>
      </trkpt>
      <trkpt lat="48.88555" lon="2.34049">
        <ele>165.3</ele>
        <time>2015-03-30T18:51:37.588Z</time>
      </trkpt>
      <trkpt lat="48.88557" lon="2.34049">
        <ele>165.6</ele>
        <time>2015-03-30T18:51:39.607Z</time>
      </trkpt>
      <trkpt lat="48.88563" lon="2.3405">
        <ele>165.8</ele>
        <time>2015-03-30T18:51:40.606Z</time>
      </trkpt>
      <trkpt lat="48.88563" lon="2.3405">
        <ele>166.1</ele>
        <time>2015-03-30T18:51:43.578Z</time>
      </trkpt>
      <trkpt lat="48.88563" lon="2.34049">
        <ele>166.7</ele>
        <time>2015-03-30T18:51:44.593Z</time>
      </trkpt>
      <trkpt lat="48.88569" lon="2.34055">
        <ele>174</ele>
        <time>2015-03-30T18:52:23.560Z</time>
      </trkpt>
      <trkpt lat="48.88571" lon="2.34056">
        <ele>173.5</ele>
        <time>2015-03-30T18:52:24.568Z</time>
      </trkpt>
      <trkpt lat="48.88576" lon="2.34056">
        <ele>171.7</ele>
        <time>2015-03-30T18:52:28.611Z</time>
      </trkpt>
      <trkpt lat="48.88582" lon="2.34057">
        <ele>171.2</ele>
        <time>2015-03-30T18:52:29.622Z</time>
      </trkpt>
      <trkpt lat="48.88581" lon="2.34057">
        <ele>170.4</ele>
        <time>2015-03-30T18:52:33.613Z</time>
      </trkpt>
      <trkpt lat="48.88579" lon="2.34059">
        <ele>170.2</ele>
        <time>2015-03-30T18:52:34.617Z</time>
      </trkpt>
      <trkpt lat="48.88579" lon="2.34059">
        <ele>169.8</ele>
        <time>2015-03-30T18:52:35.622Z</time>
      </trkpt>
      <trkpt lat="48.88579" lon="2.34059">
        <ele>169.6</ele>
        <time>2015-03-30T18:52:36.510Z</time>
      </trkpt>
      <trkpt lat="48.88588" lon="2.34058">
        <ele>169.2</ele>
        <time>2015-03-30T18:52:47.621Z</time>
      </trkpt>
      <trkpt lat="48.88588" lon="2.34058">
        <ele>169.3</ele>
        <time>2015-03-30T18:52:48.525Z</time>
      </trkpt>
      <trkpt lat="48.88589" lon="2.34057">
        <ele>169.7</ele>
        <time>2015-03-30T18:52:52.606Z</time>
      </trkpt>
      <trkpt lat="48.88588" lon="2.34057">
        <ele>169.7</ele>
        <time>2015-03-30T18:52:53.621Z</time>
      </trkpt>
      <trkpt lat="48.88588" lon="2.34057">
        <ele>169.8</ele>
        <time>2015-03-30T18:52:56.796Z</time>
      </trkpt>
      <trkpt lat="48.88587" lon="2.34058">
        <ele>170.2</ele>
        <time>2015-03-30T18:52:57.582Z</time>
      </trkpt>
      <trkpt lat="48.88586" lon="2.34062">
        <ele>169.9</ele>
        <time>2015-03-30T18:53:02.630Z</time>
      </trkpt>
      <trkpt lat="48.8858" lon="2.34067">
        <ele>170.1</ele>
        <time>2015-03-30T18:53:10.490Z</time>
      </trkpt>
      <trkpt lat="48.88579" lon="2.34072">
        <ele>170</ele>
        <time>2015-03-30T18:53:14.576Z</time>
      </trkpt>
      <trkpt lat="48.88575" lon="2.34067">
        <ele>169.9</ele>
        <time>2015-03-30T18:53:15.584Z</time>
      </trkpt>
      <trkpt lat="48.88575" lon="2.34067">
        <ele>169.9</ele>
        <time>2015-03-30T18:53:16.002Z</time>
      </trkpt>
      <trkpt lat="48.88576" lon="2.34067">
        <ele>170</ele>
        <time>2015-03-30T18:53:16.601Z</time>
      </trkpt>
      <trkpt lat="48.88576" lon="2.34067">
        <ele>170.1</ele>
        <time>2015-03-30T18:53:17.603Z</time>
      </trkpt>
      <trkpt lat="48.88576" lon="2.34067">
        <ele>170.2</ele>
        <time>2015-03-30T18:53:18.614Z</time>
      </trkpt>
      <trkpt lat="48.88576" lon="2.34068">
        <ele>170.3</ele>
        <time>2015-03-30T18:53:19.606Z</time>
      </trkpt>
      <trkpt lat="48.88576" lon="2.34068">
        <ele>170.2</ele>
        <time>2015-03-30T18:53:20.626Z</time>
      </trkpt>
      <trkpt lat="48.88576" lon="2.34068">
        <ele>170.2</ele>
        <time>2015-03-30T18:53:21.114Z</time>
      </trkpt>
      <trkpt lat="48.88577" lon="2.34068">
        <ele>169.9</ele>
        <time>2015-03-30T18:53:21.627Z</time>
      </trkpt>
      <trkpt lat="48.88578" lon="2.34069">
        <ele>170</ele>
        <time>2015-03-30T18:53:22.539Z</time>
      </trkpt>
      <trkpt lat="48.88571" lon="2.34077">
        <ele>169</ele>
        <time>2015-03-30T18:53:29.638Z</time>
      </trkpt>
      <trkpt lat="48.88571" lon="2.34079">
        <ele>168.5</ele>
        <time>2015-03-30T18:53:30.508Z</time>
      </trkpt>
      <trkpt lat="48.88568" lon="2.34091">
        <ele>164.6</ele>
        <time>2015-03-30T18:53:37.537Z</time>
      </trkpt>
      <trkpt lat="48.88568" lon="2.34093">
        <ele>164.3</ele>
        <time>2015-03-30T18:53:38.578Z</time>
      </trkpt>
      <trkpt lat="48.88564" lon="2.34104">
        <ele>162.3</ele>
        <time>2015-03-30T18:53:42.569Z</time>
      </trkpt>
      <trkpt lat="48.88564" lon="2.34107">
        <ele>162</ele>
        <time>2015-03-30T18:53:43.661Z</time>
      </trkpt>
      <trkpt lat="48.88561" lon="2.34118">
        <ele>161.6</ele>
        <time>2015-03-30T18:53:47.606Z</time>
      </trkpt>
      <trkpt lat="48.8856" lon="2.34122">
        <ele>161.3</ele>
        <time>2015-03-30T18:53:48.514Z</time>
      </trkpt>
      <trkpt lat="48.88558" lon="2.34132">
        <ele>161.1</ele>
        <time>2015-03-30T18:53:51.504Z</time>
      </trkpt>
      <trkpt lat="48.88557" lon="2.34135">
        <ele>161</ele>
        <time>2015-03-30T18:53:52.508Z</time>
      </trkpt>
      <trkpt lat="48.88554" lon="2.34147">
        <ele>160.6</ele>
        <time>2015-03-30T18:53:55.557Z</time>
      </trkpt>
      <trkpt lat="48.88553" lon="2.34151">
        <ele>160.6</ele>
        <time>2015-03-30T18:53:56.577Z</time>
      </trkpt>
      <trkpt lat="48.88549" lon="2.34162">
        <ele>160.2</ele>
        <time>2015-03-30T18:53:59.513Z</time>
      </trkpt>
      <trkpt lat="48.88549" lon="2.34164">
        <ele>160</ele>
        <time>2015-03-30T18:54:00.523Z</time>
      </trkpt>
      <trkpt lat="48.88546" lon="2.34174">
        <ele>159.5</ele>
        <time>2015-03-30T18:54:03.607Z</time>
      </trkpt>
      <trkpt lat="48.88544" lon="2.34177">
        <ele>159.3</ele>
        <time>2015-03-30T18:54:04.616Z</time>
      </trkpt>
      <trkpt lat="48.88541" lon="2.34186">
        <ele>159.1</ele>
        <time>2015-03-30T18:54:08.538Z</time>
      </trkpt>
      <trkpt lat="48.88539" lon="2.34189">
        <ele>158.9</ele>
        <time>2015-03-30T18:54:09.540Z</time>
      </trkpt>
      <trkpt lat="48.88522" lon="2.3422">
        <ele>158.8</ele>
        <time>2015-03-30T18:54:10.554Z</time>
      </trkpt>
      <trkpt lat="48.8852" lon="2.34225">
        <ele>158.2</ele>
        <time>2015-03-30T18:54:14.599Z</time>
      </trkpt>
      <trkpt lat="48.8852" lon="2.34225">
        <ele>158.4</ele>
        <time>2015-03-30T18:54:15.625Z</time>
      </trkpt>
      <trkpt lat="48.8852" lon="2.34225">
        <ele>158.4</ele>
        <time>2015-03-30T18:54:16.533Z</time>
      </trkpt>
      <trkpt lat="48.88526" lon="2.34222">
        <ele>157.3</ele>
        <time>2015-03-30T18:54:26.555Z</time>
      </trkpt>
      <trkpt lat="48.88526" lon="2.34222">
        <ele>157.2</ele>
        <time>2015-03-30T18:54:27.597Z</time>
      </trkpt>
      <trkpt lat="48.88526" lon="2.34221">
        <ele>157.3</ele>
        <time>2015-03-30T18:54:29.565Z</time>
      </trkpt>
      <trkpt lat="48.88525" lon="2.34221">
        <ele>157.3</ele>
        <time>2015-03-30T18:54:30.589Z</time>
      </trkpt>
      <trkpt lat="48.88531" lon="2.34214">
        <ele>156.9</ele>
        <time>2015-03-30T18:54:36.546Z</time>
      </trkpt>
      <trkpt lat="48.88533" lon="2.34212">
        <ele>156.8</ele>
        <time>2015-03-30T18:54:37.590Z</time>
      </trkpt>
      <trkpt lat="48.88533" lon="2.3421">
        <ele>156.7</ele>
        <time>2015-03-30T18:54:38.506Z</time>
      </trkpt>
      <trkpt lat="48.88533" lon="2.3421">
        <ele>156.7</ele>
        <time>2015-03-30T18:54:39.535Z</time>
      </trkpt>
      <trkpt lat="48.88533" lon="2.34209">
        <ele>156.7</ele>
        <time>2015-03-30T18:54:40.557Z</time>
      </trkpt>
      <trkpt lat="48.8853" lon="2.34206">
        <ele>156.6</ele>
        <time>2015-03-30T18:54:44.615Z</time>
      </trkpt>
      <trkpt lat="48.88529" lon="2.34206">
        <ele>156.7</ele>
        <time>2015-03-30T18:54:45.526Z</time>
      </trkpt>
      <trkpt lat="48.88529" lon="2.34206">
        <ele>156.7</ele>
        <time>2015-03-30T18:54:46.586Z</time>
      </trkpt>
      <trkpt lat="48.8853" lon="2.34205">
        <ele>156.7</ele>
        <time>2015-03-30T18:54:47.612Z</time>
      </trkpt>
      <trkpt lat="48.8853" lon="2.34204">
        <ele>156.5</ele>
        <time>2015-03-30T18:54:48.625Z</time>
      </trkpt>
      <trkpt lat="48.88529" lon="2.34204">
        <ele>156.5</ele>
        <time>2015-03-30T18:54:49.551Z</time>
      </trkpt>
      <trkpt lat="48.8853" lon="2.34204">
        <ele>156.5</ele>
        <time>2015-03-30T18:55:09.611Z</time>
      </trkpt>
      <trkpt lat="48.88537" lon="2.34194">
        <ele>158.4</ele>
        <time>2015-03-30T18:55:10.635Z</time>
      </trkpt>
      <trkpt lat="48.88537" lon="2.34194">
        <ele>158.4</ele>
        <time>2015-03-30T18:55:11.573Z</time>
      </trkpt>
      <trkpt lat="48.88538" lon="2.34194">
        <ele>158.3</ele>
        <time>2015-03-30T18:55:12.595Z</time>
      </trkpt>
      <trkpt lat="48.88538" lon="2.34194">
        <ele>158.2</ele>
        <time>2015-03-30T18:55:13.596Z</time>
      </trkpt>
      <trkpt lat="48.88538" lon="2.34194">
        <ele>158.3</ele>
        <time>2015-03-30T18:55:14.608Z</time>
      </trkpt>
      <trkpt lat="48.88546" lon="2.34199">
        <ele>165.4</ele>
        <time>2015-03-30T18:56:00.542Z</time>
      </trkpt>
      <trkpt lat="48.88548" lon="2.34199">
        <ele>165.2</ele>
        <time>2015-03-30T18:56:01.556Z</time>
      </trkpt>
      <trkpt lat="48.88557" lon="2.34198">
        <ele>164.3</ele>
        <time>2015-03-30T18:56:15.575Z</time>
      </trkpt>
      <trkpt lat="48.88557" lon="2.34198">
        <ele>164.3</ele>
        <time>2015-03-30T18:56:16.006Z</time>
      </trkpt>
      <trkpt lat="48.88566" lon="2.34203">
        <ele>163.2</ele>
        <time>2015-03-30T18:56:41.601Z</time>
      </trkpt>
      <trkpt lat="48.88566" lon="2.34203">
        <ele>163.2</ele>
        <time>2015-03-30T18:56:42.614Z</time>
      </trkpt>
      <trkpt lat="48.88568" lon="2.34209">
        <ele>163.2</ele>
        <time>2015-03-30T18:57:23.599Z</time>
      </trkpt>
      <trkpt lat="48.8857" lon="2.34215">
        <ele>162.1</ele>
        <time>2015-03-30T18:57:24.512Z</time>
      </trkpt>
      <trkpt lat="48.8857" lon="2.34228">
        <ele>161.8</ele>
        <time>2015-03-30T18:57:41.510Z</time>
      </trkpt>
      <trkpt lat="48.8857" lon="2.34231">
        <ele>161.6</ele>
        <time>2015-03-30T18:57:42.573Z</time>
      </trkpt>
      <trkpt lat="48.88572" lon="2.34243">
        <ele>161.4</ele>
        <time>2015-03-30T18:57:47.530Z</time>
      </trkpt>
      <trkpt lat="48.88573" lon="2.34245">
        <ele>161.3</ele>
        <time>2015-03-30T18:57:48.527Z</time>
      </trkpt>
      <trkpt lat="48.88574" lon="2.34246">
        <ele>161.4</ele>
        <time>2015-03-30T18:57:49.573Z</time>
      </trkpt>
      <trkpt lat="48.88583" lon="2.34273">
        <ele>161.3</ele>
        <time>2015-03-30T18:57:50.584Z</time>
      </trkpt>
      <trkpt lat="48.88586" lon="2.34283">
        <ele>161.4</ele>
        <time>2015-03-30T18:57:53.610Z</time>
      </trkpt>
      <trkpt lat="48.88587" lon="2.34286">
        <ele>161.4</ele>
        <time>2015-03-30T18:57:54.526Z</time>
      </trkpt>
      <trkpt lat="48.88589" lon="2.34297">
        <ele>161.4</ele>
        <time>2015-03-30T18:57:57.594Z</time>
      </trkpt>
      <trkpt lat="48.8859" lon="2.343">
        <ele>161.2</ele>
        <time>2015-03-30T18:57:58.601Z</time>
      </trkpt>
      <trkpt lat="48.8859" lon="2.34312">
        <ele>161.6</ele>
        <time>2015-03-30T18:58:03.547Z</time>
      </trkpt>
      <trkpt lat="48.8859" lon="2.34314">
        <ele>161.8</ele>
        <time>2015-03-30T18:58:04.566Z</time>
      </trkpt>
      <trkpt lat="48.88587" lon="2.34326">
        <ele>161.9</ele>
        <time>2015-03-30T18:58:08.569Z</time>
      </trkpt>
      <trkpt lat="48.88587" lon="2.34328">
        <ele>162</ele>
        <time>2015-03-30T18:58:09.590Z</time>
      </trkpt>
      <trkpt lat="48.88587" lon="2.34338">
        <ele>162.7</ele>
        <time>2015-03-30T18:58:15.534Z</time>
      </trkpt>
      <trkpt lat="48.88587" lon="2.34337">
        <ele>162.6</ele>
        <time>2015-03-30T18:58:16.541Z</time>
      </trkpt>
      <trkpt lat="48.88586" lon="2.34336">
        <ele>162.4</ele>
        <time>2015-03-30T18:58:17.547Z</time>
      </trkpt>
      <trkpt lat="48.88587" lon="2.34332">
        <ele>163.2</ele>
        <time>2015-03-30T18:58:48.620Z</time>
      </trkpt>
      <trkpt lat="48.88588" lon="2.34332">
        <ele>163.2</ele>
        <time>2015-03-30T18:58:49.566Z</time>
      </trkpt>
      <trkpt lat="48.88588" lon="2.34332">
        <ele>163.4</ele>
        <time>2015-03-30T18:58:58.560Z</time>
      </trkpt>
      <trkpt lat="48.8859" lon="2.34332">
        <ele>163.8</ele>
        <time>2015-03-30T18:58:59.564Z</time>
      </trkpt>
      <trkpt lat="48.8859" lon="2.34332">
        <ele>164</ele>
        <time>2015-03-30T18:59:00.516Z</time>
      </trkpt>
      <trkpt lat="48.8859" lon="2.34332">
        <ele>164</ele>
        <time>2015-03-30T18:59:01.561Z</time>
      </trkpt>
      <trkpt lat="48.8859" lon="2.34332">
        <ele>164.2</ele>
        <time>2015-03-30T18:59:05.527Z</time>
      </trkpt>
      <trkpt lat="48.88588" lon="2.34333">
        <ele>164.3</ele>
        <time>2015-03-30T18:59:06.547Z</time>
      </trkpt>
      <trkpt lat="48.88588" lon="2.34333">
        <ele>164.4</ele>
        <time>2015-03-30T18:59:07.576Z</time>
      </trkpt>
      <trkpt lat="48.88588" lon="2.34333">
        <ele>164.5</ele>
        <time>2015-03-30T18:59:08.599Z</time>
      </trkpt>
      <trkpt lat="48.88588" lon="2.34333">
        <ele>164.5</ele>
        <time>2015-03-30T18:59:39.582Z</time>
      </trkpt>
      <trkpt lat="48.88589" lon="2.34335">
        <ele>165.9</ele>
        <time>2015-03-30T18:59:40.601Z</time>
      </trkpt>
      <trkpt lat="48.8859" lon="2.34336">
        <ele>166.2</ele>
        <time>2015-03-30T18:59:43.592Z</time>
      </trkpt>
      <trkpt lat="48.8859" lon="2.34337">
        <ele>166.8</ele>
        <time>2015-03-30T18:59:44.512Z</time>
      </trkpt>
      <trkpt lat="48.8859" lon="2.34339">
        <ele>167.7</ele>
        <time>2015-03-30T18:59:57.578Z</time>
      </trkpt>
      <trkpt lat="48.88591" lon="2.34341">
        <ele>168</ele>
        <time>2015-03-30T18:59:58.593Z</time>
      </trkpt>
      <trkpt lat="48.88588" lon="2.34352">
        <ele>169</ele>
        <time>2015-03-30T19:00:06.587Z</time>
      </trkpt>
      <trkpt lat="48.88587" lon="2.34354">
        <ele>168.8</ele>
        <time>2015-03-30T19:00:07.602Z</time>
      </trkpt>
      <trkpt lat="48.88589" lon="2.34368">
        <ele>168.1</ele>
        <time>2015-03-30T19:00:11.583Z</time>
      </trkpt>
      <trkpt lat="48.8859" lon="2.34371">
        <ele>168</ele>
        <time>2015-03-30T19:00:12.510Z</time>
      </trkpt>
      <trkpt lat="48.88595" lon="2.3438">
        <ele>167.8</ele>
        <time>2015-03-30T19:00:15.590Z</time>
      </trkpt>
      <trkpt lat="48.88596" lon="2.34382">
        <ele>167.9</ele>
        <time>2015-03-30T19:00:16.613Z</time>
      </trkpt>
      <trkpt lat="48.88604" lon="2.34387">
        <ele>167.7</ele>
        <time>2015-03-30T19:00:19.648Z</time>
      </trkpt>
      <trkpt lat="48.88607" lon="2.34388">
        <ele>167.6</ele>
        <time>2015-03-30T19:00:20.530Z</time>
      </trkpt>
      <trkpt lat="48.88614" lon="2.34393">
        <ele>167.5</ele>
        <time>2015-03-30T19:00:24.504Z</time>
      </trkpt>
      <trkpt lat="48.88615" lon="2.34394">
        <ele>167.4</ele>
        <time>2015-03-30T19:00:25.578Z</time>
      </trkpt>
      <trkpt lat="48.88623" lon="2.34401">
        <ele>167.4</ele>
        <time>2015-03-30T19:00:32.586Z</time>
      </trkpt>
      <trkpt lat="48.88625" lon="2.34402">
        <ele>167.5</ele>
        <time>2015-03-30T19:00:33.588Z</time>
      </trkpt>
      <trkpt lat="48.88632" lon="2.34407">
        <ele>167.9</ele>
        <time>2015-03-30T19:00:38.579Z</time>
      </trkpt>
      <trkpt lat="48.88636" lon="2.34406">
        <ele>168</ele>
        <time>2015-03-30T19:00:39.536Z</time>
      </trkpt>
      <trkpt lat="48.88643" lon="2.34408">
        <ele>168.2</ele>
        <time>2015-03-30T19:00:41.532Z</time>
      </trkpt>
      <trkpt lat="48.88646" lon="2.34409">
        <ele>168.4</ele>
        <time>2015-03-30T19:00:42.536Z</time>
      </trkpt>
      <trkpt lat="48.88653" lon="2.34413">
        <ele>168.7</ele>
        <time>2015-03-30T19:00:45.625Z</time>
      </trkpt>
      <trkpt lat="48.88656" lon="2.34413">
        <ele>168.7</ele>
        <time>2015-03-30T19:00:46.538Z</time>
      </trkpt>
      <trkpt lat="48.88662" lon="2.34418">
        <ele>168.8</ele>
        <time>2015-03-30T19:00:49.575Z</time>
      </trkpt>
      <trkpt lat="48.88664" lon="2.3442">
        <ele>168.8</ele>
        <time>2015-03-30T19:00:50.692Z</time>
      </trkpt>
      <trkpt lat="48.8867" lon="2.34422">
        <ele>168.8</ele>
        <time>2015-03-30T19:00:52.544Z</time>
      </trkpt>
      <trkpt lat="48.88674" lon="2.34422">
        <ele>169</ele>
        <time>2015-03-30T19:00:53.563Z</time>
      </trkpt>
      <trkpt lat="48.88679" lon="2.34422">
        <ele>169.1</ele>
        <time>2015-03-30T19:00:54.609Z</time>
      </trkpt>
      <trkpt lat="48.88684" lon="2.34423">
        <ele>169.1</ele>
        <time>2015-03-30T19:00:55.604Z</time>
      </trkpt>
      <trkpt lat="48.88689" lon="2.34423">
        <ele>169.2</ele>
        <time>2015-03-30T19:00:56.518Z</time>
      </trkpt>
      <trkpt lat="48.88696" lon="2.34425">
        <ele>169</ele>
        <time>2015-03-30T19:00:57.524Z</time>
      </trkpt>
      <trkpt lat="48.88705" lon="2.3443">
        <ele>168.2</ele>
        <time>2015-03-30T19:00:58.539Z</time>
      </trkpt>
      <trkpt lat="48.88711" lon="2.34431">
        <ele>168.2</ele>
        <time>2015-03-30T19:00:59.549Z</time>
      </trkpt>
      <trkpt lat="48.88714" lon="2.34432">
        <ele>168.2</ele>
        <time>2015-03-30T19:01:00.567Z</time>
      </trkpt>
      <trkpt lat="48.88721" lon="2.34432">
        <ele>168</ele>
        <time>2015-03-30T19:01:02.517Z</time>
      </trkpt>
      <trkpt lat="48.88724" lon="2.34432">
        <ele>167.8</ele>
        <time>2015-03-30T19:01:03.540Z</time>
      </trkpt>
      <trkpt lat="48.88733" lon="2.34431">
        <ele>167.4</ele>
        <time>2015-03-30T19:01:06.518Z</time>
      </trkpt>
      <trkpt lat="48.88736" lon="2.3443">
        <ele>167.5</ele>
        <time>2015-03-30T19:01:07.557Z</time>
      </trkpt>
      <trkpt lat="48.88743" lon="2.34428">
        <ele>167.3</ele>
        <time>2015-03-30T19:01:09.561Z</time>
      </trkpt>
      <trkpt lat="48.88747" lon="2.34428">
        <ele>167.2</ele>
        <time>2015-03-30T19:01:10.578Z</time>
      </trkpt>
      <trkpt lat="48.88753" lon="2.34426">
        <ele>167.3</ele>
        <time>2015-03-30T19:01:11.492Z</time>
      </trkpt>
      <trkpt lat="48.88758" lon="2.34425">
        <ele>167.3</ele>
        <time>2015-03-30T19:01:12.610Z</time>
      </trkpt>
      <trkpt lat="48.88763" lon="2.34425">
        <ele>167.3</ele>
        <time>2015-03-30T19:01:13.677Z</time>
      </trkpt>
      <trkpt lat="48.88768" lon="2.34424">
        <ele>167.4</ele>
        <time>2015-03-30T19:01:14.546Z</time>
      </trkpt>
      <trkpt lat="48.88774" lon="2.34423">
        <ele>167.3</ele>
        <time>2015-03-30T19:01:15.721Z</time>
      </trkpt>
      <trkpt lat="48.8878" lon="2.34422">
        <ele>167.2</ele>
        <time>2015-03-30T19:01:16.606Z</time>
      </trkpt>
      <trkpt lat="48.88788" lon="2.3442">
        <ele>167.1</ele>
        <time>2015-03-30T19:01:17.547Z</time>
      </trkpt>
      <trkpt lat="48.88794" lon="2.34417">
        <ele>167</ele>
        <time>2015-03-30T19:01:18.562Z</time>
      </trkpt>
      <trkpt lat="48.88801" lon="2.34416">
        <ele>166.9</ele>
        <time>2015-03-30T19:01:19.596Z</time>
      </trkpt>
      <trkpt lat="48.88808" lon="2.34416">
        <ele>166.8</ele>
        <time>2015-03-30T19:01:20.500Z</time>
      </trkpt>
      <trkpt lat="48.88863" lon="2.34385">
        <ele>167.1</ele>
        <time>2015-03-30T19:01:32.519Z</time>
      </trkpt>
      <trkpt lat="48.88867" lon="2.34376">
        <ele>167.2</ele>
        <time>2015-03-30T19:01:34.527Z</time>
      </trkpt>
      <trkpt lat="48.88873" lon="2.34373">
        <ele>167.6</ele>
        <time>2015-03-30T19:01:35.514Z</time>
      </trkpt>
      <trkpt lat="48.88879" lon="2.34369">
        <ele>167.9</ele>
        <time>2015-03-30T19:01:36.567Z</time>
      </trkpt>
      <trkpt lat="48.88885" lon="2.34364">
        <ele>168.8</ele>
        <time>2015-03-30T19:01:37.577Z</time>
      </trkpt>
      <trkpt lat="48.88892" lon="2.3436">
        <ele>168.3</ele>
        <time>2015-03-30T19:01:39.597Z</time>
      </trkpt>
      <trkpt lat="48.88897" lon="2.3436">
        <ele>168.9</ele>
        <time>2015-03-30T19:01:40.578Z</time>
      </trkpt>
      <trkpt lat="48.88903" lon="2.34354">
        <ele>170.1</ele>
        <time>2015-03-30T19:01:43.562Z</time>
      </trkpt>
      <trkpt lat="48.88905" lon="2.34353">
        <ele>170.6</ele>
        <time>2015-03-30T19:01:44.562Z</time>
      </trkpt>
      <trkpt lat="48.88911" lon="2.34351">
        <ele>172.2</ele>
        <time>2015-03-30T19:01:46.517Z</time>
      </trkpt>
      <trkpt lat="48.88917" lon="2.34349">
        <ele>173.2</ele>
        <time>2015-03-30T19:01:47.546Z</time>
      </trkpt>
      <trkpt lat="48.88922" lon="2.34347">
        <ele>172.9</ele>
        <time>2015-03-30T19:01:48.575Z</time>
      </trkpt>
      <trkpt lat="48.88929" lon="2.34343">
        <ele>172.4</ele>
        <time>2015-03-30T19:01:49.584Z</time>
      </trkpt>
      <trkpt lat="48.88934" lon="2.34338">
        <ele>172.8</ele>
        <time>2015-03-30T19:01:50.606Z</time>
      </trkpt>
      <trkpt lat="48.8894" lon="2.34334">
        <ele>174.1</ele>
        <time>2015-03-30T19:01:51.517Z</time>
      </trkpt>
      <trkpt lat="48.88946" lon="2.34329">
        <ele>174.6</ele>
        <time>2015-03-30T19:01:52.527Z</time>
      </trkpt>
      <trkpt lat="48.8895" lon="2.34323">
        <ele>174.3</ele>
        <time>2015-03-30T19:01:53.535Z</time>
      </trkpt>
      <trkpt lat="48.88955" lon="2.34316">
        <ele>172.9</ele>
        <time>2015-03-30T19:01:54.565Z</time>
      </trkpt>
      <trkpt lat="48.88958" lon="2.3431">
        <ele>172.7</ele>
        <time>2015-03-30T19:01:55.567Z</time>
      </trkpt>
      <trkpt lat="48.88962" lon="2.34304">
        <ele>171.8</ele>
        <time>2015-03-30T19:01:56.609Z</time>
      </trkpt>
      <trkpt lat="48.88962" lon="2.34296">
        <ele>169.9</ele>
        <time>2015-03-30T19:01:57.516Z</time>
      </trkpt>
      <trkpt lat="48.88959" lon="2.34288">
        <ele>168.3</ele>
        <time>2015-03-30T19:01:58.513Z</time>
      </trkpt>
      <trkpt lat="48.88957" lon="2.3428">
        <ele>169.6</ele>
        <time>2015-03-30T19:01:59.527Z</time>
      </trkpt>
      <trkpt lat="48.88961" lon="2.34267">
        <ele>169.7</ele>
        <time>2015-03-30T19:02:01.559Z</time>
      </trkpt>
      <trkpt lat="48.88963" lon="2.34261">
        <ele>170</ele>
        <time>2015-03-30T19:02:02.567Z</time>
      </trkpt>
      <trkpt lat="48.88967" lon="2.34254">
        <ele>169.6</ele>
        <time>2015-03-30T19:02:03.514Z</time>
      </trkpt>
      <trkpt lat="48.8897" lon="2.34248">
        <ele>169.3</ele>
        <time>2015-03-30T19:02:04.524Z</time>
      </trkpt>
      <trkpt lat="48.88973" lon="2.34243">
        <ele>169.3</ele>
        <time>2015-03-30T19:02:05.536Z</time>
      </trkpt>
      <trkpt lat="48.88974" lon="2.34235">
        <ele>171.2</ele>
        <time>2015-03-30T19:02:06.542Z</time>
      </trkpt>
      <trkpt lat="48.88976" lon="2.34223">
        <ele>173.7</ele>
        <time>2015-03-30T19:02:08.571Z</time>
      </trkpt>
      <trkpt lat="48.88975" lon="2.34217">
        <ele>174</ele>
        <time>2015-03-30T19:02:09.711Z</time>
      </trkpt>
      <trkpt lat="48.88975" lon="2.34207">
        <ele>174.8</ele>
        <time>2015-03-30T19:02:11.547Z</time>
      </trkpt>
      <trkpt lat="48.88977" lon="2.34201">
        <ele>174.7</ele>
        <time>2015-03-30T19:02:12.564Z</time>
      </trkpt>
      <trkpt lat="48.88978" lon="2.34194">
        <ele>171.8</ele>
        <time>2015-03-30T19:02:13.583Z</time>
      </trkpt>
      <trkpt lat="48.88995" lon="2.34176">
        <ele>171.7</ele>
        <time>2015-03-30T19:02:17.523Z</time>
      </trkpt>
      <trkpt lat="48.89002" lon="2.34168">
        <ele>171.9</ele>
        <time>2015-03-30T19:02:19.581Z</time>
      </trkpt>
      <trkpt lat="48.89005" lon="2.34164">
        <ele>172.4</ele>
        <time>2015-03-30T19:02:20.599Z</time>
      </trkpt>
      <trkpt lat="48.89009" lon="2.3416">
        <ele>172.6</ele>
        <time>2015-03-30T19:02:21.602Z</time>
      </trkpt>
      <trkpt lat="48.89012" lon="2.34154">
        <ele>172.8</ele>
        <time>2015-03-30T19:02:22.524Z</time>
      </trkpt>
      <trkpt lat="48.89014" lon="2.34147">
        <ele>172.5</ele>
        <time>2015-03-30T19:02:23.561Z</time>
      </trkpt>
      <trkpt lat="48.89017" lon="2.34138">
        <ele>172.4</ele>
        <time>2015-03-30T19:02:24.503Z</time>
      </trkpt>
      <trkpt lat="48.8902" lon="2.34132">
        <ele>171.9</ele>
        <time>2015-03-30T19:02:25.571Z</time>
      </trkpt>
      <trkpt lat="48.89022" lon="2.34125">
        <ele>173</ele>
        <time>2015-03-30T19:02:26.557Z</time>
      </trkpt>
      <trkpt lat="48.89026" lon="2.34115">
        <ele>174.2</ele>
        <time>2015-03-30T19:02:28.598Z</time>
      </trkpt>
      <trkpt lat="48.89027" lon="2.3411">
        <ele>174.4</ele>
        <time>2015-03-30T19:02:29.616Z</time>
      </trkpt>
      <trkpt lat="48.8903" lon="2.34099">
        <ele>176.2</ele>
        <time>2015-03-30T19:02:31.565Z</time>
      </trkpt>
      <trkpt lat="48.8903" lon="2.34096">
        <ele>177.7</ele>
        <time>2015-03-30T19:02:32.585Z</time>
      </trkpt>
      <trkpt lat="48.89025" lon="2.3409">
        <ele>176.3</ele>
        <time>2015-03-30T19:02:35.519Z</time>
      </trkpt>
      <trkpt lat="48.89023" lon="2.34087">
        <ele>175.1</ele>
        <time>2015-03-30T19:02:36.497Z</time>
      </trkpt>
      <trkpt lat="48.89017" lon="2.34082">
        <ele>173.1</ele>
        <time>2015-03-30T19:02:39.537Z</time>
      </trkpt>
      <trkpt lat="48.89014" lon="2.34081">
        <ele>172.7</ele>
        <time>2015-03-30T19:02:40.552Z</time>
      </trkpt>
      <trkpt lat="48.89014" lon="2.34081">
        <ele>172.6</ele>
        <time>2015-03-30T19:02:41.562Z</time>
      </trkpt>
      <trkpt lat="48.89013" lon="2.3408">
        <ele>172.4</ele>
        <time>2015-03-30T19:02:42.578Z</time>
      </trkpt>
      <trkpt lat="48.89012" lon="2.34079">
        <ele>172.4</ele>
        <time>2015-03-30T19:02:43.606Z</time>
      </trkpt>
      <trkpt lat="48.89011" lon="2.34079">
        <ele>172.3</ele>
        <time>2015-03-30T19:03:00.498Z</time>
      </trkpt>
      <trkpt lat="48.88994" lon="2.34067">
        <ele>170.6</ele>
        <time>2015-03-30T19:03:01.583Z</time>
      </trkpt>
      <trkpt lat="48.88994" lon="2.34067">
        <ele>170.5</ele>
        <time>2015-03-30T19:03:02.603Z</time>
      </trkpt>
      <trkpt lat="48.88993" lon="2.34067">
        <ele>170.6</ele>
        <time>2015-03-30T19:03:03.516Z</time>
      </trkpt>
      <trkpt lat="48.88993" lon="2.34067">
        <ele>170.8</ele>
        <time>2015-03-30T19:03:04.520Z</time>
      </trkpt>
      <trkpt lat="48.88992" lon="2.34066">
        <ele>170.8</ele>
        <time>2015-03-30T19:03:05.533Z</time>
      </trkpt>
      <trkpt lat="48.88991" lon="2.34066">
        <ele>170.9</ele>
        <time>2015-03-30T19:03:06.543Z</time>
      </trkpt>
      <trkpt lat="48.8899" lon="2.34066">
        <ele>170.6</ele>
        <time>2015-03-30T19:03:08.560Z</time>
      </trkpt>
      <trkpt lat="48.88989" lon="2.34065">
        <ele>170.3</ele>
        <time>2015-03-30T19:03:09.583Z</time>
      </trkpt>
      <trkpt lat="48.88983" lon="2.3406">
        <ele>171</ele>
        <time>2015-03-30T19:03:16.582Z</time>
      </trkpt>
      <trkpt lat="48.88982" lon="2.3406">
        <ele>171</ele>
        <time>2015-03-30T19:03:17.496Z</time>
      </trkpt>
      <trkpt lat="48.88982" lon="2.34059">
        <ele>171</ele>
        <time>2015-03-30T19:03:18.541Z</time>
      </trkpt>
      <trkpt lat="48.88973" lon="2.34061">
        <ele>172.8</ele>
        <time>2015-03-30T19:03:24.515Z</time>
      </trkpt>
      <trkpt lat="48.88973" lon="2.3406">
        <ele>173.2</ele>
        <time>2015-03-30T19:03:25.615Z</time>
      </trkpt>
      <trkpt lat="48.88974" lon="2.34049">
        <ele>173</ele>
        <time>2015-03-30T19:03:32.576Z</time>
      </trkpt>
      <trkpt lat="48.88974" lon="2.34046">
        <ele>172.6</ele>
        <time>2015-03-30T19:03:33.580Z</time>
      </trkpt>
      <trkpt lat="48.88973" lon="2.34044">
        <ele>172.2</ele>
        <time>2015-03-30T19:03:35.606Z</time>
      </trkpt>
      <trkpt lat="48.88973" lon="2.34044">
        <ele>172.2</ele>
        <time>2015-03-30T19:03:36.542Z</time>
      </trkpt>
      <trkpt lat="48.88973" lon="2.34044">
        <ele>172.1</ele>
        <time>2015-03-30T19:03:46.519Z</time>
      </trkpt>
      <trkpt lat="48.8897" lon="2.34044">
        <ele>170.1</ele>
        <time>2015-03-30T19:03:47.518Z</time>
      </trkpt>
      <trkpt lat="48.88971" lon="2.34041">
        <ele>169.8</ele>
        <time>2015-03-30T19:03:50.591Z</time>
      </trkpt>
      <trkpt lat="48.8897" lon="2.34041">
        <ele>169.5</ele>
        <time>2015-03-30T19:03:51.612Z</time>
      </trkpt>
      <trkpt lat="48.88969" lon="2.34041">
        <ele>169.1</ele>
        <time>2015-03-30T19:03:55.580Z</time>
      </trkpt>
      <trkpt lat="48.88966" lon="2.34042">
        <ele>168.1</ele>
        <time>2015-03-30T19:03:56.592Z</time>
      </trkpt>
      <trkpt lat="48.88962" lon="2.3405">
        <ele>169.3</ele>
        <time>2015-03-30T19:04:18.549Z</time>
      </trkpt>
      <trkpt lat="48.88962" lon="2.3405">
        <ele>169.3</ele>
        <time>2015-03-30T19:04:19.551Z</time>
      </trkpt>
      <trkpt lat="48.88963" lon="2.34049">
        <ele>169</ele>
        <time>2015-03-30T19:04:20.610Z</time>
      </trkpt>
      <trkpt lat="48.88963" lon="2.3405">
        <ele>168.3</ele>
        <time>2015-03-30T19:04:21.611Z</time>
      </trkpt>
      <trkpt lat="48.88958" lon="2.34057">
        <ele>165.7</ele>
        <time>2015-03-30T19:04:23.520Z</time>
      </trkpt>
      <trkpt lat="48.88955" lon="2.34061">
        <ele>164.7</ele>
        <time>2015-03-30T19:04:24.563Z</time>
      </trkpt>
      <trkpt lat="48.88951" lon="2.34066">
        <ele>163.1</ele>
        <time>2015-03-30T19:04:25.588Z</time>
      </trkpt>
      <trkpt lat="48.88948" lon="2.3407">
        <ele>162</ele>
        <time>2015-03-30T19:04:26.592Z</time>
      </trkpt>
      <trkpt lat="48.88943" lon="2.3408">
        <ele>160.4</ele>
        <time>2015-03-30T19:04:28.516Z</time>
      </trkpt>
      <trkpt lat="48.88942" lon="2.34084">
        <ele>159.9</ele>
        <time>2015-03-30T19:04:29.629Z</time>
      </trkpt>
      <trkpt lat="48.88941" lon="2.34094">
        <ele>159.2</ele>
        <time>2015-03-30T19:04:31.597Z</time>
      </trkpt>
      <trkpt lat="48.88941" lon="2.34099">
        <ele>158.6</ele>
        <time>2015-03-30T19:04:32.571Z</time>
      </trkpt>
      <trkpt lat="48.88942" lon="2.34111">
        <ele>157.2</ele>
        <time>2015-03-30T19:04:34.613Z</time>
      </trkpt>
      <trkpt lat="48.88942" lon="2.34117">
        <ele>156.6</ele>
        <time>2015-03-30T19:04:35.540Z</time>
      </trkpt>
      <trkpt lat="48.88942" lon="2.34124">
        <ele>155.9</ele>
        <time>2015-03-30T19:04:36.521Z</time>
      </trkpt>
      <trkpt lat="48.88943" lon="2.34131">
        <ele>155.4</ele>
        <time>2015-03-30T19:04:37.557Z</time>
      </trkpt>
      <trkpt lat="48.88942" lon="2.34139">
        <ele>154.8</ele>
        <time>2015-03-30T19:04:38.560Z</time>
      </trkpt>
      <trkpt lat="48.88943" lon="2.34146">
        <ele>154.4</ele>
        <time>2015-03-30T19:04:39.569Z</time>
      </trkpt>
      <trkpt lat="48.88945" lon="2.34159">
        <ele>153.6</ele>
        <time>2015-03-30T19:04:41.586Z</time>
      </trkpt>
      <trkpt lat="48.88946" lon="2.34166">
        <ele>153</ele>
        <time>2015-03-30T19:04:42.592Z</time>
      </trkpt>
      <trkpt lat="48.88946" lon="2.34174">
        <ele>152.3</ele>
        <time>2015-03-30T19:04:43.616Z</time>
      </trkpt>
      <trkpt lat="48.88946" lon="2.34182">
        <ele>151.8</ele>
        <time>2015-03-30T19:04:44.519Z</time>
      </trkpt>
      <trkpt lat="48.88947" lon="2.3419">
        <ele>151.3</ele>
        <time>2015-03-30T19:04:45.520Z</time>
      </trkpt>
      <trkpt lat="48.88947" lon="2.34198">
        <ele>151.1</ele>
        <time>2015-03-30T19:04:46.562Z</time>
      </trkpt>
      <trkpt lat="48.88948" lon="2.34206">
        <ele>150.8</ele>
        <time>2015-03-30T19:04:47.519Z</time>
      </trkpt>
      <trkpt lat="48.88948" lon="2.34214">
        <ele>150.4</ele>
        <time>2015-03-30T19:04:48.507Z</time>
      </trkpt>
      <trkpt lat="48.88949" lon="2.34223">
        <ele>149.9</ele>
        <time>2015-03-30T19:04:49.559Z</time>
      </trkpt>
      <trkpt lat="48.8895" lon="2.34231">
        <ele>149.5</ele>
        <time>2015-03-30T19:04:50.560Z</time>
      </trkpt>
      <trkpt lat="48.88949" lon="2.34239">
        <ele>149</ele>
        <time>2015-03-30T19:04:51.584Z</time>
      </trkpt>
      <trkpt lat="48.88949" lon="2.34247">
        <ele>148.7</ele>
        <time>2015-03-30T19:04:52.591Z</time>
      </trkpt>
      <trkpt lat="48.88952" lon="2.34255">
        <ele>148.2</ele>
        <time>2015-03-30T19:04:53.493Z</time>
      </trkpt>
      <trkpt lat="48.88958" lon="2.34264">
        <ele>147.8</ele>
        <time>2015-03-30T19:04:54.560Z</time>
      </trkpt>
      <trkpt lat="48.88962" lon="2.34273">
        <ele>147.2</ele>
        <time>2015-03-30T19:04:55.580Z</time>
      </trkpt>
      <trkpt lat="48.88962" lon="2.3428">
        <ele>146.5</ele>
        <time>2015-03-30T19:04:56.594Z</time>
      </trkpt>
      <trkpt lat="48.88961" lon="2.34293">
        <ele>146.1</ele>
        <time>2015-03-30T19:04:58.616Z</time>
      </trkpt>
      <trkpt lat="48.88962" lon="2.343">
        <ele>146.3</ele>
        <time>2015-03-30T19:04:59.581Z</time>
      </trkpt>
      <trkpt lat="48.88963" lon="2.34312">
        <ele>146.4</ele>
        <time>2015-03-30T19:05:01.575Z</time>
      </trkpt>
      <trkpt lat="48.88961" lon="2.34318">
        <ele>146.6</ele>
        <time>2015-03-30T19:05:02.590Z</time>
      </trkpt>
      <trkpt lat="48.8896" lon="2.34325">
        <ele>146.8</ele>
        <time>2015-03-30T19:05:03.618Z</time>
      </trkpt>
      <trkpt lat="48.88959" lon="2.34332">
        <ele>146.9</ele>
        <time>2015-03-30T19:05:04.521Z</time>
      </trkpt>
      <trkpt lat="48.88958" lon="2.34339">
        <ele>146.7</ele>
        <time>2015-03-30T19:05:05.532Z</time>
      </trkpt>
      <trkpt lat="48.88958" lon="2.34345">
        <ele>146.6</ele>
        <time>2015-03-30T19:05:06.527Z</time>
      </trkpt>
      <trkpt lat="48.88957" lon="2.34357">
        <ele>146.5</ele>
        <time>2015-03-30T19:05:08.558Z</time>
      </trkpt>
      <trkpt lat="48.88956" lon="2.34363">
        <ele>146.6</ele>
        <time>2015-03-30T19:05:09.579Z</time>
      </trkpt>
      <trkpt lat="48.88956" lon="2.34375">
        <ele>146.8</ele>
        <time>2015-03-30T19:05:11.598Z</time>
      </trkpt>
      <trkpt lat="48.88956" lon="2.3438">
        <ele>146.8</ele>
        <time>2015-03-30T19:05:12.529Z</time>
      </trkpt>
      <trkpt lat="48.88956" lon="2.34391">
        <ele>146.7</ele>
        <time>2015-03-30T19:05:14.555Z</time>
      </trkpt>
      <trkpt lat="48.88956" lon="2.34397">
        <ele>146.8</ele>
        <time>2015-03-30T19:05:15.579Z</time>
      </trkpt>
      <trkpt lat="48.88954" lon="2.34403">
        <ele>146.8</ele>
        <time>2015-03-30T19:05:16.601Z</time>
      </trkpt>
      <trkpt lat="48.88952" lon="2.34409">
        <ele>146.9</ele>
        <time>2015-03-30T19:05:17.511Z</time>
      </trkpt>
      <trkpt lat="48.88952" lon="2.34417">
        <ele>146.9</ele>
        <time>2015-03-30T19:05:18.517Z</time>
      </trkpt>
      <trkpt lat="48.88945" lon="2.34447">
        <ele>145.1</ele>
        <time>2015-03-30T19:05:22.581Z</time>
      </trkpt>
      <trkpt lat="48.88949" lon="2.34455">
        <ele>145.1</ele>
        <time>2015-03-30T19:05:23.599Z</time>
      </trkpt>
      <trkpt lat="48.88948" lon="2.34462">
        <ele>145.2</ele>
        <time>2015-03-30T19:05:24.513Z</time>
      </trkpt>
      <trkpt lat="48.88945" lon="2.34473">
        <ele>145.3</ele>
        <time>2015-03-30T19:05:26.542Z</time>
      </trkpt>
      <trkpt lat="48.88941" lon="2.34485">
        <ele>145.6</ele>
        <time>2015-03-30T19:05:28.581Z</time>
      </trkpt>
      <trkpt lat="48.88931" lon="2.34508">
        <ele>145.6</ele>
        <time>2015-03-30T19:05:32.591Z</time>
      </trkpt>
      <trkpt lat="48.88927" lon="2.34516">
        <ele>145</ele>
        <time>2015-03-30T19:05:33.506Z</time>
      </trkpt>
      <trkpt lat="48.88924" lon="2.34523">
        <ele>145</ele>
        <time>2015-03-30T19:05:34.505Z</time>
      </trkpt>
      <trkpt lat="48.88921" lon="2.3453">
        <ele>145.1</ele>
        <time>2015-03-30T19:05:35.522Z</time>
      </trkpt>
      <trkpt lat="48.88917" lon="2.34536">
        <ele>144.9</ele>
        <time>2015-03-30T19:05:36.529Z</time>
      </trkpt>
      <trkpt lat="48.88914" lon="2.34543">
        <ele>144.8</ele>
        <time>2015-03-30T19:05:37.567Z</time>
      </trkpt>
      <trkpt lat="48.88911" lon="2.34551">
        <ele>144.9</ele>
        <time>2015-03-30T19:05:38.495Z</time>
      </trkpt>
      <trkpt lat="48.88907" lon="2.34558">
        <ele>144.9</ele>
        <time>2015-03-30T19:05:39.538Z</time>
      </trkpt>
      <trkpt lat="48.88903" lon="2.34565">
        <ele>144.6</ele>
        <time>2015-03-30T19:05:40.560Z</time>
      </trkpt>
      <trkpt lat="48.88898" lon="2.34573">
        <ele>143.2</ele>
        <time>2015-03-30T19:05:41.587Z</time>
      </trkpt>
      <trkpt lat="48.88894" lon="2.34581">
        <ele>141.8</ele>
        <time>2015-03-30T19:05:42.602Z</time>
      </trkpt>
      <trkpt lat="48.88891" lon="2.34589">
        <ele>140.8</ele>
        <time>2015-03-30T19:05:43.605Z</time>
      </trkpt>
      <trkpt lat="48.8889" lon="2.34596">
        <ele>140.3</ele>
        <time>2015-03-30T19:05:44.511Z</time>
      </trkpt>
      <trkpt lat="48.88888" lon="2.34604">
        <ele>139.8</ele>
        <time>2015-03-30T19:05:45.538Z</time>
      </trkpt>
      <trkpt lat="48.88888" lon="2.34611">
        <ele>139.5</ele>
        <time>2015-03-30T19:05:46.541Z</time>
      </trkpt>
      <trkpt lat="48.88887" lon="2.34624">
        <ele>139.2</ele>
        <time>2015-03-30T19:05:48.579Z</time>
      </trkpt>
      <trkpt lat="48.88886" lon="2.34629">
        <ele>139.2</ele>
        <time>2015-03-30T19:05:49.605Z</time>
      </trkpt>
      <trkpt lat="48.88884" lon="2.3464">
        <ele>139</ele>
        <time>2015-03-30T19:05:51.527Z</time>
      </trkpt>
      <trkpt lat="48.88882" lon="2.34646">
        <ele>139</ele>
        <time>2015-03-30T19:05:52.543Z</time>
      </trkpt>
      <trkpt lat="48.8888" lon="2.34653">
        <ele>138.9</ele>
        <time>2015-03-30T19:05:53.570Z</time>
      </trkpt>
      <trkpt lat="48.88879" lon="2.3466">
        <ele>138.8</ele>
        <time>2015-03-30T19:05:54.572Z</time>
      </trkpt>
      <trkpt lat="48.88879" lon="2.34667">
        <ele>138.8</ele>
        <time>2015-03-30T19:05:55.678Z</time>
      </trkpt>
      <trkpt lat="48.8888" lon="2.34674">
        <ele>138.9</ele>
        <time>2015-03-30T19:05:56.508Z</time>
      </trkpt>
      <trkpt lat="48.8888" lon="2.34681">
        <ele>139</ele>
        <time>2015-03-30T19:05:57.534Z</time>
      </trkpt>
      <trkpt lat="48.8888" lon="2.34688">
        <ele>138.8</ele>
        <time>2015-03-30T19:05:58.542Z</time>
      </trkpt>
      <trkpt lat="48.8888" lon="2.34696">
        <ele>138.9</ele>
        <time>2015-03-30T19:05:59.547Z</time>
      </trkpt>
      <trkpt lat="48.8888" lon="2.34705">
        <ele>138.9</ele>
        <time>2015-03-30T19:06:00.551Z</time>
      </trkpt>
      <trkpt lat="48.8888" lon="2.34713">
        <ele>138.7</ele>
        <time>2015-03-30T19:06:01.609Z</time>
      </trkpt>
      <trkpt lat="48.8888" lon="2.34721">
        <ele>138.7</ele>
        <time>2015-03-30T19:06:02.502Z</time>
      </trkpt>
      <trkpt lat="48.88881" lon="2.34727">
        <ele>138.8</ele>
        <time>2015-03-30T19:06:03.523Z</time>
      </trkpt>
      <trkpt lat="48.8888" lon="2.34735">
        <ele>139</ele>
        <time>2015-03-30T19:06:04.560Z</time>
      </trkpt>
      <trkpt lat="48.88879" lon="2.34742">
        <ele>139.1</ele>
        <time>2015-03-30T19:06:05.610Z</time>
      </trkpt>
      <trkpt lat="48.88876" lon="2.3475">
        <ele>138.8</ele>
        <time>2015-03-30T19:06:06.500Z</time>
      </trkpt>
      <trkpt lat="48.88871" lon="2.34759">
        <ele>137.5</ele>
        <time>2015-03-30T19:06:07.540Z</time>
      </trkpt>
      <trkpt lat="48.88867" lon="2.34767">
        <ele>136.6</ele>
        <time>2015-03-30T19:06:08.559Z</time>
      </trkpt>
      <trkpt lat="48.88864" lon="2.34773">
        <ele>135.8</ele>
        <time>2015-03-30T19:06:09.516Z</time>
      </trkpt>
      <trkpt lat="48.88861" lon="2.34778">
        <ele>134.8</ele>
        <time>2015-03-30T19:06:10.504Z</time>
      </trkpt>
      <trkpt lat="48.88855" lon="2.34786">
        <ele>134.3</ele>
        <time>2015-03-30T19:06:14.563Z</time>
      </trkpt>
      <trkpt lat="48.88853" lon="2.34787">
        <ele>134.7</ele>
        <time>2015-03-30T19:06:15.521Z</time>
      </trkpt>
      <trkpt lat="48.88847" lon="2.34797">
        <ele>133.3</ele>
        <time>2015-03-30T19:06:30.542Z</time>
      </trkpt>
      <trkpt lat="48.88847" lon="2.34798">
        <ele>133.3</ele>
        <time>2015-03-30T19:06:31.594Z</time>
      </trkpt>
      <trkpt lat="48.88848" lon="2.3481">
        <ele>133.2</ele>
        <time>2015-03-30T19:06:42.623Z</time>
      </trkpt>
      <trkpt lat="48.88849" lon="2.34812">
        <ele>133.2</ele>
        <time>2015-03-30T19:06:43.640Z</time>
      </trkpt>
      <trkpt lat="48.88856" lon="2.34811">
        <ele>133.3</ele>
        <time>2015-03-30T19:06:47.564Z</time>
      </trkpt>
      <trkpt lat="48.88859" lon="2.34811">
        <ele>133.4</ele>
        <time>2015-03-30T19:06:48.574Z</time>
      </trkpt>
      <trkpt lat="48.88864" lon="2.34813">
        <ele>133.6</ele>
        <time>2015-03-30T19:06:49.586Z</time>
      </trkpt>
      <trkpt lat="48.8887" lon="2.34815">
        <ele>133.5</ele>
        <time>2015-03-30T19:06:50.596Z</time>
      </trkpt>
      <trkpt lat="48.88876" lon="2.34817">
        <ele>133.4</ele>
        <time>2015-03-30T19:06:51.515Z</time>
      </trkpt>
      <trkpt lat="48.88884" lon="2.34818">
        <ele>133.2</ele>
        <time>2015-03-30T19:06:53.518Z</time>
      </trkpt>
      <trkpt lat="48.8889" lon="2.34818">
        <ele>132.8</ele>
        <time>2015-03-30T19:06:55.635Z</time>
      </trkpt>
      <trkpt lat="48.88893" lon="2.34817">
        <ele>132.7</ele>
        <time>2015-03-30T19:06:56.638Z</time>
      </trkpt>
      <trkpt lat="48.88899" lon="2.34815">
        <ele>132.7</ele>
        <time>2015-03-30T19:06:58.567Z</time>
      </trkpt>
      <trkpt lat="48.88902" lon="2.34815">
        <ele>132.8</ele>
        <time>2015-03-30T19:06:59.585Z</time>
      </trkpt>
      <trkpt lat="48.8891" lon="2.34817">
        <ele>132.8</ele>
        <time>2015-03-30T19:07:02.527Z</time>
      </trkpt>
      <trkpt lat="48.88913" lon="2.34818">
        <ele>132.9</ele>
        <time>2015-03-30T19:07:03.544Z</time>
      </trkpt>
      <trkpt lat="48.8892" lon="2.3482">
        <ele>132.9</ele>
        <time>2015-03-30T19:07:05.528Z</time>
      </trkpt>
      <trkpt lat="48.88923" lon="2.34821">
        <ele>132.9</ele>
        <time>2015-03-30T19:07:06.506Z</time>
      </trkpt>
      <trkpt lat="48.88931" lon="2.34822">
        <ele>133.1</ele>
        <time>2015-03-30T19:07:09.582Z</time>
      </trkpt>
      <trkpt lat="48.88933" lon="2.34823">
        <ele>133.2</ele>
        <time>2015-03-30T19:07:10.508Z</time>
      </trkpt>
      <trkpt lat="48.88941" lon="2.34824">
        <ele>133.4</ele>
        <time>2015-03-30T19:07:13.559Z</time>
      </trkpt>
      <trkpt lat="48.88948" lon="2.34826">
        <ele>133.4</ele>
        <time>2015-03-30T19:07:14.571Z</time>
      </trkpt>
      <trkpt lat="48.88956" lon="2.34828">
        <ele>133.5</ele>
        <time>2015-03-30T19:07:17.536Z</time>
      </trkpt>
      <trkpt lat="48.88958" lon="2.34829">
        <ele>133.5</ele>
        <time>2015-03-30T19:07:18.555Z</time>
      </trkpt>
      <trkpt lat="48.88965" lon="2.34831">
        <ele>133.8</ele>
        <time>2015-03-30T19:07:22.557Z</time>
      </trkpt>
      <trkpt lat="48.88967" lon="2.34831">
        <ele>133.9</ele>
        <time>2015-03-30T19:07:23.601Z</time>
      </trkpt>
      <trkpt lat="48.88976" lon="2.34832">
        <ele>134.2</ele>
        <time>2015-03-30T19:07:26.570Z</time>
      </trkpt>
      <trkpt lat="48.88979" lon="2.34832">
        <ele>134.2</ele>
        <time>2015-03-30T19:07:27.575Z</time>
      </trkpt>
      <trkpt lat="48.88984" lon="2.34829">
        <ele>134.3</ele>
        <time>2015-03-30T19:07:29.583Z</time>
      </trkpt>
      <trkpt lat="48.88988" lon="2.34829">
        <ele>134.3</ele>
        <time>2015-03-30T19:07:30.607Z</time>
      </trkpt>
      <trkpt lat="48.88992" lon="2.34829">
        <ele>134.4</ele>
        <time>2015-03-30T19:07:31.630Z</time>
      </trkpt>
      <trkpt lat="48.89001" lon="2.3483">
        <ele>134.5</ele>
        <time>2015-03-30T19:07:32.511Z</time>
      </trkpt>
      <trkpt lat="48.89011" lon="2.34831">
        <ele>134.6</ele>
        <time>2015-03-30T19:07:33.518Z</time>
      </trkpt>
      <trkpt lat="48.89019" lon="2.34831">
        <ele>134.6</ele>
        <time>2015-03-30T19:07:34.533Z</time>
      </trkpt>
      <trkpt lat="48.89024" lon="2.34831">
        <ele>134.7</ele>
        <time>2015-03-30T19:07:35.547Z</time>
      </trkpt>
      <trkpt lat="48.89028" lon="2.34832">
        <ele>134.6</ele>
        <time>2015-03-30T19:07:36.558Z</time>
      </trkpt>
      <trkpt lat="48.89034" lon="2.34834">
        <ele>134.5</ele>
        <time>2015-03-30T19:07:37.668Z</time>
      </trkpt>
      <trkpt lat="48.89041" lon="2.34838">
        <ele>133.2</ele>
        <time>2015-03-30T19:07:41.507Z</time>
      </trkpt>
      <trkpt lat="48.89043" lon="2.34839">
        <ele>133.1</ele>
        <time>2015-03-30T19:07:42.507Z</time>
      </trkpt>
      <trkpt lat="48.89052" lon="2.34843">
        <ele>133.2</ele>
        <time>2015-03-30T19:07:45.528Z</time>
      </trkpt>
      <trkpt lat="48.89056" lon="2.34843">
        <ele>133.2</ele>
        <time>2015-03-30T19:07:46.513Z</time>
      </trkpt>
      <trkpt lat="48.89065" lon="2.34845">
        <ele>133</ele>
        <time>2015-03-30T19:07:48.585Z</time>
      </trkpt>
      <trkpt lat="48.8907" lon="2.34846">
        <ele>132.8</ele>
        <time>2015-03-30T19:07:49.598Z</time>
      </trkpt>
      <trkpt lat="48.89074" lon="2.34848">
        <ele>132.7</ele>
        <time>2015-03-30T19:07:50.567Z</time>
      </trkpt>
      <trkpt lat="48.89078" lon="2.3485">
        <ele>132.5</ele>
        <time>2015-03-30T19:07:51.596Z</time>
      </trkpt>
      <trkpt lat="48.89086" lon="2.34852">
        <ele>132.4</ele>
        <time>2015-03-30T19:07:53.586Z</time>
      </trkpt>
      <trkpt lat="48.89091" lon="2.34854">
        <ele>132.3</ele>
        <time>2015-03-30T19:07:54.606Z</time>
      </trkpt>
      <trkpt lat="48.89099" lon="2.34857">
        <ele>131.9</ele>
        <time>2015-03-30T19:07:56.516Z</time>
      </trkpt>
      <trkpt lat="48.89102" lon="2.34858">
        <ele>131.7</ele>
        <time>2015-03-30T19:07:57.539Z</time>
      </trkpt>
      <trkpt lat="48.89109" lon="2.34861">
        <ele>131.2</ele>
        <time>2015-03-30T19:07:59.516Z</time>
      </trkpt>
      <trkpt lat="48.89113" lon="2.34863">
        <ele>130.9</ele>
        <time>2015-03-30T19:08:00.491Z</time>
      </trkpt>
      <trkpt lat="48.89117" lon="2.34866">
        <ele>130.6</ele>
        <time>2015-03-30T19:08:01.562Z</time>
      </trkpt>
      <trkpt lat="48.8914" lon="2.3487">
        <ele>130.7</ele>
        <time>2015-03-30T19:08:05.545Z</time>
      </trkpt>
      <trkpt lat="48.89145" lon="2.34871">
        <ele>130.6</ele>
        <time>2015-03-30T19:08:06.554Z</time>
      </trkpt>
      <trkpt lat="48.8915" lon="2.34871">
        <ele>130.5</ele>
        <time>2015-03-30T19:08:07.570Z</time>
      </trkpt>
      <trkpt lat="48.89157" lon="2.3487">
        <ele>130.2</ele>
        <time>2015-03-30T19:08:09.592Z</time>
      </trkpt>
      <trkpt lat="48.89161" lon="2.34868">
        <ele>130</ele>
        <time>2015-03-30T19:08:10.750Z</time>
      </trkpt>
      <trkpt lat="48.89164" lon="2.34875">
        <ele>129.7</ele>
        <time>2015-03-30T19:08:20.539Z</time>
      </trkpt>
      <trkpt lat="48.89164" lon="2.34876">
        <ele>129.5</ele>
        <time>2015-03-30T19:08:21.523Z</time>
      </trkpt>
      <trkpt lat="48.89164" lon="2.34875">
        <ele>129.6</ele>
        <time>2015-03-30T19:08:22.543Z</time>
      </trkpt>
      <trkpt lat="48.89164" lon="2.34876">
        <ele>129.7</ele>
        <time>2015-03-30T19:08:23.568Z</time>
      </trkpt>
      <trkpt lat="48.89164" lon="2.34877">
        <ele>129.8</ele>
        <time>2015-03-30T19:08:24.615Z</time>
      </trkpt>
      <trkpt lat="48.89165" lon="2.34878">
        <ele>129.8</ele>
        <time>2015-03-30T19:08:25.607Z</time>
      </trkpt>
      <trkpt lat="48.89172" lon="2.34882">
        <ele>129.4</ele>
        <time>2015-03-30T19:08:32.513Z</time>
      </trkpt>
      <trkpt lat="48.89173" lon="2.34883">
        <ele>129.4</ele>
        <time>2015-03-30T19:08:33.512Z</time>
      </trkpt>
      <trkpt lat="48.89174" lon="2.34882">
        <ele>129.5</ele>
        <time>2015-03-30T19:08:35.548Z</time>
      </trkpt>
      <trkpt lat="48.89175" lon="2.34881">
        <ele>129.5</ele>
        <time>2015-03-30T19:08:36.559Z</time>
      </trkpt>
      <trkpt lat="48.89176" lon="2.34881">
        <ele>129.5</ele>
        <time>2015-03-30T19:08:37.585Z</time>
      </trkpt>
      <trkpt lat="48.89177" lon="2.34882">
        <ele>129.1</ele>
        <time>2015-03-30T19:08:39.557Z</time>
      </trkpt>
      <trkpt lat="48.89177" lon="2.34882">
        <ele>129</ele>
        <time>2015-03-30T19:08:40.570Z</time>
      </trkpt>
      <trkpt lat="48.89178" lon="2.34882">
        <ele>128.9</ele>
        <time>2015-03-30T19:08:50.516Z</time>
      </trkpt>
      <trkpt lat="48.89178" lon="2.34883">
        <ele>128.2</ele>
        <time>2015-03-30T19:08:51.533Z</time>
      </trkpt>
      <trkpt lat="48.89178" lon="2.34885">
        <ele>128.1</ele>
        <time>2015-03-30T19:08:53.539Z</time>
      </trkpt>
      <trkpt lat="48.89177" lon="2.34884">
        <ele>128.2</ele>
        <time>2015-03-30T19:08:54.548Z</time>
      </trkpt>
      <trkpt lat="48.89177" lon="2.34884">
        <ele>128.3</ele>
        <time>2015-03-30T19:08:57.639Z</time>
      </trkpt>
      <trkpt lat="48.89178" lon="2.34883">
        <ele>128.4</ele>
        <time>2015-03-30T19:08:58.503Z</time>
      </trkpt>
      <trkpt lat="48.89178" lon="2.34883">
        <ele>128.6</ele>
        <time>2015-03-30T19:09:01.562Z</time>
      </trkpt>
      <trkpt lat="48.89178" lon="2.34883">
        <ele>128.4</ele>
        <time>2015-03-30T19:09:02.566Z</time>
      </trkpt>
      <trkpt lat="48.89178" lon="2.34883">
        <ele>128.5</ele>
        <time>2015-03-30T19:09:10.512Z</time>
      </trkpt>
      <trkpt lat="48.89175" lon="2.34884">
        <ele>129.1</ele>
        <time>2015-03-30T19:09:11.515Z</time>
      </trkpt>
      <trkpt lat="48.89176" lon="2.34882">
        <ele>128.8</ele>
        <time>2015-03-30T19:09:15.519Z</time>
      </trkpt>
      <trkpt lat="48.89176" lon="2.34882">
        <ele>128.6</ele>
        <time>2015-03-30T19:09:16.526Z</time>
      </trkpt>
      <trkpt lat="48.89176" lon="2.3488">
        <ele>128.1</ele>
        <time>2015-03-30T19:09:17.538Z</time>
      </trkpt>
      <trkpt lat="48.89167" lon="2.34878">
        <ele>131.1</ele>
        <time>2015-03-30T19:09:27.516Z</time>
      </trkpt>
      <trkpt lat="48.89167" lon="2.34878">
        <ele>131</ele>
        <time>2015-03-30T19:09:28.526Z</time>
      </trkpt>
      <trkpt lat="48.89167" lon="2.34878">
        <ele>131.1</ele>
        <time>2015-03-30T19:09:31.566Z</time>
      </trkpt>
      <trkpt lat="48.89167" lon="2.34878">
        <ele>131.2</ele>
        <time>2015-03-30T19:09:32.604Z</time>
      </trkpt>
      <trkpt lat="48.89164" lon="2.34885">
        <ele>132.3</ele>
        <time>2015-03-30T19:09:44.597Z</time>
      </trkpt>
      <trkpt lat="48.89164" lon="2.34885">
        <ele>132.3</ele>
        <time>2015-03-30T19:09:45.531Z</time>
      </trkpt>
      <trkpt lat="48.89164" lon="2.34885">
        <ele>132.2</ele>
        <time>2015-03-30T19:09:46.608Z</time>
      </trkpt>
      <trkpt lat="48.89165" lon="2.34884">
        <ele>132.1</ele>
        <time>2015-03-30T19:09:47.509Z</time>
      </trkpt>
      <trkpt lat="48.89165" lon="2.34888">
        <ele>131.9</ele>
        <time>2015-03-30T19:09:52.536Z</time>
      </trkpt>
      <trkpt lat="48.89165" lon="2.34888">
        <ele>132</ele>
        <time>2015-03-30T19:09:53.546Z</time>
      </trkpt>
      <trkpt lat="48.89165" lon="2.34886">
        <ele>132.1</ele>
        <time>2015-03-30T19:09:58.546Z</time>
      </trkpt>
      <trkpt lat="48.89162" lon="2.34885">
        <ele>132.8</ele>
        <time>2015-03-30T19:09:59.569Z</time>
      </trkpt>
      <trkpt lat="48.8916" lon="2.34883">
        <ele>132.6</ele>
        <time>2015-03-30T19:10:02.625Z</time>
      </trkpt>
      <trkpt lat="48.8916" lon="2.34883">
        <ele>132.6</ele>
        <time>2015-03-30T19:10:03.543Z</time>
      </trkpt>
      <trkpt lat="48.8916" lon="2.34883">
        <ele>132.4</ele>
        <time>2015-03-30T19:10:04.575Z</time>
      </trkpt>
      <trkpt lat="48.89161" lon="2.34882">
        <ele>132.3</ele>
        <time>2015-03-30T19:10:05.578Z</time>
      </trkpt>
      <trkpt lat="48.89161" lon="2.34882">
        <ele>132.3</ele>
        <time>2015-03-30T19:10:06.589Z</time>
      </trkpt>
      <trkpt lat="48.89161" lon="2.34882">
        <ele>132.4</ele>
        <time>2015-03-30T19:10:07.609Z</time>
      </trkpt>
      <trkpt lat="48.89162" lon="2.34882">
        <ele>132.3</ele>
        <time>2015-03-30T19:10:11.536Z</time>
      </trkpt>
      <trkpt lat="48.89163" lon="2.34881">
        <ele>132.2</ele>
        <time>2015-03-30T19:10:12.581Z</time>
      </trkpt>
      <trkpt lat="48.89163" lon="2.3488">
        <ele>131.9</ele>
        <time>2015-03-30T19:10:13.618Z</time>
      </trkpt>
      <trkpt lat="48.89163" lon="2.34877">
        <ele>132.1</ele>
        <time>2015-03-30T19:10:16.495Z</time>
      </trkpt>
      <trkpt lat="48.89163" lon="2.34877">
        <ele>132</ele>
        <time>2015-03-30T19:10:17.578Z</time>
      </trkpt>
      <trkpt lat="48.89162" lon="2.34876">
        <ele>131.8</ele>
        <time>2015-03-30T19:10:18.602Z</time>
      </trkpt>
      <trkpt lat="48.89162" lon="2.34876">
        <ele>131.9</ele>
        <time>2015-03-30T19:10:19.639Z</time>
      </trkpt>
      <trkpt lat="48.89162" lon="2.34876">
        <ele>132.1</ele>
        <time>2015-03-30T19:10:20.586Z</time>
      </trkpt>
      <trkpt lat="48.89162" lon="2.34875">
        <ele>131.9</ele>
        <time>2015-03-30T19:10:38.523Z</time>
      </trkpt>
      <trkpt lat="48.89165" lon="2.34872">
        <ele>131.5</ele>
        <time>2015-03-30T19:10:39.531Z</time>
      </trkpt>
      <trkpt lat="48.89159" lon="2.34882">
        <ele>132</ele>
        <time>2015-03-30T19:10:45.550Z</time>
      </trkpt>
      <trkpt lat="48.89159" lon="2.34883">
        <ele>132.2</ele>
        <time>2015-03-30T19:10:46.528Z</time>
      </trkpt>
      <trkpt lat="48.89162" lon="2.34878">
        <ele>132.2</ele>
        <time>2015-03-30T19:10:52.614Z</time>
      </trkpt>
      <trkpt lat="48.89163" lon="2.34877">
        <ele>132</ele>
        <time>2015-03-30T19:10:53.554Z</time>
      </trkpt>
      <trkpt lat="48.89163" lon="2.34876">
        <ele>132.3</ele>
        <time>2015-03-30T19:10:54.538Z</time>
      </trkpt>
      <trkpt lat="48.89161" lon="2.34875">
        <ele>133</ele>
        <time>2015-03-30T19:10:59.549Z</time>
      </trkpt>
      <trkpt lat="48.89161" lon="2.34875">
        <ele>133.2</ele>
        <time>2015-03-30T19:11:00.570Z</time>
      </trkpt>
      <trkpt lat="48.89161" lon="2.34874">
        <ele>133.1</ele>
        <time>2015-03-30T19:11:06.548Z</time>
      </trkpt>
      <trkpt lat="48.89164" lon="2.34872">
        <ele>132.2</ele>
        <time>2015-03-30T19:11:07.567Z</time>
      </trkpt>
      <trkpt lat="48.89165" lon="2.34871">
        <ele>132.4</ele>
        <time>2015-03-30T19:11:10.706Z</time>
      </trkpt>
      <trkpt lat="48.89165" lon="2.34871">
        <ele>132.5</ele>
        <time>2015-03-30T19:11:11.540Z</time>
      </trkpt>
      <trkpt lat="48.89164" lon="2.34871">
        <ele>132.9</ele>
        <time>2015-03-30T19:11:16.500Z</time>
      </trkpt>
      <trkpt lat="48.89161" lon="2.34871">
        <ele>133.9</ele>
        <time>2015-03-30T19:11:17.545Z</time>
      </trkpt>
      <trkpt lat="48.8916" lon="2.34873">
        <ele>133.9</ele>
        <time>2015-03-30T19:11:18.527Z</time>
      </trkpt>
      <trkpt lat="48.8916" lon="2.34873">
        <ele>134.1</ele>
        <time>2015-03-30T19:11:19.560Z</time>
      </trkpt>
      <trkpt lat="48.8916" lon="2.34874">
        <ele>134.3</ele>
        <time>2015-03-30T19:11:21.585Z</time>
      </trkpt>
      <trkpt lat="48.89159" lon="2.34875">
        <ele>134.4</ele>
        <time>2015-03-30T19:11:22.603Z</time>
      </trkpt>
      <trkpt lat="48.89155" lon="2.34877">
        <ele>136.7</ele>
        <time>2015-03-30T19:11:33.592Z</time>
      </trkpt>
      <trkpt lat="48.89155" lon="2.34877">
        <ele>136.7</ele>
        <time>2015-03-30T19:11:34.550Z</time>
      </trkpt>
      <trkpt lat="48.89155" lon="2.34877">
        <ele>136.7</ele>
        <time>2015-03-30T19:11:43.594Z</time>
      </trkpt>
      <trkpt lat="48.89155" lon="2.34878">
        <ele>136.8</ele>
        <time>2015-03-30T19:11:44.553Z</time>
      </trkpt>
      <trkpt lat="48.89155" lon="2.34879">
        <ele>137</ele>
        <time>2015-03-30T19:11:45.535Z</time>
      </trkpt>
      <trkpt lat="48.89156" lon="2.34879">
        <ele>137.1</ele>
        <time>2015-03-30T19:11:46.536Z</time>
      </trkpt>
      <trkpt lat="48.89155" lon="2.3488">
        <ele>137</ele>
        <time>2015-03-30T19:11:47.503Z</time>
      </trkpt>
      <trkpt lat="48.89156" lon="2.34887">
        <ele>138.6</ele>
        <time>2015-03-30T19:11:56.606Z</time>
      </trkpt>
      <trkpt lat="48.89156" lon="2.34887">
        <ele>138.7</ele>
        <time>2015-03-30T19:11:57.494Z</time>
      </trkpt>
      <trkpt lat="48.89155" lon="2.34887">
        <ele>138.9</ele>
        <time>2015-03-30T19:11:58.530Z</time>
      </trkpt>
      <trkpt lat="48.89155" lon="2.34887">
        <ele>138.9</ele>
        <time>2015-03-30T19:11:59.521Z</time>
      </trkpt>
      <trkpt lat="48.89155" lon="2.34886">
        <ele>139.1</ele>
        <time>2015-03-30T19:12:00.559Z</time>
      </trkpt>
      <trkpt lat="48.89155" lon="2.34886">
        <ele>139.2</ele>
        <time>2015-03-30T19:12:03.591Z</time>
      </trkpt>
      <trkpt lat="48.89155" lon="2.34888">
        <ele>139.4</ele>
        <time>2015-03-30T19:12:04.532Z</time>
      </trkpt>
      <trkpt lat="48.89156" lon="2.34891">
        <ele>139.8</ele>
        <time>2015-03-30T19:12:11.585Z</time>
      </trkpt>
      <trkpt lat="48.89156" lon="2.34891">
        <ele>139.7</ele>
        <time>2015-03-30T19:12:12.588Z</time>
      </trkpt>
      <trkpt lat="48.89157" lon="2.34891">
        <ele>139.6</ele>
        <time>2015-03-30T19:12:13.600Z</time>
      </trkpt>
      <trkpt lat="48.89157" lon="2.34892">
        <ele>139.6</ele>
        <time>2015-03-30T19:12:14.522Z</time>
      </trkpt>
      <trkpt lat="48.89149" lon="2.3489">
        <ele>143</ele>
        <time>2015-03-30T19:12:27.536Z</time>
      </trkpt>
      <trkpt lat="48.89149" lon="2.34889">
        <ele>143.1</ele>
        <time>2015-03-30T19:12:28.557Z</time>
      </trkpt>
      <trkpt lat="48.89149" lon="2.34888">
        <ele>143.2</ele>
        <time>2015-03-30T19:12:29.591Z</time>
      </trkpt>
      <trkpt lat="48.89154" lon="2.34878">
        <ele>141</ele>
        <time>2015-03-30T19:12:32.510Z</time>
      </trkpt>
      <trkpt lat="48.89155" lon="2.34877">
        <ele>140.9</ele>
        <time>2015-03-30T19:12:33.531Z</time>
      </trkpt>
      <trkpt lat="48.89163" lon="2.34877">
        <ele>140.4</ele>
        <time>2015-03-30T19:12:37.551Z</time>
      </trkpt>
      <trkpt lat="48.89165" lon="2.34878">
        <ele>140.3</ele>
        <time>2015-03-30T19:12:38.562Z</time>
      </trkpt>
      <trkpt lat="48.89171" lon="2.34882">
        <ele>139.8</ele>
        <time>2015-03-30T19:12:41.542Z</time>
      </trkpt>
      <trkpt lat="48.89176" lon="2.34883">
        <ele>138.9</ele>
        <time>2015-03-30T19:12:42.575Z</time>
      </trkpt>
      <trkpt lat="48.89182" lon="2.34884">
        <ele>137.7</ele>
        <time>2015-03-30T19:12:43.541Z</time>
      </trkpt>
      <trkpt lat="48.89187" lon="2.34885">
        <ele>136.8</ele>
        <time>2015-03-30T19:12:44.552Z</time>
      </trkpt>
      <trkpt lat="48.89196" lon="2.34885">
        <ele>136</ele>
        <time>2015-03-30T19:12:46.599Z</time>
      </trkpt>
      <trkpt lat="48.89198" lon="2.34884">
        <ele>136</ele>
        <time>2015-03-30T19:12:47.553Z</time>
      </trkpt>
      <trkpt lat="48.89205" lon="2.34883">
        <ele>135.9</ele>
        <time>2015-03-30T19:12:50.486Z</time>
      </trkpt>
      <trkpt lat="48.89209" lon="2.3488">
        <ele>135.4</ele>
        <time>2015-03-30T19:12:51.506Z</time>
      </trkpt>
      <trkpt lat="48.89213" lon="2.34878">
        <ele>135.2</ele>
        <time>2015-03-30T19:12:52.509Z</time>
      </trkpt>
      <trkpt lat="48.89219" lon="2.34877">
        <ele>134.7</ele>
        <time>2015-03-30T19:12:53.635Z</time>
      </trkpt>
      <trkpt lat="48.89227" lon="2.34875">
        <ele>134.1</ele>
        <time>2015-03-30T19:12:55.556Z</time>
      </trkpt>
      <trkpt lat="48.8923" lon="2.34875">
        <ele>134.1</ele>
        <time>2015-03-30T19:12:56.548Z</time>
      </trkpt>
      <trkpt lat="48.89238" lon="2.34872">
        <ele>133.7</ele>
        <time>2015-03-30T19:12:59.521Z</time>
      </trkpt>
      <trkpt lat="48.89241" lon="2.34871">
        <ele>133.6</ele>
        <time>2015-03-30T19:13:00.532Z</time>
      </trkpt>
      <trkpt lat="48.89248" lon="2.34867">
        <ele>133.4</ele>
        <time>2015-03-30T19:13:03.593Z</time>
      </trkpt>
      <trkpt lat="48.8925" lon="2.34865">
        <ele>133.2</ele>
        <time>2015-03-30T19:13:04.605Z</time>
      </trkpt>
      <trkpt lat="48.89256" lon="2.34857">
        <ele>132.1</ele>
        <time>2015-03-30T19:13:08.559Z</time>
      </trkpt>
      <trkpt lat="48.89257" lon="2.34854">
        <ele>131.8</ele>
        <time>2015-03-30T19:13:09.608Z</time>
      </trkpt>
      <trkpt lat="48.89264" lon="2.34846">
        <ele>131</ele>
        <time>2015-03-30T19:13:13.542Z</time>
      </trkpt>
      <trkpt lat="48.89266" lon="2.34844">
        <ele>130.8</ele>
        <time>2015-03-30T19:13:14.554Z</time>
      </trkpt>
      <trkpt lat="48.89271" lon="2.34833">
        <ele>130.4</ele>
        <time>2015-03-30T19:13:18.508Z</time>
      </trkpt>
      <trkpt lat="48.89281" lon="2.3482">
        <ele>130.5</ele>
        <time>2015-03-30T19:13:21.584Z</time>
      </trkpt>
      <trkpt lat="48.89286" lon="2.34816">
        <ele>130.6</ele>
        <time>2015-03-30T19:13:22.485Z</time>
      </trkpt>
      <trkpt lat="48.8929" lon="2.34813">
        <ele>130.6</ele>
        <time>2015-03-30T19:13:23.509Z</time>
      </trkpt>
      <trkpt lat="48.89295" lon="2.34809">
        <ele>130.5</ele>
        <time>2015-03-30T19:13:24.520Z</time>
      </trkpt>
      <trkpt lat="48.89305" lon="2.34801">
        <ele>130.5</ele>
        <time>2015-03-30T19:13:26.551Z</time>
      </trkpt>
      <trkpt lat="48.89311" lon="2.34797">
        <ele>130.4</ele>
        <time>2015-03-30T19:13:27.569Z</time>
      </trkpt>
      <trkpt lat="48.89317" lon="2.34792">
        <ele>130.4</ele>
        <time>2015-03-30T19:13:28.581Z</time>
      </trkpt>
      <trkpt lat="48.89323" lon="2.34788">
        <ele>130.5</ele>
        <time>2015-03-30T19:13:29.536Z</time>
      </trkpt>
      <trkpt lat="48.89328" lon="2.34783">
        <ele>130.5</ele>
        <time>2015-03-30T19:13:30.515Z</time>
      </trkpt>
      <trkpt lat="48.89335" lon="2.3478">
        <ele>130.4</ele>
        <time>2015-03-30T19:13:31.562Z</time>
      </trkpt>
      <trkpt lat="48.89344" lon="2.34776">
        <ele>130.7</ele>
        <time>2015-03-30T19:13:32.554Z</time>
      </trkpt>
      <trkpt lat="48.89356" lon="2.34771">
        <ele>131.2</ele>
        <time>2015-03-30T19:13:33.482Z</time>
      </trkpt>
      <trkpt lat="48.89365" lon="2.34766">
        <ele>131.6</ele>
        <time>2015-03-30T19:13:34.503Z</time>
      </trkpt>
      <trkpt lat="48.89372" lon="2.34761">
        <ele>131.9</ele>
        <time>2015-03-30T19:13:35.522Z</time>
      </trkpt>
      <trkpt lat="48.89377" lon="2.34758">
        <ele>131.7</ele>
        <time>2015-03-30T19:13:36.525Z</time>
      </trkpt>
      <trkpt lat="48.89382" lon="2.34754">
        <ele>131.7</ele>
        <time>2015-03-30T19:13:37.546Z</time>
      </trkpt>
      <trkpt lat="48.89386" lon="2.34751">
        <ele>131.7</ele>
        <time>2015-03-30T19:13:38.562Z</time>
      </trkpt>
      <trkpt lat="48.8939" lon="2.34747">
        <ele>131.7</ele>
        <time>2015-03-30T19:13:39.565Z</time>
      </trkpt>
      <trkpt lat="48.89395" lon="2.34744">
        <ele>131.9</ele>
        <time>2015-03-30T19:13:40.663Z</time>
      </trkpt>
      <trkpt lat="48.894" lon="2.34742">
        <ele>131.9</ele>
        <time>2015-03-30T19:13:41.529Z</time>
      </trkpt>
      <trkpt lat="48.89408" lon="2.34739">
        <ele>131.8</ele>
        <time>2015-03-30T19:13:42.560Z</time>
      </trkpt>
      <trkpt lat="48.89413" lon="2.34737">
        <ele>131.9</ele>
        <time>2015-03-30T19:13:43.562Z</time>
      </trkpt>
      <trkpt lat="48.89418" lon="2.34734">
        <ele>131.8</ele>
        <time>2015-03-30T19:13:44.578Z</time>
      </trkpt>
      <trkpt lat="48.89423" lon="2.3473">
        <ele>131.9</ele>
        <time>2015-03-30T19:13:45.594Z</time>
      </trkpt>
      <trkpt lat="48.89429" lon="2.34726">
        <ele>132.2</ele>
        <time>2015-03-30T19:13:46.535Z</time>
      </trkpt>
      <trkpt lat="48.89435" lon="2.34722">
        <ele>132.3</ele>
        <time>2015-03-30T19:13:47.548Z</time>
      </trkpt>
      <trkpt lat="48.8944" lon="2.34718">
        <ele>132.3</ele>
        <time>2015-03-30T19:13:48.576Z</time>
      </trkpt>
      <trkpt lat="48.89444" lon="2.34714">
        <ele>132.3</ele>
        <time>2015-03-30T19:13:49.614Z</time>
      </trkpt>
      <trkpt lat="48.89449" lon="2.3471">
        <ele>132.3</ele>
        <time>2015-03-30T19:13:50.528Z</time>
      </trkpt>
      <trkpt lat="48.89453" lon="2.34706">
        <ele>132.3</ele>
        <time>2015-03-30T19:13:51.510Z</time>
      </trkpt>
      <trkpt lat="48.89457" lon="2.34702">
        <ele>132.2</ele>
        <time>2015-03-30T19:13:52.516Z</time>
      </trkpt>
      <trkpt lat="48.89462" lon="2.34697">
        <ele>132.2</ele>
        <time>2015-03-30T19:13:53.558Z</time>
      </trkpt>
      <trkpt lat="48.89466" lon="2.34693">
        <ele>132.2</ele>
        <time>2015-03-30T19:13:54.687Z</time>
      </trkpt>
      <trkpt lat="48.8947" lon="2.34689">
        <ele>132.3</ele>
        <time>2015-03-30T19:13:55.556Z</time>
      </trkpt>
      <trkpt lat="48.89475" lon="2.34685">
        <ele>132.3</ele>
        <time>2015-03-30T19:13:56.563Z</time>
      </trkpt>
      <trkpt lat="48.8948" lon="2.34681">
        <ele>132.3</ele>
        <time>2015-03-30T19:13:57.645Z</time>
      </trkpt>
      <trkpt lat="48.89485" lon="2.34678">
        <ele>132.3</ele>
        <time>2015-03-30T19:13:58.527Z</time>
      </trkpt>
      <trkpt lat="48.89491" lon="2.34674">
        <ele>132.4</ele>
        <time>2015-03-30T19:13:59.550Z</time>
      </trkpt>
      <trkpt lat="48.89497" lon="2.3467">
        <ele>132.5</ele>
        <time>2015-03-30T19:14:00.554Z</time>
      </trkpt>
      <trkpt lat="48.89504" lon="2.34668">
        <ele>132.6</ele>
        <time>2015-03-30T19:14:01.559Z</time>
      </trkpt>
      <trkpt lat="48.89511" lon="2.34665">
        <ele>132.8</ele>
        <time>2015-03-30T19:14:02.525Z</time>
      </trkpt>
      <trkpt lat="48.89517" lon="2.34662">
        <ele>132.8</ele>
        <time>2015-03-30T19:14:03.513Z</time>
      </trkpt>
      <trkpt lat="48.89524" lon="2.34659">
        <ele>132.8</ele>
        <time>2015-03-30T19:14:04.526Z</time>
      </trkpt>
      <trkpt lat="48.8953" lon="2.34655">
        <ele>132.8</ele>
        <time>2015-03-30T19:14:05.561Z</time>
      </trkpt>
      <trkpt lat="48.89535" lon="2.34651">
        <ele>132.9</ele>
        <time>2015-03-30T19:14:06.578Z</time>
      </trkpt>
      <trkpt lat="48.8954" lon="2.34647">
        <ele>133</ele>
        <time>2015-03-30T19:14:07.543Z</time>
      </trkpt>
      <trkpt lat="48.89546" lon="2.34643">
        <ele>133.3</ele>
        <time>2015-03-30T19:14:08.576Z</time>
      </trkpt>
      <trkpt lat="48.89552" lon="2.34639">
        <ele>133.6</ele>
        <time>2015-03-30T19:14:09.491Z</time>
      </trkpt>
      <trkpt lat="48.89558" lon="2.34635">
        <ele>133.8</ele>
        <time>2015-03-30T19:14:10.497Z</time>
      </trkpt>
      <trkpt lat="48.89563" lon="2.34632">
        <ele>133.9</ele>
        <time>2015-03-30T19:14:11.510Z</time>
      </trkpt>
      <trkpt lat="48.89568" lon="2.34629">
        <ele>134</ele>
        <time>2015-03-30T19:14:12.530Z</time>
      </trkpt>
      <trkpt lat="48.89574" lon="2.34625">
        <ele>134</ele>
        <time>2015-03-30T19:14:13.556Z</time>
      </trkpt>
      <trkpt lat="48.8958" lon="2.34622">
        <ele>134</ele>
        <time>2015-03-30T19:14:14.577Z</time>
      </trkpt>
      <trkpt lat="48.89585" lon="2.34619">
        <ele>134.2</ele>
        <time>2015-03-30T19:14:15.540Z</time>
      </trkpt>
      <trkpt lat="48.8959" lon="2.34615">
        <ele>134.2</ele>
        <time>2015-03-30T19:14:16.543Z</time>
      </trkpt>
      <trkpt lat="48.89596" lon="2.34612">
        <ele>134.2</ele>
        <time>2015-03-30T19:14:17.566Z</time>
      </trkpt>
      <trkpt lat="48.896" lon="2.34608">
        <ele>134.1</ele>
        <time>2015-03-30T19:14:18.577Z</time>
      </trkpt>
      <trkpt lat="48.89605" lon="2.34603">
        <ele>134.1</ele>
        <time>2015-03-30T19:14:20.602Z</time>
      </trkpt>
      <trkpt lat="48.89608" lon="2.34599">
        <ele>134.2</ele>
        <time>2015-03-30T19:14:21.491Z</time>
      </trkpt>
      <trkpt lat="48.89613" lon="2.34595">
        <ele>134.2</ele>
        <time>2015-03-30T19:14:22.520Z</time>
      </trkpt>
      <trkpt lat="48.89616" lon="2.34592">
        <ele>134.2</ele>
        <time>2015-03-30T19:14:23.522Z</time>
      </trkpt>
      <trkpt lat="48.89621" lon="2.34588">
        <ele>134.1</ele>
        <time>2015-03-30T19:14:24.529Z</time>
      </trkpt>
      <trkpt lat="48.89626" lon="2.34584">
        <ele>134</ele>
        <time>2015-03-30T19:14:25.552Z</time>
      </trkpt>
      <trkpt lat="48.89632" lon="2.34579">
        <ele>134.2</ele>
        <time>2015-03-30T19:14:26.573Z</time>
      </trkpt>
      <trkpt lat="48.89637" lon="2.34577">
        <ele>134.1</ele>
        <time>2015-03-30T19:14:27.583Z</time>
      </trkpt>
      <trkpt lat="48.89642" lon="2.34573">
        <ele>134.2</ele>
        <time>2015-03-30T19:14:28.493Z</time>
      </trkpt>
      <trkpt lat="48.89647" lon="2.34567">
        <ele>134.1</ele>
        <time>2015-03-30T19:14:29.520Z</time>
      </trkpt>
      <trkpt lat="48.89652" lon="2.34563">
        <ele>134.2</ele>
        <time>2015-03-30T19:14:30.536Z</time>
      </trkpt>
      <trkpt lat="48.89657" lon="2.34558">
        <ele>134.2</ele>
        <time>2015-03-30T19:14:31.542Z</time>
      </trkpt>
      <trkpt lat="48.89661" lon="2.34554">
        <ele>134.2</ele>
        <time>2015-03-30T19:14:32.529Z</time>
      </trkpt>
      <trkpt lat="48.89666" lon="2.34549">
        <ele>134.1</ele>
        <time>2015-03-30T19:14:33.578Z</time>
      </trkpt>
      <trkpt lat="48.89671" lon="2.34544">
        <ele>134.1</ele>
        <time>2015-03-30T19:14:34.563Z</time>
      </trkpt>
      <trkpt lat="48.89675" lon="2.3454">
        <ele>134</ele>
        <time>2015-03-30T19:14:35.587Z</time>
      </trkpt>
      <trkpt lat="48.89679" lon="2.34536">
        <ele>134.1</ele>
        <time>2015-03-30T19:14:36.606Z</time>
      </trkpt>
      <trkpt lat="48.89683" lon="2.34533">
        <ele>134.2</ele>
        <time>2015-03-30T19:14:37.613Z</time>
      </trkpt>
      <trkpt lat="48.89688" lon="2.34527">
        <ele>133.9</ele>
        <time>2015-03-30T19:14:39.532Z</time>
      </trkpt>
      <trkpt lat="48.8969" lon="2.34524">
        <ele>133.8</ele>
        <time>2015-03-30T19:14:40.579Z</time>
      </trkpt>
      <trkpt lat="48.89696" lon="2.34518">
        <ele>133.5</ele>
        <time>2015-03-30T19:14:42.571Z</time>
      </trkpt>
      <trkpt lat="48.89698" lon="2.34514">
        <ele>133.4</ele>
        <time>2015-03-30T19:14:43.609Z</time>
      </trkpt>
      <trkpt lat="48.89705" lon="2.34507">
        <ele>133.3</ele>
        <time>2015-03-30T19:14:46.527Z</time>
      </trkpt>
      <trkpt lat="48.89708" lon="2.34503">
        <ele>133.1</ele>
        <time>2015-03-30T19:14:47.580Z</time>
      </trkpt>
      <trkpt lat="48.89715" lon="2.34495">
        <ele>132.6</ele>
        <time>2015-03-30T19:14:50.547Z</time>
      </trkpt>
      <trkpt lat="48.89718" lon="2.34492">
        <ele>132.2</ele>
        <time>2015-03-30T19:14:51.595Z</time>
      </trkpt>
      <trkpt lat="48.89725" lon="2.34485">
        <ele>131.4</ele>
        <time>2015-03-30T19:14:54.540Z</time>
      </trkpt>
      <trkpt lat="48.89726" lon="2.34484">
        <ele>131.5</ele>
        <time>2015-03-30T19:14:55.800Z</time>
      </trkpt>
      <trkpt lat="48.89728" lon="2.34483">
        <ele>131.4</ele>
        <time>2015-03-30T19:14:56.593Z</time>
      </trkpt>
      <trkpt lat="48.89729" lon="2.34481">
        <ele>131.3</ele>
        <time>2015-03-30T19:14:57.610Z</time>
      </trkpt>
      <trkpt lat="48.89733" lon="2.34482">
        <ele>130.7</ele>
        <time>2015-03-30T19:14:58.516Z</time>
      </trkpt>
      <trkpt lat="48.89739" lon="2.34484">
        <ele>129.6</ele>
        <time>2015-03-30T19:14:59.528Z</time>
      </trkpt>
      <trkpt lat="48.89744" lon="2.34486">
        <ele>129</ele>
        <time>2015-03-30T19:15:00.543Z</time>
      </trkpt>
      <trkpt lat="48.89753" lon="2.34489">
        <ele>128.3</ele>
        <time>2015-03-30T19:15:03.593Z</time>
      </trkpt>
      <trkpt lat="48.89754" lon="2.34489">
        <ele>128</ele>
        <time>2015-03-30T19:15:04.582Z</time>
      </trkpt>
      <trkpt lat="48.89755" lon="2.34488">
        <ele>127.8</ele>
        <time>2015-03-30T19:15:05.532Z</time>
      </trkpt>
      <trkpt lat="48.89755" lon="2.34489">
        <ele>127.5</ele>
        <time>2015-03-30T19:15:06.543Z</time>
      </trkpt>
      <trkpt lat="48.89756" lon="2.34488">
        <ele>127.1</ele>
        <time>2015-03-30T19:15:07.560Z</time>
      </trkpt>
      <trkpt lat="48.89752" lon="2.34485">
        <ele>120.1</ele>
        <time>2015-03-30T19:15:43.633Z</time>
      </trkpt>
      <trkpt lat="48.89752" lon="2.34486">
        <ele>119.8</ele>
        <time>2015-03-30T19:15:44.550Z</time>
      </trkpt>
      <trkpt lat="48.89752" lon="2.34489">
        <ele>119</ele>
        <time>2015-03-30T19:16:21.529Z</time>
      </trkpt>
      <trkpt lat="48.89755" lon="2.34494">
        <ele>113.5</ele>
        <time>2015-03-30T19:16:22.584Z</time>
      </trkpt>
      <trkpt lat="48.89759" lon="2.34505">
        <ele>112.2</ele>
        <time>2015-03-30T19:16:27.590Z</time>
      </trkpt>
      <trkpt lat="48.89759" lon="2.34507">
        <ele>112.1</ele>
        <time>2015-03-30T19:16:28.620Z</time>
      </trkpt>
      <trkpt lat="48.89762" lon="2.34518">
        <ele>111.2</ele>
        <time>2015-03-30T19:16:33.599Z</time>
      </trkpt>
      <trkpt lat="48.89762" lon="2.34521">
        <ele>111.2</ele>
        <time>2015-03-30T19:16:34.598Z</time>
      </trkpt>
      <trkpt lat="48.89767" lon="2.34531">
        <ele>110.7</ele>
        <time>2015-03-30T19:16:37.630Z</time>
      </trkpt>
      <trkpt lat="48.8977" lon="2.34535">
        <ele>110.5</ele>
        <time>2015-03-30T19:16:38.522Z</time>
      </trkpt>
      <trkpt lat="48.89773" lon="2.34545">
        <ele>110.4</ele>
        <time>2015-03-30T19:16:40.540Z</time>
      </trkpt>
      <trkpt lat="48.89774" lon="2.3455">
        <ele>110.4</ele>
        <time>2015-03-30T19:16:41.579Z</time>
      </trkpt>
      <trkpt lat="48.89777" lon="2.34564">
        <ele>110.3</ele>
        <time>2015-03-30T19:16:43.607Z</time>
      </trkpt>
      <trkpt lat="48.89777" lon="2.3457">
        <ele>110.3</ele>
        <time>2015-03-30T19:16:44.553Z</time>
      </trkpt>
      <trkpt lat="48.89779" lon="2.34583">
        <ele>110.5</ele>
        <time>2015-03-30T19:16:46.550Z</time>
      </trkpt>
      <trkpt lat="48.8978" lon="2.34591">
        <ele>110.5</ele>
        <time>2015-03-30T19:16:47.562Z</time>
      </trkpt>
      <trkpt lat="48.89781" lon="2.34598">
        <ele>110.5</ele>
        <time>2015-03-30T19:16:48.593Z</time>
      </trkpt>
      <trkpt lat="48.89781" lon="2.34605">
        <ele>110.5</ele>
        <time>2015-03-30T19:16:49.596Z</time>
      </trkpt>
      <trkpt lat="48.89782" lon="2.34614">
        <ele>110.6</ele>
        <time>2015-03-30T19:16:50.515Z</time>
      </trkpt>
      <trkpt lat="48.89782" lon="2.34621">
        <ele>110.6</ele>
        <time>2015-03-30T19:16:51.525Z</time>
      </trkpt>
      <trkpt lat="48.89785" lon="2.34633">
        <ele>110.5</ele>
        <time>2015-03-30T19:16:53.550Z</time>
      </trkpt>
      <trkpt lat="48.89785" lon="2.3464">
        <ele>110.5</ele>
        <time>2015-03-30T19:16:54.565Z</time>
      </trkpt>
      <trkpt lat="48.89787" lon="2.34652">
        <ele>110.6</ele>
        <time>2015-03-30T19:16:56.517Z</time>
      </trkpt>
      <trkpt lat="48.89787" lon="2.34658">
        <ele>110.6</ele>
        <time>2015-03-30T19:16:57.488Z</time>
      </trkpt>
      <trkpt lat="48.8979" lon="2.3467">
        <ele>110.5</ele>
        <time>2015-03-30T19:16:59.547Z</time>
      </trkpt>
      <trkpt lat="48.89791" lon="2.34676">
        <ele>110.6</ele>
        <time>2015-03-30T19:17:00.549Z</time>
      </trkpt>
      <trkpt lat="48.89792" lon="2.34688">
        <ele>110.6</ele>
        <time>2015-03-30T19:17:02.587Z</time>
      </trkpt>
      <trkpt lat="48.89128" lon="2.34563">
        <ele>110.6</ele>
        <time>2015-03-30T19:17:03.595Z</time>
      </trkpt>
      <trkpt lat="48.89134" lon="2.34568">
        <ele>110.6</ele>
        <time>2015-03-30T19:17:04.528Z</time>
      </trkpt>
      <trkpt lat="48.89142" lon="2.34574">
        <ele>110.6</ele>
        <time>2015-03-30T19:17:05.547Z</time>
      </trkpt>
      <trkpt lat="48.89151" lon="2.3458">
        <ele>110.6</ele>
        <time>2015-03-30T19:17:06.548Z</time>
      </trkpt>
      <trkpt lat="48.89161" lon="2.34587">
        <ele>110.5</ele>
        <time>2015-03-30T19:17:07.579Z</time>
      </trkpt>
      <trkpt lat="48.89172" lon="2.34594">
        <ele>110.2</ele>
        <time>2015-03-30T19:17:08.571Z</time>
      </trkpt>
      <trkpt lat="48.89185" lon="2.34602">
        <ele>109.4</ele>
        <time>2015-03-30T19:17:09.584Z</time>
      </trkpt>
      <trkpt lat="48.89303" lon="2.34631">
        <ele>108.6</ele>
        <time>2015-03-30T19:17:10.619Z</time>
      </trkpt>
      <trkpt lat="48.89418" lon="2.3466">
        <ele>108.2</ele>
        <time>2015-03-30T19:17:11.648Z</time>
      </trkpt>
      <trkpt lat="48.89514" lon="2.34685">
        <ele>108.1</ele>
        <time>2015-03-30T19:17:12.514Z</time>
      </trkpt>
      <trkpt lat="48.89514" lon="2.34685">
        <ele>108.1</ele>
        <time>2015-03-30T19:17:11.087Z</time>
      </trkpt>
      <trkpt lat="48.89589" lon="2.34707">
        <ele>108.1</ele>
        <time>2015-03-30T19:17:13.586Z</time>
      </trkpt>
      <trkpt lat="48.89794" lon="2.34771">
        <ele>107.9</ele>
        <time>2015-03-30T19:17:14.578Z</time>
      </trkpt>
      <trkpt lat="48.89794" lon="2.34779">
        <ele>108</ele>
        <time>2015-03-30T19:17:16.035Z</time>
      </trkpt>
      <trkpt lat="48.89795" lon="2.34786">
        <ele>107.8</ele>
        <time>2015-03-30T19:17:16.635Z</time>
      </trkpt>
      <trkpt lat="48.89795" lon="2.34794">
        <ele>107.8</ele>
        <time>2015-03-30T19:17:17.536Z</time>
      </trkpt>
      <trkpt lat="48.89794" lon="2.34802">
        <ele>106.9</ele>
        <time>2015-03-30T19:17:18.542Z</time>
      </trkpt>
      <trkpt lat="48.89794" lon="2.34811">
        <ele>106.3</ele>
        <time>2015-03-30T19:17:19.567Z</time>
      </trkpt>
      <trkpt lat="48.89792" lon="2.3482">
        <ele>105.6</ele>
        <time>2015-03-30T19:17:20.565Z</time>
      </trkpt>
      <trkpt lat="48.89792" lon="2.34829">
        <ele>104.8</ele>
        <time>2015-03-30T19:17:21.578Z</time>
      </trkpt>
      <trkpt lat="48.89792" lon="2.34838">
        <ele>104.3</ele>
        <time>2015-03-30T19:17:22.575Z</time>
      </trkpt>
      <trkpt lat="48.89791" lon="2.34847">
        <ele>103.9</ele>
        <time>2015-03-30T19:17:23.582Z</time>
      </trkpt>
      <trkpt lat="48.89791" lon="2.34856">
        <ele>103.5</ele>
        <time>2015-03-30T19:17:24.600Z</time>
      </trkpt>
      <trkpt lat="48.8979" lon="2.34865">
        <ele>103.1</ele>
        <time>2015-03-30T19:17:25.613Z</time>
      </trkpt>
      <trkpt lat="48.8979" lon="2.34875">
        <ele>103.4</ele>
        <time>2015-03-30T19:17:26.537Z</time>
      </trkpt>
      <trkpt lat="48.8979" lon="2.34884">
        <ele>103.3</ele>
        <time>2015-03-30T19:17:27.559Z</time>
      </trkpt>
      <trkpt lat="48.89791" lon="2.34894">
        <ele>103.3</ele>
        <time>2015-03-30T19:17:28.570Z</time>
      </trkpt>
      <trkpt lat="48.89791" lon="2.34905">
        <ele>103.3</ele>
        <time>2015-03-30T19:17:29.595Z</time>
      </trkpt>
      <trkpt lat="48.89791" lon="2.34916">
        <ele>103.4</ele>
        <time>2015-03-30T19:17:30.604Z</time>
      </trkpt>
      <trkpt lat="48.89791" lon="2.34926">
        <ele>103.6</ele>
        <time>2015-03-30T19:17:31.618Z</time>
      </trkpt>
      <trkpt lat="48.89791" lon="2.34937">
        <ele>103.5</ele>
        <time>2015-03-30T19:17:32.626Z</time>
      </trkpt>
      <trkpt lat="48.89791" lon="2.34948">
        <ele>103.5</ele>
        <time>2015-03-30T19:17:33.529Z</time>
      </trkpt>
      <trkpt lat="48.89791" lon="2.3496">
        <ele>103.6</ele>
        <time>2015-03-30T19:17:34.557Z</time>
      </trkpt>
      <trkpt lat="48.89791" lon="2.34972">
        <ele>103.4</ele>
        <time>2015-03-30T19:17:35.574Z</time>
      </trkpt>
      <trkpt lat="48.89791" lon="2.34983">
        <ele>103.4</ele>
        <time>2015-03-30T19:17:36.585Z</time>
      </trkpt>
      <trkpt lat="48.89791" lon="2.34995">
        <ele>103.3</ele>
        <time>2015-03-30T19:17:37.637Z</time>
      </trkpt>
      <trkpt lat="48.8979" lon="2.3501">
        <ele>102.9</ele>
        <time>2015-03-30T19:17:38.528Z</time>
      </trkpt>
      <trkpt lat="48.8979" lon="2.35024">
        <ele>102.5</ele>
        <time>2015-03-30T19:17:39.534Z</time>
      </trkpt>
      <trkpt lat="48.8979" lon="2.35037">
        <ele>103.1</ele>
        <time>2015-03-30T19:17:40.547Z</time>
      </trkpt>
      <trkpt lat="48.8979" lon="2.35049">
        <ele>103.4</ele>
        <time>2015-03-30T19:17:41.570Z</time>
      </trkpt>
      <trkpt lat="48.8979" lon="2.35063">
        <ele>103.2</ele>
        <time>2015-03-30T19:17:42.605Z</time>
      </trkpt>
      <trkpt lat="48.8979" lon="2.35077">
        <ele>103.2</ele>
        <time>2015-03-30T19:17:43.611Z</time>
      </trkpt>
      <trkpt lat="48.89791" lon="2.3509">
        <ele>103.1</ele>
        <time>2015-03-30T19:17:44.636Z</time>
      </trkpt>
      <trkpt lat="48.89791" lon="2.35102">
        <ele>102.7</ele>
        <time>2015-03-30T19:17:45.538Z</time>
      </trkpt>
      <trkpt lat="48.89792" lon="2.35114">
        <ele>103.1</ele>
        <time>2015-03-30T19:17:46.550Z</time>
      </trkpt>
      <trkpt lat="48.89793" lon="2.35126">
        <ele>103</ele>
        <time>2015-03-30T19:17:47.557Z</time>
      </trkpt>
      <trkpt lat="48.89794" lon="2.35137">
        <ele>102.9</ele>
        <time>2015-03-30T19:17:48.574Z</time>
      </trkpt>
      <trkpt lat="48.89794" lon="2.3515">
        <ele>103.1</ele>
        <time>2015-03-30T19:17:49.582Z</time>
      </trkpt>
      <trkpt lat="48.89795" lon="2.35162">
        <ele>103</ele>
        <time>2015-03-30T19:17:50.598Z</time>
      </trkpt>
      <trkpt lat="48.89795" lon="2.35173">
        <ele>102.6</ele>
        <time>2015-03-30T19:17:51.596Z</time>
      </trkpt>
      <trkpt lat="48.89795" lon="2.35184">
        <ele>102.3</ele>
        <time>2015-03-30T19:17:52.607Z</time>
      </trkpt>
      <trkpt lat="48.89795" lon="2.35195">
        <ele>102.1</ele>
        <time>2015-03-30T19:17:53.524Z</time>
      </trkpt>
      <trkpt lat="48.89795" lon="2.35204">
        <ele>101.7</ele>
        <time>2015-03-30T19:17:54.530Z</time>
      </trkpt>
      <trkpt lat="48.89796" lon="2.35214">
        <ele>101.8</ele>
        <time>2015-03-30T19:17:55.580Z</time>
      </trkpt>
      <trkpt lat="48.89796" lon="2.35223">
        <ele>102.1</ele>
        <time>2015-03-30T19:17:56.591Z</time>
      </trkpt>
      <trkpt lat="48.89796" lon="2.35237">
        <ele>102.5</ele>
        <time>2015-03-30T19:17:58.500Z</time>
      </trkpt>
      <trkpt lat="48.89796" lon="2.35239">
        <ele>102.4</ele>
        <time>2015-03-30T19:17:59.506Z</time>
      </trkpt>
      <trkpt lat="48.89795" lon="2.35249">
        <ele>105.5</ele>
        <time>2015-03-30T19:18:41.598Z</time>
      </trkpt>
      <trkpt lat="48.89791" lon="2.35252">
        <ele>104</ele>
        <time>2015-03-30T19:18:42.553Z</time>
      </trkpt>
      <trkpt lat="48.89786" lon="2.35258">
        <ele>104.1</ele>
        <time>2015-03-30T19:18:44.564Z</time>
      </trkpt>
      <trkpt lat="48.89783" lon="2.3526">
        <ele>104.1</ele>
        <time>2015-03-30T19:18:45.540Z</time>
      </trkpt>
      <trkpt lat="48.89776" lon="2.35262">
        <ele>103.8</ele>
        <time>2015-03-30T19:18:47.532Z</time>
      </trkpt>
      <trkpt lat="48.89772" lon="2.35263">
        <ele>103.6</ele>
        <time>2015-03-30T19:18:48.550Z</time>
      </trkpt>
      <trkpt lat="48.89764" lon="2.35263">
        <ele>103.7</ele>
        <time>2015-03-30T19:18:50.598Z</time>
      </trkpt>
      <trkpt lat="48.8976" lon="2.35263">
        <ele>103.8</ele>
        <time>2015-03-30T19:18:51.625Z</time>
      </trkpt>
      <trkpt lat="48.89756" lon="2.35264">
        <ele>103.8</ele>
        <time>2015-03-30T19:18:52.546Z</time>
      </trkpt>
      <trkpt lat="48.89751" lon="2.35266">
        <ele>103.9</ele>
        <time>2015-03-30T19:18:53.561Z</time>
      </trkpt>
      <trkpt lat="48.89744" lon="2.35268">
        <ele>104.5</ele>
        <time>2015-03-30T19:18:55.585Z</time>
      </trkpt>
      <trkpt lat="48.8974" lon="2.3527">
        <ele>104.5</ele>
        <time>2015-03-30T19:18:56.604Z</time>
      </trkpt>
      <trkpt lat="48.89735" lon="2.35271">
        <ele>104.5</ele>
        <time>2015-03-30T19:18:57.514Z</time>
      </trkpt>
      <trkpt lat="48.8973" lon="2.35272">
        <ele>104.5</ele>
        <time>2015-03-30T19:18:58.523Z</time>
      </trkpt>
      <trkpt lat="48.89725" lon="2.35272">
        <ele>104.5</ele>
        <time>2015-03-30T19:18:59.543Z</time>
      </trkpt>
      <trkpt lat="48.8972" lon="2.35272">
        <ele>104.4</ele>
        <time>2015-03-30T19:19:00.566Z</time>
      </trkpt>
      <trkpt lat="48.89713" lon="2.35273">
        <ele>104</ele>
        <time>2015-03-30T19:19:01.597Z</time>
      </trkpt>
      <trkpt lat="48.89708" lon="2.35272">
        <ele>103.8</ele>
        <time>2015-03-30T19:19:02.520Z</time>
      </trkpt>
      <trkpt lat="48.89702" lon="2.35273">
        <ele>103.5</ele>
        <time>2015-03-30T19:19:03.511Z</time>
      </trkpt>
      <trkpt lat="48.89697" lon="2.35272">
        <ele>103.3</ele>
        <time>2015-03-30T19:19:04.519Z</time>
      </trkpt>
      <trkpt lat="48.89688" lon="2.35272">
        <ele>103.1</ele>
        <time>2015-03-30T19:19:06.536Z</time>
      </trkpt>
      <trkpt lat="48.89684" lon="2.35275">
        <ele>102</ele>
        <time>2015-03-30T19:19:07.578Z</time>
      </trkpt>
      <trkpt lat="48.89679" lon="2.35276">
        <ele>101.7</ele>
        <time>2015-03-30T19:19:08.515Z</time>
      </trkpt>
      <trkpt lat="48.89675" lon="2.35277">
        <ele>101.3</ele>
        <time>2015-03-30T19:19:09.508Z</time>
      </trkpt>
      <trkpt lat="48.8967" lon="2.35277">
        <ele>101.6</ele>
        <time>2015-03-30T19:19:10.540Z</time>
      </trkpt>
      <trkpt lat="48.89664" lon="2.35277">
        <ele>101.9</ele>
        <time>2015-03-30T19:19:11.546Z</time>
      </trkpt>
      <trkpt lat="48.89659" lon="2.35277">
        <ele>102.2</ele>
        <time>2015-03-30T19:19:12.563Z</time>
      </trkpt>
      <trkpt lat="48.89654" lon="2.35277">
        <ele>102.5</ele>
        <time>2015-03-30T19:19:13.571Z</time>
      </trkpt>
      <trkpt lat="48.89648" lon="2.35275">
        <ele>102.7</ele>
        <time>2015-03-30T19:19:14.596Z</time>
      </trkpt>
      <trkpt lat="48.89642" lon="2.35275">
        <ele>102.7</ele>
        <time>2015-03-30T19:19:15.519Z</time>
      </trkpt>
      <trkpt lat="48.89637" lon="2.35272">
        <ele>102.5</ele>
        <time>2015-03-30T19:19:16.516Z</time>
      </trkpt>
      <trkpt lat="48.8963" lon="2.3527">
        <ele>102.4</ele>
        <time>2015-03-30T19:19:17.546Z</time>
      </trkpt>
      <trkpt lat="48.89624" lon="2.35269">
        <ele>102.4</ele>
        <time>2015-03-30T19:19:18.558Z</time>
      </trkpt>
      <trkpt lat="48.89617" lon="2.35268">
        <ele>102.5</ele>
        <time>2015-03-30T19:19:19.702Z</time>
      </trkpt>
      <trkpt lat="48.89611" lon="2.35269">
        <ele>102.6</ele>
        <time>2015-03-30T19:19:20.512Z</time>
      </trkpt>
      <trkpt lat="48.89605" lon="2.35271">
        <ele>102.8</ele>
        <time>2015-03-30T19:19:21.519Z</time>
      </trkpt>
      <trkpt lat="48.89598" lon="2.35272">
        <ele>103</ele>
        <time>2015-03-30T19:19:22.517Z</time>
      </trkpt>
      <trkpt lat="48.89593" lon="2.35273">
        <ele>103.2</ele>
        <time>2015-03-30T19:19:23.537Z</time>
      </trkpt>
      <trkpt lat="48.89587" lon="2.35274">
        <ele>103.5</ele>
        <time>2015-03-30T19:19:24.534Z</time>
      </trkpt>
      <trkpt lat="48.89581" lon="2.35274">
        <ele>103.7</ele>
        <time>2015-03-30T19:19:25.558Z</time>
      </trkpt>
      <trkpt lat="48.89576" lon="2.35275">
        <ele>103.9</ele>
        <time>2015-03-30T19:19:26.578Z</time>
      </trkpt>
      <trkpt lat="48.8957" lon="2.35274">
        <ele>103.8</ele>
        <time>2015-03-30T19:19:27.578Z</time>
      </trkpt>
      <trkpt lat="48.89565" lon="2.35273">
        <ele>104</ele>
        <time>2015-03-30T19:19:28.606Z</time>
      </trkpt>
      <trkpt lat="48.89561" lon="2.35272">
        <ele>104.3</ele>
        <time>2015-03-30T19:19:29.541Z</time>
      </trkpt>
      <trkpt lat="48.89553" lon="2.35273">
        <ele>105.2</ele>
        <time>2015-03-30T19:19:31.578Z</time>
      </trkpt>
      <trkpt lat="48.89549" lon="2.35273">
        <ele>105.6</ele>
        <time>2015-03-30T19:19:32.586Z</time>
      </trkpt>
      <trkpt lat="48.89544" lon="2.35275">
        <ele>105.9</ele>
        <time>2015-03-30T19:19:33.494Z</time>
      </trkpt>
      <trkpt lat="48.8954" lon="2.35281">
        <ele>106.3</ele>
        <time>2015-03-30T19:19:34.503Z</time>
      </trkpt>
      <trkpt lat="48.89535" lon="2.35285">
        <ele>106.4</ele>
        <time>2015-03-30T19:19:35.502Z</time>
      </trkpt>
      <trkpt lat="48.89531" lon="2.35286">
        <ele>106.8</ele>
        <time>2015-03-30T19:19:36.544Z</time>
      </trkpt>
      <trkpt lat="48.89523" lon="2.35286">
        <ele>107</ele>
        <time>2015-03-30T19:19:37.565Z</time>
      </trkpt>
      <trkpt lat="48.89517" lon="2.35288">
        <ele>107.1</ele>
        <time>2015-03-30T19:19:38.487Z</time>
      </trkpt>
      <trkpt lat="48.89511" lon="2.3529">
        <ele>107.2</ele>
        <time>2015-03-30T19:19:39.535Z</time>
      </trkpt>
      <trkpt lat="48.89507" lon="2.35292">
        <ele>107.4</ele>
        <time>2015-03-30T19:19:40.546Z</time>
      </trkpt>
      <trkpt lat="48.89502" lon="2.35291">
        <ele>108.6</ele>
        <time>2015-03-30T19:19:41.560Z</time>
      </trkpt>
      <trkpt lat="48.89496" lon="2.35285">
        <ele>110.4</ele>
        <time>2015-03-30T19:19:42.568Z</time>
      </trkpt>
      <trkpt lat="48.89487" lon="2.35279">
        <ele>117.1</ele>
        <time>2015-03-30T19:19:43.590Z</time>
      </trkpt>
      <trkpt lat="48.89483" lon="2.35283">
        <ele>116</ele>
        <time>2015-03-30T19:19:50.510Z</time>
      </trkpt>
      <trkpt lat="48.89472" lon="2.35294">
        <ele>120.2</ele>
        <time>2015-03-30T19:19:51.536Z</time>
      </trkpt>
      <trkpt lat="48.89464" lon="2.35298">
        <ele>120</ele>
        <time>2015-03-30T19:19:54.535Z</time>
      </trkpt>
      <trkpt lat="48.89462" lon="2.353">
        <ele>119.7</ele>
        <time>2015-03-30T19:19:55.585Z</time>
      </trkpt>
      <trkpt lat="48.89453" lon="2.35302">
        <ele>117.3</ele>
        <time>2015-03-30T19:20:03.559Z</time>
      </trkpt>
      <trkpt lat="48.89452" lon="2.35302">
        <ele>117.9</ele>
        <time>2015-03-30T19:20:04.578Z</time>
      </trkpt>
      <trkpt lat="48.89443" lon="2.35301">
        <ele>117.9</ele>
        <time>2015-03-30T19:20:08.532Z</time>
      </trkpt>
      <trkpt lat="48.8944" lon="2.35301">
        <ele>118.2</ele>
        <time>2015-03-30T19:20:09.538Z</time>
      </trkpt>
      <trkpt lat="48.89433" lon="2.35299">
        <ele>119.9</ele>
        <time>2015-03-30T19:20:11.590Z</time>
      </trkpt>
      <trkpt lat="48.89428" lon="2.35299">
        <ele>121.1</ele>
        <time>2015-03-30T19:20:12.551Z</time>
      </trkpt>
      <trkpt lat="48.89421" lon="2.35296">
        <ele>122.5</ele>
        <time>2015-03-30T19:20:15.563Z</time>
      </trkpt>
      <trkpt lat="48.89419" lon="2.35295">
        <ele>122.7</ele>
        <time>2015-03-30T19:20:16.698Z</time>
      </trkpt>
      <trkpt lat="48.89412" lon="2.35303">
        <ele>121.5</ele>
        <time>2015-03-30T19:20:19.579Z</time>
      </trkpt>
      <trkpt lat="48.89411" lon="2.35307">
        <ele>121.4</ele>
        <time>2015-03-30T19:20:20.657Z</time>
      </trkpt>
      <trkpt lat="48.89409" lon="2.35317">
        <ele>121.1</ele>
        <time>2015-03-30T19:20:22.523Z</time>
      </trkpt>
      <trkpt lat="48.89407" lon="2.35322">
        <ele>121.1</ele>
        <time>2015-03-30T19:20:23.544Z</time>
      </trkpt>
      <trkpt lat="48.89404" lon="2.35328">
        <ele>120.7</ele>
        <time>2015-03-30T19:20:24.571Z</time>
      </trkpt>
      <trkpt lat="48.89402" lon="2.35335">
        <ele>120.2</ele>
        <time>2015-03-30T19:20:25.583Z</time>
      </trkpt>
      <trkpt lat="48.894" lon="2.35348">
        <ele>120.3</ele>
        <time>2015-03-30T19:20:27.510Z</time>
      </trkpt>
      <trkpt lat="48.894" lon="2.35355">
        <ele>120.3</ele>
        <time>2015-03-30T19:20:28.533Z</time>
      </trkpt>
      <trkpt lat="48.89399" lon="2.35367">
        <ele>120.5</ele>
        <time>2015-03-30T19:20:30.523Z</time>
      </trkpt>
      <trkpt lat="48.894" lon="2.35373">
        <ele>120.1</ele>
        <time>2015-03-30T19:20:31.586Z</time>
      </trkpt>
      <trkpt lat="48.89399" lon="2.35383">
        <ele>119.5</ele>
        <time>2015-03-30T19:20:33.485Z</time>
      </trkpt>
      <trkpt lat="48.89399" lon="2.35388">
        <ele>119.2</ele>
        <time>2015-03-30T19:20:34.538Z</time>
      </trkpt>
      <trkpt lat="48.89402" lon="2.35399">
        <ele>119</ele>
        <time>2015-03-30T19:20:36.563Z</time>
      </trkpt>
      <trkpt lat="48.89404" lon="2.35406">
        <ele>118.7</ele>
        <time>2015-03-30T19:20:37.571Z</time>
      </trkpt>
      <trkpt lat="48.89403" lon="2.35416">
        <ele>117.7</ele>
        <time>2015-03-30T19:20:39.595Z</time>
      </trkpt>
      <trkpt lat="48.894" lon="2.35418">
        <ele>117.6</ele>
        <time>2015-03-30T19:20:40.603Z</time>
      </trkpt>
      <trkpt lat="48.89391" lon="2.35416">
        <ele>118.4</ele>
        <time>2015-03-30T19:20:43.549Z</time>
      </trkpt>
      <trkpt lat="48.89388" lon="2.35414">
        <ele>118.5</ele>
        <time>2015-03-30T19:20:44.559Z</time>
      </trkpt>
      <trkpt lat="48.89381" lon="2.35407">
        <ele>119.2</ele>
        <time>2015-03-30T19:20:47.581Z</time>
      </trkpt>
      <trkpt lat="48.89376" lon="2.35405">
        <ele>119.1</ele>
        <time>2015-03-30T19:20:48.585Z</time>
      </trkpt>
      <trkpt lat="48.89371" lon="2.35398">
        <ele>119.5</ele>
        <time>2015-03-30T19:21:21.562Z</time>
      </trkpt>
      <trkpt lat="48.89371" lon="2.35393">
        <ele>125.4</ele>
        <time>2015-03-30T19:21:22.565Z</time>
      </trkpt>
      <trkpt lat="48.89378" lon="2.35394">
        <ele>123.7</ele>
        <time>2015-03-30T19:21:23.608Z</time>
      </trkpt>
      <trkpt lat="48.89385" lon="2.35397">
        <ele>121.6</ele>
        <time>2015-03-30T19:21:24.490Z</time>
      </trkpt>
      <trkpt lat="48.89391" lon="2.35397">
        <ele>120.3</ele>
        <time>2015-03-30T19:21:25.548Z</time>
      </trkpt>
      <trkpt lat="48.89396" lon="2.35399">
        <ele>119.2</ele>
        <time>2015-03-30T19:21:26.547Z</time>
      </trkpt>
      <trkpt lat="48.89403" lon="2.35392">
        <ele>119.4</ele>
        <time>2015-03-30T19:21:29.576Z</time>
      </trkpt>
      <trkpt lat="48.89405" lon="2.3539">
        <ele>119.6</ele>
        <time>2015-03-30T19:21:30.594Z</time>
      </trkpt>
      <trkpt lat="48.89409" lon="2.35379">
        <ele>119.5</ele>
        <time>2015-03-30T19:21:32.537Z</time>
      </trkpt>
      <trkpt lat="48.89412" lon="2.35373">
        <ele>119.5</ele>
        <time>2015-03-30T19:21:33.510Z</time>
      </trkpt>
      <trkpt lat="48.89414" lon="2.35368">
        <ele>119.6</ele>
        <time>2015-03-30T19:21:34.521Z</time>
      </trkpt>
      <trkpt lat="48.89417" lon="2.35362">
        <ele>119.8</ele>
        <time>2015-03-30T19:21:35.551Z</time>
      </trkpt>
      <trkpt lat="48.89421" lon="2.35357">
        <ele>120</ele>
        <time>2015-03-30T19:21:36.660Z</time>
      </trkpt>
      <trkpt lat="48.89426" lon="2.35351">
        <ele>120.3</ele>
        <time>2015-03-30T19:21:37.594Z</time>
      </trkpt>
      <trkpt lat="48.89432" lon="2.35345">
        <ele>120.5</ele>
        <time>2015-03-30T19:21:38.607Z</time>
      </trkpt>
      <trkpt lat="48.89437" lon="2.3534">
        <ele>120.7</ele>
        <time>2015-03-30T19:21:39.612Z</time>
      </trkpt>
      <trkpt lat="48.89443" lon="2.35334">
        <ele>120.9</ele>
        <time>2015-03-30T19:21:40.549Z</time>
      </trkpt>
      <trkpt lat="48.89448" lon="2.35328">
        <ele>120.8</ele>
        <time>2015-03-30T19:21:41.549Z</time>
      </trkpt>
      <trkpt lat="48.89452" lon="2.35323">
        <ele>120.6</ele>
        <time>2015-03-30T19:21:42.582Z</time>
      </trkpt>
      <trkpt lat="48.89454" lon="2.35318">
        <ele>120.2</ele>
        <time>2015-03-30T19:21:43.620Z</time>
      </trkpt>
      <trkpt lat="48.8946" lon="2.35309">
        <ele>118</ele>
        <time>2015-03-30T19:21:46.595Z</time>
      </trkpt>
      <trkpt lat="48.8946" lon="2.35307">
        <ele>117.7</ele>
        <time>2015-03-30T19:21:47.623Z</time>
      </trkpt>
      <trkpt lat="48.89455" lon="2.35301">
        <ele>116.9</ele>
        <time>2015-03-30T19:21:49.564Z</time>
      </trkpt>
      <trkpt lat="48.89452" lon="2.35299">
        <ele>116.8</ele>
        <time>2015-03-30T19:21:50.577Z</time>
      </trkpt>
      <trkpt lat="48.89447" lon="2.35297">
        <ele>116.4</ele>
        <time>2015-03-30T19:21:51.507Z</time>
      </trkpt>
      <trkpt lat="48.89442" lon="2.35296">
        <ele>116.4</ele>
        <time>2015-03-30T19:21:52.512Z</time>
      </trkpt>
      <trkpt lat="48.89438" lon="2.35293">
        <ele>116.1</ele>
        <time>2015-03-30T19:21:53.519Z</time>
      </trkpt>
      <trkpt lat="48.89433" lon="2.35292">
        <ele>116.3</ele>
        <time>2015-03-30T19:21:54.571Z</time>
      </trkpt>
      <trkpt lat="48.89427" lon="2.3529">
        <ele>116.6</ele>
        <time>2015-03-30T19:21:55.592Z</time>
      </trkpt>
      <trkpt lat="48.89421" lon="2.35291">
        <ele>116.8</ele>
        <time>2015-03-30T19:21:56.602Z</time>
      </trkpt>
      <trkpt lat="48.89414" lon="2.35291">
        <ele>116.8</ele>
        <time>2015-03-30T19:21:57.518Z</time>
      </trkpt>
      <trkpt lat="48.89407" lon="2.35287">
        <ele>116.7</ele>
        <time>2015-03-30T19:21:58.521Z</time>
      </trkpt>
      <trkpt lat="48.894" lon="2.35284">
        <ele>116.6</ele>
        <time>2015-03-30T19:21:59.540Z</time>
      </trkpt>
      <trkpt lat="48.89393" lon="2.35283">
        <ele>116.5</ele>
        <time>2015-03-30T19:22:00.567Z</time>
      </trkpt>
      <trkpt lat="48.89386" lon="2.35282">
        <ele>116.2</ele>
        <time>2015-03-30T19:22:01.577Z</time>
      </trkpt>
      <trkpt lat="48.8938" lon="2.3528">
        <ele>116.2</ele>
        <time>2015-03-30T19:22:02.533Z</time>
      </trkpt>
      <trkpt lat="48.89373" lon="2.35279">
        <ele>116.2</ele>
        <time>2015-03-30T19:22:03.575Z</time>
      </trkpt>
      <trkpt lat="48.89366" lon="2.35278">
        <ele>116.2</ele>
        <time>2015-03-30T19:22:04.541Z</time>
      </trkpt>
      <trkpt lat="48.89357" lon="2.35276">
        <ele>116.3</ele>
        <time>2015-03-30T19:22:05.559Z</time>
      </trkpt>
      <trkpt lat="48.89347" lon="2.35274">
        <ele>116.1</ele>
        <time>2015-03-30T19:22:06.692Z</time>
      </trkpt>
      <trkpt lat="48.89339" lon="2.35273">
        <ele>116</ele>
        <time>2015-03-30T19:22:07.633Z</time>
      </trkpt>
      <trkpt lat="48.89331" lon="2.35271">
        <ele>115.9</ele>
        <time>2015-03-30T19:22:08.522Z</time>
      </trkpt>
      <trkpt lat="48.89325" lon="2.35269">
        <ele>116</ele>
        <time>2015-03-30T19:22:09.543Z</time>
      </trkpt>
      <trkpt lat="48.89319" lon="2.35265">
        <ele>116.1</ele>
        <time>2015-03-30T19:22:10.539Z</time>
      </trkpt>
      <trkpt lat="48.89314" lon="2.35261">
        <ele>116.2</ele>
        <time>2015-03-30T19:22:11.561Z</time>
      </trkpt>
      <trkpt lat="48.89309" lon="2.35257">
        <ele>116.3</ele>
        <time>2015-03-30T19:22:12.577Z</time>
      </trkpt>
      <trkpt lat="48.89304" lon="2.35253">
        <ele>116.3</ele>
        <time>2015-03-30T19:22:13.633Z</time>
      </trkpt>
      <trkpt lat="48.89299" lon="2.3525">
        <ele>116.3</ele>
        <time>2015-03-30T19:22:14.574Z</time>
      </trkpt>
      <trkpt lat="48.89292" lon="2.35248">
        <ele>116.4</ele>
        <time>2015-03-30T19:22:15.613Z</time>
      </trkpt>
      <trkpt lat="48.89284" lon="2.35245">
        <ele>118.2</ele>
        <time>2015-03-30T19:22:16.514Z</time>
      </trkpt>
      <trkpt lat="48.89279" lon="2.35243">
        <ele>118.2</ele>
        <time>2015-03-30T19:22:17.504Z</time>
      </trkpt>
      <trkpt lat="48.89269" lon="2.35235">
        <ele>118.9</ele>
        <time>2015-03-30T19:22:19.575Z</time>
      </trkpt>
      <trkpt lat="48.89264" lon="2.35232">
        <ele>119.2</ele>
        <time>2015-03-30T19:22:20.581Z</time>
      </trkpt>
      <trkpt lat="48.89258" lon="2.35229">
        <ele>119.7</ele>
        <time>2015-03-30T19:22:21.593Z</time>
      </trkpt>
      <trkpt lat="48.89252" lon="2.35226">
        <ele>120.4</ele>
        <time>2015-03-30T19:22:22.600Z</time>
      </trkpt>
      <trkpt lat="48.89244" lon="2.35219">
        <ele>123.4</ele>
        <time>2015-03-30T19:22:23.512Z</time>
      </trkpt>
      <trkpt lat="48.89238" lon="2.35218">
        <ele>124.2</ele>
        <time>2015-03-30T19:22:24.518Z</time>
      </trkpt>
      <trkpt lat="48.89233" lon="2.35216">
        <ele>124.2</ele>
        <time>2015-03-30T19:22:25.553Z</time>
      </trkpt>
      <trkpt lat="48.89228" lon="2.35216">
        <ele>124.2</ele>
        <time>2015-03-30T19:22:26.524Z</time>
      </trkpt>
      <trkpt lat="48.89223" lon="2.35214">
        <ele>124.2</ele>
        <time>2015-03-30T19:22:27.501Z</time>
      </trkpt>
      <trkpt lat="48.89216" lon="2.35209">
        <ele>124</ele>
        <time>2015-03-30T19:22:29.515Z</time>
      </trkpt>
      <trkpt lat="48.89212" lon="2.35206">
        <ele>123.8</ele>
        <time>2015-03-30T19:22:30.524Z</time>
      </trkpt>
      <trkpt lat="48.89206" lon="2.35201">
        <ele>123.9</ele>
        <time>2015-03-30T19:22:32.543Z</time>
      </trkpt>
      <trkpt lat="48.89203" lon="2.35198">
        <ele>124.1</ele>
        <time>2015-03-30T19:22:33.563Z</time>
      </trkpt>
      <trkpt lat="48.89199" lon="2.35197">
        <ele>124.3</ele>
        <time>2015-03-30T19:22:34.580Z</time>
      </trkpt>
      <trkpt lat="48.8919" lon="2.35196">
        <ele>124.5</ele>
        <time>2015-03-30T19:22:35.600Z</time>
      </trkpt>
      <trkpt lat="48.89179" lon="2.35193">
        <ele>124.2</ele>
        <time>2015-03-30T19:22:36.544Z</time>
      </trkpt>
      <trkpt lat="48.89171" lon="2.35189">
        <ele>123.9</ele>
        <time>2015-03-30T19:22:37.565Z</time>
      </trkpt>
      <trkpt lat="48.89164" lon="2.35186">
        <ele>123.8</ele>
        <time>2015-03-30T19:22:38.557Z</time>
      </trkpt>
      <trkpt lat="48.89158" lon="2.35184">
        <ele>123.5</ele>
        <time>2015-03-30T19:22:39.569Z</time>
      </trkpt>
      <trkpt lat="48.89152" lon="2.35182">
        <ele>123</ele>
        <time>2015-03-30T19:22:40.584Z</time>
      </trkpt>
      <trkpt lat="48.89147" lon="2.35179">
        <ele>122.6</ele>
        <time>2015-03-30T19:22:41.509Z</time>
      </trkpt>
      <trkpt lat="48.89142" lon="2.35176">
        <ele>122.7</ele>
        <time>2015-03-30T19:22:42.494Z</time>
      </trkpt>
      <trkpt lat="48.89137" lon="2.35173">
        <ele>123.6</ele>
        <time>2015-03-30T19:22:43.551Z</time>
      </trkpt>
      <trkpt lat="48.89131" lon="2.35169">
        <ele>124.1</ele>
        <time>2015-03-30T19:22:45.573Z</time>
      </trkpt>
      <trkpt lat="48.89128" lon="2.35168">
        <ele>124.4</ele>
        <time>2015-03-30T19:22:46.581Z</time>
      </trkpt>
      <trkpt lat="48.89124" lon="2.35169">
        <ele>124.8</ele>
        <time>2015-03-30T19:23:19.581Z</time>
      </trkpt>
      <trkpt lat="48.89117" lon="2.35181">
        <ele>121.6</ele>
        <time>2015-03-30T19:23:20.605Z</time>
      </trkpt>
      <trkpt lat="48.89113" lon="2.35188">
        <ele>120.8</ele>
        <time>2015-03-30T19:23:22.512Z</time>
      </trkpt>
      <trkpt lat="48.89112" lon="2.35194">
        <ele>120.4</ele>
        <time>2015-03-30T19:23:23.513Z</time>
      </trkpt>
      <trkpt lat="48.89112" lon="2.352">
        <ele>119.8</ele>
        <time>2015-03-30T19:23:24.511Z</time>
      </trkpt>
      <trkpt lat="48.89112" lon="2.35207">
        <ele>119.5</ele>
        <time>2015-03-30T19:23:25.671Z</time>
      </trkpt>
      <trkpt lat="48.89112" lon="2.35214">
        <ele>119.2</ele>
        <time>2015-03-30T19:23:26.509Z</time>
      </trkpt>
      <trkpt lat="48.89112" lon="2.35221">
        <ele>118.6</ele>
        <time>2015-03-30T19:23:27.484Z</time>
      </trkpt>
      <trkpt lat="48.89112" lon="2.35228">
        <ele>118.4</ele>
        <time>2015-03-30T19:23:28.517Z</time>
      </trkpt>
      <trkpt lat="48.89109" lon="2.35235">
        <ele>118.3</ele>
        <time>2015-03-30T19:23:29.527Z</time>
      </trkpt>
      <trkpt lat="48.89106" lon="2.35242">
        <ele>118</ele>
        <time>2015-03-30T19:23:30.542Z</time>
      </trkpt>
      <trkpt lat="48.89105" lon="2.35249">
        <ele>117.9</ele>
        <time>2015-03-30T19:23:31.547Z</time>
      </trkpt>
      <trkpt lat="48.89103" lon="2.35256">
        <ele>117.7</ele>
        <time>2015-03-30T19:23:32.484Z</time>
      </trkpt>
      <trkpt lat="48.891" lon="2.35263">
        <ele>117.3</ele>
        <time>2015-03-30T19:23:33.490Z</time>
      </trkpt>
      <trkpt lat="48.89098" lon="2.35271">
        <ele>117.1</ele>
        <time>2015-03-30T19:23:34.506Z</time>
      </trkpt>
      <trkpt lat="48.89095" lon="2.35279">
        <ele>116.9</ele>
        <time>2015-03-30T19:23:35.516Z</time>
      </trkpt>
      <trkpt lat="48.89092" lon="2.35286">
        <ele>116.6</ele>
        <time>2015-03-30T19:23:36.527Z</time>
      </trkpt>
      <trkpt lat="48.8909" lon="2.35294">
        <ele>116</ele>
        <time>2015-03-30T19:23:37.542Z</time>
      </trkpt>
      <trkpt lat="48.89089" lon="2.35301">
        <ele>115.6</ele>
        <time>2015-03-30T19:23:38.560Z</time>
      </trkpt>
      <trkpt lat="48.89091" lon="2.3531">
        <ele>114.5</ele>
        <time>2015-03-30T19:23:39.566Z</time>
      </trkpt>
      <trkpt lat="48.89091" lon="2.35318">
        <ele>113.9</ele>
        <time>2015-03-30T19:23:40.572Z</time>
      </trkpt>
      <trkpt lat="48.8909" lon="2.35326">
        <ele>113.5</ele>
        <time>2015-03-30T19:23:41.485Z</time>
      </trkpt>
      <trkpt lat="48.89088" lon="2.35333">
        <ele>113</ele>
        <time>2015-03-30T19:23:42.496Z</time>
      </trkpt>
      <trkpt lat="48.89087" lon="2.3534">
        <ele>112.7</ele>
        <time>2015-03-30T19:23:43.505Z</time>
      </trkpt>
      <trkpt lat="48.89085" lon="2.35347">
        <ele>112.5</ele>
        <time>2015-03-30T19:23:44.531Z</time>
      </trkpt>
      <trkpt lat="48.89084" lon="2.35355">
        <ele>112.2</ele>
        <time>2015-03-30T19:23:45.539Z</time>
      </trkpt>
      <trkpt lat="48.89083" lon="2.35363">
        <ele>111.8</ele>
        <time>2015-03-30T19:23:46.547Z</time>
      </trkpt>
      <trkpt lat="48.89081" lon="2.35369">
        <ele>111</ele>
        <time>2015-03-30T19:23:47.568Z</time>
      </trkpt>
      <trkpt lat="48.89079" lon="2.35378">
        <ele>110.9</ele>
        <time>2015-03-30T19:23:48.582Z</time>
      </trkpt>
      <trkpt lat="48.89078" lon="2.35385">
        <ele>111</ele>
        <time>2015-03-30T19:23:49.593Z</time>
      </trkpt>
      <trkpt lat="48.89076" lon="2.35394">
        <ele>111.1</ele>
        <time>2015-03-30T19:23:50.493Z</time>
      </trkpt>
      <trkpt lat="48.89075" lon="2.35401">
        <ele>110.5</ele>
        <time>2015-03-30T19:23:51.498Z</time>
      </trkpt>
      <trkpt lat="48.89074" lon="2.35408">
        <ele>110.1</ele>
        <time>2015-03-30T19:23:52.504Z</time>
      </trkpt>
      <trkpt lat="48.89072" lon="2.35415">
        <ele>109.9</ele>
        <time>2015-03-30T19:23:53.514Z</time>
      </trkpt>
      <trkpt lat="48.89071" lon="2.35423">
        <ele>109.4</ele>
        <time>2015-03-30T19:23:54.525Z</time>
      </trkpt>
      <trkpt lat="48.8907" lon="2.35431">
        <ele>109.4</ele>
        <time>2015-03-30T19:23:55.534Z</time>
      </trkpt>
      <trkpt lat="48.89068" lon="2.35438">
        <ele>109</ele>
        <time>2015-03-30T19:23:56.541Z</time>
      </trkpt>
      <trkpt lat="48.89065" lon="2.35446">
        <ele>109.1</ele>
        <time>2015-03-30T19:23:57.553Z</time>
      </trkpt>
      <trkpt lat="48.89063" lon="2.35454">
        <ele>109.2</ele>
        <time>2015-03-30T19:23:58.569Z</time>
      </trkpt>
      <trkpt lat="48.89061" lon="2.35462">
        <ele>109.5</ele>
        <time>2015-03-30T19:23:59.576Z</time>
      </trkpt>
      <trkpt lat="48.8906" lon="2.35469">
        <ele>109.1</ele>
        <time>2015-03-30T19:24:00.592Z</time>
      </trkpt>
      <trkpt lat="48.89059" lon="2.35477">
        <ele>108.7</ele>
        <time>2015-03-30T19:24:01.600Z</time>
      </trkpt>
      <trkpt lat="48.89056" lon="2.35484">
        <ele>108.3</ele>
        <time>2015-03-30T19:24:02.513Z</time>
      </trkpt>
      <trkpt lat="48.89055" lon="2.35492">
        <ele>108.1</ele>
        <time>2015-03-30T19:24:03.509Z</time>
      </trkpt>
      <trkpt lat="48.89054" lon="2.35499">
        <ele>108.1</ele>
        <time>2015-03-30T19:24:04.523Z</time>
      </trkpt>
      <trkpt lat="48.89052" lon="2.35507">
        <ele>108</ele>
        <time>2015-03-30T19:24:05.533Z</time>
      </trkpt>
      <trkpt lat="48.89049" lon="2.35515">
        <ele>108.1</ele>
        <time>2015-03-30T19:24:06.542Z</time>
      </trkpt>
      <trkpt lat="48.89048" lon="2.35523">
        <ele>107.6</ele>
        <time>2015-03-30T19:24:07.550Z</time>
      </trkpt>
      <trkpt lat="48.89045" lon="2.35529">
        <ele>107.7</ele>
        <time>2015-03-30T19:24:08.562Z</time>
      </trkpt>
      <trkpt lat="48.89043" lon="2.35535">
        <ele>108</ele>
        <time>2015-03-30T19:24:09.580Z</time>
      </trkpt>
      <trkpt lat="48.89041" lon="2.35542">
        <ele>108.1</ele>
        <time>2015-03-30T19:24:10.577Z</time>
      </trkpt>
      <trkpt lat="48.89039" lon="2.35548">
        <ele>108.2</ele>
        <time>2015-03-30T19:24:11.590Z</time>
      </trkpt>
      <trkpt lat="48.89038" lon="2.35556">
        <ele>108.1</ele>
        <time>2015-03-30T19:24:12.604Z</time>
      </trkpt>
      <trkpt lat="48.89037" lon="2.35563">
        <ele>107.9</ele>
        <time>2015-03-30T19:24:13.625Z</time>
      </trkpt>
      <trkpt lat="48.89036" lon="2.3557">
        <ele>107.9</ele>
        <time>2015-03-30T19:24:14.507Z</time>
      </trkpt>
      <trkpt lat="48.89035" lon="2.35576">
        <ele>107.7</ele>
        <time>2015-03-30T19:24:15.521Z</time>
      </trkpt>
      <trkpt lat="48.89032" lon="2.35588">
        <ele>107.3</ele>
        <time>2015-03-30T19:24:17.541Z</time>
      </trkpt>
      <trkpt lat="48.89032" lon="2.35595">
        <ele>107.7</ele>
        <time>2015-03-30T19:24:18.561Z</time>
      </trkpt>
      <trkpt lat="48.89031" lon="2.35607">
        <ele>107.4</ele>
        <time>2015-03-30T19:24:20.508Z</time>
      </trkpt>
      <trkpt lat="48.8903" lon="2.35613">
        <ele>107.4</ele>
        <time>2015-03-30T19:24:21.537Z</time>
      </trkpt>
      <trkpt lat="48.8903" lon="2.35624">
        <ele>107</ele>
        <time>2015-03-30T19:24:23.572Z</time>
      </trkpt>
      <trkpt lat="48.89031" lon="2.3563">
        <ele>106.8</ele>
        <time>2015-03-30T19:24:24.593Z</time>
      </trkpt>
      <trkpt lat="48.89032" lon="2.35643">
        <ele>106.7</ele>
        <time>2015-03-30T19:24:26.616Z</time>
      </trkpt>
      <trkpt lat="48.89032" lon="2.35649">
        <ele>106.5</ele>
        <time>2015-03-30T19:24:27.547Z</time>
      </trkpt>
      <trkpt lat="48.89031" lon="2.35661">
        <ele>106.8</ele>
        <time>2015-03-30T19:24:29.526Z</time>
      </trkpt>
      <trkpt lat="48.89031" lon="2.35667">
        <ele>106.7</ele>
        <time>2015-03-30T19:24:30.548Z</time>
      </trkpt>
      <trkpt lat="48.89031" lon="2.35675">
        <ele>106.5</ele>
        <time>2015-03-30T19:24:31.631Z</time>
      </trkpt>
      <trkpt lat="48.89031" lon="2.35682">
        <ele>106.4</ele>
        <time>2015-03-30T19:24:32.517Z</time>
      </trkpt>
      <trkpt lat="48.8903" lon="2.35689">
        <ele>105.9</ele>
        <time>2015-03-30T19:24:33.517Z</time>
      </trkpt>
      <trkpt lat="48.8903" lon="2.35697">
        <ele>105.7</ele>
        <time>2015-03-30T19:24:34.538Z</time>
      </trkpt>
      <trkpt lat="48.8903" lon="2.35705">
        <ele>105.7</ele>
        <time>2015-03-30T19:24:35.565Z</time>
      </trkpt>
      <trkpt lat="48.89029" lon="2.35712">
        <ele>105.9</ele>
        <time>2015-03-30T19:24:36.578Z</time>
      </trkpt>
      <trkpt lat="48.89029" lon="2.3572">
        <ele>106</ele>
        <time>2015-03-30T19:24:37.602Z</time>
      </trkpt>
      <trkpt lat="48.89029" lon="2.35728">
        <ele>106.2</ele>
        <time>2015-03-30T19:24:38.548Z</time>
      </trkpt>
      <trkpt lat="48.89029" lon="2.35735">
        <ele>106.3</ele>
        <time>2015-03-30T19:24:39.522Z</time>
      </trkpt>
      <trkpt lat="48.89029" lon="2.35742">
        <ele>106.5</ele>
        <time>2015-03-30T19:24:40.527Z</time>
      </trkpt>
      <trkpt lat="48.89029" lon="2.35749">
        <ele>106.7</ele>
        <time>2015-03-30T19:24:41.538Z</time>
      </trkpt>
      <trkpt lat="48.89029" lon="2.35757">
        <ele>107</ele>
        <time>2015-03-30T19:24:42.557Z</time>
      </trkpt>
      <trkpt lat="48.89029" lon="2.35764">
        <ele>107.1</ele>
        <time>2015-03-30T19:24:43.609Z</time>
      </trkpt>
      <trkpt lat="48.89028" lon="2.35771">
        <ele>107.4</ele>
        <time>2015-03-30T19:24:44.524Z</time>
      </trkpt>
      <trkpt lat="48.89026" lon="2.35778">
        <ele>107.6</ele>
        <time>2015-03-30T19:24:45.523Z</time>
      </trkpt>
      <trkpt lat="48.89025" lon="2.35785">
        <ele>107.8</ele>
        <time>2015-03-30T19:24:46.542Z</time>
      </trkpt>
      <trkpt lat="48.89025" lon="2.35792">
        <ele>107.9</ele>
        <time>2015-03-30T19:24:47.571Z</time>
      </trkpt>
      <trkpt lat="48.89025" lon="2.358">
        <ele>107.7</ele>
        <time>2015-03-30T19:24:48.575Z</time>
      </trkpt>
      <trkpt lat="48.89026" lon="2.35808">
        <ele>107.7</ele>
        <time>2015-03-30T19:24:49.597Z</time>
      </trkpt>
      <trkpt lat="48.89026" lon="2.35816">
        <ele>107.6</ele>
        <time>2015-03-30T19:24:50.524Z</time>
      </trkpt>
      <trkpt lat="48.89026" lon="2.35824">
        <ele>107.8</ele>
        <time>2015-03-30T19:24:51.521Z</time>
      </trkpt>
      <trkpt lat="48.89027" lon="2.35832">
        <ele>108</ele>
        <time>2015-03-30T19:24:52.518Z</time>
      </trkpt>
      <trkpt lat="48.89028" lon="2.35839">
        <ele>107.8</ele>
        <time>2015-03-30T19:24:53.545Z</time>
      </trkpt>
      <trkpt lat="48.89028" lon="2.35846">
        <ele>107.4</ele>
        <time>2015-03-30T19:24:54.557Z</time>
      </trkpt>
      <trkpt lat="48.89028" lon="2.35853">
        <ele>107.2</ele>
        <time>2015-03-30T19:24:55.576Z</time>
      </trkpt>
      <trkpt lat="48.89027" lon="2.35861">
        <ele>106.8</ele>
        <time>2015-03-30T19:24:56.594Z</time>
      </trkpt>
      <trkpt lat="48.89027" lon="2.35868">
        <ele>106.8</ele>
        <time>2015-03-30T19:24:57.509Z</time>
      </trkpt>
      <trkpt lat="48.89026" lon="2.35875">
        <ele>106.7</ele>
        <time>2015-03-30T19:24:58.482Z</time>
      </trkpt>
      <trkpt lat="48.89025" lon="2.35882">
        <ele>106.3</ele>
        <time>2015-03-30T19:24:59.511Z</time>
      </trkpt>
      <trkpt lat="48.89024" lon="2.35889">
        <ele>106</ele>
        <time>2015-03-30T19:25:00.536Z</time>
      </trkpt>
      <trkpt lat="48.89022" lon="2.35902">
        <ele>105.7</ele>
        <time>2015-03-30T19:25:02.561Z</time>
      </trkpt>
      <trkpt lat="48.8902" lon="2.35908">
        <ele>105.7</ele>
        <time>2015-03-30T19:25:03.563Z</time>
      </trkpt>
      <trkpt lat="48.89019" lon="2.35914">
        <ele>105.9</ele>
        <time>2015-03-30T19:25:04.603Z</time>
      </trkpt>
      <trkpt lat="48.89018" lon="2.35922">
        <ele>106.2</ele>
        <time>2015-03-30T19:25:05.613Z</time>
      </trkpt>
      <trkpt lat="48.89018" lon="2.35935">
        <ele>106.8</ele>
        <time>2015-03-30T19:25:07.543Z</time>
      </trkpt>
      <trkpt lat="48.89019" lon="2.35944">
        <ele>107.5</ele>
        <time>2015-03-30T19:25:08.556Z</time>
      </trkpt>
      <trkpt lat="48.8902" lon="2.35952">
        <ele>107.6</ele>
        <time>2015-03-30T19:25:09.583Z</time>
      </trkpt>
      <trkpt lat="48.89022" lon="2.35961">
        <ele>107.9</ele>
        <time>2015-03-30T19:25:10.600Z</time>
      </trkpt>
      <trkpt lat="48.89023" lon="2.35968">
        <ele>108.1</ele>
        <time>2015-03-30T19:25:11.482Z</time>
      </trkpt>
      <trkpt lat="48.89024" lon="2.35974">
        <ele>108.4</ele>
        <time>2015-03-30T19:25:12.488Z</time>
      </trkpt>
      <trkpt lat="48.89023" lon="2.35983">
        <ele>109</ele>
        <time>2015-03-30T19:25:14.548Z</time>
      </trkpt>
      <trkpt lat="48.89023" lon="2.35989">
        <ele>109.7</ele>
        <time>2015-03-30T19:25:15.577Z</time>
      </trkpt>
      <trkpt lat="48.89028" lon="2.35997">
        <ele>107.1</ele>
        <time>2015-03-30T19:25:38.571Z</time>
      </trkpt>
      <trkpt lat="48.89031" lon="2.35998">
        <ele>107.1</ele>
        <time>2015-03-30T19:25:39.602Z</time>
      </trkpt>
      <trkpt lat="48.89037" lon="2.36005">
        <ele>107</ele>
        <time>2015-03-30T19:25:42.528Z</time>
      </trkpt>
      <trkpt lat="48.89039" lon="2.36005">
        <ele>107.2</ele>
        <time>2015-03-30T19:25:43.557Z</time>
      </trkpt>
      <trkpt lat="48.89138" lon="2.35736">
        <ele>107</ele>
        <time>2015-03-30T19:25:44.569Z</time>
      </trkpt>
      <trkpt lat="48.89096" lon="2.35854">
        <ele>106.9</ele>
        <time>2015-03-30T19:25:45.606Z</time>
      </trkpt>
      <trkpt lat="48.8908" lon="2.359">
        <ele>106.9</ele>
        <time>2015-03-30T19:25:46.521Z</time>
      </trkpt>
      <trkpt lat="48.89069" lon="2.35936">
        <ele>107.2</ele>
        <time>2015-03-30T19:25:47.507Z</time>
      </trkpt>
      <trkpt lat="48.89063" lon="2.3596">
        <ele>107.7</ele>
        <time>2015-03-30T19:25:48.520Z</time>
      </trkpt>
      <trkpt lat="48.89063" lon="2.3596">
        <ele>107.7</ele>
        <time>2015-03-30T19:25:48.468Z</time>
      </trkpt>
      <trkpt lat="48.8906" lon="2.35975">
        <ele>107.9</ele>
        <time>2015-03-30T19:25:49.595Z</time>
      </trkpt>
      <trkpt lat="48.89059" lon="2.35986">
        <ele>108.5</ele>
        <time>2015-03-30T19:25:50.582Z</time>
      </trkpt>
      <trkpt lat="48.89059" lon="2.35991">
        <ele>109</ele>
        <time>2015-03-30T19:25:51.490Z</time>
      </trkpt>
      <trkpt lat="48.89067" lon="2.35994">
        <ele>109.4</ele>
        <time>2015-03-30T19:25:53.553Z</time>
      </trkpt>
      <trkpt lat="48.89071" lon="2.35993">
        <ele>109.9</ele>
        <time>2015-03-30T19:25:54.517Z</time>
      </trkpt>
      <trkpt lat="48.89079" lon="2.3599">
        <ele>111.2</ele>
        <time>2015-03-30T19:25:57.591Z</time>
      </trkpt>
      <trkpt lat="48.89081" lon="2.35989">
        <ele>111.3</ele>
        <time>2015-03-30T19:25:58.512Z</time>
      </trkpt>
      <trkpt lat="48.89088" lon="2.35988">
        <ele>112.2</ele>
        <time>2015-03-30T19:26:01.580Z</time>
      </trkpt>
      <trkpt lat="48.89091" lon="2.35988">
        <ele>112.4</ele>
        <time>2015-03-30T19:26:02.595Z</time>
      </trkpt>
      <trkpt lat="48.89099" lon="2.35988">
        <ele>112.7</ele>
        <time>2015-03-30T19:26:03.502Z</time>
      </trkpt>
      <trkpt lat="48.89102" lon="2.35988">
        <ele>113</ele>
        <time>2015-03-30T19:26:04.521Z</time>
      </trkpt>
      <trkpt lat="48.89109" lon="2.35985">
        <ele>113.4</ele>
        <time>2015-03-30T19:26:07.589Z</time>
      </trkpt>
      <trkpt lat="48.89113" lon="2.35984">
        <ele>113.4</ele>
        <time>2015-03-30T19:26:08.497Z</time>
      </trkpt>
      <trkpt lat="48.8912" lon="2.35982">
        <ele>113.4</ele>
        <time>2015-03-30T19:26:10.666Z</time>
      </trkpt>
      <trkpt lat="48.89123" lon="2.35981">
        <ele>113.5</ele>
        <time>2015-03-30T19:26:11.505Z</time>
      </trkpt>
      <trkpt lat="48.89131" lon="2.3598">
        <ele>113.6</ele>
        <time>2015-03-30T19:26:13.153Z</time>
      </trkpt>
      <trkpt lat="48.89135" lon="2.35979">
        <ele>113.6</ele>
        <time>2015-03-30T19:26:14.546Z</time>
      </trkpt>
      <trkpt lat="48.89143" lon="2.35979">
        <ele>113.6</ele>
        <time>2015-03-30T19:26:16.507Z</time>
      </trkpt>
      <trkpt lat="48.89156" lon="2.3598">
        <ele>113.8</ele>
        <time>2015-03-30T19:26:17.564Z</time>
      </trkpt>
      <trkpt lat="48.89161" lon="2.3598">
        <ele>113.8</ele>
        <time>2015-03-30T19:26:18.577Z</time>
      </trkpt>
      <trkpt lat="48.89167" lon="2.35981">
        <ele>113.8</ele>
        <time>2015-03-30T19:26:19.597Z</time>
      </trkpt>
      <trkpt lat="48.89172" lon="2.3598">
        <ele>114</ele>
        <time>2015-03-30T19:26:21.127Z</time>
      </trkpt>
      <trkpt lat="48.89177" lon="2.3598">
        <ele>114.1</ele>
        <time>2015-03-30T19:26:21.513Z</time>
      </trkpt>
      <trkpt lat="48.89182" lon="2.35979">
        <ele>114.1</ele>
        <time>2015-03-30T19:26:22.523Z</time>
      </trkpt>
      <trkpt lat="48.89188" lon="2.35977">
        <ele>114.2</ele>
        <time>2015-03-30T19:26:23.529Z</time>
      </trkpt>
      <trkpt lat="48.89193" lon="2.35975">
        <ele>114.8</ele>
        <time>2015-03-30T19:26:24.559Z</time>
      </trkpt>
      <trkpt lat="48.89198" lon="2.35974">
        <ele>115</ele>
        <time>2015-03-30T19:26:25.580Z</time>
      </trkpt>
      <trkpt lat="48.89205" lon="2.35969">
        <ele>116</ele>
        <time>2015-03-30T19:26:27.532Z</time>
      </trkpt>
      <trkpt lat="48.89209" lon="2.35967">
        <ele>116.4</ele>
        <time>2015-03-30T19:26:28.553Z</time>
      </trkpt>
      <trkpt lat="48.89214" lon="2.35965">
        <ele>116.1</ele>
        <time>2015-03-30T19:26:29.564Z</time>
      </trkpt>
      <trkpt lat="48.89218" lon="2.35965">
        <ele>116.4</ele>
        <time>2015-03-30T19:26:30.577Z</time>
      </trkpt>
      <trkpt lat="48.89222" lon="2.35966">
        <ele>116.6</ele>
        <time>2015-03-30T19:26:31.589Z</time>
      </trkpt>
      <trkpt lat="48.89227" lon="2.35966">
        <ele>116.9</ele>
        <time>2015-03-30T19:26:32.493Z</time>
      </trkpt>
      <trkpt lat="48.89233" lon="2.35967">
        <ele>117.3</ele>
        <time>2015-03-30T19:26:33.492Z</time>
      </trkpt>
      <trkpt lat="48.89239" lon="2.35968">
        <ele>117.4</ele>
        <time>2015-03-30T19:26:34.582Z</time>
      </trkpt>
      <trkpt lat="48.89245" lon="2.35968">
        <ele>117.9</ele>
        <time>2015-03-30T19:26:35.515Z</time>
      </trkpt>
      <trkpt lat="48.89251" lon="2.35969">
        <ele>118.7</ele>
        <time>2015-03-30T19:26:36.526Z</time>
      </trkpt>
      <trkpt lat="48.89258" lon="2.35969">
        <ele>119.1</ele>
        <time>2015-03-30T19:26:37.550Z</time>
      </trkpt>
      <trkpt lat="48.89265" lon="2.35968">
        <ele>119.4</ele>
        <time>2015-03-30T19:26:38.577Z</time>
      </trkpt>
      <trkpt lat="48.89273" lon="2.35965">
        <ele>119.5</ele>
        <time>2015-03-30T19:26:40.496Z</time>
      </trkpt>
      <trkpt lat="48.89277" lon="2.35963">
        <ele>119.7</ele>
        <time>2015-03-30T19:26:41.495Z</time>
      </trkpt>
      <trkpt lat="48.89287" lon="2.35963">
        <ele>119.7</ele>
        <time>2015-03-30T19:26:43.537Z</time>
      </trkpt>
      <trkpt lat="48.89294" lon="2.35963">
        <ele>119.8</ele>
        <time>2015-03-30T19:26:44.547Z</time>
      </trkpt>
      <trkpt lat="48.893" lon="2.35963">
        <ele>119.9</ele>
        <time>2015-03-30T19:26:45.563Z</time>
      </trkpt>
      <trkpt lat="48.89306" lon="2.35963">
        <ele>120</ele>
        <time>2015-03-30T19:26:46.580Z</time>
      </trkpt>
      <trkpt lat="48.89311" lon="2.35963">
        <ele>120.2</ele>
        <time>2015-03-30T19:26:47.482Z</time>
      </trkpt>
      <trkpt lat="48.89317" lon="2.35962">
        <ele>120.3</ele>
        <time>2015-03-30T19:26:48.508Z</time>
      </trkpt>
      <trkpt lat="48.89322" lon="2.35962">
        <ele>120.6</ele>
        <time>2015-03-30T19:26:49.534Z</time>
      </trkpt>
      <trkpt lat="48.89327" lon="2.3596">
        <ele>120.8</ele>
        <time>2015-03-30T19:26:51.551Z</time>
      </trkpt>
      <trkpt lat="48.89331" lon="2.35959">
        <ele>120.7</ele>
        <time>2015-03-30T19:26:52.562Z</time>
      </trkpt>
      <trkpt lat="48.89339" lon="2.35954">
        <ele>121</ele>
        <time>2015-03-30T19:26:54.658Z</time>
      </trkpt>
      <trkpt lat="48.89343" lon="2.35951">
        <ele>121.1</ele>
        <time>2015-03-30T19:26:55.506Z</time>
      </trkpt>
      <trkpt lat="48.89351" lon="2.35947">
        <ele>120.9</ele>
        <time>2015-03-30T19:26:57.553Z</time>
      </trkpt>
      <trkpt lat="48.89356" lon="2.35946">
        <ele>120.8</ele>
        <time>2015-03-30T19:26:58.589Z</time>
      </trkpt>
      <trkpt lat="48.89361" lon="2.35945">
        <ele>120.6</ele>
        <time>2015-03-30T19:26:59.503Z</time>
      </trkpt>
      <trkpt lat="48.89365" lon="2.35945">
        <ele>120.8</ele>
        <time>2015-03-30T19:27:00.494Z</time>
      </trkpt>
      <trkpt lat="48.8937" lon="2.35945">
        <ele>120.8</ele>
        <time>2015-03-30T19:27:01.556Z</time>
      </trkpt>
      <trkpt lat="48.89375" lon="2.35944">
        <ele>120.6</ele>
        <time>2015-03-30T19:27:02.567Z</time>
      </trkpt>
      <trkpt lat="48.8938" lon="2.35943">
        <ele>120.7</ele>
        <time>2015-03-30T19:27:03.588Z</time>
      </trkpt>
      <trkpt lat="48.89384" lon="2.35943">
        <ele>120.8</ele>
        <time>2015-03-30T19:27:04.504Z</time>
      </trkpt>
      <trkpt lat="48.8939" lon="2.35943">
        <ele>121</ele>
        <time>2015-03-30T19:27:05.502Z</time>
      </trkpt>
      <trkpt lat="48.89395" lon="2.35942">
        <ele>121</ele>
        <time>2015-03-30T19:27:06.511Z</time>
      </trkpt>
      <trkpt lat="48.89401" lon="2.35941">
        <ele>121.1</ele>
        <time>2015-03-30T19:27:07.545Z</time>
      </trkpt>
      <trkpt lat="48.89407" lon="2.35941">
        <ele>121.2</ele>
        <time>2015-03-30T19:27:08.548Z</time>
      </trkpt>
      <trkpt lat="48.89413" lon="2.35941">
        <ele>121.2</ele>
        <time>2015-03-30T19:27:09.573Z</time>
      </trkpt>
      <trkpt lat="48.89417" lon="2.3594">
        <ele>121.3</ele>
        <time>2015-03-30T19:27:10.590Z</time>
      </trkpt>
      <trkpt lat="48.89421" lon="2.35939">
        <ele>121.2</ele>
        <time>2015-03-30T19:27:11.499Z</time>
      </trkpt>
      <trkpt lat="48.89426" lon="2.35937">
        <ele>121.4</ele>
        <time>2015-03-30T19:27:12.505Z</time>
      </trkpt>
      <trkpt lat="48.89435" lon="2.35936">
        <ele>122</ele>
        <time>2015-03-30T19:27:13.528Z</time>
      </trkpt>
      <trkpt lat="48.89442" lon="2.35937">
        <ele>122.2</ele>
        <time>2015-03-30T19:27:14.522Z</time>
      </trkpt>
      <trkpt lat="48.89449" lon="2.35937">
        <ele>122.2</ele>
        <time>2015-03-30T19:27:15.543Z</time>
      </trkpt>
      <trkpt lat="48.89454" lon="2.35939">
        <ele>122</ele>
        <time>2015-03-30T19:27:16.470Z</time>
      </trkpt>
      <trkpt lat="48.89459" lon="2.3594">
        <ele>121.7</ele>
        <time>2015-03-30T19:27:17.489Z</time>
      </trkpt>
      <trkpt lat="48.89464" lon="2.35942">
        <ele>121</ele>
        <time>2015-03-30T19:27:18.498Z</time>
      </trkpt>
      <trkpt lat="48.89468" lon="2.35945">
        <ele>120.5</ele>
        <time>2015-03-30T19:27:19.528Z</time>
      </trkpt>
      <trkpt lat="48.89473" lon="2.35947">
        <ele>119.9</ele>
        <time>2015-03-30T19:27:20.541Z</time>
      </trkpt>
      <trkpt lat="48.89478" lon="2.35948">
        <ele>118.9</ele>
        <time>2015-03-30T19:27:21.547Z</time>
      </trkpt>
      <trkpt lat="48.89483" lon="2.35949">
        <ele>118.1</ele>
        <time>2015-03-30T19:27:22.567Z</time>
      </trkpt>
      <trkpt lat="48.89491" lon="2.35952">
        <ele>116</ele>
        <time>2015-03-30T19:27:23.576Z</time>
      </trkpt>
      <trkpt lat="48.89499" lon="2.35954">
        <ele>114.6</ele>
        <time>2015-03-30T19:27:24.582Z</time>
      </trkpt>
      <trkpt lat="48.89505" lon="2.35955">
        <ele>113.6</ele>
        <time>2015-03-30T19:27:25.589Z</time>
      </trkpt>
      <trkpt lat="48.89512" lon="2.35957">
        <ele>112.8</ele>
        <time>2015-03-30T19:27:26.492Z</time>
      </trkpt>
      <trkpt lat="48.89517" lon="2.35958">
        <ele>112.3</ele>
        <time>2015-03-30T19:27:27.497Z</time>
      </trkpt>
      <trkpt lat="48.89523" lon="2.35958">
        <ele>112.1</ele>
        <time>2015-03-30T19:27:28.520Z</time>
      </trkpt>
      <trkpt lat="48.8953" lon="2.35958">
        <ele>112</ele>
        <time>2015-03-30T19:27:29.548Z</time>
      </trkpt>
      <trkpt lat="48.89535" lon="2.35959">
        <ele>111.7</ele>
        <time>2015-03-30T19:27:30.536Z</time>
      </trkpt>
      <trkpt lat="48.8954" lon="2.35961">
        <ele>111.5</ele>
        <time>2015-03-30T19:27:31.541Z</time>
      </trkpt>
      <trkpt lat="48.89546" lon="2.35959">
        <ele>111.4</ele>
        <time>2015-03-30T19:27:32.552Z</time>
      </trkpt>
      <trkpt lat="48.89552" lon="2.35957">
        <ele>111.5</ele>
        <time>2015-03-30T19:27:33.561Z</time>
      </trkpt>
      <trkpt lat="48.89558" lon="2.35954">
        <ele>111.6</ele>
        <time>2015-03-30T19:27:34.570Z</time>
      </trkpt>
      <trkpt lat="48.89565" lon="2.35951">
        <ele>111.6</ele>
        <time>2015-03-30T19:27:35.513Z</time>
      </trkpt>
      <trkpt lat="48.89572" lon="2.35949">
        <ele>111.6</ele>
        <time>2015-03-30T19:27:36.509Z</time>
      </trkpt>
      <trkpt lat="48.89579" lon="2.35945">
        <ele>111.8</ele>
        <time>2015-03-30T19:27:37.614Z</time>
      </trkpt>
      <trkpt lat="48.89584" lon="2.35943">
        <ele>112.1</ele>
        <time>2015-03-30T19:27:38.513Z</time>
      </trkpt>
      <trkpt lat="48.8959" lon="2.35941">
        <ele>112.3</ele>
        <time>2015-03-30T19:27:39.525Z</time>
      </trkpt>
      <trkpt lat="48.89596" lon="2.35939">
        <ele>112.4</ele>
        <time>2015-03-30T19:27:40.536Z</time>
      </trkpt>
      <trkpt lat="48.89601" lon="2.35938">
        <ele>112.8</ele>
        <time>2015-03-30T19:27:41.544Z</time>
      </trkpt>
      <trkpt lat="48.89607" lon="2.35937">
        <ele>112.9</ele>
        <time>2015-03-30T19:27:42.564Z</time>
      </trkpt>
      <trkpt lat="48.89612" lon="2.35935">
        <ele>112.9</ele>
        <time>2015-03-30T19:27:43.573Z</time>
      </trkpt>
      <trkpt lat="48.89617" lon="2.35933">
        <ele>112.8</ele>
        <time>2015-03-30T19:27:44.513Z</time>
      </trkpt>
      <trkpt lat="48.89623" lon="2.35931">
        <ele>112.6</ele>
        <time>2015-03-30T19:27:45.522Z</time>
      </trkpt>
      <trkpt lat="48.89629" lon="2.3593">
        <ele>112.8</ele>
        <time>2015-03-30T19:27:46.542Z</time>
      </trkpt>
      <trkpt lat="48.89634" lon="2.35929">
        <ele>112.7</ele>
        <time>2015-03-30T19:27:47.543Z</time>
      </trkpt>
      <trkpt lat="48.89639" lon="2.35929">
        <ele>112.5</ele>
        <time>2015-03-30T19:27:48.567Z</time>
      </trkpt>
      <trkpt lat="48.89644" lon="2.35929">
        <ele>112.3</ele>
        <time>2015-03-30T19:27:49.572Z</time>
      </trkpt>
      <trkpt lat="48.8965" lon="2.35928">
        <ele>112.3</ele>
        <time>2015-03-30T19:27:50.493Z</time>
      </trkpt>
      <trkpt lat="48.89656" lon="2.35926">
        <ele>112.1</ele>
        <time>2015-03-30T19:27:51.500Z</time>
      </trkpt>
      <trkpt lat="48.89661" lon="2.35926">
        <ele>112</ele>
        <time>2015-03-30T19:27:52.506Z</time>
      </trkpt>
      <trkpt lat="48.89666" lon="2.35924">
        <ele>112.2</ele>
        <time>2015-03-30T19:27:53.524Z</time>
      </trkpt>
      <trkpt lat="48.89674" lon="2.35921">
        <ele>112.9</ele>
        <time>2015-03-30T19:27:55.527Z</time>
      </trkpt>
      <trkpt lat="48.89677" lon="2.3592">
        <ele>113.1</ele>
        <time>2015-03-30T19:27:56.544Z</time>
      </trkpt>
      <trkpt lat="48.89685" lon="2.35918">
        <ele>114.8</ele>
        <time>2015-03-30T19:28:00.612Z</time>
      </trkpt>
      <trkpt lat="48.89687" lon="2.35917">
        <ele>115.5</ele>
        <time>2015-03-30T19:28:01.630Z</time>
      </trkpt>
      <trkpt lat="48.89693" lon="2.35919">
        <ele>116.6</ele>
        <time>2015-03-30T19:28:03.513Z</time>
      </trkpt>
      <trkpt lat="48.89696" lon="2.35918">
        <ele>117.1</ele>
        <time>2015-03-30T19:28:04.521Z</time>
      </trkpt>
      <trkpt lat="48.89703" lon="2.35917">
        <ele>118.3</ele>
        <time>2015-03-30T19:28:06.591Z</time>
      </trkpt>
      <trkpt lat="48.89706" lon="2.35916">
        <ele>119.2</ele>
        <time>2015-03-30T19:28:07.614Z</time>
      </trkpt>
      <trkpt lat="48.89713" lon="2.35915">
        <ele>120.5</ele>
        <time>2015-03-30T19:28:09.510Z</time>
      </trkpt>
      <trkpt lat="48.89719" lon="2.35915">
        <ele>120</ele>
        <time>2015-03-30T19:28:10.528Z</time>
      </trkpt>
      <trkpt lat="48.89727" lon="2.35916">
        <ele>119</ele>
        <time>2015-03-30T19:28:11.572Z</time>
      </trkpt>
      <trkpt lat="48.89733" lon="2.35917">
        <ele>117.9</ele>
        <time>2015-03-30T19:28:12.584Z</time>
      </trkpt>
      <trkpt lat="48.89739" lon="2.35919">
        <ele>116.9</ele>
        <time>2015-03-30T19:28:13.604Z</time>
      </trkpt>
      <trkpt lat="48.89743" lon="2.35919">
        <ele>116.6</ele>
        <time>2015-03-30T19:28:14.537Z</time>
      </trkpt>
      <trkpt lat="48.8975" lon="2.35922">
        <ele>115.6</ele>
        <time>2015-03-30T19:28:16.518Z</time>
      </trkpt>
      <trkpt lat="48.89754" lon="2.35924">
        <ele>114.9</ele>
        <time>2015-03-30T19:28:17.586Z</time>
      </trkpt>
      <trkpt lat="48.89761" lon="2.35932">
        <ele>113.7</ele>
        <time>2015-03-30T19:28:19.631Z</time>
      </trkpt>
      <trkpt lat="48.89764" lon="2.35934">
        <ele>113.4</ele>
        <time>2015-03-30T19:28:20.534Z</time>
      </trkpt>
      <trkpt lat="48.89768" lon="2.35938">
        <ele>112.6</ele>
        <time>2015-03-30T19:28:21.554Z</time>
      </trkpt>
      <trkpt lat="48.89772" lon="2.35942">
        <ele>111.8</ele>
        <time>2015-03-30T19:28:22.558Z</time>
      </trkpt>
      <trkpt lat="48.89776" lon="2.35946">
        <ele>110.4</ele>
        <time>2015-03-30T19:28:23.601Z</time>
      </trkpt>
      <trkpt lat="48.89781" lon="2.35948">
        <ele>109.3</ele>
        <time>2015-03-30T19:28:24.514Z</time>
      </trkpt>
      <trkpt lat="48.8979" lon="2.35949">
        <ele>108.5</ele>
        <time>2015-03-30T19:28:26.601Z</time>
      </trkpt>
      <trkpt lat="48.89795" lon="2.3595">
        <ele>107.8</ele>
        <time>2015-03-30T19:28:27.533Z</time>
      </trkpt>
      <trkpt lat="48.898" lon="2.3595">
        <ele>107.1</ele>
        <time>2015-03-30T19:28:28.537Z</time>
      </trkpt>
      <trkpt lat="48.89806" lon="2.35948">
        <ele>105.9</ele>
        <time>2015-03-30T19:28:29.546Z</time>
      </trkpt>
      <trkpt lat="48.89815" lon="2.35945">
        <ele>103.5</ele>
        <time>2015-03-30T19:28:31.587Z</time>
      </trkpt>
      <trkpt lat="48.89818" lon="2.35943">
        <ele>102.5</ele>
        <time>2015-03-30T19:28:32.608Z</time>
      </trkpt>
      <trkpt lat="48.89826" lon="2.35938">
        <ele>101.2</ele>
        <time>2015-03-30T19:28:36.600Z</time>
      </trkpt>
      <trkpt lat="48.89827" lon="2.35937">
        <ele>100.5</ele>
        <time>2015-03-30T19:28:37.603Z</time>
      </trkpt>
      <trkpt lat="48.89833" lon="2.35936">
        <ele>99.7</ele>
        <time>2015-03-30T19:28:41.567Z</time>
      </trkpt>
      <trkpt lat="48.89833" lon="2.35936">
        <ele>99.6</ele>
        <time>2015-03-30T19:28:42.585Z</time>
      </trkpt>
      <trkpt lat="48.89833" lon="2.35936">
        <ele>99.6</ele>
        <time>2015-03-30T19:29:24.556Z</time>
      </trkpt>
      <trkpt lat="48.89841" lon="2.35934">
        <ele>96.9</ele>
        <time>2015-03-30T19:29:25.635Z</time>
      </trkpt>
      <trkpt lat="48.89849" lon="2.35935">
        <ele>97.1</ele>
        <time>2015-03-30T19:29:30.543Z</time>
      </trkpt>
      <trkpt lat="48.8985" lon="2.35935">
        <ele>97.3</ele>
        <time>2015-03-30T19:29:31.596Z</time>
      </trkpt>
      <trkpt lat="48.89858" lon="2.35935">
        <ele>97.2</ele>
        <time>2015-03-30T19:29:35.540Z</time>
      </trkpt>
      <trkpt lat="48.89861" lon="2.35935">
        <ele>97.1</ele>
        <time>2015-03-30T19:29:36.733Z</time>
      </trkpt>
      <trkpt lat="48.89868" lon="2.35935">
        <ele>97.1</ele>
        <time>2015-03-30T19:29:39.574Z</time>
      </trkpt>
      <trkpt lat="48.8987" lon="2.35935">
        <ele>97.2</ele>
        <time>2015-03-30T19:29:40.499Z</time>
      </trkpt>
      <trkpt lat="48.89877" lon="2.35935">
        <ele>97.2</ele>
        <time>2015-03-30T19:29:42.575Z</time>
      </trkpt>
      <trkpt lat="48.8988" lon="2.35936">
        <ele>97</ele>
        <time>2015-03-30T19:29:43.613Z</time>
      </trkpt>
      <trkpt lat="48.89887" lon="2.35936">
        <ele>96.9</ele>
        <time>2015-03-30T19:29:45.534Z</time>
      </trkpt>
      <trkpt lat="48.89891" lon="2.35937">
        <ele>97</ele>
        <time>2015-03-30T19:29:46.586Z</time>
      </trkpt>
      <trkpt lat="48.89899" lon="2.35939">
        <ele>97.1</ele>
        <time>2015-03-30T19:29:49.112Z</time>
      </trkpt>
      <trkpt lat="48.89904" lon="2.3594">
        <ele>96.9</ele>
        <time>2015-03-30T19:29:49.589Z</time>
      </trkpt>
      <trkpt lat="48.89913" lon="2.35943">
        <ele>96.4</ele>
        <time>2015-03-30T19:29:51.516Z</time>
      </trkpt>
      <trkpt lat="48.89917" lon="2.35943">
        <ele>96.5</ele>
        <time>2015-03-30T19:29:52.537Z</time>
      </trkpt>
      <trkpt lat="48.89926" lon="2.35943">
        <ele>96.7</ele>
        <time>2015-03-30T19:29:54.562Z</time>
      </trkpt>
      <trkpt lat="48.89931" lon="2.35942">
        <ele>96.4</ele>
        <time>2015-03-30T19:29:55.576Z</time>
      </trkpt>
      <trkpt lat="48.89937" lon="2.35943">
        <ele>96.4</ele>
        <time>2015-03-30T19:29:56.518Z</time>
      </trkpt>
      <trkpt lat="48.89942" lon="2.35943">
        <ele>96.5</ele>
        <time>2015-03-30T19:29:57.547Z</time>
      </trkpt>
      <trkpt lat="48.89947" lon="2.35944">
        <ele>96.5</ele>
        <time>2015-03-30T19:29:58.592Z</time>
      </trkpt>
      <trkpt lat="48.89951" lon="2.35944">
        <ele>96.3</ele>
        <time>2015-03-30T19:29:59.600Z</time>
      </trkpt>
      <trkpt lat="48.8996" lon="2.35944">
        <ele>96.3</ele>
        <time>2015-03-30T19:30:01.595Z</time>
      </trkpt>
      <trkpt lat="48.89964" lon="2.35944">
        <ele>96.3</ele>
        <time>2015-03-30T19:30:02.594Z</time>
      </trkpt>
      <trkpt lat="48.89968" lon="2.35943">
        <ele>96.5</ele>
        <time>2015-03-30T19:30:03.609Z</time>
      </trkpt>
      <trkpt lat="48.89973" lon="2.35942">
        <ele>96.7</ele>
        <time>2015-03-30T19:30:04.750Z</time>
      </trkpt>
      <trkpt lat="48.89977" lon="2.35942">
        <ele>96.7</ele>
        <time>2015-03-30T19:30:05.567Z</time>
      </trkpt>
      <trkpt lat="48.89982" lon="2.35941">
        <ele>96.4</ele>
        <time>2015-03-30T19:30:06.568Z</time>
      </trkpt>
      <trkpt lat="48.89989" lon="2.3594">
        <ele>95.8</ele>
        <time>2015-03-30T19:30:08.587Z</time>
      </trkpt>
      <trkpt lat="48.89993" lon="2.3594">
        <ele>95.6</ele>
        <time>2015-03-30T19:30:09.609Z</time>
      </trkpt>
      <trkpt lat="48.90001" lon="2.35943">
        <ele>95.6</ele>
        <time>2015-03-30T19:30:12.565Z</time>
      </trkpt>
      <trkpt lat="48.90005" lon="2.35944">
        <ele>95.1</ele>
        <time>2015-03-30T19:30:13.588Z</time>
      </trkpt>
      <trkpt lat="48.90012" lon="2.35945">
        <ele>94.9</ele>
        <time>2015-03-30T19:30:15.514Z</time>
      </trkpt>
      <trkpt lat="48.90015" lon="2.35945">
        <ele>94.8</ele>
        <time>2015-03-30T19:30:16.539Z</time>
      </trkpt>
      <trkpt lat="48.90022" lon="2.35945">
        <ele>93.7</ele>
        <time>2015-03-30T19:30:18.561Z</time>
      </trkpt>
      <trkpt lat="48.90025" lon="2.35946">
        <ele>94</ele>
        <time>2015-03-30T19:30:19.584Z</time>
      </trkpt>
      <trkpt lat="48.90032" lon="2.3595">
        <ele>94.2</ele>
        <time>2015-03-30T19:30:21.523Z</time>
      </trkpt>
      <trkpt lat="48.90034" lon="2.35953">
        <ele>94.2</ele>
        <time>2015-03-30T19:30:22.547Z</time>
      </trkpt>
      <trkpt lat="48.9004" lon="2.35957">
        <ele>94.8</ele>
        <time>2015-03-30T19:30:24.534Z</time>
      </trkpt>
      <trkpt lat="48.89875" lon="2.35948">
        <ele>94.6</ele>
        <time>2015-03-30T19:30:25.561Z</time>
      </trkpt>
      <trkpt lat="48.89936" lon="2.35952">
        <ele>94.8</ele>
        <time>2015-03-30T19:30:26.566Z</time>
      </trkpt>
      <trkpt lat="48.89979" lon="2.35956">
        <ele>94.9</ele>
        <time>2015-03-30T19:30:27.571Z</time>
      </trkpt>
      <trkpt lat="48.89979" lon="2.35956">
        <ele>94.9</ele>
        <time>2015-03-30T19:30:28.293Z</time>
      </trkpt>
      <trkpt lat="48.90007" lon="2.35958">
        <ele>95.1</ele>
        <time>2015-03-30T19:30:28.602Z</time>
      </trkpt>
      <trkpt lat="48.9002" lon="2.3596">
        <ele>95.2</ele>
        <time>2015-03-30T19:30:29.601Z</time>
      </trkpt>
      <trkpt lat="48.90028" lon="2.35962">
        <ele>95.5</ele>
        <time>2015-03-30T19:30:30.521Z</time>
      </trkpt>
      <trkpt lat="48.90042" lon="2.35965">
        <ele>95.6</ele>
        <time>2015-03-30T19:30:31.661Z</time>
      </trkpt>
      <trkpt lat="48.90048" lon="2.35967">
        <ele>95.6</ele>
        <time>2015-03-30T19:30:33.451Z</time>
      </trkpt>
      <trkpt lat="48.90052" lon="2.35969">
        <ele>95.7</ele>
        <time>2015-03-30T19:30:33.537Z</time>
      </trkpt>
      <trkpt lat="48.90059" lon="2.35974">
        <ele>95.7</ele>
        <time>2015-03-30T19:30:35.569Z</time>
      </trkpt>
      <trkpt lat="48.90063" lon="2.35978">
        <ele>95.8</ele>
        <time>2015-03-30T19:30:36.595Z</time>
      </trkpt>
      <trkpt lat="48.9007" lon="2.35989">
        <ele>95.8</ele>
        <time>2015-03-30T19:30:37.599Z</time>
      </trkpt>
      <trkpt lat="48.90075" lon="2.35994">
        <ele>95.3</ele>
        <time>2015-03-30T19:30:39.582Z</time>
      </trkpt>
      <trkpt lat="48.9008" lon="2.35995">
        <ele>95.1</ele>
        <time>2015-03-30T19:30:40.601Z</time>
      </trkpt>
      <trkpt lat="48.90085" lon="2.35988">
        <ele>95.1</ele>
        <time>2015-03-30T19:30:41.567Z</time>
      </trkpt>
      <trkpt lat="48.9009" lon="2.35982">
        <ele>94.5</ele>
        <time>2015-03-30T19:30:42.569Z</time>
      </trkpt>
      <trkpt lat="48.90097" lon="2.35976">
        <ele>93.6</ele>
        <time>2015-03-30T19:30:43.655Z</time>
      </trkpt>
      <trkpt lat="48.901" lon="2.35974">
        <ele>93.5</ele>
        <time>2015-03-30T19:30:44.612Z</time>
      </trkpt>
      <trkpt lat="48.90104" lon="2.35971">
        <ele>93.5</ele>
        <time>2015-03-30T19:30:45.513Z</time>
      </trkpt>
      <trkpt lat="48.90108" lon="2.35968">
        <ele>93.8</ele>
        <time>2015-03-30T19:30:46.517Z</time>
      </trkpt>
      <trkpt lat="48.90113" lon="2.35965">
        <ele>94.5</ele>
        <time>2015-03-30T19:30:47.543Z</time>
      </trkpt>
      <trkpt lat="48.90118" lon="2.35963">
        <ele>94.4</ele>
        <time>2015-03-30T19:30:48.554Z</time>
      </trkpt>
      <trkpt lat="48.90127" lon="2.3596">
        <ele>94.6</ele>
        <time>2015-03-30T19:30:52.550Z</time>
      </trkpt>
      <trkpt lat="48.90129" lon="2.35963">
        <ele>94.6</ele>
        <time>2015-03-30T19:30:53.553Z</time>
      </trkpt>
      <trkpt lat="48.90135" lon="2.35972">
        <ele>94.3</ele>
        <time>2015-03-30T19:30:56.566Z</time>
      </trkpt>
      <trkpt lat="48.90138" lon="2.35971">
        <ele>94.4</ele>
        <time>2015-03-30T19:30:57.609Z</time>
      </trkpt>
      <trkpt lat="48.90145" lon="2.35967">
        <ele>94.3</ele>
        <time>2015-03-30T19:30:59.533Z</time>
      </trkpt>
      <trkpt lat="48.90151" lon="2.35962">
        <ele>94.3</ele>
        <time>2015-03-30T19:31:00.549Z</time>
      </trkpt>
      <trkpt lat="48.90155" lon="2.35949">
        <ele>94.2</ele>
        <time>2015-03-30T19:31:02.482Z</time>
      </trkpt>
      <trkpt lat="48.90116" lon="2.35967">
        <ele>94.1</ele>
        <time>2015-03-30T19:31:03.509Z</time>
      </trkpt>
      <trkpt lat="48.90121" lon="2.35964">
        <ele>93.2</ele>
        <time>2015-03-30T19:31:10.790Z</time>
      </trkpt>
      <trkpt lat="48.90199" lon="2.3593">
        <ele>93.1</ele>
        <time>2015-03-30T19:31:11.503Z</time>
      </trkpt>
      <trkpt lat="48.90208" lon="2.35929">
        <ele>92.7</ele>
        <time>2015-03-30T19:31:12.573Z</time>
      </trkpt>
      <trkpt lat="48.90218" lon="2.35929">
        <ele>92.4</ele>
        <time>2015-03-30T19:31:13.581Z</time>
      </trkpt>
      <trkpt lat="48.90224" lon="2.35928">
        <ele>92.7</ele>
        <time>2015-03-30T19:31:14.587Z</time>
      </trkpt>
      <trkpt lat="48.9023" lon="2.35926">
        <ele>92.8</ele>
        <time>2015-03-30T19:31:15.527Z</time>
      </trkpt>
      <trkpt lat="48.9023" lon="2.35926">
        <ele>92.8</ele>
        <time>2015-03-30T19:31:15.813Z</time>
      </trkpt>
      <trkpt lat="48.90239" lon="2.35923">
        <ele>93.2</ele>
        <time>2015-03-30T19:31:16.542Z</time>
      </trkpt>
      <trkpt lat="48.90246" lon="2.3592">
        <ele>93.1</ele>
        <time>2015-03-30T19:31:17.552Z</time>
      </trkpt>
      <trkpt lat="48.90253" lon="2.35918">
        <ele>92.9</ele>
        <time>2015-03-30T19:31:18.567Z</time>
      </trkpt>
      <trkpt lat="48.90261" lon="2.35916">
        <ele>92.5</ele>
        <time>2015-03-30T19:31:19.572Z</time>
      </trkpt>
      <trkpt lat="48.90269" lon="2.35912">
        <ele>92.7</ele>
        <time>2015-03-30T19:31:20.585Z</time>
      </trkpt>
      <trkpt lat="48.90275" lon="2.35912">
        <ele>93.1</ele>
        <time>2015-03-30T19:31:21.495Z</time>
      </trkpt>
      <trkpt lat="48.90281" lon="2.35912">
        <ele>93.8</ele>
        <time>2015-03-30T19:31:22.520Z</time>
      </trkpt>
      <trkpt lat="48.90287" lon="2.35912">
        <ele>93.8</ele>
        <time>2015-03-30T19:31:23.533Z</time>
      </trkpt>
      <trkpt lat="48.90292" lon="2.35912">
        <ele>94</ele>
        <time>2015-03-30T19:31:24.532Z</time>
      </trkpt>
      <trkpt lat="48.90298" lon="2.35912">
        <ele>93.8</ele>
        <time>2015-03-30T19:31:25.567Z</time>
      </trkpt>
      <trkpt lat="48.90304" lon="2.35912">
        <ele>93.7</ele>
        <time>2015-03-30T19:31:26.573Z</time>
      </trkpt>
      <trkpt lat="48.9031" lon="2.35912">
        <ele>93.9</ele>
        <time>2015-03-30T19:31:27.590Z</time>
      </trkpt>
      <trkpt lat="48.90316" lon="2.35911">
        <ele>93.4</ele>
        <time>2015-03-30T19:31:28.607Z</time>
      </trkpt>
      <trkpt lat="48.90323" lon="2.3591">
        <ele>93.2</ele>
        <time>2015-03-30T19:31:29.513Z</time>
      </trkpt>
      <trkpt lat="48.90328" lon="2.3591">
        <ele>93</ele>
        <time>2015-03-30T19:31:30.518Z</time>
      </trkpt>
      <trkpt lat="48.90334" lon="2.35909">
        <ele>93</ele>
        <time>2015-03-30T19:31:31.580Z</time>
      </trkpt>
      <trkpt lat="48.90339" lon="2.35908">
        <ele>93.1</ele>
        <time>2015-03-30T19:31:32.571Z</time>
      </trkpt>
      <trkpt lat="48.90345" lon="2.35907">
        <ele>93.2</ele>
        <time>2015-03-30T19:31:33.584Z</time>
      </trkpt>
      <trkpt lat="48.90351" lon="2.35906">
        <ele>93.3</ele>
        <time>2015-03-30T19:31:34.499Z</time>
      </trkpt>
      <trkpt lat="48.90356" lon="2.35906">
        <ele>93.3</ele>
        <time>2015-03-30T19:31:35.503Z</time>
      </trkpt>
      <trkpt lat="48.90361" lon="2.35904">
        <ele>93.2</ele>
        <time>2015-03-30T19:31:36.518Z</time>
      </trkpt>
      <trkpt lat="48.90365" lon="2.35904">
        <ele>93.3</ele>
        <time>2015-03-30T19:31:37.553Z</time>
      </trkpt>
      <trkpt lat="48.90372" lon="2.35903">
        <ele>93.3</ele>
        <time>2015-03-30T19:31:38.550Z</time>
      </trkpt>
      <trkpt lat="48.90378" lon="2.35903">
        <ele>93.3</ele>
        <time>2015-03-30T19:31:39.563Z</time>
      </trkpt>
      <trkpt lat="48.90384" lon="2.35902">
        <ele>93</ele>
        <time>2015-03-30T19:31:40.569Z</time>
      </trkpt>
      <trkpt lat="48.9039" lon="2.35902">
        <ele>93.1</ele>
        <time>2015-03-30T19:31:41.598Z</time>
      </trkpt>
      <trkpt lat="48.90394" lon="2.35901">
        <ele>93.1</ele>
        <time>2015-03-30T19:31:42.527Z</time>
      </trkpt>
      <trkpt lat="48.90399" lon="2.35901">
        <ele>93.1</ele>
        <time>2015-03-30T19:31:43.553Z</time>
      </trkpt>
      <trkpt lat="48.90404" lon="2.35901">
        <ele>93.1</ele>
        <time>2015-03-30T19:31:44.560Z</time>
      </trkpt>
      <trkpt lat="48.90409" lon="2.35902">
        <ele>93</ele>
        <time>2015-03-30T19:31:45.574Z</time>
      </trkpt>
      <trkpt lat="48.90414" lon="2.35902">
        <ele>92.9</ele>
        <time>2015-03-30T19:31:46.589Z</time>
      </trkpt>
      <trkpt lat="48.9042" lon="2.35903">
        <ele>92.7</ele>
        <time>2015-03-30T19:31:47.597Z</time>
      </trkpt>
      <trkpt lat="48.90425" lon="2.35903">
        <ele>92.7</ele>
        <time>2015-03-30T19:31:48.512Z</time>
      </trkpt>
      <trkpt lat="48.9043" lon="2.35903">
        <ele>92.6</ele>
        <time>2015-03-30T19:31:49.632Z</time>
      </trkpt>
      <trkpt lat="48.90436" lon="2.35902">
        <ele>92.5</ele>
        <time>2015-03-30T19:31:50.504Z</time>
      </trkpt>
      <trkpt lat="48.90442" lon="2.35901">
        <ele>92.1</ele>
        <time>2015-03-30T19:31:51.520Z</time>
      </trkpt>
      <trkpt lat="48.90448" lon="2.35899">
        <ele>91.9</ele>
        <time>2015-03-30T19:31:52.520Z</time>
      </trkpt>
      <trkpt lat="48.90453" lon="2.35899">
        <ele>91.9</ele>
        <time>2015-03-30T19:31:53.536Z</time>
      </trkpt>
      <trkpt lat="48.90458" lon="2.35899">
        <ele>91.9</ele>
        <time>2015-03-30T19:31:54.541Z</time>
      </trkpt>
      <trkpt lat="48.90463" lon="2.35898">
        <ele>91.7</ele>
        <time>2015-03-30T19:31:55.558Z</time>
      </trkpt>
      <trkpt lat="48.90468" lon="2.35898">
        <ele>91.5</ele>
        <time>2015-03-30T19:31:56.562Z</time>
      </trkpt>
      <trkpt lat="48.90474" lon="2.35897">
        <ele>91.3</ele>
        <time>2015-03-30T19:31:57.583Z</time>
      </trkpt>
      <trkpt lat="48.90481" lon="2.35896">
        <ele>91.1</ele>
        <time>2015-03-30T19:31:58.596Z</time>
      </trkpt>
      <trkpt lat="48.90486" lon="2.35894">
        <ele>91.1</ele>
        <time>2015-03-30T19:31:59.600Z</time>
      </trkpt>
      <trkpt lat="48.90491" lon="2.35893">
        <ele>91</ele>
        <time>2015-03-30T19:32:00.512Z</time>
      </trkpt>
      <trkpt lat="48.90496" lon="2.35892">
        <ele>90.7</ele>
        <time>2015-03-30T19:32:01.547Z</time>
      </trkpt>
      <trkpt lat="48.90501" lon="2.35892">
        <ele>90.3</ele>
        <time>2015-03-30T19:32:02.561Z</time>
      </trkpt>
      <trkpt lat="48.90506" lon="2.35891">
        <ele>90.2</ele>
        <time>2015-03-30T19:32:03.456Z</time>
      </trkpt>
      <trkpt lat="48.90511" lon="2.3589">
        <ele>90.1</ele>
        <time>2015-03-30T19:32:04.480Z</time>
      </trkpt>
      <trkpt lat="48.90516" lon="2.3589">
        <ele>90.1</ele>
        <time>2015-03-30T19:32:05.483Z</time>
      </trkpt>
      <trkpt lat="48.90522" lon="2.35889">
        <ele>90</ele>
        <time>2015-03-30T19:32:06.486Z</time>
      </trkpt>
      <trkpt lat="48.90526" lon="2.35889">
        <ele>90.1</ele>
        <time>2015-03-30T19:32:07.549Z</time>
      </trkpt>
      <trkpt lat="48.90531" lon="2.35889">
        <ele>89.4</ele>
        <time>2015-03-30T19:32:08.561Z</time>
      </trkpt>
      <trkpt lat="48.90535" lon="2.35888">
        <ele>89.3</ele>
        <time>2015-03-30T19:32:09.578Z</time>
      </trkpt>
      <trkpt lat="48.9054" lon="2.35887">
        <ele>89.5</ele>
        <time>2015-03-30T19:32:10.592Z</time>
      </trkpt>
      <trkpt lat="48.90545" lon="2.35886">
        <ele>89.8</ele>
        <time>2015-03-30T19:32:11.597Z</time>
      </trkpt>
      <trkpt lat="48.90551" lon="2.35886">
        <ele>89.7</ele>
        <time>2015-03-30T19:32:12.607Z</time>
      </trkpt>
      <trkpt lat="48.90556" lon="2.35885">
        <ele>89.4</ele>
        <time>2015-03-30T19:32:13.624Z</time>
      </trkpt>
      <trkpt lat="48.90561" lon="2.35885">
        <ele>89.3</ele>
        <time>2015-03-30T19:32:14.518Z</time>
      </trkpt>
      <trkpt lat="48.90566" lon="2.35886">
        <ele>89.5</ele>
        <time>2015-03-30T19:32:15.514Z</time>
      </trkpt>
      <trkpt lat="48.90571" lon="2.35885">
        <ele>89.5</ele>
        <time>2015-03-30T19:32:16.522Z</time>
      </trkpt>
      <trkpt lat="48.90576" lon="2.35884">
        <ele>89.8</ele>
        <time>2015-03-30T19:32:17.529Z</time>
      </trkpt>
      <trkpt lat="48.90581" lon="2.35882">
        <ele>90.1</ele>
        <time>2015-03-30T19:32:18.536Z</time>
      </trkpt>
      <trkpt lat="48.90587" lon="2.35881">
        <ele>90</ele>
        <time>2015-03-30T19:32:19.570Z</time>
      </trkpt>
      <trkpt lat="48.90591" lon="2.35881">
        <ele>89.9</ele>
        <time>2015-03-30T19:32:20.560Z</time>
      </trkpt>
      <trkpt lat="48.90596" lon="2.3588">
        <ele>90.1</ele>
        <time>2015-03-30T19:32:21.571Z</time>
      </trkpt>
      <trkpt lat="48.9064" lon="2.35883">
        <ele>90.3</ele>
        <time>2015-03-30T19:32:31.568Z</time>
      </trkpt>
      <trkpt lat="48.90648" lon="2.35878">
        <ele>90.6</ele>
        <time>2015-03-30T19:32:34.534Z</time>
      </trkpt>
      <trkpt lat="48.9065" lon="2.35878">
        <ele>91</ele>
        <time>2015-03-30T19:32:35.550Z</time>
      </trkpt>
      <trkpt lat="48.90655" lon="2.35877">
        <ele>91.3</ele>
        <time>2015-03-30T19:32:36.583Z</time>
      </trkpt>
      <trkpt lat="48.9066" lon="2.35874">
        <ele>91.4</ele>
        <time>2015-03-30T19:32:37.594Z</time>
      </trkpt>
      <trkpt lat="48.90669" lon="2.3587">
        <ele>91</ele>
        <time>2015-03-30T19:32:39.498Z</time>
      </trkpt>
      <trkpt lat="48.90673" lon="2.35869">
        <ele>90.7</ele>
        <time>2015-03-30T19:32:40.509Z</time>
      </trkpt>
      <trkpt lat="48.90699" lon="2.35875">
        <ele>90.1</ele>
        <time>2015-03-30T19:32:47.585Z</time>
      </trkpt>
      <trkpt lat="48.90706" lon="2.35878">
        <ele>89.6</ele>
        <time>2015-03-30T19:32:49.540Z</time>
      </trkpt>
      <trkpt lat="48.90715" lon="2.35884">
        <ele>87.3</ele>
        <time>2015-03-30T19:32:50.556Z</time>
      </trkpt>
      <trkpt lat="48.90724" lon="2.35886">
        <ele>87</ele>
        <time>2015-03-30T19:32:54.535Z</time>
      </trkpt>
      <trkpt lat="48.90726" lon="2.35883">
        <ele>87</ele>
        <time>2015-03-30T19:32:55.578Z</time>
      </trkpt>
      <trkpt lat="48.90732" lon="2.3588">
        <ele>88.4</ele>
        <time>2015-03-30T19:32:58.530Z</time>
      </trkpt>
      <trkpt lat="48.90737" lon="2.35878">
        <ele>88.9</ele>
        <time>2015-03-30T19:32:59.552Z</time>
      </trkpt>
      <trkpt lat="48.90746" lon="2.35877">
        <ele>90.1</ele>
        <time>2015-03-30T19:33:01.563Z</time>
      </trkpt>
      <trkpt lat="48.90751" lon="2.35876">
        <ele>90.8</ele>
        <time>2015-03-30T19:33:02.578Z</time>
      </trkpt>
      <trkpt lat="48.90756" lon="2.35874">
        <ele>91.5</ele>
        <time>2015-03-30T19:33:03.524Z</time>
      </trkpt>
      <trkpt lat="48.9076" lon="2.35872">
        <ele>92</ele>
        <time>2015-03-30T19:33:04.541Z</time>
      </trkpt>
      <trkpt lat="48.90767" lon="2.35869">
        <ele>93.2</ele>
        <time>2015-03-30T19:33:06.556Z</time>
      </trkpt>
      <trkpt lat="48.9077" lon="2.35868">
        <ele>94</ele>
        <time>2015-03-30T19:33:07.566Z</time>
      </trkpt>
      <trkpt lat="48.90779" lon="2.3587">
        <ele>96.2</ele>
        <time>2015-03-30T19:33:10.611Z</time>
      </trkpt>
      <trkpt lat="48.90784" lon="2.3587">
        <ele>96.6</ele>
        <time>2015-03-30T19:33:11.561Z</time>
      </trkpt>
      <trkpt lat="48.90789" lon="2.35869">
        <ele>96.8</ele>
        <time>2015-03-30T19:33:12.577Z</time>
      </trkpt>
      <trkpt lat="48.90794" lon="2.3587">
        <ele>97.1</ele>
        <time>2015-03-30T19:33:13.614Z</time>
      </trkpt>
      <trkpt lat="48.90802" lon="2.35871">
        <ele>97.5</ele>
        <time>2015-03-30T19:33:16.516Z</time>
      </trkpt>
      <trkpt lat="48.90803" lon="2.3587">
        <ele>97.7</ele>
        <time>2015-03-30T19:33:17.520Z</time>
      </trkpt>
      <trkpt lat="48.90812" lon="2.35867">
        <ele>99.4</ele>
        <time>2015-03-30T19:33:21.572Z</time>
      </trkpt>
      <trkpt lat="48.90813" lon="2.35867">
        <ele>100.1</ele>
        <time>2015-03-30T19:33:22.507Z</time>
      </trkpt>
      <trkpt lat="48.90822" lon="2.35867">
        <ele>102.6</ele>
        <time>2015-03-30T19:33:26.573Z</time>
      </trkpt>
      <trkpt lat="48.90823" lon="2.35867">
        <ele>103.3</ele>
        <time>2015-03-30T19:33:27.579Z</time>
      </trkpt>
      <trkpt lat="48.90831" lon="2.35863">
        <ele>105.2</ele>
        <time>2015-03-30T19:33:30.516Z</time>
      </trkpt>
      <trkpt lat="48.90833" lon="2.3586">
        <ele>105.8</ele>
        <time>2015-03-30T19:33:31.523Z</time>
      </trkpt>
      <trkpt lat="48.90829" lon="2.35851">
        <ele>108</ele>
        <time>2015-03-30T19:33:36.497Z</time>
      </trkpt>
      <trkpt lat="48.90827" lon="2.3585">
        <ele>108.4</ele>
        <time>2015-03-30T19:33:37.561Z</time>
      </trkpt>
      <trkpt lat="48.90831" lon="2.35857">
        <ele>107.2</ele>
        <time>2015-03-30T19:33:41.531Z</time>
      </trkpt>
      <trkpt lat="48.90833" lon="2.3586">
        <ele>106.8</ele>
        <time>2015-03-30T19:33:42.564Z</time>
      </trkpt>
      <trkpt lat="48.90842" lon="2.35857">
        <ele>107.1</ele>
        <time>2015-03-30T19:33:45.506Z</time>
      </trkpt>
      <trkpt lat="48.90845" lon="2.35857">
        <ele>107</ele>
        <time>2015-03-30T19:33:46.504Z</time>
      </trkpt>
      <trkpt lat="48.90853" lon="2.35859">
        <ele>107.1</ele>
        <time>2015-03-30T19:33:48.526Z</time>
      </trkpt>
      <trkpt lat="48.90857" lon="2.3586">
        <ele>107.1</ele>
        <time>2015-03-30T19:33:49.567Z</time>
      </trkpt>
      <trkpt lat="48.90864" lon="2.35865">
        <ele>106.8</ele>
        <time>2015-03-30T19:33:52.523Z</time>
      </trkpt>
      <trkpt lat="48.90689" lon="2.35878">
        <ele>106.6</ele>
        <time>2015-03-30T19:33:53.539Z</time>
      </trkpt>
      <trkpt lat="48.90763" lon="2.35872">
        <ele>106.4</ele>
        <time>2015-03-30T19:33:54.563Z</time>
      </trkpt>
      <trkpt lat="48.90789" lon="2.3587">
        <ele>106.6</ele>
        <time>2015-03-30T19:33:55.612Z</time>
      </trkpt>
      <trkpt lat="48.90813" lon="2.35868">
        <ele>106.8</ele>
        <time>2015-03-30T19:33:56.532Z</time>
      </trkpt>
      <trkpt lat="48.90833" lon="2.35866">
        <ele>106.5</ele>
        <time>2015-03-30T19:33:57.558Z</time>
      </trkpt>
      <trkpt lat="48.90833" lon="2.35866">
        <ele>106.5</ele>
        <time>2015-03-30T19:33:56.727Z</time>
      </trkpt>
      <trkpt lat="48.90853" lon="2.35864">
        <ele>106.3</ele>
        <time>2015-03-30T19:33:58.551Z</time>
      </trkpt>
      <trkpt lat="48.90864" lon="2.35864">
        <ele>106.4</ele>
        <time>2015-03-30T19:33:59.576Z</time>
      </trkpt>
      <trkpt lat="48.90876" lon="2.35863">
        <ele>106.5</ele>
        <time>2015-03-30T19:34:00.517Z</time>
      </trkpt>
      <trkpt lat="48.90887" lon="2.35862">
        <ele>106.7</ele>
        <time>2015-03-30T19:34:01.493Z</time>
      </trkpt>
      <trkpt lat="48.90894" lon="2.35862">
        <ele>106.9</ele>
        <time>2015-03-30T19:34:02.514Z</time>
      </trkpt>
      <trkpt lat="48.90901" lon="2.35862">
        <ele>106.9</ele>
        <time>2015-03-30T19:34:03.581Z</time>
      </trkpt>
      <trkpt lat="48.90906" lon="2.35862">
        <ele>106.8</ele>
        <time>2015-03-30T19:34:04.481Z</time>
      </trkpt>
      <trkpt lat="48.90912" lon="2.35862">
        <ele>106.8</ele>
        <time>2015-03-30T19:34:05.487Z</time>
      </trkpt>
      <trkpt lat="48.90918" lon="2.35863">
        <ele>106.7</ele>
        <time>2015-03-30T19:34:07.032Z</time>
      </trkpt>
      <trkpt lat="48.90964" lon="2.35867">
        <ele>104.4</ele>
        <time>2015-03-30T19:34:11.619Z</time>
      </trkpt>
      <trkpt lat="48.90971" lon="2.35868">
        <ele>104.4</ele>
        <time>2015-03-30T19:34:12.504Z</time>
      </trkpt>
      <trkpt lat="48.90978" lon="2.35869">
        <ele>104.4</ele>
        <time>2015-03-30T19:34:13.541Z</time>
      </trkpt>
      <trkpt lat="48.90986" lon="2.35866">
        <ele>104.6</ele>
        <time>2015-03-30T19:34:14.549Z</time>
      </trkpt>
      <trkpt lat="48.90991" lon="2.35863">
        <ele>104.9</ele>
        <time>2015-03-30T19:34:15.576Z</time>
      </trkpt>
      <trkpt lat="48.90996" lon="2.35859">
        <ele>105</ele>
        <time>2015-03-30T19:34:16.467Z</time>
      </trkpt>
      <trkpt lat="48.91001" lon="2.35856">
        <ele>105.2</ele>
        <time>2015-03-30T19:34:17.498Z</time>
      </trkpt>
      <trkpt lat="48.91007" lon="2.35852">
        <ele>105.4</ele>
        <time>2015-03-30T19:34:18.591Z</time>
      </trkpt>
      <trkpt lat="48.91013" lon="2.35849">
        <ele>105.9</ele>
        <time>2015-03-30T19:34:19.603Z</time>
      </trkpt>
      <trkpt lat="48.9102" lon="2.35846">
        <ele>106.2</ele>
        <time>2015-03-30T19:34:20.509Z</time>
      </trkpt>
      <trkpt lat="48.91026" lon="2.35844">
        <ele>106.6</ele>
        <time>2015-03-30T19:34:21.495Z</time>
      </trkpt>
      <trkpt lat="48.91033" lon="2.35842">
        <ele>107.4</ele>
        <time>2015-03-30T19:34:23.507Z</time>
      </trkpt>
      <trkpt lat="48.91036" lon="2.35841">
        <ele>107.6</ele>
        <time>2015-03-30T19:34:24.514Z</time>
      </trkpt>
      <trkpt lat="48.91044" lon="2.3584">
        <ele>108.2</ele>
        <time>2015-03-30T19:34:26.501Z</time>
      </trkpt>
      <trkpt lat="48.91049" lon="2.3584">
        <ele>108.5</ele>
        <time>2015-03-30T19:34:27.524Z</time>
      </trkpt>
      <trkpt lat="48.91055" lon="2.35839">
        <ele>108.9</ele>
        <time>2015-03-30T19:34:28.499Z</time>
      </trkpt>
      <trkpt lat="48.9106" lon="2.35837">
        <ele>109.2</ele>
        <time>2015-03-30T19:34:29.515Z</time>
      </trkpt>
      <trkpt lat="48.91066" lon="2.35836">
        <ele>109.4</ele>
        <time>2015-03-30T19:34:30.475Z</time>
      </trkpt>
      <trkpt lat="48.9107" lon="2.35835">
        <ele>109.4</ele>
        <time>2015-03-30T19:34:31.536Z</time>
      </trkpt>
      <trkpt lat="48.91075" lon="2.35834">
        <ele>109.2</ele>
        <time>2015-03-30T19:34:32.544Z</time>
      </trkpt>
      <trkpt lat="48.9108" lon="2.35834">
        <ele>109.3</ele>
        <time>2015-03-30T19:34:33.517Z</time>
      </trkpt>
      <trkpt lat="48.91088" lon="2.35832">
        <ele>109.5</ele>
        <time>2015-03-30T19:34:35.506Z</time>
      </trkpt>
      <trkpt lat="48.91091" lon="2.35832">
        <ele>109.6</ele>
        <time>2015-03-30T19:34:36.539Z</time>
      </trkpt>
      <trkpt lat="48.91098" lon="2.35835">
        <ele>109.9</ele>
        <time>2015-03-30T19:34:40.507Z</time>
      </trkpt>
      <trkpt lat="48.911" lon="2.35836">
        <ele>110</ele>
        <time>2015-03-30T19:34:41.493Z</time>
      </trkpt>
      <trkpt lat="48.91107" lon="2.35838">
        <ele>110.6</ele>
        <time>2015-03-30T19:34:44.546Z</time>
      </trkpt>
      <trkpt lat="48.9111" lon="2.35839">
        <ele>111.3</ele>
        <time>2015-03-30T19:34:45.469Z</time>
      </trkpt>
      <trkpt lat="48.91116" lon="2.35838">
        <ele>112.4</ele>
        <time>2015-03-30T19:34:47.509Z</time>
      </trkpt>
      <trkpt lat="48.91119" lon="2.35837">
        <ele>112.7</ele>
        <time>2015-03-30T19:34:48.561Z</time>
      </trkpt>
      <trkpt lat="48.91127" lon="2.35835">
        <ele>112.9</ele>
        <time>2015-03-30T19:34:50.497Z</time>
      </trkpt>
      <trkpt lat="48.91129" lon="2.35835">
        <ele>113.1</ele>
        <time>2015-03-30T19:34:51.553Z</time>
      </trkpt>
      <trkpt lat="48.91134" lon="2.35827">
        <ele>115.4</ele>
        <time>2015-03-30T19:35:02.507Z</time>
      </trkpt>
      <trkpt lat="48.91139" lon="2.35815">
        <ele>117.5</ele>
        <time>2015-03-30T19:35:03.493Z</time>
      </trkpt>
      <trkpt lat="48.91139" lon="2.35808">
        <ele>119.8</ele>
        <time>2015-03-30T19:35:16.476Z</time>
      </trkpt>
      <trkpt lat="48.91157" lon="2.3584">
        <ele>118.9</ele>
        <time>2015-03-30T19:35:30.528Z</time>
      </trkpt>
      <trkpt lat="48.9116" lon="2.35843">
        <ele>118.6</ele>
        <time>2015-03-30T19:35:31.586Z</time>
      </trkpt>
      <trkpt lat="48.91168" lon="2.35848">
        <ele>117.8</ele>
        <time>2015-03-30T19:35:32.475Z</time>
      </trkpt>
      <trkpt lat="48.91178" lon="2.35857">
        <ele>117.2</ele>
        <time>2015-03-30T19:35:33.515Z</time>
      </trkpt>
      <trkpt lat="48.91186" lon="2.35861">
        <ele>116.2</ele>
        <time>2015-03-30T19:35:34.510Z</time>
      </trkpt>
      <trkpt lat="48.91195" lon="2.35863">
        <ele>115.2</ele>
        <time>2015-03-30T19:35:35.577Z</time>
      </trkpt>
      <trkpt lat="48.91203" lon="2.35866">
        <ele>114.4</ele>
        <time>2015-03-30T19:35:36.476Z</time>
      </trkpt>
      <trkpt lat="48.91212" lon="2.35869">
        <ele>113.4</ele>
        <time>2015-03-30T19:35:37.596Z</time>
      </trkpt>
      <trkpt lat="48.91221" lon="2.35867">
        <ele>113.8</ele>
        <time>2015-03-30T19:35:39.503Z</time>
      </trkpt>
      <trkpt lat="48.91224" lon="2.35867">
        <ele>114.1</ele>
        <time>2015-03-30T19:35:40.528Z</time>
      </trkpt>
      <trkpt lat="48.91228" lon="2.35864">
        <ele>114.5</ele>
        <time>2015-03-30T19:35:43.593Z</time>
      </trkpt>
      <trkpt lat="48.91241" lon="2.35858">
        <ele>115.2</ele>
        <time>2015-03-30T19:35:44.497Z</time>
      </trkpt>
      <trkpt lat="48.91247" lon="2.35859">
        <ele>114.7</ele>
        <time>2015-03-30T19:35:45.555Z</time>
      </trkpt>
      <trkpt lat="48.91253" lon="2.3586">
        <ele>114.1</ele>
        <time>2015-03-30T19:35:46.566Z</time>
      </trkpt>
      <trkpt lat="48.91259" lon="2.35861">
        <ele>113.5</ele>
        <time>2015-03-30T19:35:47.527Z</time>
      </trkpt>
      <trkpt lat="48.91264" lon="2.35859">
        <ele>114</ele>
        <time>2015-03-30T19:35:48.519Z</time>
      </trkpt>
      <trkpt lat="48.91269" lon="2.35855">
        <ele>115</ele>
        <time>2015-03-30T19:35:49.558Z</time>
      </trkpt>
      <trkpt lat="48.91276" lon="2.3585">
        <ele>116.2</ele>
        <time>2015-03-30T19:35:50.599Z</time>
      </trkpt>
      <trkpt lat="48.91284" lon="2.35843">
        <ele>116.9</ele>
        <time>2015-03-30T19:35:57.597Z</time>
      </trkpt>
      <trkpt lat="48.91309" lon="2.35842">
        <ele>118.6</ele>
        <time>2015-03-30T19:35:58.525Z</time>
      </trkpt>
      <trkpt lat="48.91316" lon="2.35842">
        <ele>118.8</ele>
        <time>2015-03-30T19:35:59.528Z</time>
      </trkpt>
      <trkpt lat="48.91323" lon="2.35841">
        <ele>119.1</ele>
        <time>2015-03-30T19:36:00.542Z</time>
      </trkpt>
      <trkpt lat="48.91329" lon="2.35839">
        <ele>119.7</ele>
        <time>2015-03-30T19:36:01.572Z</time>
      </trkpt>
      <trkpt lat="48.91332" lon="2.35839">
        <ele>119.9</ele>
        <time>2015-03-30T19:36:02.594Z</time>
      </trkpt>
      <trkpt lat="48.91341" lon="2.35839">
        <ele>120.1</ele>
        <time>2015-03-30T19:36:05.541Z</time>
      </trkpt>
      <trkpt lat="48.91344" lon="2.35839">
        <ele>120.1</ele>
        <time>2015-03-30T19:36:06.575Z</time>
      </trkpt>
      <trkpt lat="48.91352" lon="2.35842">
        <ele>120.2</ele>
        <time>2015-03-30T19:36:11.529Z</time>
      </trkpt>
      <trkpt lat="48.91355" lon="2.35843">
        <ele>120.2</ele>
        <time>2015-03-30T19:36:12.549Z</time>
      </trkpt>
      <trkpt lat="48.91355" lon="2.35843">
        <ele>120.2</ele>
        <time>2015-03-30T19:36:23.494Z</time>
      </trkpt>
      <trkpt lat="48.91393" lon="2.35841">
        <ele>113.9</ele>
        <time>2015-03-30T19:36:24.521Z</time>
      </trkpt>
      <trkpt lat="48.914" lon="2.3584">
        <ele>112</ele>
        <time>2015-03-30T19:36:25.548Z</time>
      </trkpt>
      <trkpt lat="48.91404" lon="2.35837">
        <ele>111.4</ele>
        <time>2015-03-30T19:36:26.563Z</time>
      </trkpt>
      <trkpt lat="48.91409" lon="2.35834">
        <ele>110.5</ele>
        <time>2015-03-30T19:36:33.532Z</time>
      </trkpt>
      <trkpt lat="48.91446" lon="2.35816">
        <ele>112.4</ele>
        <time>2015-03-30T19:36:34.543Z</time>
      </trkpt>
      <trkpt lat="48.91451" lon="2.35813">
        <ele>112.8</ele>
        <time>2015-03-30T19:36:35.566Z</time>
      </trkpt>
      <trkpt lat="48.91457" lon="2.3581">
        <ele>113.7</ele>
        <time>2015-03-30T19:36:36.577Z</time>
      </trkpt>
      <trkpt lat="48.91463" lon="2.3581">
        <ele>114.9</ele>
        <time>2015-03-30T19:36:41.576Z</time>
      </trkpt>
      <trkpt lat="48.91509" lon="2.35809">
        <ele>100.3</ele>
        <time>2015-03-30T19:36:42.581Z</time>
      </trkpt>
      <trkpt lat="48.91514" lon="2.35809">
        <ele>97.3</ele>
        <time>2015-03-30T19:36:43.611Z</time>
      </trkpt>
      <trkpt lat="48.91518" lon="2.35809">
        <ele>95.6</ele>
        <time>2015-03-30T19:36:44.504Z</time>
      </trkpt>
      <trkpt lat="48.91518" lon="2.35809">
        <ele>95.5</ele>
        <time>2015-03-30T19:37:18.589Z</time>
      </trkpt>
      <trkpt lat="48.91549" lon="2.3581">
        <ele>90.4</ele>
        <time>2015-03-30T19:37:19.734Z</time>
      </trkpt>
      <trkpt lat="48.91547" lon="2.35815">
        <ele>90.4</ele>
        <time>2015-03-30T19:37:37.556Z</time>
      </trkpt>
      <trkpt lat="48.91561" lon="2.35802">
        <ele>94.5</ele>
        <time>2015-03-30T19:37:38.590Z</time>
      </trkpt>
      <trkpt lat="48.91568" lon="2.35799">
        <ele>95.6</ele>
        <time>2015-03-30T19:37:41.536Z</time>
      </trkpt>
      <trkpt lat="48.91571" lon="2.35797">
        <ele>95.9</ele>
        <time>2015-03-30T19:37:42.543Z</time>
      </trkpt>
      <trkpt lat="48.91578" lon="2.35793">
        <ele>96.9</ele>
        <time>2015-03-30T19:37:45.534Z</time>
      </trkpt>
      <trkpt lat="48.91581" lon="2.35793">
        <ele>97.3</ele>
        <time>2015-03-30T19:37:46.528Z</time>
      </trkpt>
      <trkpt lat="48.91525" lon="2.35801">
        <ele>97.5</ele>
        <time>2015-03-30T19:37:47.561Z</time>
      </trkpt>
      <trkpt lat="48.91549" lon="2.35798">
        <ele>97.7</ele>
        <time>2015-03-30T19:37:48.468Z</time>
      </trkpt>
      <trkpt lat="48.91569" lon="2.35795">
        <ele>97.9</ele>
        <time>2015-03-30T19:37:49.526Z</time>
      </trkpt>
      <trkpt lat="48.91579" lon="2.35794">
        <ele>98.2</ele>
        <time>2015-03-30T19:37:50.472Z</time>
      </trkpt>
      <trkpt lat="48.91585" lon="2.35793">
        <ele>98.8</ele>
        <time>2015-03-30T19:37:51.443Z</time>
      </trkpt>
      <trkpt lat="48.9159" lon="2.35793">
        <ele>99.3</ele>
        <time>2015-03-30T19:37:52.477Z</time>
      </trkpt>
      <trkpt lat="48.91599" lon="2.35793">
        <ele>98.7</ele>
        <time>2015-03-30T19:38:02.524Z</time>
      </trkpt>
      <trkpt lat="48.916" lon="2.35794">
        <ele>98.5</ele>
        <time>2015-03-30T19:38:03.471Z</time>
      </trkpt>
      <trkpt lat="48.91609" lon="2.35795">
        <ele>97.7</ele>
        <time>2015-03-30T19:38:08.524Z</time>
      </trkpt>
      <trkpt lat="48.91611" lon="2.35795">
        <ele>97.5</ele>
        <time>2015-03-30T19:38:09.576Z</time>
      </trkpt>
      <trkpt lat="48.91682" lon="2.358">
        <ele>98</ele>
        <time>2015-03-30T19:38:11.492Z</time>
      </trkpt>
      <trkpt lat="48.9169" lon="2.35797">
        <ele>99</ele>
        <time>2015-03-30T19:38:13.530Z</time>
      </trkpt>
      <trkpt lat="48.91694" lon="2.35795">
        <ele>99.6</ele>
        <time>2015-03-30T19:38:14.518Z</time>
      </trkpt>
      <trkpt lat="48.91702" lon="2.3579">
        <ele>100.8</ele>
        <time>2015-03-30T19:38:16.455Z</time>
      </trkpt>
      <trkpt lat="48.91707" lon="2.35789">
        <ele>100.9</ele>
        <time>2015-03-30T19:38:17.493Z</time>
      </trkpt>
      <trkpt lat="48.91715" lon="2.3579">
        <ele>101.4</ele>
        <time>2015-03-30T19:38:19.524Z</time>
      </trkpt>
      <trkpt lat="48.91719" lon="2.35791">
        <ele>101.5</ele>
        <time>2015-03-30T19:38:20.533Z</time>
      </trkpt>
      <trkpt lat="48.91727" lon="2.35794">
        <ele>103.5</ele>
        <time>2015-03-30T19:38:23.548Z</time>
      </trkpt>
      <trkpt lat="48.91728" lon="2.35796">
        <ele>104</ele>
        <time>2015-03-30T19:38:24.561Z</time>
      </trkpt>
      <trkpt lat="48.91736" lon="2.35792">
        <ele>106.3</ele>
        <time>2015-03-30T19:38:29.540Z</time>
      </trkpt>
      <trkpt lat="48.91738" lon="2.35789">
        <ele>106.9</ele>
        <time>2015-03-30T19:38:30.558Z</time>
      </trkpt>
      <trkpt lat="48.91746" lon="2.35787">
        <ele>108.7</ele>
        <time>2015-03-30T19:38:33.465Z</time>
      </trkpt>
      <trkpt lat="48.91749" lon="2.35784">
        <ele>109.8</ele>
        <time>2015-03-30T19:38:34.705Z</time>
      </trkpt>
      <trkpt lat="48.91755" lon="2.35782">
        <ele>111</ele>
        <time>2015-03-30T19:38:36.507Z</time>
      </trkpt>
      <trkpt lat="48.91758" lon="2.35784">
        <ele>111.3</ele>
        <time>2015-03-30T19:38:37.523Z</time>
      </trkpt>
      <trkpt lat="48.91766" lon="2.35788">
        <ele>113.7</ele>
        <time>2015-03-30T19:38:42.515Z</time>
      </trkpt>
      <trkpt lat="48.91742" lon="2.3579">
        <ele>114.3</ele>
        <time>2015-03-30T19:38:43.572Z</time>
      </trkpt>
      <trkpt lat="48.91751" lon="2.35791">
        <ele>114.9</ele>
        <time>2015-03-30T19:38:44.588Z</time>
      </trkpt>
      <trkpt lat="48.91758" lon="2.35792">
        <ele>115.5</ele>
        <time>2015-03-30T19:38:45.598Z</time>
      </trkpt>
      <trkpt lat="48.91764" lon="2.35792">
        <ele>116</ele>
        <time>2015-03-30T19:38:46.485Z</time>
      </trkpt>
      <trkpt lat="48.91771" lon="2.35793">
        <ele>116</ele>
        <time>2015-03-30T19:38:47.523Z</time>
      </trkpt>
      <trkpt lat="48.91778" lon="2.35791">
        <ele>119.9</ele>
        <time>2015-03-30T19:38:52.954Z</time>
      </trkpt>
      <trkpt lat="48.91782" lon="2.3579">
        <ele>120.5</ele>
        <time>2015-03-30T19:38:53.610Z</time>
      </trkpt>
      <trkpt lat="48.9179" lon="2.3579">
        <ele>121.3</ele>
        <time>2015-03-30T19:38:55.540Z</time>
      </trkpt>
      <trkpt lat="48.91794" lon="2.3579">
        <ele>121.7</ele>
        <time>2015-03-30T19:38:56.557Z</time>
      </trkpt>
      <trkpt lat="48.91802" lon="2.35789">
        <ele>122.8</ele>
        <time>2015-03-30T19:38:58.586Z</time>
      </trkpt>
      <trkpt lat="48.91805" lon="2.35789">
        <ele>123</ele>
        <time>2015-03-30T19:38:59.594Z</time>
      </trkpt>
      <trkpt lat="48.91812" lon="2.35787">
        <ele>123.8</ele>
        <time>2015-03-30T19:39:01.634Z</time>
      </trkpt>
      <trkpt lat="48.91816" lon="2.35786">
        <ele>124</ele>
        <time>2015-03-30T19:39:02.486Z</time>
      </trkpt>
      <trkpt lat="48.91824" lon="2.35784">
        <ele>124.4</ele>
        <time>2015-03-30T19:39:04.523Z</time>
      </trkpt>
      <trkpt lat="48.91827" lon="2.35783">
        <ele>124.5</ele>
        <time>2015-03-30T19:39:05.572Z</time>
      </trkpt>
      <trkpt lat="48.91836" lon="2.35784">
        <ele>124.7</ele>
        <time>2015-03-30T19:39:08.511Z</time>
      </trkpt>
      <trkpt lat="48.91838" lon="2.35785">
        <ele>124.8</ele>
        <time>2015-03-30T19:39:09.519Z</time>
      </trkpt>
      <trkpt lat="48.91844" lon="2.35787">
        <ele>124.9</ele>
        <time>2015-03-30T19:39:11.566Z</time>
      </trkpt>
      <trkpt lat="48.91849" lon="2.35789">
        <ele>124.5</ele>
        <time>2015-03-30T19:39:12.578Z</time>
      </trkpt>
      <trkpt lat="48.91856" lon="2.35791">
        <ele>124</ele>
        <time>2015-03-30T19:39:14.583Z</time>
      </trkpt>
      <trkpt lat="48.91861" lon="2.35791">
        <ele>124</ele>
        <time>2015-03-30T19:39:15.630Z</time>
      </trkpt>
      <trkpt lat="48.91868" lon="2.35792">
        <ele>123.8</ele>
        <time>2015-03-30T19:39:16.522Z</time>
      </trkpt>
      <trkpt lat="48.91874" lon="2.35793">
        <ele>123.8</ele>
        <time>2015-03-30T19:39:17.512Z</time>
      </trkpt>
      <trkpt lat="48.91881" lon="2.35793">
        <ele>124.4</ele>
        <time>2015-03-30T19:39:18.606Z</time>
      </trkpt>
      <trkpt lat="48.91887" lon="2.35794">
        <ele>124.9</ele>
        <time>2015-03-30T19:39:19.600Z</time>
      </trkpt>
      <trkpt lat="48.91894" lon="2.35793">
        <ele>126</ele>
        <time>2015-03-30T19:39:21.139Z</time>
      </trkpt>
      <trkpt lat="48.91901" lon="2.35792">
        <ele>127.3</ele>
        <time>2015-03-30T19:39:21.515Z</time>
      </trkpt>
      <trkpt lat="48.91906" lon="2.3579">
        <ele>128.6</ele>
        <time>2015-03-30T19:39:22.517Z</time>
      </trkpt>
      <trkpt lat="48.91913" lon="2.35788">
        <ele>130.4</ele>
        <time>2015-03-30T19:39:23.523Z</time>
      </trkpt>
      <trkpt lat="48.91919" lon="2.35786">
        <ele>131.7</ele>
        <time>2015-03-30T19:39:24.527Z</time>
      </trkpt>
      <trkpt lat="48.91925" lon="2.35785">
        <ele>132.8</ele>
        <time>2015-03-30T19:39:25.534Z</time>
      </trkpt>
      <trkpt lat="48.91932" lon="2.35783">
        <ele>133.8</ele>
        <time>2015-03-30T19:39:26.551Z</time>
      </trkpt>
      <trkpt lat="48.91939" lon="2.35782">
        <ele>134.6</ele>
        <time>2015-03-30T19:39:27.565Z</time>
      </trkpt>
      <trkpt lat="48.91945" lon="2.35781">
        <ele>134.9</ele>
        <time>2015-03-30T19:39:28.576Z</time>
      </trkpt>
      <trkpt lat="48.9195" lon="2.35781">
        <ele>134.8</ele>
        <time>2015-03-30T19:39:29.587Z</time>
      </trkpt>
      <trkpt lat="48.91955" lon="2.35782">
        <ele>134.6</ele>
        <time>2015-03-30T19:39:31.157Z</time>
      </trkpt>
      <trkpt lat="48.91961" lon="2.35783">
        <ele>134.9</ele>
        <time>2015-03-30T19:39:31.614Z</time>
      </trkpt>
      <trkpt lat="48.91967" lon="2.35783">
        <ele>135.2</ele>
        <time>2015-03-30T19:39:32.520Z</time>
      </trkpt>
      <trkpt lat="48.91972" lon="2.35784">
        <ele>135.8</ele>
        <time>2015-03-30T19:39:33.549Z</time>
      </trkpt>
      <trkpt lat="48.91978" lon="2.35784">
        <ele>136.7</ele>
        <time>2015-03-30T19:39:34.546Z</time>
      </trkpt>
      <trkpt lat="48.91983" lon="2.35783">
        <ele>137.6</ele>
        <time>2015-03-30T19:39:35.563Z</time>
      </trkpt>
      <trkpt lat="48.91987" lon="2.35782">
        <ele>138.8</ele>
        <time>2015-03-30T19:39:36.547Z</time>
      </trkpt>
      <trkpt lat="48.91992" lon="2.35781">
        <ele>139.7</ele>
        <time>2015-03-30T19:39:37.601Z</time>
      </trkpt>
      <trkpt lat="48.91997" lon="2.3578">
        <ele>140.6</ele>
        <time>2015-03-30T19:39:38.523Z</time>
      </trkpt>
      <trkpt lat="48.92001" lon="2.35779">
        <ele>141.5</ele>
        <time>2015-03-30T19:39:39.534Z</time>
      </trkpt>
      <trkpt lat="48.9201" lon="2.35779">
        <ele>142.8</ele>
        <time>2015-03-30T19:39:41.521Z</time>
      </trkpt>
      <trkpt lat="48.92014" lon="2.35778">
        <ele>143.6</ele>
        <time>2015-03-30T19:39:42.518Z</time>
      </trkpt>
      <trkpt lat="48.92022" lon="2.35779">
        <ele>144.6</ele>
        <time>2015-03-30T19:39:44.581Z</time>
      </trkpt>
      <trkpt lat="48.92027" lon="2.35779">
        <ele>145.2</ele>
        <time>2015-03-30T19:39:45.596Z</time>
      </trkpt>
      <trkpt lat="48.92031" lon="2.35779">
        <ele>145.9</ele>
        <time>2015-03-30T19:39:46.655Z</time>
      </trkpt>
      <trkpt lat="48.92036" lon="2.35778">
        <ele>146.6</ele>
        <time>2015-03-30T19:39:47.530Z</time>
      </trkpt>
      <trkpt lat="48.92041" lon="2.35778">
        <ele>147.8</ele>
        <time>2015-03-30T19:39:48.510Z</time>
      </trkpt>
      <trkpt lat="48.92047" lon="2.35777">
        <ele>148.9</ele>
        <time>2015-03-30T19:39:49.556Z</time>
      </trkpt>
      <trkpt lat="48.92055" lon="2.35777">
        <ele>149.6</ele>
        <time>2015-03-30T19:39:50.571Z</time>
      </trkpt>
      <trkpt lat="48.92059" lon="2.35776">
        <ele>150.5</ele>
        <time>2015-03-30T19:39:51.593Z</time>
      </trkpt>
      <trkpt lat="48.92064" lon="2.35776">
        <ele>151.6</ele>
        <time>2015-03-30T19:39:52.608Z</time>
      </trkpt>
      <trkpt lat="48.92068" lon="2.35776">
        <ele>152.6</ele>
        <time>2015-03-30T19:39:53.516Z</time>
      </trkpt>
      <trkpt lat="48.92076" lon="2.35776">
        <ele>153.6</ele>
        <time>2015-03-30T19:39:55.623Z</time>
      </trkpt>
      <trkpt lat="48.92079" lon="2.35776">
        <ele>154</ele>
        <time>2015-03-30T19:39:56.522Z</time>
      </trkpt>
      <trkpt lat="48.92083" lon="2.35776">
        <ele>153.8</ele>
        <time>2015-03-30T19:39:57.532Z</time>
      </trkpt>
      <trkpt lat="48.92089" lon="2.35776">
        <ele>153.3</ele>
        <time>2015-03-30T19:39:58.549Z</time>
      </trkpt>
      <trkpt lat="48.92096" lon="2.35777">
        <ele>153.4</ele>
        <time>2015-03-30T19:39:59.553Z</time>
      </trkpt>
      <trkpt lat="48.92101" lon="2.35776">
        <ele>153.5</ele>
        <time>2015-03-30T19:40:00.563Z</time>
      </trkpt>
      <trkpt lat="48.92106" lon="2.35776">
        <ele>154.4</ele>
        <time>2015-03-30T19:40:01.884Z</time>
      </trkpt>
      <trkpt lat="48.92114" lon="2.35775">
        <ele>155.4</ele>
        <time>2015-03-30T19:40:02.591Z</time>
      </trkpt>
      <trkpt lat="48.92129" lon="2.35774">
        <ele>156.2</ele>
        <time>2015-03-30T19:40:03.605Z</time>
      </trkpt>
      <trkpt lat="48.92135" lon="2.35773">
        <ele>156.7</ele>
        <time>2015-03-30T19:40:04.492Z</time>
      </trkpt>
      <trkpt lat="48.9214" lon="2.35774">
        <ele>156.8</ele>
        <time>2015-03-30T19:40:05.508Z</time>
      </trkpt>
      <trkpt lat="48.92221" lon="2.35779">
        <ele>148.8</ele>
        <time>2015-03-30T19:40:17.550Z</time>
      </trkpt>
      <trkpt lat="48.92228" lon="2.35783">
        <ele>148.2</ele>
        <time>2015-03-30T19:40:19.571Z</time>
      </trkpt>
      <trkpt lat="48.92234" lon="2.35781">
        <ele>148.2</ele>
        <time>2015-03-30T19:40:20.575Z</time>
      </trkpt>
      <trkpt lat="48.9224" lon="2.35779">
        <ele>148.2</ele>
        <time>2015-03-30T19:40:21.588Z</time>
      </trkpt>
      <trkpt lat="48.92247" lon="2.35776">
        <ele>148.5</ele>
        <time>2015-03-30T19:40:22.521Z</time>
      </trkpt>
      <trkpt lat="48.92253" lon="2.35774">
        <ele>148.8</ele>
        <time>2015-03-30T19:40:23.510Z</time>
      </trkpt>
      <trkpt lat="48.92259" lon="2.35772">
        <ele>149</ele>
        <time>2015-03-30T19:40:24.516Z</time>
      </trkpt>
      <trkpt lat="48.92266" lon="2.3577">
        <ele>149.2</ele>
        <time>2015-03-30T19:40:25.540Z</time>
      </trkpt>
      <trkpt lat="48.92272" lon="2.35769">
        <ele>149.1</ele>
        <time>2015-03-30T19:40:26.575Z</time>
      </trkpt>
      <trkpt lat="48.92278" lon="2.35769">
        <ele>149.1</ele>
        <time>2015-03-30T19:40:27.586Z</time>
      </trkpt>
      <trkpt lat="48.92285" lon="2.35769">
        <ele>148.5</ele>
        <time>2015-03-30T19:40:28.582Z</time>
      </trkpt>
      <trkpt lat="48.92292" lon="2.35769">
        <ele>148.1</ele>
        <time>2015-03-30T19:40:29.598Z</time>
      </trkpt>
      <trkpt lat="48.92299" lon="2.35769">
        <ele>147.5</ele>
        <time>2015-03-30T19:40:30.518Z</time>
      </trkpt>
      <trkpt lat="48.92305" lon="2.35768">
        <ele>147.4</ele>
        <time>2015-03-30T19:40:31.554Z</time>
      </trkpt>
      <trkpt lat="48.9231" lon="2.35768">
        <ele>147.3</ele>
        <time>2015-03-30T19:40:32.546Z</time>
      </trkpt>
      <trkpt lat="48.92315" lon="2.35769">
        <ele>147.2</ele>
        <time>2015-03-30T19:40:33.563Z</time>
      </trkpt>
      <trkpt lat="48.92278" lon="2.35772">
        <ele>146.8</ele>
        <time>2015-03-30T19:40:34.574Z</time>
      </trkpt>
      <trkpt lat="48.92296" lon="2.35771">
        <ele>146.5</ele>
        <time>2015-03-30T19:40:35.508Z</time>
      </trkpt>
      <trkpt lat="48.92313" lon="2.35771">
        <ele>146.2</ele>
        <time>2015-03-30T19:40:36.493Z</time>
      </trkpt>
      <trkpt lat="48.9232" lon="2.3577">
        <ele>145.9</ele>
        <time>2015-03-30T19:40:37.581Z</time>
      </trkpt>
      <trkpt lat="48.92325" lon="2.3577">
        <ele>145.9</ele>
        <time>2015-03-30T19:40:38.498Z</time>
      </trkpt>
      <trkpt lat="48.92334" lon="2.35769">
        <ele>138.6</ele>
        <time>2015-03-30T19:40:46.564Z</time>
      </trkpt>
      <trkpt lat="48.92334" lon="2.35769">
        <ele>137.5</ele>
        <time>2015-03-30T19:40:47.494Z</time>
      </trkpt>
      <trkpt lat="48.92343" lon="2.35768">
        <ele>130.6</ele>
        <time>2015-03-30T19:40:56.473Z</time>
      </trkpt>
      <trkpt lat="48.92345" lon="2.35768">
        <ele>130</ele>
        <time>2015-03-30T19:40:57.556Z</time>
      </trkpt>
      <trkpt lat="48.92352" lon="2.35768">
        <ele>127.5</ele>
        <time>2015-03-30T19:41:01.574Z</time>
      </trkpt>
      <trkpt lat="48.92354" lon="2.35768">
        <ele>126.8</ele>
        <time>2015-03-30T19:41:02.511Z</time>
      </trkpt>
      <trkpt lat="48.92362" lon="2.35768">
        <ele>126.3</ele>
        <time>2015-03-30T19:41:08.582Z</time>
      </trkpt>
      <trkpt lat="48.92364" lon="2.35769">
        <ele>123</ele>
        <time>2015-03-30T19:41:09.584Z</time>
      </trkpt>
      <trkpt lat="48.9237" lon="2.35769">
        <ele>120.9</ele>
        <time>2015-03-30T19:41:13.583Z</time>
      </trkpt>
      <trkpt lat="48.92405" lon="2.35771">
        <ele>120.4</ele>
        <time>2015-03-30T19:41:14.592Z</time>
      </trkpt>
      <trkpt lat="48.92416" lon="2.35772">
        <ele>120.1</ele>
        <time>2015-03-30T19:41:15.613Z</time>
      </trkpt>
      <trkpt lat="48.92423" lon="2.35772">
        <ele>119.2</ele>
        <time>2015-03-30T19:41:16.635Z</time>
      </trkpt>
      <trkpt lat="48.92426" lon="2.35773">
        <ele>119.1</ele>
        <time>2015-03-30T19:41:17.617Z</time>
      </trkpt>
      <trkpt lat="48.92432" lon="2.35773">
        <ele>119.2</ele>
        <time>2015-03-30T19:41:18.540Z</time>
      </trkpt>
      <trkpt lat="48.92437" lon="2.35773">
        <ele>119.2</ele>
        <time>2015-03-30T19:41:19.627Z</time>
      </trkpt>
      <trkpt lat="48.92445" lon="2.35772">
        <ele>119.1</ele>
        <time>2015-03-30T19:41:23.550Z</time>
      </trkpt>
      <trkpt lat="48.92447" lon="2.35771">
        <ele>119</ele>
        <time>2015-03-30T19:41:24.550Z</time>
      </trkpt>
      <trkpt lat="48.92454" lon="2.35771">
        <ele>116.9</ele>
        <time>2015-03-30T19:41:28.608Z</time>
      </trkpt>
      <trkpt lat="48.9246" lon="2.35772">
        <ele>114.1</ele>
        <time>2015-03-30T19:41:29.537Z</time>
      </trkpt>
      <trkpt lat="48.92469" lon="2.35774">
        <ele>113.1</ele>
        <time>2015-03-30T19:41:31.579Z</time>
      </trkpt>
      <trkpt lat="48.92472" lon="2.35776">
        <ele>112.9</ele>
        <time>2015-03-30T19:41:32.601Z</time>
      </trkpt>
      <trkpt lat="48.92468" lon="2.35784">
        <ele>109.8</ele>
        <time>2015-03-30T19:41:42.540Z</time>
      </trkpt>
      <trkpt lat="48.92461" lon="2.35779">
        <ele>109.7</ele>
        <time>2015-03-30T19:41:43.582Z</time>
      </trkpt>
      <trkpt lat="48.92453" lon="2.35779">
        <ele>109.6</ele>
        <time>2015-03-30T19:41:48.527Z</time>
      </trkpt>
      <trkpt lat="48.92451" lon="2.35778">
        <ele>110</ele>
        <time>2015-03-30T19:41:49.594Z</time>
      </trkpt>
      <trkpt lat="48.92449" lon="2.35778">
        <ele>110.4</ele>
        <time>2015-03-30T19:45:56.552Z</time>
      </trkpt>
      <trkpt lat="48.92439" lon="2.35778">
        <ele>97.4</ele>
        <time>2015-03-30T19:45:57.562Z</time>
      </trkpt>
      <trkpt lat="48.92431" lon="2.35779">
        <ele>96.9</ele>
        <time>2015-03-30T19:46:01.537Z</time>
      </trkpt>
      <trkpt lat="48.92429" lon="2.35779">
        <ele>96.8</ele>
        <time>2015-03-30T19:46:02.542Z</time>
      </trkpt>
      <trkpt lat="48.92422" lon="2.35782">
        <ele>96.4</ele>
        <time>2015-03-30T19:46:04.561Z</time>
      </trkpt>
      <trkpt lat="48.92419" lon="2.35783">
        <ele>96.1</ele>
        <time>2015-03-30T19:46:05.571Z</time>
      </trkpt>
      <trkpt lat="48.92413" lon="2.35784">
        <ele>96</ele>
        <time>2015-03-30T19:46:07.562Z</time>
      </trkpt>
      <trkpt lat="48.9241" lon="2.35786">
        <ele>96.2</ele>
        <time>2015-03-30T19:46:08.485Z</time>
      </trkpt>
      <trkpt lat="48.92403" lon="2.3579">
        <ele>96.1</ele>
        <time>2015-03-30T19:46:10.496Z</time>
      </trkpt>
      <trkpt lat="48.92399" lon="2.35791">
        <ele>96.2</ele>
        <time>2015-03-30T19:46:11.510Z</time>
      </trkpt>
      <trkpt lat="48.92391" lon="2.35792">
        <ele>96.5</ele>
        <time>2015-03-30T19:46:13.564Z</time>
      </trkpt>
      <trkpt lat="48.92386" lon="2.35794">
        <ele>96.5</ele>
        <time>2015-03-30T19:46:14.597Z</time>
      </trkpt>
      <trkpt lat="48.92378" lon="2.35794">
        <ele>97</ele>
        <time>2015-03-30T19:46:16.491Z</time>
      </trkpt>
      <trkpt lat="48.92375" lon="2.35794">
        <ele>97.2</ele>
        <time>2015-03-30T19:46:17.534Z</time>
      </trkpt>
      <trkpt lat="48.92366" lon="2.35795">
        <ele>97.4</ele>
        <time>2015-03-30T19:46:19.579Z</time>
      </trkpt>
      <trkpt lat="48.92362" lon="2.35795">
        <ele>97.6</ele>
        <time>2015-03-30T19:46:20.494Z</time>
      </trkpt>
      <trkpt lat="48.92354" lon="2.35795">
        <ele>98.1</ele>
        <time>2015-03-30T19:46:22.506Z</time>
      </trkpt>
      <trkpt lat="48.9235" lon="2.35796">
        <ele>98.1</ele>
        <time>2015-03-30T19:46:23.506Z</time>
      </trkpt>
      <trkpt lat="48.92342" lon="2.35798">
        <ele>98.3</ele>
        <time>2015-03-30T19:46:25.585Z</time>
      </trkpt>
      <trkpt lat="48.92338" lon="2.35799">
        <ele>98.2</ele>
        <time>2015-03-30T19:46:26.481Z</time>
      </trkpt>
      <trkpt lat="48.92331" lon="2.35802">
        <ele>98.2</ele>
        <time>2015-03-30T19:46:28.513Z</time>
      </trkpt>
      <trkpt lat="48.92327" lon="2.35803">
        <ele>98.8</ele>
        <time>2015-03-30T19:46:29.531Z</time>
      </trkpt>
      <trkpt lat="48.92319" lon="2.35804">
        <ele>101.5</ele>
        <time>2015-03-30T19:46:31.536Z</time>
      </trkpt>
      <trkpt lat="48.92315" lon="2.35805">
        <ele>102.1</ele>
        <time>2015-03-30T19:46:32.539Z</time>
      </trkpt>
      <trkpt lat="48.92308" lon="2.35812">
        <ele>101.7</ele>
        <time>2015-03-30T19:46:34.532Z</time>
      </trkpt>
      <trkpt lat="48.92305" lon="2.35816">
        <ele>101.8</ele>
        <time>2015-03-30T19:46:35.500Z</time>
      </trkpt>
      <trkpt lat="48.92298" lon="2.35825">
        <ele>102.2</ele>
        <time>2015-03-30T19:46:37.558Z</time>
      </trkpt>
      <trkpt lat="48.92294" lon="2.35828">
        <ele>102.3</ele>
        <time>2015-03-30T19:46:38.495Z</time>
      </trkpt>
      <trkpt lat="48.92288" lon="2.35836">
        <ele>101.4</ele>
        <time>2015-03-30T19:46:40.497Z</time>
      </trkpt>
      <trkpt lat="48.92285" lon="2.35839">
        <ele>101.1</ele>
        <time>2015-03-30T19:46:41.511Z</time>
      </trkpt>
      <trkpt lat="48.92281" lon="2.35847">
        <ele>100.4</ele>
        <time>2015-03-30T19:46:43.559Z</time>
      </trkpt>
      <trkpt lat="48.9228" lon="2.35853">
        <ele>99.5</ele>
        <time>2015-03-30T19:46:44.567Z</time>
      </trkpt>
      <trkpt lat="48.92278" lon="2.35866">
        <ele>98.4</ele>
        <time>2015-03-30T19:46:46.521Z</time>
      </trkpt>
      <trkpt lat="48.92278" lon="2.35872">
        <ele>98</ele>
        <time>2015-03-30T19:46:47.529Z</time>
      </trkpt>
      <trkpt lat="48.92278" lon="2.35885">
        <ele>97.5</ele>
        <time>2015-03-30T19:46:49.588Z</time>
      </trkpt>
      <trkpt lat="48.92276" lon="2.35891">
        <ele>97.1</ele>
        <time>2015-03-30T19:46:50.505Z</time>
      </trkpt>
      <trkpt lat="48.92276" lon="2.35899">
        <ele>96.8</ele>
        <time>2015-03-30T19:46:51.518Z</time>
      </trkpt>
      <trkpt lat="48.92277" lon="2.35906">
        <ele>96.5</ele>
        <time>2015-03-30T19:46:52.545Z</time>
      </trkpt>
      <trkpt lat="48.92277" lon="2.35913">
        <ele>96.1</ele>
        <time>2015-03-30T19:46:53.567Z</time>
      </trkpt>
      <trkpt lat="48.92278" lon="2.35921">
        <ele>95.9</ele>
        <time>2015-03-30T19:46:54.580Z</time>
      </trkpt>
      <trkpt lat="48.92278" lon="2.35927">
        <ele>95.7</ele>
        <time>2015-03-30T19:46:55.599Z</time>
      </trkpt>
      <trkpt lat="48.92278" lon="2.35935">
        <ele>95.6</ele>
        <time>2015-03-30T19:46:56.505Z</time>
      </trkpt>
      <trkpt lat="48.92277" lon="2.35942">
        <ele>95.4</ele>
        <time>2015-03-30T19:46:57.532Z</time>
      </trkpt>
      <trkpt lat="48.92277" lon="2.35949">
        <ele>95.5</ele>
        <time>2015-03-30T19:46:58.541Z</time>
      </trkpt>
      <trkpt lat="48.92277" lon="2.35957">
        <ele>95.6</ele>
        <time>2015-03-30T19:46:59.553Z</time>
      </trkpt>
      <trkpt lat="48.92278" lon="2.35964">
        <ele>95.9</ele>
        <time>2015-03-30T19:47:00.571Z</time>
      </trkpt>
      <trkpt lat="48.92279" lon="2.35972">
        <ele>96</ele>
        <time>2015-03-30T19:47:01.580Z</time>
      </trkpt>
      <trkpt lat="48.9228" lon="2.3598">
        <ele>96.3</ele>
        <time>2015-03-30T19:47:02.593Z</time>
      </trkpt>
      <trkpt lat="48.92281" lon="2.35987">
        <ele>96.5</ele>
        <time>2015-03-30T19:47:03.499Z</time>
      </trkpt>
      <trkpt lat="48.92282" lon="2.35995">
        <ele>96.8</ele>
        <time>2015-03-30T19:47:04.504Z</time>
      </trkpt>
      <trkpt lat="48.92283" lon="2.36003">
        <ele>97.1</ele>
        <time>2015-03-30T19:47:05.616Z</time>
      </trkpt>
      <trkpt lat="48.92284" lon="2.36011">
        <ele>97.4</ele>
        <time>2015-03-30T19:47:06.502Z</time>
      </trkpt>
      <trkpt lat="48.92285" lon="2.3602">
        <ele>97.8</ele>
        <time>2015-03-30T19:47:07.551Z</time>
      </trkpt>
      <trkpt lat="48.92286" lon="2.36027">
        <ele>98.6</ele>
        <time>2015-03-30T19:47:08.549Z</time>
      </trkpt>
      <trkpt lat="48.92288" lon="2.36035">
        <ele>99.5</ele>
        <time>2015-03-30T19:47:09.492Z</time>
      </trkpt>
      <trkpt lat="48.92289" lon="2.36042">
        <ele>100.5</ele>
        <time>2015-03-30T19:47:10.554Z</time>
      </trkpt>
      <trkpt lat="48.9229" lon="2.36049">
        <ele>101.7</ele>
        <time>2015-03-30T19:47:11.522Z</time>
      </trkpt>
      <trkpt lat="48.9229" lon="2.36057">
        <ele>101.9</ele>
        <time>2015-03-30T19:47:12.530Z</time>
      </trkpt>
      <trkpt lat="48.92291" lon="2.36066">
        <ele>102.1</ele>
        <time>2015-03-30T19:47:13.560Z</time>
      </trkpt>
      <trkpt lat="48.92292" lon="2.36075">
        <ele>102.1</ele>
        <time>2015-03-30T19:47:14.554Z</time>
      </trkpt>
      <trkpt lat="48.92292" lon="2.36085">
        <ele>102.1</ele>
        <time>2015-03-30T19:47:15.678Z</time>
      </trkpt>
      <trkpt lat="48.92292" lon="2.36094">
        <ele>101.8</ele>
        <time>2015-03-30T19:47:16.546Z</time>
      </trkpt>
      <trkpt lat="48.92293" lon="2.36106">
        <ele>100.6</ele>
        <time>2015-03-30T19:47:17.565Z</time>
      </trkpt>
      <trkpt lat="48.92294" lon="2.36116">
        <ele>99.8</ele>
        <time>2015-03-30T19:47:18.586Z</time>
      </trkpt>
      <trkpt lat="48.92294" lon="2.36126">
        <ele>99.3</ele>
        <time>2015-03-30T19:47:19.648Z</time>
      </trkpt>
      <trkpt lat="48.92294" lon="2.36135">
        <ele>98.7</ele>
        <time>2015-03-30T19:47:20.491Z</time>
      </trkpt>
      <trkpt lat="48.92294" lon="2.36143">
        <ele>98.6</ele>
        <time>2015-03-30T19:47:21.569Z</time>
      </trkpt>
      <trkpt lat="48.92293" lon="2.36152">
        <ele>98.8</ele>
        <time>2015-03-30T19:47:22.599Z</time>
      </trkpt>
      <trkpt lat="48.92292" lon="2.36161">
        <ele>98.9</ele>
        <time>2015-03-30T19:47:23.510Z</time>
      </trkpt>
      <trkpt lat="48.92293" lon="2.3617">
        <ele>98.6</ele>
        <time>2015-03-30T19:47:24.574Z</time>
      </trkpt>
      <trkpt lat="48.92294" lon="2.36177">
        <ele>98.1</ele>
        <time>2015-03-30T19:47:25.563Z</time>
      </trkpt>
      <trkpt lat="48.92296" lon="2.36184">
        <ele>98.2</ele>
        <time>2015-03-30T19:47:26.578Z</time>
      </trkpt>
      <trkpt lat="48.92298" lon="2.3619">
        <ele>97.8</ele>
        <time>2015-03-30T19:47:27.495Z</time>
      </trkpt>
      <trkpt lat="48.923" lon="2.36195">
        <ele>97.9</ele>
        <time>2015-03-30T19:47:28.500Z</time>
      </trkpt>
      <trkpt lat="48.92304" lon="2.36207">
        <ele>98.2</ele>
        <time>2015-03-30T19:47:30.550Z</time>
      </trkpt>
      <trkpt lat="48.92308" lon="2.36211">
        <ele>97.8</ele>
        <time>2015-03-30T19:47:31.563Z</time>
      </trkpt>
      <trkpt lat="48.92312" lon="2.36215">
        <ele>98</ele>
        <time>2015-03-30T19:47:32.562Z</time>
      </trkpt>
      <trkpt lat="48.92315" lon="2.3622">
        <ele>98.2</ele>
        <time>2015-03-30T19:47:33.609Z</time>
      </trkpt>
      <trkpt lat="48.9232" lon="2.3623">
        <ele>99.1</ele>
        <time>2015-03-30T19:47:35.517Z</time>
      </trkpt>
      <trkpt lat="48.92323" lon="2.36235">
        <ele>99.5</ele>
        <time>2015-03-30T19:47:36.518Z</time>
      </trkpt>
      <trkpt lat="48.92328" lon="2.36244">
        <ele>100.2</ele>
        <time>2015-03-30T19:47:38.568Z</time>
      </trkpt>
      <trkpt lat="48.9233" lon="2.36247">
        <ele>100.4</ele>
        <time>2015-03-30T19:47:39.584Z</time>
      </trkpt>
      <trkpt lat="48.92336" lon="2.36249">
        <ele>100.5</ele>
        <time>2015-03-30T19:47:41.503Z</time>
      </trkpt>
      <trkpt lat="48.92339" lon="2.36249">
        <ele>100.9</ele>
        <time>2015-03-30T19:47:42.525Z</time>
      </trkpt>
      <trkpt lat="48.92346" lon="2.36247">
        <ele>101.6</ele>
        <time>2015-03-30T19:47:44.498Z</time>
      </trkpt>
      <trkpt lat="48.92349" lon="2.36247">
        <ele>102.2</ele>
        <time>2015-03-30T19:47:45.500Z</time>
      </trkpt>
      <trkpt lat="48.92357" lon="2.36246">
        <ele>103.2</ele>
        <time>2015-03-30T19:47:47.535Z</time>
      </trkpt>
      <trkpt lat="48.92361" lon="2.36246">
        <ele>103.9</ele>
        <time>2015-03-30T19:47:48.538Z</time>
      </trkpt>
      <trkpt lat="48.92369" lon="2.36244">
        <ele>106.4</ele>
        <time>2015-03-30T19:47:50.501Z</time>
      </trkpt>
      <trkpt lat="48.92372" lon="2.36245">
        <ele>106.9</ele>
        <time>2015-03-30T19:47:51.496Z</time>
      </trkpt>
      <trkpt lat="48.92379" lon="2.36246">
        <ele>107.9</ele>
        <time>2015-03-30T19:47:53.566Z</time>
      </trkpt>
      <trkpt lat="48.92383" lon="2.36246">
        <ele>108.2</ele>
        <time>2015-03-30T19:47:54.548Z</time>
      </trkpt>
      <trkpt lat="48.92391" lon="2.36244">
        <ele>109.1</ele>
        <time>2015-03-30T19:47:56.504Z</time>
      </trkpt>
      <trkpt lat="48.92395" lon="2.36242">
        <ele>109.5</ele>
        <time>2015-03-30T19:47:57.525Z</time>
      </trkpt>
      <trkpt lat="48.92403" lon="2.36242">
        <ele>110.1</ele>
        <time>2015-03-30T19:47:59.604Z</time>
      </trkpt>
      <trkpt lat="48.92407" lon="2.36242">
        <ele>110.3</ele>
        <time>2015-03-30T19:48:00.497Z</time>
      </trkpt>
      <trkpt lat="48.9241" lon="2.3624">
        <ele>110.8</ele>
        <time>2015-03-30T19:48:01.570Z</time>
      </trkpt>
      <trkpt lat="48.92418" lon="2.36238">
        <ele>109.9</ele>
        <time>2015-03-30T19:48:02.610Z</time>
      </trkpt>
      <trkpt lat="48.92423" lon="2.36236">
        <ele>110.4</ele>
        <time>2015-03-30T19:48:03.510Z</time>
      </trkpt>
      <trkpt lat="48.92429" lon="2.36235">
        <ele>110.6</ele>
        <time>2015-03-30T19:48:04.518Z</time>
      </trkpt>
      <trkpt lat="48.92435" lon="2.36234">
        <ele>111.2</ele>
        <time>2015-03-30T19:48:05.569Z</time>
      </trkpt>
      <trkpt lat="48.92441" lon="2.36234">
        <ele>111.5</ele>
        <time>2015-03-30T19:48:06.579Z</time>
      </trkpt>
      <trkpt lat="48.92446" lon="2.36234">
        <ele>111.7</ele>
        <time>2015-03-30T19:48:07.602Z</time>
      </trkpt>
      <trkpt lat="48.92452" lon="2.36233">
        <ele>112.2</ele>
        <time>2015-03-30T19:48:08.470Z</time>
      </trkpt>
      <trkpt lat="48.92457" lon="2.36233">
        <ele>112.6</ele>
        <time>2015-03-30T19:48:09.532Z</time>
      </trkpt>
      <trkpt lat="48.92463" lon="2.36234">
        <ele>112.6</ele>
        <time>2015-03-30T19:48:10.540Z</time>
      </trkpt>
      <trkpt lat="48.92468" lon="2.36233">
        <ele>112.8</ele>
        <time>2015-03-30T19:48:11.501Z</time>
      </trkpt>
      <trkpt lat="48.92474" lon="2.36233">
        <ele>112.9</ele>
        <time>2015-03-30T19:48:12.493Z</time>
      </trkpt>
      <trkpt lat="48.92479" lon="2.36233">
        <ele>113</ele>
        <time>2015-03-30T19:48:13.542Z</time>
      </trkpt>
      <trkpt lat="48.92484" lon="2.36232">
        <ele>113.4</ele>
        <time>2015-03-30T19:48:14.551Z</time>
      </trkpt>
      <trkpt lat="48.92489" lon="2.36232">
        <ele>113.6</ele>
        <time>2015-03-30T19:48:15.568Z</time>
      </trkpt>
      <trkpt lat="48.92493" lon="2.36232">
        <ele>113.8</ele>
        <time>2015-03-30T19:48:16.579Z</time>
      </trkpt>
      <trkpt lat="48.92501" lon="2.3623">
        <ele>112.8</ele>
        <time>2015-03-30T19:48:17.581Z</time>
      </trkpt>
      <trkpt lat="48.92508" lon="2.36229">
        <ele>111.8</ele>
        <time>2015-03-30T19:48:18.597Z</time>
      </trkpt>
      <trkpt lat="48.92515" lon="2.36228">
        <ele>110.7</ele>
        <time>2015-03-30T19:48:19.610Z</time>
      </trkpt>
      <trkpt lat="48.92521" lon="2.36228">
        <ele>111.3</ele>
        <time>2015-03-30T19:48:20.501Z</time>
      </trkpt>
      <trkpt lat="48.92526" lon="2.36228">
        <ele>111.6</ele>
        <time>2015-03-30T19:48:21.526Z</time>
      </trkpt>
      <trkpt lat="48.92531" lon="2.36227">
        <ele>111.8</ele>
        <time>2015-03-30T19:48:22.544Z</time>
      </trkpt>
      <trkpt lat="48.92537" lon="2.36228">
        <ele>112.3</ele>
        <time>2015-03-30T19:48:23.518Z</time>
      </trkpt>
      <trkpt lat="48.92542" lon="2.36228">
        <ele>112.6</ele>
        <time>2015-03-30T19:48:24.513Z</time>
      </trkpt>
      <trkpt lat="48.92547" lon="2.36228">
        <ele>113.1</ele>
        <time>2015-03-30T19:48:25.562Z</time>
      </trkpt>
      <trkpt lat="48.92552" lon="2.36228">
        <ele>113.9</ele>
        <time>2015-03-30T19:48:26.558Z</time>
      </trkpt>
      <trkpt lat="48.9256" lon="2.36228">
        <ele>115.3</ele>
        <time>2015-03-30T19:48:28.573Z</time>
      </trkpt>
      <trkpt lat="48.92564" lon="2.36227">
        <ele>115.7</ele>
        <time>2015-03-30T19:48:29.581Z</time>
      </trkpt>
      <trkpt lat="48.92569" lon="2.36225">
        <ele>116.4</ele>
        <time>2015-03-30T19:48:30.533Z</time>
      </trkpt>
      <trkpt lat="48.92575" lon="2.36222">
        <ele>117</ele>
        <time>2015-03-30T19:48:31.569Z</time>
      </trkpt>
      <trkpt lat="48.92579" lon="2.36218">
        <ele>117.7</ele>
        <time>2015-03-30T19:48:32.577Z</time>
      </trkpt>
      <trkpt lat="48.92583" lon="2.36215">
        <ele>118</ele>
        <time>2015-03-30T19:48:33.586Z</time>
      </trkpt>
      <trkpt lat="48.92588" lon="2.36213">
        <ele>118.2</ele>
        <time>2015-03-30T19:48:34.613Z</time>
      </trkpt>
      <trkpt lat="48.92592" lon="2.36211">
        <ele>118.8</ele>
        <time>2015-03-30T19:48:35.485Z</time>
      </trkpt>
      <trkpt lat="48.92599" lon="2.36207">
        <ele>120.4</ele>
        <time>2015-03-30T19:48:38.575Z</time>
      </trkpt>
      <trkpt lat="48.92599" lon="2.36203">
        <ele>121.1</ele>
        <time>2015-03-30T19:48:39.594Z</time>
      </trkpt>
      <trkpt lat="48.92601" lon="2.3619">
        <ele>123</ele>
        <time>2015-03-30T19:48:44.571Z</time>
      </trkpt>
      <trkpt lat="48.92601" lon="2.36189">
        <ele>123.5</ele>
        <time>2015-03-30T19:48:45.675Z</time>
      </trkpt>
      <trkpt lat="48.92608" lon="2.36181">
        <ele>122.5</ele>
        <time>2015-03-30T19:48:48.619Z</time>
      </trkpt>
      <trkpt lat="48.92614" lon="2.36177">
        <ele>118.8</ele>
        <time>2015-03-30T19:48:49.625Z</time>
      </trkpt>
      <trkpt lat="48.92619" lon="2.36168">
        <ele>115.2</ele>
        <time>2015-03-30T19:48:51.533Z</time>
      </trkpt>
      <trkpt lat="48.9262" lon="2.36163">
        <ele>114.5</ele>
        <time>2015-03-30T19:48:52.545Z</time>
      </trkpt>
      <trkpt lat="48.92616" lon="2.36153">
        <ele>113.9</ele>
        <time>2015-03-30T19:49:04.600Z</time>
      </trkpt>
      <trkpt lat="48.92616" lon="2.36139">
        <ele>112</ele>
        <time>2015-03-30T19:49:05.539Z</time>
      </trkpt>
      <trkpt lat="48.92616" lon="2.36129">
        <ele>112.3</ele>
        <time>2015-03-30T19:49:07.560Z</time>
      </trkpt>
      <trkpt lat="48.92616" lon="2.36122">
        <ele>112</ele>
        <time>2015-03-30T19:49:08.567Z</time>
      </trkpt>
      <trkpt lat="48.92616" lon="2.3611">
        <ele>112.1</ele>
        <time>2015-03-30T19:49:10.516Z</time>
      </trkpt>
      <trkpt lat="48.92616" lon="2.36103">
        <ele>111.9</ele>
        <time>2015-03-30T19:49:11.527Z</time>
      </trkpt>
      <trkpt lat="48.92616" lon="2.36097">
        <ele>112.1</ele>
        <time>2015-03-30T19:49:12.539Z</time>
      </trkpt>
      <trkpt lat="48.92589" lon="2.3606">
        <ele>111.8</ele>
        <time>2015-03-30T19:49:13.742Z</time>
      </trkpt>
      <trkpt lat="48.926" lon="2.3607">
        <ele>111.5</ele>
        <time>2015-03-30T19:49:14.505Z</time>
      </trkpt>
      <trkpt lat="48.92609" lon="2.36076">
        <ele>111.7</ele>
        <time>2015-03-30T19:49:15.549Z</time>
      </trkpt>
      <trkpt lat="48.92615" lon="2.36066">
        <ele>112.2</ele>
        <time>2015-03-30T19:49:17.545Z</time>
      </trkpt>
      <trkpt lat="48.92614" lon="2.36059">
        <ele>112.7</ele>
        <time>2015-03-30T19:49:18.551Z</time>
      </trkpt>
      <trkpt lat="48.92612" lon="2.36046">
        <ele>113.5</ele>
        <time>2015-03-30T19:49:21.163Z</time>
      </trkpt>
      <trkpt lat="48.92612" lon="2.36039">
        <ele>113.6</ele>
        <time>2015-03-30T19:49:21.575Z</time>
      </trkpt>
      <trkpt lat="48.92611" lon="2.36031">
        <ele>113.6</ele>
        <time>2015-03-30T19:49:22.563Z</time>
      </trkpt>
      <trkpt lat="48.9261" lon="2.36023">
        <ele>113.7</ele>
        <time>2015-03-30T19:49:23.575Z</time>
      </trkpt>
      <trkpt lat="48.92609" lon="2.36016">
        <ele>113.6</ele>
        <time>2015-03-30T19:49:24.606Z</time>
      </trkpt>
      <trkpt lat="48.92609" lon="2.36009">
        <ele>113.3</ele>
        <time>2015-03-30T19:49:25.621Z</time>
      </trkpt>
      <trkpt lat="48.92609" lon="2.36001">
        <ele>112.8</ele>
        <time>2015-03-30T19:49:26.541Z</time>
      </trkpt>
      <trkpt lat="48.92609" lon="2.35994">
        <ele>112.5</ele>
        <time>2015-03-30T19:49:27.538Z</time>
      </trkpt>
      <trkpt lat="48.92609" lon="2.35987">
        <ele>112.2</ele>
        <time>2015-03-30T19:49:28.563Z</time>
      </trkpt>
      <trkpt lat="48.92609" lon="2.3598">
        <ele>111.8</ele>
        <time>2015-03-30T19:49:29.573Z</time>
      </trkpt>
      <trkpt lat="48.92609" lon="2.35973">
        <ele>111.6</ele>
        <time>2015-03-30T19:49:30.701Z</time>
      </trkpt>
      <trkpt lat="48.9261" lon="2.35966">
        <ele>111.3</ele>
        <time>2015-03-30T19:49:31.565Z</time>
      </trkpt>
      <trkpt lat="48.92609" lon="2.35958">
        <ele>111.1</ele>
        <time>2015-03-30T19:49:32.576Z</time>
      </trkpt>
      <trkpt lat="48.9261" lon="2.35951">
        <ele>111</ele>
        <time>2015-03-30T19:49:33.593Z</time>
      </trkpt>
      <trkpt lat="48.92611" lon="2.35945">
        <ele>111</ele>
        <time>2015-03-30T19:49:34.527Z</time>
      </trkpt>
      <trkpt lat="48.9261" lon="2.35937">
        <ele>111</ele>
        <time>2015-03-30T19:49:35.528Z</time>
      </trkpt>
      <trkpt lat="48.9261" lon="2.3593">
        <ele>110.7</ele>
        <time>2015-03-30T19:49:36.647Z</time>
      </trkpt>
      <trkpt lat="48.92611" lon="2.35923">
        <ele>110.6</ele>
        <time>2015-03-30T19:49:37.578Z</time>
      </trkpt>
      <trkpt lat="48.92612" lon="2.35915">
        <ele>110.1</ele>
        <time>2015-03-30T19:49:38.525Z</time>
      </trkpt>
      <trkpt lat="48.92613" lon="2.35908">
        <ele>110</ele>
        <time>2015-03-30T19:49:39.515Z</time>
      </trkpt>
      <trkpt lat="48.92613" lon="2.35901">
        <ele>110</ele>
        <time>2015-03-30T19:49:40.511Z</time>
      </trkpt>
      <trkpt lat="48.92613" lon="2.35894">
        <ele>109.8</ele>
        <time>2015-03-30T19:49:41.527Z</time>
      </trkpt>
      <trkpt lat="48.92614" lon="2.3588">
        <ele>110</ele>
        <time>2015-03-30T19:49:43.576Z</time>
      </trkpt>
      <trkpt lat="48.92613" lon="2.35875">
        <ele>110.2</ele>
        <time>2015-03-30T19:49:44.573Z</time>
      </trkpt>
      <trkpt lat="48.92611" lon="2.35862">
        <ele>110.5</ele>
        <time>2015-03-30T19:49:46.591Z</time>
      </trkpt>
      <trkpt lat="48.9261" lon="2.35857">
        <ele>110.4</ele>
        <time>2015-03-30T19:49:47.528Z</time>
      </trkpt>
      <trkpt lat="48.92606" lon="2.35849">
        <ele>109.8</ele>
        <time>2015-03-30T19:49:49.621Z</time>
      </trkpt>
      <trkpt lat="48.92601" lon="2.35846">
        <ele>109.2</ele>
        <time>2015-03-30T19:49:50.547Z</time>
      </trkpt>
      <trkpt lat="48.92593" lon="2.35841">
        <ele>108.8</ele>
        <time>2015-03-30T19:49:52.560Z</time>
      </trkpt>
      <trkpt lat="48.92588" lon="2.3584">
        <ele>108.7</ele>
        <time>2015-03-30T19:49:53.578Z</time>
      </trkpt>
      <trkpt lat="48.92581" lon="2.35838">
        <ele>108.9</ele>
        <time>2015-03-30T19:49:55.625Z</time>
      </trkpt>
      <trkpt lat="48.92579" lon="2.35837">
        <ele>109.5</ele>
        <time>2015-03-30T19:49:56.550Z</time>
      </trkpt>
      <trkpt lat="48.92574" lon="2.35828">
        <ele>110</ele>
        <time>2015-03-30T19:49:59.555Z</time>
      </trkpt>
      <trkpt lat="48.92573" lon="2.35823">
        <ele>110.1</ele>
        <time>2015-03-30T19:50:00.595Z</time>
      </trkpt>
      <trkpt lat="48.92571" lon="2.35813">
        <ele>110.4</ele>
        <time>2015-03-30T19:50:02.608Z</time>
      </trkpt>
      <trkpt lat="48.92571" lon="2.35808">
        <ele>110.6</ele>
        <time>2015-03-30T19:50:03.614Z</time>
      </trkpt>
      <trkpt lat="48.92569" lon="2.35796">
        <ele>110.8</ele>
        <time>2015-03-30T19:50:05.523Z</time>
      </trkpt>
      <trkpt lat="48.92567" lon="2.35792">
        <ele>110.9</ele>
        <time>2015-03-30T19:50:06.540Z</time>
      </trkpt>
      <trkpt lat="48.92564" lon="2.35782">
        <ele>111.3</ele>
        <time>2015-03-30T19:50:09.599Z</time>
      </trkpt>
      <trkpt lat="48.92562" lon="2.3578">
        <ele>111.1</ele>
        <time>2015-03-30T19:50:10.531Z</time>
      </trkpt>
      <trkpt lat="48.92556" lon="2.3577">
        <ele>110.7</ele>
        <time>2015-03-30T19:50:15.562Z</time>
      </trkpt>
      <trkpt lat="48.92555" lon="2.35771">
        <ele>110.5</ele>
        <time>2015-03-30T19:50:16.589Z</time>
      </trkpt>
      <trkpt lat="48.92546" lon="2.35772">
        <ele>109.7</ele>
        <time>2015-03-30T19:50:21.519Z</time>
      </trkpt>
      <trkpt lat="48.92545" lon="2.35771">
        <ele>109.7</ele>
        <time>2015-03-30T19:50:22.550Z</time>
      </trkpt>
      <trkpt lat="48.92536" lon="2.35773">
        <ele>108.7</ele>
        <time>2015-03-30T19:50:27.533Z</time>
      </trkpt>
      <trkpt lat="48.92534" lon="2.35775">
        <ele>109</ele>
        <time>2015-03-30T19:50:28.555Z</time>
      </trkpt>
      <trkpt lat="48.92527" lon="2.35778">
        <ele>110.3</ele>
        <time>2015-03-30T19:50:32.557Z</time>
      </trkpt>
      <trkpt lat="48.92525" lon="2.35778">
        <ele>110.5</ele>
        <time>2015-03-30T19:50:33.546Z</time>
      </trkpt>
      <trkpt lat="48.92516" lon="2.35778">
        <ele>111</ele>
        <time>2015-03-30T19:51:54.551Z</time>
      </trkpt>
      <trkpt lat="48.92512" lon="2.35779">
        <ele>99.7</ele>
        <time>2015-03-30T19:51:55.603Z</time>
      </trkpt>
      <trkpt lat="48.92518" lon="2.35776">
        <ele>98.9</ele>
        <time>2015-03-30T19:51:58.573Z</time>
      </trkpt>
      <trkpt lat="48.92521" lon="2.35775">
        <ele>98.6</ele>
        <time>2015-03-30T19:51:59.578Z</time>
      </trkpt>
      <trkpt lat="48.92528" lon="2.35773">
        <ele>98.1</ele>
        <time>2015-03-30T19:52:01.593Z</time>
      </trkpt>
      <trkpt lat="48.92531" lon="2.35772">
        <ele>97.9</ele>
        <time>2015-03-30T19:52:02.535Z</time>
      </trkpt>
      <trkpt lat="48.92539" lon="2.35772">
        <ele>97.8</ele>
        <time>2015-03-30T19:52:04.556Z</time>
      </trkpt>
      <trkpt lat="48.92543" lon="2.35771">
        <ele>97.6</ele>
        <time>2015-03-30T19:52:05.566Z</time>
      </trkpt>
      <trkpt lat="48.9255" lon="2.35771">
        <ele>97.1</ele>
        <time>2015-03-30T19:52:07.596Z</time>
      </trkpt>
      <trkpt lat="48.92554" lon="2.35771">
        <ele>96.6</ele>
        <time>2015-03-30T19:52:08.522Z</time>
      </trkpt>
      <trkpt lat="48.92561" lon="2.35772">
        <ele>96.2</ele>
        <time>2015-03-30T19:52:10.537Z</time>
      </trkpt>
      <trkpt lat="48.92565" lon="2.35774">
        <ele>96.2</ele>
        <time>2015-03-30T19:52:11.570Z</time>
      </trkpt>
      <trkpt lat="48.92571" lon="2.35779">
        <ele>96.3</ele>
        <time>2015-03-30T19:52:13.619Z</time>
      </trkpt>
      <trkpt lat="48.92573" lon="2.35782">
        <ele>96.3</ele>
        <time>2015-03-30T19:52:14.526Z</time>
      </trkpt>
      <trkpt lat="48.92576" lon="2.35791">
        <ele>96.3</ele>
        <time>2015-03-30T19:52:16.522Z</time>
      </trkpt>
      <trkpt lat="48.92577" lon="2.35796">
        <ele>96.1</ele>
        <time>2015-03-30T19:52:17.545Z</time>
      </trkpt>
      <trkpt lat="48.92577" lon="2.35798">
        <ele>95.7</ele>
        <time>2015-03-30T19:52:19.583Z</time>
      </trkpt>
      <trkpt lat="48.92578" lon="2.35812">
        <ele>95.7</ele>
        <time>2015-03-30T19:52:20.577Z</time>
      </trkpt>
      <trkpt lat="48.92582" lon="2.3582">
        <ele>95.7</ele>
        <time>2015-03-30T19:52:22.513Z</time>
      </trkpt>
      <trkpt lat="48.92586" lon="2.35824">
        <ele>96.8</ele>
        <time>2015-03-30T19:52:23.520Z</time>
      </trkpt>
      <trkpt lat="48.92591" lon="2.35832">
        <ele>97.6</ele>
        <time>2015-03-30T19:52:27.489Z</time>
      </trkpt>
      <trkpt lat="48.92593" lon="2.35834">
        <ele>97.7</ele>
        <time>2015-03-30T19:52:28.532Z</time>
      </trkpt>
      <trkpt lat="48.92599" lon="2.3584">
        <ele>97.7</ele>
        <time>2015-03-30T19:52:31.520Z</time>
      </trkpt>
      <trkpt lat="48.92602" lon="2.35842">
        <ele>97.4</ele>
        <time>2015-03-30T19:52:32.536Z</time>
      </trkpt>
      <trkpt lat="48.92609" lon="2.35849">
        <ele>97.2</ele>
        <time>2015-03-30T19:52:34.516Z</time>
      </trkpt>
      <trkpt lat="48.92611" lon="2.35852">
        <ele>97.3</ele>
        <time>2015-03-30T19:52:35.617Z</time>
      </trkpt>
      <trkpt lat="48.92612" lon="2.35857">
        <ele>97.5</ele>
        <time>2015-03-30T19:52:36.531Z</time>
      </trkpt>
      <trkpt lat="48.92615" lon="2.35869">
        <ele>97.4</ele>
        <time>2015-03-30T19:52:37.585Z</time>
      </trkpt>
      <trkpt lat="48.92614" lon="2.35877">
        <ele>96.5</ele>
        <time>2015-03-30T19:52:40.605Z</time>
      </trkpt>
      <trkpt lat="48.92614" lon="2.35883">
        <ele>96.3</ele>
        <time>2015-03-30T19:52:41.501Z</time>
      </trkpt>
      <trkpt lat="48.92614" lon="2.35889">
        <ele>96.3</ele>
        <time>2015-03-30T19:52:42.533Z</time>
      </trkpt>
      <trkpt lat="48.92614" lon="2.35897">
        <ele>95.6</ele>
        <time>2015-03-30T19:52:43.591Z</time>
      </trkpt>
      <trkpt lat="48.92615" lon="2.35909">
        <ele>94.6</ele>
        <time>2015-03-30T19:52:45.591Z</time>
      </trkpt>
      <trkpt lat="48.92615" lon="2.35915">
        <ele>94.5</ele>
        <time>2015-03-30T19:52:46.596Z</time>
      </trkpt>
      <trkpt lat="48.92615" lon="2.35926">
        <ele>94.4</ele>
        <time>2015-03-30T19:52:48.525Z</time>
      </trkpt>
      <trkpt lat="48.92616" lon="2.35942">
        <ele>94.3</ele>
        <time>2015-03-30T19:52:49.575Z</time>
      </trkpt>
      <trkpt lat="48.92616" lon="2.35952">
        <ele>94.5</ele>
        <time>2015-03-30T19:52:52.532Z</time>
      </trkpt>
      <trkpt lat="48.92616" lon="2.35957">
        <ele>94.7</ele>
        <time>2015-03-30T19:52:53.527Z</time>
      </trkpt>
      <trkpt lat="48.92616" lon="2.3597">
        <ele>94.7</ele>
        <time>2015-03-30T19:52:55.561Z</time>
      </trkpt>
      <trkpt lat="48.92616" lon="2.35977">
        <ele>94.7</ele>
        <time>2015-03-30T19:52:56.576Z</time>
      </trkpt>
      <trkpt lat="48.92616" lon="2.35986">
        <ele>94.5</ele>
        <time>2015-03-30T19:52:58.575Z</time>
      </trkpt>
      <trkpt lat="48.92616" lon="2.35992">
        <ele>94.4</ele>
        <time>2015-03-30T19:52:59.586Z</time>
      </trkpt>
      <trkpt lat="48.92617" lon="2.36005">
        <ele>94.7</ele>
        <time>2015-03-30T19:53:02.079Z</time>
      </trkpt>
      <trkpt lat="48.92617" lon="2.36012">
        <ele>94.7</ele>
        <time>2015-03-30T19:53:02.529Z</time>
      </trkpt>
      <trkpt lat="48.92617" lon="2.36017">
        <ele>94.7</ele>
        <time>2015-03-30T19:53:03.516Z</time>
      </trkpt>
      <trkpt lat="48.92617" lon="2.36029">
        <ele>94.6</ele>
        <time>2015-03-30T19:53:04.568Z</time>
      </trkpt>
      <trkpt lat="48.92618" lon="2.3604">
        <ele>94.5</ele>
        <time>2015-03-30T19:53:07.098Z</time>
      </trkpt>
      <trkpt lat="48.92617" lon="2.36044">
        <ele>94.2</ele>
        <time>2015-03-30T19:53:07.576Z</time>
      </trkpt>
      <trkpt lat="48.92617" lon="2.36047">
        <ele>94</ele>
        <time>2015-03-30T19:53:09.570Z</time>
      </trkpt>
      <trkpt lat="48.92616" lon="2.36059">
        <ele>93.9</ele>
        <time>2015-03-30T19:53:10.605Z</time>
      </trkpt>
      <trkpt lat="48.92617" lon="2.36067">
        <ele>93.5</ele>
        <time>2015-03-30T19:53:13.547Z</time>
      </trkpt>
      <trkpt lat="48.92617" lon="2.36075">
        <ele>93.7</ele>
        <time>2015-03-30T19:53:14.565Z</time>
      </trkpt>
      <trkpt lat="48.92618" lon="2.36087">
        <ele>93.7</ele>
        <time>2015-03-30T19:53:16.485Z</time>
      </trkpt>
      <trkpt lat="48.92619" lon="2.36101">
        <ele>93.8</ele>
        <time>2015-03-30T19:53:17.502Z</time>
      </trkpt>
      <trkpt lat="48.92619" lon="2.36112">
        <ele>94</ele>
        <time>2015-03-30T19:53:19.593Z</time>
      </trkpt>
      <trkpt lat="48.92618" lon="2.36117">
        <ele>94</ele>
        <time>2015-03-30T19:53:20.591Z</time>
      </trkpt>
      <trkpt lat="48.92618" lon="2.36126">
        <ele>94</ele>
        <time>2015-03-30T19:53:22.533Z</time>
      </trkpt>
      <trkpt lat="48.92619" lon="2.36131">
        <ele>94.2</ele>
        <time>2015-03-30T19:53:23.579Z</time>
      </trkpt>
      <trkpt lat="48.92619" lon="2.3614">
        <ele>95.3</ele>
        <time>2015-03-30T19:53:26.388Z</time>
      </trkpt>
      <trkpt lat="48.92618" lon="2.36146">
        <ele>96</ele>
        <time>2015-03-30T19:53:26.481Z</time>
      </trkpt>
      <trkpt lat="48.92618" lon="2.36155">
        <ele>96.4</ele>
        <time>2015-03-30T19:53:28.521Z</time>
      </trkpt>
      <trkpt lat="48.92621" lon="2.36162">
        <ele>97.4</ele>
        <time>2015-03-30T19:53:29.539Z</time>
      </trkpt>
      <trkpt lat="48.92624" lon="2.36174">
        <ele>98.5</ele>
        <time>2015-03-30T19:53:31.570Z</time>
      </trkpt>
      <trkpt lat="48.92625" lon="2.3618">
        <ele>98.9</ele>
        <time>2015-03-30T19:53:32.588Z</time>
      </trkpt>
      <trkpt lat="48.92627" lon="2.3619">
        <ele>99.6</ele>
        <time>2015-03-30T19:53:34.512Z</time>
      </trkpt>
      <trkpt lat="48.92627" lon="2.36196">
        <ele>99.9</ele>
        <time>2015-03-30T19:53:35.535Z</time>
      </trkpt>
      <trkpt lat="48.92629" lon="2.36206">
        <ele>100.4</ele>
        <time>2015-03-30T19:53:37.575Z</time>
      </trkpt>
      <trkpt lat="48.92629" lon="2.36211">
        <ele>100.8</ele>
        <time>2015-03-30T19:53:38.588Z</time>
      </trkpt>
      <trkpt lat="48.92629" lon="2.36215">
        <ele>101.8</ele>
        <time>2015-03-30T19:53:41.606Z</time>
      </trkpt>
      <trkpt lat="48.92629" lon="2.36229">
        <ele>102.3</ele>
        <time>2015-03-30T19:53:42.523Z</time>
      </trkpt>
      <trkpt lat="48.92625" lon="2.3624">
        <ele>104.8</ele>
        <time>2015-03-30T19:53:45.473Z</time>
      </trkpt>
      <trkpt lat="48.92623" lon="2.36244">
        <ele>106.6</ele>
        <time>2015-03-30T19:53:46.484Z</time>
      </trkpt>
      <trkpt lat="48.92623" lon="2.36258">
        <ele>110.6</ele>
        <time>2015-03-30T19:53:52.569Z</time>
      </trkpt>
      <trkpt lat="48.92623" lon="2.3627">
        <ele>110.5</ele>
        <time>2015-03-30T19:53:53.586Z</time>
      </trkpt>
      <trkpt lat="48.92622" lon="2.36283">
        <ele>110.2</ele>
        <time>2015-03-30T19:53:59.518Z</time>
      </trkpt>
      <trkpt lat="48.92622" lon="2.36286">
        <ele>110.5</ele>
        <time>2015-03-30T19:54:00.523Z</time>
      </trkpt>
      <trkpt lat="48.92614" lon="2.36329">
        <ele>110.6</ele>
        <time>2015-03-30T19:54:01.583Z</time>
      </trkpt>
      <trkpt lat="48.92611" lon="2.36333">
        <ele>110.7</ele>
        <time>2015-03-30T19:54:02.494Z</time>
      </trkpt>
      <trkpt lat="48.92606" lon="2.36337">
        <ele>110.5</ele>
        <time>2015-03-30T19:54:03.498Z</time>
      </trkpt>
      <trkpt lat="48.92602" lon="2.36342">
        <ele>110.4</ele>
        <time>2015-03-30T19:54:04.499Z</time>
      </trkpt>
      <trkpt lat="48.92597" lon="2.36347">
        <ele>110.3</ele>
        <time>2015-03-30T19:54:05.484Z</time>
      </trkpt>
      <trkpt lat="48.92593" lon="2.36352">
        <ele>110</ele>
        <time>2015-03-30T19:54:06.959Z</time>
      </trkpt>
      <trkpt lat="48.92589" lon="2.36357">
        <ele>109.8</ele>
        <time>2015-03-30T19:54:07.528Z</time>
      </trkpt>
      <trkpt lat="48.92584" lon="2.36363">
        <ele>109.5</ele>
        <time>2015-03-30T19:54:08.550Z</time>
      </trkpt>
      <trkpt lat="48.92582" lon="2.36369">
        <ele>109</ele>
        <time>2015-03-30T19:54:09.484Z</time>
      </trkpt>
      <trkpt lat="48.92579" lon="2.36374">
        <ele>108.4</ele>
        <time>2015-03-30T19:54:10.533Z</time>
      </trkpt>
      <trkpt lat="48.92577" lon="2.36381">
        <ele>108.2</ele>
        <time>2015-03-30T19:54:11.491Z</time>
      </trkpt>
      <trkpt lat="48.92575" lon="2.36387">
        <ele>108.1</ele>
        <time>2015-03-30T19:54:12.513Z</time>
      </trkpt>
      <trkpt lat="48.92571" lon="2.36393">
        <ele>107.6</ele>
        <time>2015-03-30T19:54:13.572Z</time>
      </trkpt>
      <trkpt lat="48.92566" lon="2.36397">
        <ele>106.8</ele>
        <time>2015-03-30T19:54:14.510Z</time>
      </trkpt>
      <trkpt lat="48.92562" lon="2.36403">
        <ele>106.1</ele>
        <time>2015-03-30T19:54:15.535Z</time>
      </trkpt>
      <trkpt lat="48.92556" lon="2.36412">
        <ele>105.3</ele>
        <time>2015-03-30T19:54:17.484Z</time>
      </trkpt>
      <trkpt lat="48.92554" lon="2.36417">
        <ele>105.4</ele>
        <time>2015-03-30T19:54:18.511Z</time>
      </trkpt>
      <trkpt lat="48.92552" lon="2.36428">
        <ele>105.6</ele>
        <time>2015-03-30T19:54:20.560Z</time>
      </trkpt>
      <trkpt lat="48.92551" lon="2.36432">
        <ele>105.7</ele>
        <time>2015-03-30T19:54:21.575Z</time>
      </trkpt>
      <trkpt lat="48.92545" lon="2.36439">
        <ele>104.1</ele>
        <time>2015-03-30T19:54:24.550Z</time>
      </trkpt>
      <trkpt lat="48.92542" lon="2.36439">
        <ele>103.6</ele>
        <time>2015-03-30T19:54:25.573Z</time>
      </trkpt>
      <trkpt lat="48.92534" lon="2.3644">
        <ele>103.3</ele>
        <time>2015-03-30T19:54:28.504Z</time>
      </trkpt>
      <trkpt lat="48.92533" lon="2.36439">
        <ele>102.9</ele>
        <time>2015-03-30T19:54:29.531Z</time>
      </trkpt>
      <trkpt lat="48.92533" lon="2.36439">
        <ele>102.7</ele>
        <time>2015-03-30T19:55:00.462Z</time>
      </trkpt>
      <trkpt lat="48.9255" lon="2.3648">
        <ele>102.8</ele>
        <time>2015-03-30T19:55:01.568Z</time>
      </trkpt>
      <trkpt lat="48.92553" lon="2.36491">
        <ele>101.9</ele>
        <time>2015-03-30T19:55:46.519Z</time>
      </trkpt>
      <trkpt lat="48.92559" lon="2.36503">
        <ele>98.4</ele>
        <time>2015-03-30T19:55:47.528Z</time>
      </trkpt>
      <trkpt lat="48.92563" lon="2.36511">
        <ele>97.9</ele>
        <time>2015-03-30T19:55:48.535Z</time>
      </trkpt>
      <trkpt lat="48.92566" lon="2.36515">
        <ele>97.8</ele>
        <time>2015-03-30T19:55:49.576Z</time>
      </trkpt>
      <trkpt lat="48.92572" lon="2.36524">
        <ele>97.8</ele>
        <time>2015-03-30T19:55:53.599Z</time>
      </trkpt>
      <trkpt lat="48.92573" lon="2.36525">
        <ele>97.8</ele>
        <time>2015-03-30T19:55:54.607Z</time>
      </trkpt>
      <trkpt lat="48.92574" lon="2.36531">
        <ele>97.8</ele>
        <time>2015-03-30T19:56:03.573Z</time>
      </trkpt>
      <trkpt lat="48.92579" lon="2.36536">
        <ele>97.8</ele>
        <time>2015-03-30T19:56:04.592Z</time>
      </trkpt>
      <trkpt lat="48.92579" lon="2.36536">
        <ele>97.8</ele>
        <time>2015-03-30T19:57:13.620Z</time>
      </trkpt>
      <trkpt lat="48.92606" lon="2.36573">
        <ele>91.1</ele>
        <time>2015-03-30T19:57:14.524Z</time>
      </trkpt>
      <trkpt lat="48.92598" lon="2.3658">
        <ele>91.8</ele>
        <time>2015-03-30T19:58:17.500Z</time>
      </trkpt>
      <trkpt lat="48.92597" lon="2.3658">
        <ele>91.9</ele>
        <time>2015-03-30T19:58:18.537Z</time>
      </trkpt>
      <trkpt lat="48.92589" lon="2.36575">
        <ele>92</ele>
        <time>2015-03-30T19:58:22.518Z</time>
      </trkpt>
      <trkpt lat="48.92587" lon="2.36574">
        <ele>92</ele>
        <time>2015-03-30T19:58:23.582Z</time>
      </trkpt>
      <trkpt lat="48.9258" lon="2.36572">
        <ele>92.4</ele>
        <time>2015-03-30T19:58:26.528Z</time>
      </trkpt>
      <trkpt lat="48.92578" lon="2.36573">
        <ele>92.4</ele>
        <time>2015-03-30T19:58:27.557Z</time>
      </trkpt>
      <trkpt lat="48.9257" lon="2.36576">
        <ele>92.4</ele>
        <time>2015-03-30T19:58:30.537Z</time>
      </trkpt>
      <trkpt lat="48.92567" lon="2.36578">
        <ele>92.4</ele>
        <time>2015-03-30T19:58:31.593Z</time>
      </trkpt>
      <trkpt lat="48.92561" lon="2.3658">
        <ele>92.2</ele>
        <time>2015-03-30T19:58:33.499Z</time>
      </trkpt>
      <trkpt lat="48.92558" lon="2.36581">
        <ele>92.3</ele>
        <time>2015-03-30T19:58:34.535Z</time>
      </trkpt>
      <trkpt lat="48.92551" lon="2.36587">
        <ele>92.4</ele>
        <time>2015-03-30T19:58:36.528Z</time>
      </trkpt>
      <trkpt lat="48.92548" lon="2.3659">
        <ele>92.5</ele>
        <time>2015-03-30T19:58:37.573Z</time>
      </trkpt>
      <trkpt lat="48.92542" lon="2.36594">
        <ele>92.9</ele>
        <time>2015-03-30T19:58:39.488Z</time>
      </trkpt>
      <trkpt lat="48.92539" lon="2.36595">
        <ele>92.9</ele>
        <time>2015-03-30T19:58:40.516Z</time>
      </trkpt>
      <trkpt lat="48.92532" lon="2.36598">
        <ele>93</ele>
        <time>2015-03-30T19:58:42.574Z</time>
      </trkpt>
      <trkpt lat="48.92529" lon="2.36599">
        <ele>93</ele>
        <time>2015-03-30T19:58:43.593Z</time>
      </trkpt>
      <trkpt lat="48.92522" lon="2.36602">
        <ele>93.3</ele>
        <time>2015-03-30T19:58:45.498Z</time>
      </trkpt>
      <trkpt lat="48.92519" lon="2.36603">
        <ele>93.2</ele>
        <time>2015-03-30T19:58:46.520Z</time>
      </trkpt>
      <trkpt lat="48.92512" lon="2.36606">
        <ele>92.9</ele>
        <time>2015-03-30T19:58:48.551Z</time>
      </trkpt>
      <trkpt lat="48.92508" lon="2.36607">
        <ele>92.8</ele>
        <time>2015-03-30T19:58:49.567Z</time>
      </trkpt>
      <trkpt lat="48.92501" lon="2.3661">
        <ele>92.6</ele>
        <time>2015-03-30T19:58:51.490Z</time>
      </trkpt>
      <trkpt lat="48.92498" lon="2.36612">
        <ele>92.6</ele>
        <time>2015-03-30T19:58:52.492Z</time>
      </trkpt>
      <trkpt lat="48.92489" lon="2.36615">
        <ele>92.9</ele>
        <time>2015-03-30T19:58:54.506Z</time>
      </trkpt>
      <trkpt lat="48.92485" lon="2.36618">
        <ele>93</ele>
        <time>2015-03-30T19:58:55.541Z</time>
      </trkpt>
      <trkpt lat="48.92481" lon="2.36621">
        <ele>93.2</ele>
        <time>2015-03-30T19:58:56.560Z</time>
      </trkpt>
      <trkpt lat="48.92476" lon="2.36623">
        <ele>93.1</ele>
        <time>2015-03-30T19:58:57.453Z</time>
      </trkpt>
      <trkpt lat="48.92472" lon="2.36626">
        <ele>93</ele>
        <time>2015-03-30T19:58:58.517Z</time>
      </trkpt>
      <trkpt lat="48.92468" lon="2.36629">
        <ele>93</ele>
        <time>2015-03-30T19:58:59.538Z</time>
      </trkpt>
      <trkpt lat="48.9246" lon="2.36635">
        <ele>92.8</ele>
        <time>2015-03-30T19:59:01.566Z</time>
      </trkpt>
      <trkpt lat="48.92456" lon="2.36637">
        <ele>92.5</ele>
        <time>2015-03-30T19:59:02.511Z</time>
      </trkpt>
      <trkpt lat="48.92449" lon="2.3664">
        <ele>92.6</ele>
        <time>2015-03-30T19:59:04.530Z</time>
      </trkpt>
      <trkpt lat="48.92445" lon="2.36641">
        <ele>92.4</ele>
        <time>2015-03-30T19:59:05.559Z</time>
      </trkpt>
      <trkpt lat="48.92438" lon="2.36643">
        <ele>92.4</ele>
        <time>2015-03-30T19:59:07.617Z</time>
      </trkpt>
      <trkpt lat="48.92434" lon="2.36645">
        <ele>92.5</ele>
        <time>2015-03-30T19:59:08.485Z</time>
      </trkpt>
      <trkpt lat="48.9243" lon="2.36648">
        <ele>92.4</ele>
        <time>2015-03-30T19:59:09.486Z</time>
      </trkpt>
      <trkpt lat="48.92425" lon="2.36649">
        <ele>92.3</ele>
        <time>2015-03-30T19:59:10.514Z</time>
      </trkpt>
      <trkpt lat="48.92416" lon="2.36652">
        <ele>92.1</ele>
        <time>2015-03-30T19:59:12.563Z</time>
      </trkpt>
      <trkpt lat="48.92413" lon="2.36654">
        <ele>92.4</ele>
        <time>2015-03-30T19:59:13.603Z</time>
      </trkpt>
      <trkpt lat="48.92408" lon="2.36659">
        <ele>91.9</ele>
        <time>2015-03-30T19:59:14.500Z</time>
      </trkpt>
      <trkpt lat="48.92403" lon="2.36663">
        <ele>91.8</ele>
        <time>2015-03-30T19:59:15.505Z</time>
      </trkpt>
      <trkpt lat="48.92398" lon="2.36667">
        <ele>91.6</ele>
        <time>2015-03-30T19:59:16.526Z</time>
      </trkpt>
      <trkpt lat="48.92393" lon="2.3667">
        <ele>92</ele>
        <time>2015-03-30T19:59:17.539Z</time>
      </trkpt>
      <trkpt lat="48.92388" lon="2.36673">
        <ele>92.5</ele>
        <time>2015-03-30T19:59:18.547Z</time>
      </trkpt>
      <trkpt lat="48.92384" lon="2.36676">
        <ele>92.5</ele>
        <time>2015-03-30T19:59:19.572Z</time>
      </trkpt>
      <trkpt lat="48.92379" lon="2.3668">
        <ele>92.5</ele>
        <time>2015-03-30T19:59:20.582Z</time>
      </trkpt>
      <trkpt lat="48.92375" lon="2.36683">
        <ele>92.4</ele>
        <time>2015-03-30T19:59:21.473Z</time>
      </trkpt>
      <trkpt lat="48.92371" lon="2.36687">
        <ele>92.3</ele>
        <time>2015-03-30T19:59:22.507Z</time>
      </trkpt>
      <trkpt lat="48.92367" lon="2.3669">
        <ele>92.6</ele>
        <time>2015-03-30T19:59:23.517Z</time>
      </trkpt>
      <trkpt lat="48.92362" lon="2.36693">
        <ele>92.5</ele>
        <time>2015-03-30T19:59:24.531Z</time>
      </trkpt>
      <trkpt lat="48.92358" lon="2.36697">
        <ele>92.2</ele>
        <time>2015-03-30T19:59:25.694Z</time>
      </trkpt>
      <trkpt lat="48.92354" lon="2.367">
        <ele>92.1</ele>
        <time>2015-03-30T19:59:26.568Z</time>
      </trkpt>
      <trkpt lat="48.92349" lon="2.36704">
        <ele>92.2</ele>
        <time>2015-03-30T19:59:27.593Z</time>
      </trkpt>
      <trkpt lat="48.92343" lon="2.36709">
        <ele>92.1</ele>
        <time>2015-03-30T19:59:28.505Z</time>
      </trkpt>
      <trkpt lat="48.92338" lon="2.36711">
        <ele>91.9</ele>
        <time>2015-03-30T19:59:29.493Z</time>
      </trkpt>
      <trkpt lat="48.92333" lon="2.36713">
        <ele>91.9</ele>
        <time>2015-03-30T19:59:30.514Z</time>
      </trkpt>
      <trkpt lat="48.92329" lon="2.36715">
        <ele>91.9</ele>
        <time>2015-03-30T19:59:31.544Z</time>
      </trkpt>
      <trkpt lat="48.92325" lon="2.36718">
        <ele>92</ele>
        <time>2015-03-30T19:59:32.558Z</time>
      </trkpt>
      <trkpt lat="48.9232" lon="2.36722">
        <ele>92.1</ele>
        <time>2015-03-30T19:59:33.561Z</time>
      </trkpt>
      <trkpt lat="48.92315" lon="2.36725">
        <ele>92.3</ele>
        <time>2015-03-30T19:59:34.157Z</time>
      </trkpt>
      <trkpt lat="48.92311" lon="2.36728">
        <ele>92.5</ele>
        <time>2015-03-30T19:59:35.511Z</time>
      </trkpt>
      <trkpt lat="48.92307" lon="2.36731">
        <ele>92.4</ele>
        <time>2015-03-30T19:59:36.512Z</time>
      </trkpt>
      <trkpt lat="48.92488" lon="2.36618">
        <ele>92.6</ele>
        <time>2015-03-30T19:59:37.568Z</time>
      </trkpt>
      <trkpt lat="48.9247" lon="2.36629">
        <ele>93</ele>
        <time>2015-03-30T19:59:38.514Z</time>
      </trkpt>
      <trkpt lat="48.92452" lon="2.36641">
        <ele>93.3</ele>
        <time>2015-03-30T19:59:39.513Z</time>
      </trkpt>
      <trkpt lat="48.92452" lon="2.36641">
        <ele>93.3</ele>
        <time>2015-03-30T19:59:39.806Z</time>
      </trkpt>
      <trkpt lat="48.92436" lon="2.3665">
        <ele>93.6</ele>
        <time>2015-03-30T19:59:40.530Z</time>
      </trkpt>
      <trkpt lat="48.9242" lon="2.36661">
        <ele>93.6</ele>
        <time>2015-03-30T19:59:41.539Z</time>
      </trkpt>
      <trkpt lat="48.92412" lon="2.36666">
        <ele>94.1</ele>
        <time>2015-03-30T19:59:43.588Z</time>
      </trkpt>
      <trkpt lat="48.92269" lon="2.36752">
        <ele>94.4</ele>
        <time>2015-03-30T19:59:44.559Z</time>
      </trkpt>
      <trkpt lat="48.92263" lon="2.36756">
        <ele>94.9</ele>
        <time>2015-03-30T19:59:45.493Z</time>
      </trkpt>
      <trkpt lat="48.92257" lon="2.3676">
        <ele>95.4</ele>
        <time>2015-03-30T19:59:46.508Z</time>
      </trkpt>
      <trkpt lat="48.92251" lon="2.36764">
        <ele>96.1</ele>
        <time>2015-03-30T19:59:47.529Z</time>
      </trkpt>
      <trkpt lat="48.92245" lon="2.36767">
        <ele>96.7</ele>
        <time>2015-03-30T19:59:48.537Z</time>
      </trkpt>
      <trkpt lat="48.9224" lon="2.36771">
        <ele>97</ele>
        <time>2015-03-30T19:59:49.979Z</time>
      </trkpt>
      <trkpt lat="48.92234" lon="2.36776">
        <ele>97.2</ele>
        <time>2015-03-30T19:59:50.576Z</time>
      </trkpt>
      <trkpt lat="48.92228" lon="2.36779">
        <ele>97.8</ele>
        <time>2015-03-30T19:59:51.494Z</time>
      </trkpt>
      <trkpt lat="48.92222" lon="2.36782">
        <ele>98.3</ele>
        <time>2015-03-30T19:59:52.496Z</time>
      </trkpt>
      <trkpt lat="48.92189" lon="2.36807">
        <ele>98.7</ele>
        <time>2015-03-30T19:59:53.497Z</time>
      </trkpt>
      <trkpt lat="48.92184" lon="2.36813">
        <ele>101</ele>
        <time>2015-03-30T19:59:55.603Z</time>
      </trkpt>
      <trkpt lat="48.92181" lon="2.36815">
        <ele>101.6</ele>
        <time>2015-03-30T19:59:56.525Z</time>
      </trkpt>
      <trkpt lat="48.92175" lon="2.36818">
        <ele>102</ele>
        <time>2015-03-30T19:59:58.557Z</time>
      </trkpt>
      <trkpt lat="48.92172" lon="2.36821">
        <ele>102.1</ele>
        <time>2015-03-30T19:59:59.667Z</time>
      </trkpt>
      <trkpt lat="48.92166" lon="2.36825">
        <ele>101.9</ele>
        <time>2015-03-30T20:00:01.561Z</time>
      </trkpt>
      <trkpt lat="48.92163" lon="2.36827">
        <ele>101.9</ele>
        <time>2015-03-30T20:00:02.577Z</time>
      </trkpt>
      <trkpt lat="48.92156" lon="2.36833">
        <ele>102</ele>
        <time>2015-03-30T20:00:04.485Z</time>
      </trkpt>
      <trkpt lat="48.92153" lon="2.36834">
        <ele>102</ele>
        <time>2015-03-30T20:00:05.501Z</time>
      </trkpt>
      <trkpt lat="48.92147" lon="2.3684">
        <ele>101.5</ele>
        <time>2015-03-30T20:00:07.564Z</time>
      </trkpt>
      <trkpt lat="48.92144" lon="2.36844">
        <ele>101</ele>
        <time>2015-03-30T20:00:08.586Z</time>
      </trkpt>
      <trkpt lat="48.92139" lon="2.36847">
        <ele>100.9</ele>
        <time>2015-03-30T20:00:09.482Z</time>
      </trkpt>
      <trkpt lat="48.92135" lon="2.3685">
        <ele>100.7</ele>
        <time>2015-03-30T20:00:10.486Z</time>
      </trkpt>
      <trkpt lat="48.92127" lon="2.36854">
        <ele>100.5</ele>
        <time>2015-03-30T20:00:12.527Z</time>
      </trkpt>
      <trkpt lat="48.92123" lon="2.36856">
        <ele>100.4</ele>
        <time>2015-03-30T20:00:13.537Z</time>
      </trkpt>
      <trkpt lat="48.92115" lon="2.36862">
        <ele>99.8</ele>
        <time>2015-03-30T20:00:15.466Z</time>
      </trkpt>
      <trkpt lat="48.9211" lon="2.36866">
        <ele>99.4</ele>
        <time>2015-03-30T20:00:16.474Z</time>
      </trkpt>
      <trkpt lat="48.92105" lon="2.3687">
        <ele>98.9</ele>
        <time>2015-03-30T20:00:17.518Z</time>
      </trkpt>
      <trkpt lat="48.921" lon="2.36874">
        <ele>98.8</ele>
        <time>2015-03-30T20:00:18.521Z</time>
      </trkpt>
      <trkpt lat="48.92095" lon="2.36878">
        <ele>98.5</ele>
        <time>2015-03-30T20:00:19.546Z</time>
      </trkpt>
      <trkpt lat="48.9209" lon="2.36881">
        <ele>98.7</ele>
        <time>2015-03-30T20:00:20.556Z</time>
      </trkpt>
      <trkpt lat="48.92085" lon="2.36884">
        <ele>98.3</ele>
        <time>2015-03-30T20:00:21.487Z</time>
      </trkpt>
      <trkpt lat="48.9208" lon="2.36888">
        <ele>98.4</ele>
        <time>2015-03-30T20:00:22.491Z</time>
      </trkpt>
      <trkpt lat="48.92075" lon="2.36891">
        <ele>98.5</ele>
        <time>2015-03-30T20:00:23.500Z</time>
      </trkpt>
      <trkpt lat="48.9207" lon="2.36895">
        <ele>99.2</ele>
        <time>2015-03-30T20:00:24.524Z</time>
      </trkpt>
      <trkpt lat="48.92065" lon="2.36898">
        <ele>99.3</ele>
        <time>2015-03-30T20:00:25.541Z</time>
      </trkpt>
      <trkpt lat="48.92061" lon="2.36902">
        <ele>99.5</ele>
        <time>2015-03-30T20:00:26.554Z</time>
      </trkpt>
      <trkpt lat="48.92056" lon="2.36911">
        <ele>99.4</ele>
        <time>2015-03-30T20:00:28.497Z</time>
      </trkpt>
      <trkpt lat="48.92054" lon="2.36916">
        <ele>99.2</ele>
        <time>2015-03-30T20:00:29.498Z</time>
      </trkpt>
      <trkpt lat="48.92047" lon="2.36921">
        <ele>98.6</ele>
        <time>2015-03-30T20:00:34.559Z</time>
      </trkpt>
      <trkpt lat="48.92044" lon="2.36923">
        <ele>98.7</ele>
        <time>2015-03-30T20:00:35.507Z</time>
      </trkpt>
      <trkpt lat="48.92037" lon="2.36921">
        <ele>98.9</ele>
        <time>2015-03-30T20:00:38.511Z</time>
      </trkpt>
      <trkpt lat="48.92034" lon="2.36922">
        <ele>98.8</ele>
        <time>2015-03-30T20:00:39.523Z</time>
      </trkpt>
      <trkpt lat="48.92031" lon="2.36925">
        <ele>98.6</ele>
        <time>2015-03-30T20:00:40.540Z</time>
      </trkpt>
      <trkpt lat="48.92023" lon="2.36929">
        <ele>100.2</ele>
        <time>2015-03-30T20:00:41.551Z</time>
      </trkpt>
      <trkpt lat="48.92018" lon="2.36933">
        <ele>100.6</ele>
        <time>2015-03-30T20:00:42.476Z</time>
      </trkpt>
      <trkpt lat="48.92014" lon="2.36944">
        <ele>100.8</ele>
        <time>2015-03-30T20:00:43.522Z</time>
      </trkpt>
      <trkpt lat="48.92009" lon="2.36954">
        <ele>98.2</ele>
        <time>2015-03-30T20:00:46.538Z</time>
      </trkpt>
      <trkpt lat="48.9201" lon="2.36956">
        <ele>97.9</ele>
        <time>2015-03-30T20:00:47.555Z</time>
      </trkpt>
      <trkpt lat="48.92006" lon="2.36945">
        <ele>94.7</ele>
        <time>2015-03-30T20:01:18.556Z</time>
      </trkpt>
      <trkpt lat="48.92004" lon="2.36945">
        <ele>94.3</ele>
        <time>2015-03-30T20:01:19.620Z</time>
      </trkpt>
      <trkpt lat="48.91995" lon="2.36943">
        <ele>94.2</ele>
        <time>2015-03-30T20:01:22.521Z</time>
      </trkpt>
      <trkpt lat="48.91993" lon="2.36942">
        <ele>94.5</ele>
        <time>2015-03-30T20:01:23.539Z</time>
      </trkpt>
      <trkpt lat="48.9199" lon="2.36942">
        <ele>94.5</ele>
        <time>2015-03-30T20:01:24.485Z</time>
      </trkpt>
      <trkpt lat="48.91965" lon="2.36963">
        <ele>96.5</ele>
        <time>2015-03-30T20:01:29.602Z</time>
      </trkpt>
      <trkpt lat="48.9196" lon="2.36966">
        <ele>96.5</ele>
        <time>2015-03-30T20:01:30.529Z</time>
      </trkpt>
      <trkpt lat="48.91955" lon="2.36969">
        <ele>96.3</ele>
        <time>2015-03-30T20:01:31.538Z</time>
      </trkpt>
      <trkpt lat="48.91951" lon="2.36972">
        <ele>96.4</ele>
        <time>2015-03-30T20:01:32.552Z</time>
      </trkpt>
      <trkpt lat="48.91947" lon="2.36976">
        <ele>96.6</ele>
        <time>2015-03-30T20:01:33.560Z</time>
      </trkpt>
      <trkpt lat="48.91943" lon="2.3698">
        <ele>96.8</ele>
        <time>2015-03-30T20:01:34.458Z</time>
      </trkpt>
      <trkpt lat="48.91938" lon="2.36984">
        <ele>97.2</ele>
        <time>2015-03-30T20:01:35.466Z</time>
      </trkpt>
      <trkpt lat="48.91933" lon="2.36988">
        <ele>97.7</ele>
        <time>2015-03-30T20:01:36.493Z</time>
      </trkpt>
      <trkpt lat="48.91929" lon="2.36992">
        <ele>98.2</ele>
        <time>2015-03-30T20:01:37.536Z</time>
      </trkpt>
      <trkpt lat="48.91924" lon="2.36996">
        <ele>99.8</ele>
        <time>2015-03-30T20:01:38.571Z</time>
      </trkpt>
      <trkpt lat="48.91919" lon="2.37001">
        <ele>101.5</ele>
        <time>2015-03-30T20:01:39.587Z</time>
      </trkpt>
      <trkpt lat="48.91913" lon="2.37007">
        <ele>101.4</ele>
        <time>2015-03-30T20:01:41.480Z</time>
      </trkpt>
      <trkpt lat="48.91911" lon="2.37009">
        <ele>100.7</ele>
        <time>2015-03-30T20:01:42.501Z</time>
      </trkpt>
      <trkpt lat="48.91904" lon="2.37002">
        <ele>100</ele>
        <time>2015-03-30T20:01:54.557Z</time>
      </trkpt>
      <trkpt lat="48.91902" lon="2.37002">
        <ele>99.8</ele>
        <time>2015-03-30T20:01:55.577Z</time>
      </trkpt>
      <trkpt lat="48.91896" lon="2.37006">
        <ele>99.6</ele>
        <time>2015-03-30T20:01:58.538Z</time>
      </trkpt>
      <trkpt lat="48.91894" lon="2.37008">
        <ele>99.6</ele>
        <time>2015-03-30T20:01:59.550Z</time>
      </trkpt>
      <trkpt lat="48.91887" lon="2.37012">
        <ele>99.5</ele>
        <time>2015-03-30T20:02:02.563Z</time>
      </trkpt>
      <trkpt lat="48.91885" lon="2.37014">
        <ele>99.4</ele>
        <time>2015-03-30T20:02:03.567Z</time>
      </trkpt>
      <trkpt lat="48.91878" lon="2.37017">
        <ele>98.9</ele>
        <time>2015-03-30T20:02:07.583Z</time>
      </trkpt>
      <trkpt lat="48.91875" lon="2.37019">
        <ele>99</ele>
        <time>2015-03-30T20:02:08.488Z</time>
      </trkpt>
      <trkpt lat="48.91868" lon="2.37023">
        <ele>99.2</ele>
        <time>2015-03-30T20:02:11.512Z</time>
      </trkpt>
      <trkpt lat="48.91865" lon="2.37024">
        <ele>99.7</ele>
        <time>2015-03-30T20:02:12.520Z</time>
      </trkpt>
      <trkpt lat="48.91859" lon="2.37032">
        <ele>101.1</ele>
        <time>2015-03-30T20:02:14.638Z</time>
      </trkpt>
      <trkpt lat="48.91856" lon="2.37036">
        <ele>101.5</ele>
        <time>2015-03-30T20:02:15.573Z</time>
      </trkpt>
      <trkpt lat="48.9185" lon="2.3704">
        <ele>101.4</ele>
        <time>2015-03-30T20:02:17.504Z</time>
      </trkpt>
      <trkpt lat="48.91848" lon="2.37042">
        <ele>100.9</ele>
        <time>2015-03-30T20:02:18.507Z</time>
      </trkpt>
      <trkpt lat="48.91839" lon="2.37043">
        <ele>100.7</ele>
        <time>2015-03-30T20:02:21.568Z</time>
      </trkpt>
      <trkpt lat="48.91837" lon="2.37044">
        <ele>100.7</ele>
        <time>2015-03-30T20:02:22.573Z</time>
      </trkpt>
      <trkpt lat="48.9183" lon="2.3705">
        <ele>100.7</ele>
        <time>2015-03-30T20:02:25.552Z</time>
      </trkpt>
      <trkpt lat="48.91828" lon="2.37053">
        <ele>100.6</ele>
        <time>2015-03-30T20:02:26.556Z</time>
      </trkpt>
      <trkpt lat="48.9182" lon="2.37058">
        <ele>100.4</ele>
        <time>2015-03-30T20:02:30.494Z</time>
      </trkpt>
      <trkpt lat="48.91817" lon="2.37058">
        <ele>100.3</ele>
        <time>2015-03-30T20:02:31.599Z</time>
      </trkpt>
      <trkpt lat="48.91808" lon="2.37058">
        <ele>99.1</ele>
        <time>2015-03-30T20:02:34.520Z</time>
      </trkpt>
      <trkpt lat="48.91805" lon="2.37056">
        <ele>98.8</ele>
        <time>2015-03-30T20:02:35.530Z</time>
      </trkpt>
      <trkpt lat="48.91797" lon="2.37055">
        <ele>98.6</ele>
        <time>2015-03-30T20:02:38.463Z</time>
      </trkpt>
      <trkpt lat="48.91794" lon="2.37056">
        <ele>98.2</ele>
        <time>2015-03-30T20:02:39.529Z</time>
      </trkpt>
      <trkpt lat="48.91787" lon="2.3706">
        <ele>97.2</ele>
        <time>2015-03-30T20:02:41.540Z</time>
      </trkpt>
      <trkpt lat="48.91994" lon="2.36948">
        <ele>96.9</ele>
        <time>2015-03-30T20:02:42.558Z</time>
      </trkpt>
      <trkpt lat="48.91989" lon="2.36952">
        <ele>96.6</ele>
        <time>2015-03-30T20:02:44.610Z</time>
      </trkpt>
      <trkpt lat="48.91975" lon="2.36958">
        <ele>96.6</ele>
        <time>2015-03-30T20:02:45.473Z</time>
      </trkpt>
      <trkpt lat="48.91957" lon="2.36968">
        <ele>96.5</ele>
        <time>2015-03-30T20:02:46.488Z</time>
      </trkpt>
      <trkpt lat="48.91941" lon="2.36976">
        <ele>96.2</ele>
        <time>2015-03-30T20:02:47.489Z</time>
      </trkpt>
      <trkpt lat="48.91925" lon="2.36985">
        <ele>96</ele>
        <time>2015-03-30T20:02:48.496Z</time>
      </trkpt>
      <trkpt lat="48.91925" lon="2.36985">
        <ele>96</ele>
        <time>2015-03-30T20:02:46.916Z</time>
      </trkpt>
      <trkpt lat="48.91909" lon="2.36996">
        <ele>95.6</ele>
        <time>2015-03-30T20:02:49.558Z</time>
      </trkpt>
      <trkpt lat="48.91892" lon="2.37006">
        <ele>95.4</ele>
        <time>2015-03-30T20:02:50.556Z</time>
      </trkpt>
      <trkpt lat="48.91878" lon="2.37015">
        <ele>95.1</ele>
        <time>2015-03-30T20:02:51.580Z</time>
      </trkpt>
      <trkpt lat="48.91878" lon="2.37016">
        <ele>95.1</ele>
        <time>2015-03-30T20:02:51.929Z</time>
      </trkpt>
      <trkpt lat="48.91864" lon="2.37026">
        <ele>94.7</ele>
        <time>2015-03-30T20:02:52.586Z</time>
      </trkpt>
      <trkpt lat="48.9185" lon="2.37034">
        <ele>94.8</ele>
        <time>2015-03-30T20:02:53.517Z</time>
      </trkpt>
      <trkpt lat="48.91838" lon="2.37041">
        <ele>94.8</ele>
        <time>2015-03-30T20:02:54.501Z</time>
      </trkpt>
      <trkpt lat="48.91827" lon="2.37049">
        <ele>94.7</ele>
        <time>2015-03-30T20:02:55.524Z</time>
      </trkpt>
      <trkpt lat="48.91816" lon="2.37056">
        <ele>94.4</ele>
        <time>2015-03-30T20:02:56.593Z</time>
      </trkpt>
      <trkpt lat="48.91817" lon="2.37056">
        <ele>94.4</ele>
        <time>2015-03-30T20:02:56.952Z</time>
      </trkpt>
      <trkpt lat="48.91806" lon="2.37062">
        <ele>94.2</ele>
        <time>2015-03-30T20:02:57.598Z</time>
      </trkpt>
      <trkpt lat="48.91798" lon="2.37068">
        <ele>94.1</ele>
        <time>2015-03-30T20:02:58.487Z</time>
      </trkpt>
      <trkpt lat="48.9179" lon="2.37071">
        <ele>93.9</ele>
        <time>2015-03-30T20:02:59.516Z</time>
      </trkpt>
      <trkpt lat="48.91783" lon="2.37076">
        <ele>93.6</ele>
        <time>2015-03-30T20:03:00.508Z</time>
      </trkpt>
      <trkpt lat="48.91777" lon="2.37081">
        <ele>93.7</ele>
        <time>2015-03-30T20:03:02.037Z</time>
      </trkpt>
      <trkpt lat="48.91769" lon="2.37084">
        <ele>93.9</ele>
        <time>2015-03-30T20:03:02.567Z</time>
      </trkpt>
      <trkpt lat="48.91763" lon="2.37087">
        <ele>93.7</ele>
        <time>2015-03-30T20:03:03.573Z</time>
      </trkpt>
      <trkpt lat="48.91756" lon="2.37091">
        <ele>93.4</ele>
        <time>2015-03-30T20:03:04.492Z</time>
      </trkpt>
      <trkpt lat="48.91751" lon="2.37094">
        <ele>93.2</ele>
        <time>2015-03-30T20:03:05.582Z</time>
      </trkpt>
      <trkpt lat="48.91745" lon="2.37097">
        <ele>92.9</ele>
        <time>2015-03-30T20:03:06.503Z</time>
      </trkpt>
      <trkpt lat="48.9174" lon="2.371">
        <ele>92.7</ele>
        <time>2015-03-30T20:03:07.528Z</time>
      </trkpt>
      <trkpt lat="48.91736" lon="2.37102">
        <ele>92.6</ele>
        <time>2015-03-30T20:03:08.542Z</time>
      </trkpt>
      <trkpt lat="48.91731" lon="2.37105">
        <ele>92.6</ele>
        <time>2015-03-30T20:03:09.556Z</time>
      </trkpt>
      <trkpt lat="48.91727" lon="2.37108">
        <ele>92.4</ele>
        <time>2015-03-30T20:03:10.557Z</time>
      </trkpt>
      <trkpt lat="48.91722" lon="2.3711">
        <ele>92.2</ele>
        <time>2015-03-30T20:03:12.071Z</time>
      </trkpt>
      <trkpt lat="48.91718" lon="2.37113">
        <ele>92</ele>
        <time>2015-03-30T20:03:12.592Z</time>
      </trkpt>
      <trkpt lat="48.9171" lon="2.37118">
        <ele>91.1</ele>
        <time>2015-03-30T20:03:14.506Z</time>
      </trkpt>
      <trkpt lat="48.91706" lon="2.3712">
        <ele>90.7</ele>
        <time>2015-03-30T20:03:15.487Z</time>
      </trkpt>
      <trkpt lat="48.91702" lon="2.37123">
        <ele>90.5</ele>
        <time>2015-03-30T20:03:16.560Z</time>
      </trkpt>
      <trkpt lat="48.91698" lon="2.37126">
        <ele>91.3</ele>
        <time>2015-03-30T20:03:17.581Z</time>
      </trkpt>
      <trkpt lat="48.91689" lon="2.37131">
        <ele>91.8</ele>
        <time>2015-03-30T20:03:19.584Z</time>
      </trkpt>
      <trkpt lat="48.91686" lon="2.37133">
        <ele>91.8</ele>
        <time>2015-03-30T20:03:20.485Z</time>
      </trkpt>
      <trkpt lat="48.91678" lon="2.37138">
        <ele>91.8</ele>
        <time>2015-03-30T20:03:22.535Z</time>
      </trkpt>
      <trkpt lat="48.91675" lon="2.3714">
        <ele>91.8</ele>
        <time>2015-03-30T20:03:23.558Z</time>
      </trkpt>
      <trkpt lat="48.91668" lon="2.37146">
        <ele>91.9</ele>
        <time>2015-03-30T20:03:26.241Z</time>
      </trkpt>
      <trkpt lat="48.91663" lon="2.37148">
        <ele>92</ele>
        <time>2015-03-30T20:03:26.463Z</time>
      </trkpt>
      <trkpt lat="48.91656" lon="2.37152">
        <ele>91.5</ele>
        <time>2015-03-30T20:03:28.504Z</time>
      </trkpt>
      <trkpt lat="48.91653" lon="2.37153">
        <ele>91.4</ele>
        <time>2015-03-30T20:03:29.500Z</time>
      </trkpt>
      <trkpt lat="48.91645" lon="2.37157">
        <ele>90.9</ele>
        <time>2015-03-30T20:03:32.558Z</time>
      </trkpt>
      <trkpt lat="48.91643" lon="2.37158">
        <ele>90.9</ele>
        <time>2015-03-30T20:03:33.566Z</time>
      </trkpt>
      <trkpt lat="48.91635" lon="2.37163">
        <ele>90.6</ele>
        <time>2015-03-30T20:03:37.547Z</time>
      </trkpt>
      <trkpt lat="48.91632" lon="2.37165">
        <ele>90.5</ele>
        <time>2015-03-30T20:03:38.560Z</time>
      </trkpt>
      <trkpt lat="48.91626" lon="2.37168">
        <ele>91.1</ele>
        <time>2015-03-30T20:03:41.593Z</time>
      </trkpt>
      <trkpt lat="48.91623" lon="2.37169">
        <ele>91.2</ele>
        <time>2015-03-30T20:03:42.548Z</time>
      </trkpt>
      <trkpt lat="48.91615" lon="2.37173">
        <ele>91.6</ele>
        <time>2015-03-30T20:03:46.610Z</time>
      </trkpt>
      <trkpt lat="48.91614" lon="2.37173">
        <ele>91.7</ele>
        <time>2015-03-30T20:03:47.513Z</time>
      </trkpt>
      <trkpt lat="48.91606" lon="2.37177">
        <ele>92.4</ele>
        <time>2015-03-30T20:03:51.680Z</time>
      </trkpt>
      <trkpt lat="48.91604" lon="2.37179">
        <ele>92.6</ele>
        <time>2015-03-30T20:03:52.555Z</time>
      </trkpt>
      <trkpt lat="48.91597" lon="2.37184">
        <ele>93.5</ele>
        <time>2015-03-30T20:03:55.595Z</time>
      </trkpt>
      <trkpt lat="48.91594" lon="2.37185">
        <ele>93.8</ele>
        <time>2015-03-30T20:03:56.509Z</time>
      </trkpt>
      <trkpt lat="48.91589" lon="2.37189">
        <ele>94.4</ele>
        <time>2015-03-30T20:03:58.631Z</time>
      </trkpt>
      <trkpt lat="48.91586" lon="2.37191">
        <ele>94.7</ele>
        <time>2015-03-30T20:03:59.575Z</time>
      </trkpt>
      <trkpt lat="48.9158" lon="2.37194">
        <ele>96</ele>
        <time>2015-03-30T20:04:01.800Z</time>
      </trkpt>
      <trkpt lat="48.91577" lon="2.37195">
        <ele>96.5</ele>
        <time>2015-03-30T20:04:02.507Z</time>
      </trkpt>
      <trkpt lat="48.91571" lon="2.37198">
        <ele>97</ele>
        <time>2015-03-30T20:04:04.522Z</time>
      </trkpt>
      <trkpt lat="48.91568" lon="2.372">
        <ele>97.1</ele>
        <time>2015-03-30T20:04:05.504Z</time>
      </trkpt>
      <trkpt lat="48.9156" lon="2.37203">
        <ele>97.5</ele>
        <time>2015-03-30T20:04:08.548Z</time>
      </trkpt>
      <trkpt lat="48.91557" lon="2.37204">
        <ele>97.5</ele>
        <time>2015-03-30T20:04:09.556Z</time>
      </trkpt>
      <trkpt lat="48.91549" lon="2.37206">
        <ele>97.3</ele>
        <time>2015-03-30T20:04:13.585Z</time>
      </trkpt>
      <trkpt lat="48.91546" lon="2.37207">
        <ele>97.2</ele>
        <time>2015-03-30T20:04:14.510Z</time>
      </trkpt>
      <trkpt lat="48.91538" lon="2.37211">
        <ele>95.1</ele>
        <time>2015-03-30T20:04:24.477Z</time>
      </trkpt>
      <trkpt lat="48.91534" lon="2.37213">
        <ele>94.9</ele>
        <time>2015-03-30T20:04:25.616Z</time>
      </trkpt>
      <trkpt lat="48.91529" lon="2.37216">
        <ele>94.1</ele>
        <time>2015-03-30T20:04:27.458Z</time>
      </trkpt>
      <trkpt lat="48.91526" lon="2.37218">
        <ele>93.9</ele>
        <time>2015-03-30T20:04:28.469Z</time>
      </trkpt>
      <trkpt lat="48.91524" lon="2.37224">
        <ele>93.9</ele>
        <time>2015-03-30T20:04:34.506Z</time>
      </trkpt>
      <trkpt lat="48.91488" lon="2.37251">
        <ele>94.5</ele>
        <time>2015-03-30T20:04:43.531Z</time>
      </trkpt>
      <trkpt lat="48.91481" lon="2.3726">
        <ele>93.7</ele>
        <time>2015-03-30T20:04:47.505Z</time>
      </trkpt>
      <trkpt lat="48.91478" lon="2.37261">
        <ele>93.6</ele>
        <time>2015-03-30T20:04:48.517Z</time>
      </trkpt>
      <trkpt lat="48.91471" lon="2.37265">
        <ele>93.8</ele>
        <time>2015-03-30T20:04:51.565Z</time>
      </trkpt>
      <trkpt lat="48.91468" lon="2.37266">
        <ele>93.9</ele>
        <time>2015-03-30T20:04:52.515Z</time>
      </trkpt>
      <trkpt lat="48.91464" lon="2.37268">
        <ele>94.4</ele>
        <time>2015-03-30T20:04:54.528Z</time>
      </trkpt>
      <trkpt lat="48.91513" lon="2.37236">
        <ele>94.6</ele>
        <time>2015-03-30T20:04:55.535Z</time>
      </trkpt>
      <trkpt lat="48.91506" lon="2.37242">
        <ele>95.4</ele>
        <time>2015-03-30T20:04:58.568Z</time>
      </trkpt>
      <trkpt lat="48.91503" lon="2.37244">
        <ele>95.5</ele>
        <time>2015-03-30T20:04:59.485Z</time>
      </trkpt>
      <trkpt lat="48.91497" lon="2.37251">
        <ele>95</ele>
        <time>2015-03-30T20:05:03.134Z</time>
      </trkpt>
      <trkpt lat="48.91494" lon="2.37252">
        <ele>95</ele>
        <time>2015-03-30T20:05:03.540Z</time>
      </trkpt>
      <trkpt lat="48.91486" lon="2.37257">
        <ele>94.9</ele>
        <time>2015-03-30T20:05:04.560Z</time>
      </trkpt>
      <trkpt lat="48.9148" lon="2.3726">
        <ele>94.1</ele>
        <time>2015-03-30T20:05:05.491Z</time>
      </trkpt>
      <trkpt lat="48.91475" lon="2.37263">
        <ele>93.7</ele>
        <time>2015-03-30T20:05:06.479Z</time>
      </trkpt>
      <trkpt lat="48.91469" lon="2.37266">
        <ele>93.7</ele>
        <time>2015-03-30T20:05:07.513Z</time>
      </trkpt>
      <trkpt lat="48.91464" lon="2.37269">
        <ele>93.6</ele>
        <time>2015-03-30T20:05:08.526Z</time>
      </trkpt>
      <trkpt lat="48.91461" lon="2.3727">
        <ele>93.3</ele>
        <time>2015-03-30T20:05:09.533Z</time>
      </trkpt>
      <trkpt lat="48.91455" lon="2.37275">
        <ele>93.1</ele>
        <time>2015-03-30T20:05:11.546Z</time>
      </trkpt>
      <trkpt lat="48.91452" lon="2.37276">
        <ele>92.9</ele>
        <time>2015-03-30T20:05:12.557Z</time>
      </trkpt>
      <trkpt lat="48.91447" lon="2.3728">
        <ele>92.9</ele>
        <time>2015-03-30T20:05:14.462Z</time>
      </trkpt>
      <trkpt lat="48.91443" lon="2.37283">
        <ele>92.9</ele>
        <time>2015-03-30T20:05:15.466Z</time>
      </trkpt>
      <trkpt lat="48.91437" lon="2.37288">
        <ele>92.6</ele>
        <time>2015-03-30T20:05:17.559Z</time>
      </trkpt>
      <trkpt lat="48.91434" lon="2.3729">
        <ele>92.2</ele>
        <time>2015-03-30T20:05:18.572Z</time>
      </trkpt>
      <trkpt lat="48.91427" lon="2.37296">
        <ele>91.6</ele>
        <time>2015-03-30T20:05:21.187Z</time>
      </trkpt>
      <trkpt lat="48.91424" lon="2.37296">
        <ele>91.4</ele>
        <time>2015-03-30T20:05:21.515Z</time>
      </trkpt>
      <trkpt lat="48.91416" lon="2.37299">
        <ele>91.4</ele>
        <time>2015-03-30T20:05:24.549Z</time>
      </trkpt>
      <trkpt lat="48.91413" lon="2.373">
        <ele>91.4</ele>
        <time>2015-03-30T20:05:25.567Z</time>
      </trkpt>
      <trkpt lat="48.91405" lon="2.37301">
        <ele>91.3</ele>
        <time>2015-03-30T20:05:31.439Z</time>
      </trkpt>
      <trkpt lat="48.91404" lon="2.37302">
        <ele>91.3</ele>
        <time>2015-03-30T20:05:31.534Z</time>
      </trkpt>
      <trkpt lat="48.91395" lon="2.37301">
        <ele>91.3</ele>
        <time>2015-03-30T20:05:49.583Z</time>
      </trkpt>
      <trkpt lat="48.91394" lon="2.37302">
        <ele>91.3</ele>
        <time>2015-03-30T20:05:50.586Z</time>
      </trkpt>
      <trkpt lat="48.91389" lon="2.37313">
        <ele>89.3</ele>
        <time>2015-03-30T20:05:55.576Z</time>
      </trkpt>
      <trkpt lat="48.91387" lon="2.37315">
        <ele>89.5</ele>
        <time>2015-03-30T20:05:56.505Z</time>
      </trkpt>
      <trkpt lat="48.91381" lon="2.37321">
        <ele>90.2</ele>
        <time>2015-03-30T20:06:00.512Z</time>
      </trkpt>
      <trkpt lat="48.91379" lon="2.37322">
        <ele>90.4</ele>
        <time>2015-03-30T20:06:01.588Z</time>
      </trkpt>
      <trkpt lat="48.91372" lon="2.37326">
        <ele>89.7</ele>
        <time>2015-03-30T20:06:05.516Z</time>
      </trkpt>
      <trkpt lat="48.91369" lon="2.37327">
        <ele>89.6</ele>
        <time>2015-03-30T20:06:06.524Z</time>
      </trkpt>
      <trkpt lat="48.91361" lon="2.3733">
        <ele>89.9</ele>
        <time>2015-03-30T20:06:10.493Z</time>
      </trkpt>
      <trkpt lat="48.91359" lon="2.37331">
        <ele>90</ele>
        <time>2015-03-30T20:06:11.493Z</time>
      </trkpt>
      <trkpt lat="48.91351" lon="2.37336">
        <ele>90.1</ele>
        <time>2015-03-30T20:06:14.551Z</time>
      </trkpt>
      <trkpt lat="48.91348" lon="2.37338">
        <ele>90.2</ele>
        <time>2015-03-30T20:06:15.767Z</time>
      </trkpt>
      <trkpt lat="48.91343" lon="2.37342">
        <ele>90.5</ele>
        <time>2015-03-30T20:06:17.504Z</time>
      </trkpt>
      <trkpt lat="48.9134" lon="2.37344">
        <ele>90.8</ele>
        <time>2015-03-30T20:06:18.510Z</time>
      </trkpt>
      <trkpt lat="48.91333" lon="2.37348">
        <ele>91.3</ele>
        <time>2015-03-30T20:06:21.531Z</time>
      </trkpt>
      <trkpt lat="48.91331" lon="2.37348">
        <ele>91.4</ele>
        <time>2015-03-30T20:06:22.540Z</time>
      </trkpt>
      <trkpt lat="48.91323" lon="2.37352">
        <ele>91.6</ele>
        <time>2015-03-30T20:06:26.228Z</time>
      </trkpt>
      <trkpt lat="48.9132" lon="2.37353">
        <ele>91.7</ele>
        <time>2015-03-30T20:06:26.507Z</time>
      </trkpt>
      <trkpt lat="48.91312" lon="2.37356">
        <ele>91.9</ele>
        <time>2015-03-30T20:06:31.282Z</time>
      </trkpt>
      <trkpt lat="48.9131" lon="2.37357">
        <ele>91.9</ele>
        <time>2015-03-30T20:06:31.607Z</time>
      </trkpt>
      <trkpt lat="48.91304" lon="2.37359">
        <ele>92.2</ele>
        <time>2015-03-30T20:06:34.496Z</time>
      </trkpt>
      <trkpt lat="48.91301" lon="2.3736">
        <ele>92.1</ele>
        <time>2015-03-30T20:06:35.501Z</time>
      </trkpt>
      <trkpt lat="48.91293" lon="2.37367">
        <ele>92.7</ele>
        <time>2015-03-30T20:06:39.505Z</time>
      </trkpt>
      <trkpt lat="48.91292" lon="2.37369">
        <ele>93</ele>
        <time>2015-03-30T20:06:40.529Z</time>
      </trkpt>
      <trkpt lat="48.91286" lon="2.37375">
        <ele>94.5</ele>
        <time>2015-03-30T20:06:43.588Z</time>
      </trkpt>
      <trkpt lat="48.91283" lon="2.37377">
        <ele>95</ele>
        <time>2015-03-30T20:06:44.556Z</time>
      </trkpt>
      <trkpt lat="48.91276" lon="2.37382">
        <ele>96.8</ele>
        <time>2015-03-30T20:06:48.494Z</time>
      </trkpt>
      <trkpt lat="48.91275" lon="2.37383">
        <ele>96.8</ele>
        <time>2015-03-30T20:06:49.542Z</time>
      </trkpt>
      <trkpt lat="48.91268" lon="2.37388">
        <ele>96.8</ele>
        <time>2015-03-30T20:06:58.470Z</time>
      </trkpt>
      <trkpt lat="48.91267" lon="2.37388">
        <ele>96.8</ele>
        <time>2015-03-30T20:06:59.486Z</time>
      </trkpt>
      <trkpt lat="48.91261" lon="2.37391">
        <ele>96.8</ele>
        <time>2015-03-30T20:07:11.803Z</time>
      </trkpt>
      <trkpt lat="48.91257" lon="2.37393">
        <ele>96.8</ele>
        <time>2015-03-30T20:07:12.537Z</time>
      </trkpt>
      <trkpt lat="48.91255" lon="2.37405">
        <ele>99</ele>
        <time>2015-03-30T20:07:47.512Z</time>
      </trkpt>
      <trkpt lat="48.91253" lon="2.37408">
        <ele>98.9</ele>
        <time>2015-03-30T20:07:48.568Z</time>
      </trkpt>
      <trkpt lat="48.91247" lon="2.37418">
        <ele>98.9</ele>
        <time>2015-03-30T20:07:52.488Z</time>
      </trkpt>
      <trkpt lat="48.91247" lon="2.3742">
        <ele>98.9</ele>
        <time>2015-03-30T20:07:53.491Z</time>
      </trkpt>
      <trkpt lat="48.9124" lon="2.37429">
        <ele>97.8</ele>
        <time>2015-03-30T20:08:00.495Z</time>
      </trkpt>
      <trkpt lat="48.91238" lon="2.37429">
        <ele>97.9</ele>
        <time>2015-03-30T20:08:01.545Z</time>
      </trkpt>
      <trkpt lat="48.91231" lon="2.37434">
        <ele>98.3</ele>
        <time>2015-03-30T20:08:04.472Z</time>
      </trkpt>
      <trkpt lat="48.91229" lon="2.37436">
        <ele>98.5</ele>
        <time>2015-03-30T20:08:05.494Z</time>
      </trkpt>
      <trkpt lat="48.91222" lon="2.37442">
        <ele>99.1</ele>
        <time>2015-03-30T20:08:08.485Z</time>
      </trkpt>
      <trkpt lat="48.91219" lon="2.37443">
        <ele>99.1</ele>
        <time>2015-03-30T20:08:09.497Z</time>
      </trkpt>
      <trkpt lat="48.91211" lon="2.37448">
        <ele>99</ele>
        <time>2015-03-30T20:08:12.521Z</time>
      </trkpt>
      <trkpt lat="48.91209" lon="2.37449">
        <ele>99.1</ele>
        <time>2015-03-30T20:08:13.547Z</time>
      </trkpt>
      <trkpt lat="48.91201" lon="2.37455">
        <ele>99.8</ele>
        <time>2015-03-30T20:08:16.461Z</time>
      </trkpt>
      <trkpt lat="48.91199" lon="2.37458">
        <ele>100.1</ele>
        <time>2015-03-30T20:08:17.473Z</time>
      </trkpt>
      <trkpt lat="48.91193" lon="2.37466">
        <ele>100.1</ele>
        <time>2015-03-30T20:08:21.180Z</time>
      </trkpt>
      <trkpt lat="48.91189" lon="2.37468">
        <ele>100.1</ele>
        <time>2015-03-30T20:08:21.519Z</time>
      </trkpt>
      <trkpt lat="48.91183" lon="2.37472">
        <ele>100</ele>
        <time>2015-03-30T20:08:23.535Z</time>
      </trkpt>
      <trkpt lat="48.91181" lon="2.37474">
        <ele>100.1</ele>
        <time>2015-03-30T20:08:24.541Z</time>
      </trkpt>
      <trkpt lat="48.91175" lon="2.37478">
        <ele>99.5</ele>
        <time>2015-03-30T20:08:26.468Z</time>
      </trkpt>
      <trkpt lat="48.91172" lon="2.37479">
        <ele>99.4</ele>
        <time>2015-03-30T20:08:27.481Z</time>
      </trkpt>
      <trkpt lat="48.91166" lon="2.37481">
        <ele>98.7</ele>
        <time>2015-03-30T20:08:29.470Z</time>
      </trkpt>
      <trkpt lat="48.91163" lon="2.37484">
        <ele>98.7</ele>
        <time>2015-03-30T20:08:30.471Z</time>
      </trkpt>
      <trkpt lat="48.91158" lon="2.37488">
        <ele>98.9</ele>
        <time>2015-03-30T20:08:32.518Z</time>
      </trkpt>
      <trkpt lat="48.91155" lon="2.37489">
        <ele>98.7</ele>
        <time>2015-03-30T20:08:33.539Z</time>
      </trkpt>
      <trkpt lat="48.91147" lon="2.37495">
        <ele>98.8</ele>
        <time>2015-03-30T20:08:36.464Z</time>
      </trkpt>
      <trkpt lat="48.91144" lon="2.37497">
        <ele>98.5</ele>
        <time>2015-03-30T20:08:37.580Z</time>
      </trkpt>
      <trkpt lat="48.91137" lon="2.37502">
        <ele>98.3</ele>
        <time>2015-03-30T20:08:39.558Z</time>
      </trkpt>
      <trkpt lat="48.91133" lon="2.37503">
        <ele>98</ele>
        <time>2015-03-30T20:08:40.592Z</time>
      </trkpt>
      <trkpt lat="48.91127" lon="2.37507">
        <ele>98.1</ele>
        <time>2015-03-30T20:08:42.558Z</time>
      </trkpt>
      <trkpt lat="48.91124" lon="2.37509">
        <ele>98.3</ele>
        <time>2015-03-30T20:08:43.514Z</time>
      </trkpt>
      <trkpt lat="48.91118" lon="2.37513">
        <ele>98.8</ele>
        <time>2015-03-30T20:08:45.716Z</time>
      </trkpt>
      <trkpt lat="48.91114" lon="2.37515">
        <ele>99</ele>
        <time>2015-03-30T20:08:46.444Z</time>
      </trkpt>
      <trkpt lat="48.91108" lon="2.3752">
        <ele>98.6</ele>
        <time>2015-03-30T20:08:48.474Z</time>
      </trkpt>
      <trkpt lat="48.91104" lon="2.37522">
        <ele>98.4</ele>
        <time>2015-03-30T20:08:49.536Z</time>
      </trkpt>
      <trkpt lat="48.91097" lon="2.37527">
        <ele>98.4</ele>
        <time>2015-03-30T20:08:51.670Z</time>
      </trkpt>
      <trkpt lat="48.91093" lon="2.37529">
        <ele>98.3</ele>
        <time>2015-03-30T20:08:52.572Z</time>
      </trkpt>
      <trkpt lat="48.91087" lon="2.37533">
        <ele>98</ele>
        <time>2015-03-30T20:08:54.496Z</time>
      </trkpt>
      <trkpt lat="48.91075" lon="2.37538">
        <ele>97.9</ele>
        <time>2015-03-30T20:08:55.609Z</time>
      </trkpt>
      <trkpt lat="48.91072" lon="2.3754">
        <ele>97.6</ele>
        <time>2015-03-30T20:08:56.925Z</time>
      </trkpt>
      <trkpt lat="48.91064" lon="2.37543">
        <ele>97.3</ele>
        <time>2015-03-30T20:08:57.582Z</time>
      </trkpt>
      <trkpt lat="48.91057" lon="2.37545">
        <ele>97.5</ele>
        <time>2015-03-30T20:08:58.510Z</time>
      </trkpt>
      <trkpt lat="48.91051" lon="2.37547">
        <ele>97.3</ele>
        <time>2015-03-30T20:08:59.529Z</time>
      </trkpt>
      <trkpt lat="48.91046" lon="2.37548">
        <ele>96.4</ele>
        <time>2015-03-30T20:09:00.540Z</time>
      </trkpt>
      <trkpt lat="48.91041" lon="2.37549">
        <ele>96.7</ele>
        <time>2015-03-30T20:09:01.560Z</time>
      </trkpt>
      <trkpt lat="48.91034" lon="2.37552">
        <ele>95.9</ele>
        <time>2015-03-30T20:09:03.487Z</time>
      </trkpt>
      <trkpt lat="48.9103" lon="2.37554">
        <ele>95.4</ele>
        <time>2015-03-30T20:09:04.497Z</time>
      </trkpt>
      <trkpt lat="48.91025" lon="2.37557">
        <ele>95.3</ele>
        <time>2015-03-30T20:09:07.089Z</time>
      </trkpt>
      <trkpt lat="48.91021" lon="2.37559">
        <ele>95.4</ele>
        <time>2015-03-30T20:09:07.546Z</time>
      </trkpt>
      <trkpt lat="48.91014" lon="2.37563">
        <ele>95.3</ele>
        <time>2015-03-30T20:09:09.488Z</time>
      </trkpt>
      <trkpt lat="48.91011" lon="2.37565">
        <ele>95.4</ele>
        <time>2015-03-30T20:09:10.483Z</time>
      </trkpt>
      <trkpt lat="48.91005" lon="2.37568">
        <ele>95.6</ele>
        <time>2015-03-30T20:09:12.538Z</time>
      </trkpt>
      <trkpt lat="48.91002" lon="2.3757">
        <ele>95.5</ele>
        <time>2015-03-30T20:09:13.530Z</time>
      </trkpt>
      <trkpt lat="48.90994" lon="2.37575">
        <ele>95.7</ele>
        <time>2015-03-30T20:09:16.469Z</time>
      </trkpt>
      <trkpt lat="48.90991" lon="2.37576">
        <ele>95.8</ele>
        <time>2015-03-30T20:09:17.468Z</time>
      </trkpt>
      <trkpt lat="48.90984" lon="2.37579">
        <ele>95.9</ele>
        <time>2015-03-30T20:09:19.581Z</time>
      </trkpt>
      <trkpt lat="48.90981" lon="2.37581">
        <ele>95.9</ele>
        <time>2015-03-30T20:09:20.500Z</time>
      </trkpt>
      <trkpt lat="48.90975" lon="2.37585">
        <ele>95.8</ele>
        <time>2015-03-30T20:09:23.539Z</time>
      </trkpt>
      <trkpt lat="48.90972" lon="2.37586">
        <ele>95.5</ele>
        <time>2015-03-30T20:09:24.544Z</time>
      </trkpt>
      <trkpt lat="48.90965" lon="2.37591">
        <ele>94.8</ele>
        <time>2015-03-30T20:09:27.501Z</time>
      </trkpt>
      <trkpt lat="48.90963" lon="2.37593">
        <ele>94.7</ele>
        <time>2015-03-30T20:09:28.507Z</time>
      </trkpt>
      <trkpt lat="48.90956" lon="2.37597">
        <ele>95.3</ele>
        <time>2015-03-30T20:09:31.507Z</time>
      </trkpt>
      <trkpt lat="48.90954" lon="2.37598">
        <ele>95.5</ele>
        <time>2015-03-30T20:09:32.631Z</time>
      </trkpt>
      <trkpt lat="48.90947" lon="2.37604">
        <ele>96.9</ele>
        <time>2015-03-30T20:09:40.486Z</time>
      </trkpt>
      <trkpt lat="48.90946" lon="2.37606">
        <ele>98.1</ele>
        <time>2015-03-30T20:09:41.643Z</time>
      </trkpt>
      <trkpt lat="48.90942" lon="2.37608">
        <ele>96.9</ele>
        <time>2015-03-30T20:09:46.863Z</time>
      </trkpt>
      <trkpt lat="48.90936" lon="2.37608">
        <ele>96.9</ele>
        <time>2015-03-30T20:09:47.500Z</time>
      </trkpt>
      <trkpt lat="48.9093" lon="2.37608">
        <ele>96.8</ele>
        <time>2015-03-30T20:09:48.564Z</time>
      </trkpt>
      <trkpt lat="48.90925" lon="2.37609">
        <ele>96.7</ele>
        <time>2015-03-30T20:09:49.570Z</time>
      </trkpt>
      <trkpt lat="48.90916" lon="2.37612">
        <ele>96.6</ele>
        <time>2015-03-30T20:09:51.959Z</time>
      </trkpt>
      <trkpt lat="48.90912" lon="2.37612">
        <ele>96.3</ele>
        <time>2015-03-30T20:09:52.569Z</time>
      </trkpt>
      <trkpt lat="48.90903" lon="2.37615">
        <ele>96.6</ele>
        <time>2015-03-30T20:09:54.500Z</time>
      </trkpt>
      <trkpt lat="48.90899" lon="2.37617">
        <ele>96.5</ele>
        <time>2015-03-30T20:09:55.553Z</time>
      </trkpt>
      <trkpt lat="48.90892" lon="2.3762">
        <ele>96.8</ele>
        <time>2015-03-30T20:09:57.784Z</time>
      </trkpt>
      <trkpt lat="48.90888" lon="2.37623">
        <ele>96.9</ele>
        <time>2015-03-30T20:09:58.521Z</time>
      </trkpt>
      <trkpt lat="48.9088" lon="2.37627">
        <ele>96.9</ele>
        <time>2015-03-30T20:10:00.502Z</time>
      </trkpt>
      <trkpt lat="48.90877" lon="2.37629">
        <ele>96.7</ele>
        <time>2015-03-30T20:10:01.520Z</time>
      </trkpt>
      <trkpt lat="48.90869" lon="2.37634">
        <ele>96.8</ele>
        <time>2015-03-30T20:10:03.572Z</time>
      </trkpt>
      <trkpt lat="48.90865" lon="2.37636">
        <ele>96.8</ele>
        <time>2015-03-30T20:10:04.488Z</time>
      </trkpt>
      <trkpt lat="48.90859" lon="2.3764">
        <ele>96.8</ele>
        <time>2015-03-30T20:10:07.175Z</time>
      </trkpt>
      <trkpt lat="48.90855" lon="2.37642">
        <ele>97.3</ele>
        <time>2015-03-30T20:10:07.537Z</time>
      </trkpt>
      <trkpt lat="48.90848" lon="2.37647">
        <ele>97.6</ele>
        <time>2015-03-30T20:10:09.492Z</time>
      </trkpt>
      <trkpt lat="48.90845" lon="2.37649">
        <ele>97.9</ele>
        <time>2015-03-30T20:10:10.518Z</time>
      </trkpt>
      <trkpt lat="48.90837" lon="2.37655">
        <ele>98.4</ele>
        <time>2015-03-30T20:10:12.458Z</time>
      </trkpt>
      <trkpt lat="48.90833" lon="2.37657">
        <ele>98.9</ele>
        <time>2015-03-30T20:10:13.534Z</time>
      </trkpt>
      <trkpt lat="48.90826" lon="2.37662">
        <ele>100.1</ele>
        <time>2015-03-30T20:10:15.522Z</time>
      </trkpt>
      <trkpt lat="48.90823" lon="2.37665">
        <ele>99.7</ele>
        <time>2015-03-30T20:10:16.542Z</time>
      </trkpt>
      <trkpt lat="48.90816" lon="2.37669">
        <ele>100.1</ele>
        <time>2015-03-30T20:10:16.150Z</time>
      </trkpt>
      <trkpt lat="48.90813" lon="2.37671">
        <ele>100.3</ele>
        <time>2015-03-30T20:10:19.576Z</time>
      </trkpt>
      <trkpt lat="48.90805" lon="2.37675">
        <ele>100.5</ele>
        <time>2015-03-30T20:10:22.496Z</time>
      </trkpt>
      <trkpt lat="48.90802" lon="2.37676">
        <ele>100.7</ele>
        <time>2015-03-30T20:10:23.517Z</time>
      </trkpt>
      <trkpt lat="48.90796" lon="2.37684">
        <ele>100.2</ele>
        <time>2015-03-30T20:10:31.525Z</time>
      </trkpt>
      <trkpt lat="48.90794" lon="2.37685">
        <ele>99.9</ele>
        <time>2015-03-30T20:10:32.560Z</time>
      </trkpt>
      <trkpt lat="48.90789" lon="2.37689">
        <ele>100.3</ele>
        <time>2015-03-30T20:10:36.398Z</time>
      </trkpt>
      <trkpt lat="48.90786" lon="2.37691">
        <ele>100.6</ele>
        <time>2015-03-30T20:10:36.485Z</time>
      </trkpt>
      <trkpt lat="48.90779" lon="2.37697">
        <ele>103</ele>
        <time>2015-03-30T20:10:39.449Z</time>
      </trkpt>
      <trkpt lat="48.90775" lon="2.377">
        <ele>103.4</ele>
        <time>2015-03-30T20:10:40.457Z</time>
      </trkpt>
      <trkpt lat="48.90769" lon="2.37706">
        <ele>104.3</ele>
        <time>2015-03-30T20:10:42.480Z</time>
      </trkpt>
      <trkpt lat="48.90754" lon="2.37714">
        <ele>104.6</ele>
        <time>2015-03-30T20:10:43.516Z</time>
      </trkpt>
      <trkpt lat="48.90718" lon="2.37732">
        <ele>104.8</ele>
        <time>2015-03-30T20:10:44.441Z</time>
      </trkpt>
      <trkpt lat="48.90704" lon="2.3774">
        <ele>105.3</ele>
        <time>2015-03-30T20:10:45.478Z</time>
      </trkpt>
      <trkpt lat="48.90697" lon="2.37744">
        <ele>105.9</ele>
        <time>2015-03-30T20:10:46.476Z</time>
      </trkpt>
      <trkpt lat="48.90688" lon="2.37751">
        <ele>106.2</ele>
        <time>2015-03-30T20:10:47.485Z</time>
      </trkpt>
      <trkpt lat="48.90682" lon="2.37755">
        <ele>106</ele>
        <time>2015-03-30T20:10:49.491Z</time>
      </trkpt>
      <trkpt lat="48.90679" lon="2.37757">
        <ele>106</ele>
        <time>2015-03-30T20:10:50.500Z</time>
      </trkpt>
      <trkpt lat="48.90673" lon="2.37761">
        <ele>106.3</ele>
        <time>2015-03-30T20:10:53.506Z</time>
      </trkpt>
      <trkpt lat="48.90664" lon="2.37769">
        <ele>106.4</ele>
        <time>2015-03-30T20:10:54.506Z</time>
      </trkpt>
      <trkpt lat="48.90663" lon="2.37768">
        <ele>106.2</ele>
        <time>2015-03-30T20:10:55.549Z</time>
      </trkpt>
      <trkpt lat="48.90654" lon="2.37773">
        <ele>106.2</ele>
        <time>2015-03-30T20:10:56.561Z</time>
      </trkpt>
      <trkpt lat="48.90647" lon="2.37776">
        <ele>106.6</ele>
        <time>2015-03-30T20:10:58.534Z</time>
      </trkpt>
      <trkpt lat="48.90644" lon="2.37778">
        <ele>106.5</ele>
        <time>2015-03-30T20:10:59.504Z</time>
      </trkpt>
      <trkpt lat="48.90639" lon="2.3778">
        <ele>106.9</ele>
        <time>2015-03-30T20:11:02.549Z</time>
      </trkpt>
      <trkpt lat="48.90636" lon="2.37782">
        <ele>107.1</ele>
        <time>2015-03-30T20:11:03.523Z</time>
      </trkpt>
      <trkpt lat="48.90629" lon="2.37786">
        <ele>107</ele>
        <time>2015-03-30T20:11:05.468Z</time>
      </trkpt>
      <trkpt lat="48.90625" lon="2.37789">
        <ele>107.2</ele>
        <time>2015-03-30T20:11:06.458Z</time>
      </trkpt>
      <trkpt lat="48.90621" lon="2.37793">
        <ele>107.2</ele>
        <time>2015-03-30T20:11:07.532Z</time>
      </trkpt>
      <trkpt lat="48.90617" lon="2.37797">
        <ele>108.4</ele>
        <time>2015-03-30T20:11:08.554Z</time>
      </trkpt>
      <trkpt lat="48.90613" lon="2.37801">
        <ele>108.7</ele>
        <time>2015-03-30T20:11:09.489Z</time>
      </trkpt>
      <trkpt lat="48.90607" lon="2.37807">
        <ele>108.7</ele>
        <time>2015-03-30T20:11:10.489Z</time>
      </trkpt>
      <trkpt lat="48.90598" lon="2.37811">
        <ele>107.9</ele>
        <time>2015-03-30T20:11:16.132Z</time>
      </trkpt>
      <trkpt lat="48.90597" lon="2.37812">
        <ele>107.9</ele>
        <time>2015-03-30T20:11:16.498Z</time>
      </trkpt>
      <trkpt lat="48.90588" lon="2.37814">
        <ele>103.4</ele>
        <time>2015-03-30T20:12:02.563Z</time>
      </trkpt>
      <trkpt lat="48.90587" lon="2.37817">
        <ele>103.8</ele>
        <time>2015-03-30T20:12:03.473Z</time>
      </trkpt>
      <trkpt lat="48.90579" lon="2.3782">
        <ele>104.5</ele>
        <time>2015-03-30T20:12:07.590Z</time>
      </trkpt>
      <trkpt lat="48.90577" lon="2.37822">
        <ele>104.4</ele>
        <time>2015-03-30T20:12:08.499Z</time>
      </trkpt>
      <trkpt lat="48.90569" lon="2.37825">
        <ele>104.6</ele>
        <time>2015-03-30T20:12:13.507Z</time>
      </trkpt>
      <trkpt lat="48.90567" lon="2.37825">
        <ele>104.6</ele>
        <time>2015-03-30T20:12:14.522Z</time>
      </trkpt>
      <trkpt lat="48.9056" lon="2.37822">
        <ele>104.8</ele>
        <time>2015-03-30T20:12:18.493Z</time>
      </trkpt>
      <trkpt lat="48.90558" lon="2.37823">
        <ele>104.6</ele>
        <time>2015-03-30T20:12:19.610Z</time>
      </trkpt>
      <trkpt lat="48.9055" lon="2.37825">
        <ele>103.5</ele>
        <time>2015-03-30T20:12:23.513Z</time>
      </trkpt>
      <trkpt lat="48.90547" lon="2.37825">
        <ele>103.4</ele>
        <time>2015-03-30T20:12:24.596Z</time>
      </trkpt>
      <trkpt lat="48.9054" lon="2.37828">
        <ele>103</ele>
        <time>2015-03-30T20:12:27.488Z</time>
      </trkpt>
      <trkpt lat="48.90538" lon="2.3783">
        <ele>102.8</ele>
        <time>2015-03-30T20:12:28.486Z</time>
      </trkpt>
      <trkpt lat="48.90532" lon="2.37835">
        <ele>102.4</ele>
        <time>2015-03-30T20:12:31.518Z</time>
      </trkpt>
      <trkpt lat="48.90529" lon="2.37836">
        <ele>102.5</ele>
        <time>2015-03-30T20:12:32.682Z</time>
      </trkpt>
      <trkpt lat="48.90521" lon="2.37834">
        <ele>102.4</ele>
        <time>2015-03-30T20:12:38.605Z</time>
      </trkpt>
      <trkpt lat="48.90515" lon="2.37839">
        <ele>102.2</ele>
        <time>2015-03-30T20:12:39.467Z</time>
      </trkpt>
      <trkpt lat="48.9051" lon="2.37844">
        <ele>101.8</ele>
        <time>2015-03-30T20:12:40.494Z</time>
      </trkpt>
      <trkpt lat="48.90507" lon="2.37848">
        <ele>101.5</ele>
        <time>2015-03-30T20:12:41.498Z</time>
      </trkpt>
      <trkpt lat="48.905" lon="2.37854">
        <ele>101.2</ele>
        <time>2015-03-30T20:12:43.546Z</time>
      </trkpt>
      <trkpt lat="48.90497" lon="2.37856">
        <ele>101</ele>
        <time>2015-03-30T20:12:44.543Z</time>
      </trkpt>
      <trkpt lat="48.90491" lon="2.37865">
        <ele>101.2</ele>
        <time>2015-03-30T20:12:48.490Z</time>
      </trkpt>
      <trkpt lat="48.90489" lon="2.37866">
        <ele>101.2</ele>
        <time>2015-03-30T20:12:49.516Z</time>
      </trkpt>
      <trkpt lat="48.90486" lon="2.37874">
        <ele>101.2</ele>
        <time>2015-03-30T20:12:56.622Z</time>
      </trkpt>
      <trkpt lat="48.90487" lon="2.37882">
        <ele>101.2</ele>
        <time>2015-03-30T20:12:57.493Z</time>
      </trkpt>
      <trkpt lat="48.90482" lon="2.37873">
        <ele>101.2</ele>
        <time>2015-03-30T20:13:46.497Z</time>
      </trkpt>
      <trkpt lat="48.90479" lon="2.37873">
        <ele>101.4</ele>
        <time>2015-03-30T20:13:47.501Z</time>
      </trkpt>
      <trkpt lat="48.90472" lon="2.37874">
        <ele>101.5</ele>
        <time>2015-03-30T20:13:49.570Z</time>
      </trkpt>
      <trkpt lat="48.9047" lon="2.37875">
        <ele>101.6</ele>
        <time>2015-03-30T20:13:50.466Z</time>
      </trkpt>
      <trkpt lat="48.90461" lon="2.37877">
        <ele>102</ele>
        <time>2015-03-30T20:13:53.541Z</time>
      </trkpt>
      <trkpt lat="48.90458" lon="2.37878">
        <ele>102</ele>
        <time>2015-03-30T20:13:54.565Z</time>
      </trkpt>
      <trkpt lat="48.9045" lon="2.37882">
        <ele>102.4</ele>
        <time>2015-03-30T20:13:57.522Z</time>
      </trkpt>
      <trkpt lat="48.90449" lon="2.37884">
        <ele>102.7</ele>
        <time>2015-03-30T20:13:58.521Z</time>
      </trkpt>
      <trkpt lat="48.90442" lon="2.3789">
        <ele>102.7</ele>
        <time>2015-03-30T20:14:08.456Z</time>
      </trkpt>
      <trkpt lat="48.90438" lon="2.37895">
        <ele>102.7</ele>
        <time>2015-03-30T20:14:09.483Z</time>
      </trkpt>
      <trkpt lat="48.90429" lon="2.37893">
        <ele>100.5</ele>
        <time>2015-03-30T20:14:21.505Z</time>
      </trkpt>
      <trkpt lat="48.90428" lon="2.37894">
        <ele>100.4</ele>
        <time>2015-03-30T20:14:22.654Z</time>
      </trkpt>
      <trkpt lat="48.9042" lon="2.37897">
        <ele>99.9</ele>
        <time>2015-03-30T20:14:26.244Z</time>
      </trkpt>
      <trkpt lat="48.90418" lon="2.37899">
        <ele>99.7</ele>
        <time>2015-03-30T20:14:26.560Z</time>
      </trkpt>
      <trkpt lat="48.90411" lon="2.37904">
        <ele>99.5</ele>
        <time>2015-03-30T20:14:30.503Z</time>
      </trkpt>
      <trkpt lat="48.90408" lon="2.37906">
        <ele>99.5</ele>
        <time>2015-03-30T20:14:31.560Z</time>
      </trkpt>
      <trkpt lat="48.90402" lon="2.3791">
        <ele>98.5</ele>
        <time>2015-03-30T20:14:34.501Z</time>
      </trkpt>
      <trkpt lat="48.90399" lon="2.37912">
        <ele>98.2</ele>
        <time>2015-03-30T20:14:35.522Z</time>
      </trkpt>
      <trkpt lat="48.90391" lon="2.37915">
        <ele>99.3</ele>
        <time>2015-03-30T20:14:38.486Z</time>
      </trkpt>
      <trkpt lat="48.90388" lon="2.37917">
        <ele>99.6</ele>
        <time>2015-03-30T20:14:39.502Z</time>
      </trkpt>
      <trkpt lat="48.90382" lon="2.37922">
        <ele>99.9</ele>
        <time>2015-03-30T20:14:41.553Z</time>
      </trkpt>
      <trkpt lat="48.9038" lon="2.37924">
        <ele>100.4</ele>
        <time>2015-03-30T20:14:42.520Z</time>
      </trkpt>
      <trkpt lat="48.90372" lon="2.37931">
        <ele>101.6</ele>
        <time>2015-03-30T20:14:45.519Z</time>
      </trkpt>
      <trkpt lat="48.90369" lon="2.37933">
        <ele>101.6</ele>
        <time>2015-03-30T20:14:46.523Z</time>
      </trkpt>
      <trkpt lat="48.90362" lon="2.3794">
        <ele>101.3</ele>
        <time>2015-03-30T20:14:49.585Z</time>
      </trkpt>
      <trkpt lat="48.9036" lon="2.37941">
        <ele>101.4</ele>
        <time>2015-03-30T20:14:50.501Z</time>
      </trkpt>
      <trkpt lat="48.90353" lon="2.37946">
        <ele>101.3</ele>
        <time>2015-03-30T20:14:53.503Z</time>
      </trkpt>
      <trkpt lat="48.90351" lon="2.37948">
        <ele>101.3</ele>
        <time>2015-03-30T20:14:54.509Z</time>
      </trkpt>
      <trkpt lat="48.90346" lon="2.37952">
        <ele>101</ele>
        <time>2015-03-30T20:14:56.642Z</time>
      </trkpt>
      <trkpt lat="48.90343" lon="2.37954">
        <ele>100.8</ele>
        <time>2015-03-30T20:14:57.483Z</time>
      </trkpt>
      <trkpt lat="48.90336" lon="2.37959">
        <ele>100.8</ele>
        <time>2015-03-30T20:15:00.513Z</time>
      </trkpt>
      <trkpt lat="48.90335" lon="2.3796">
        <ele>100.8</ele>
        <time>2015-03-30T20:15:01.573Z</time>
      </trkpt>
      <trkpt lat="48.90329" lon="2.37965">
        <ele>100.8</ele>
        <time>2015-03-30T20:15:18.560Z</time>
      </trkpt>
      <trkpt lat="48.90316" lon="2.37968">
        <ele>100.1</ele>
        <time>2015-03-30T20:15:19.585Z</time>
      </trkpt>
      <trkpt lat="48.90307" lon="2.37972">
        <ele>99.8</ele>
        <time>2015-03-30T20:15:23.535Z</time>
      </trkpt>
      <trkpt lat="48.90305" lon="2.37973">
        <ele>99.7</ele>
        <time>2015-03-30T20:15:24.538Z</time>
      </trkpt>
      <trkpt lat="48.90297" lon="2.37977">
        <ele>99.6</ele>
        <time>2015-03-30T20:15:27.478Z</time>
      </trkpt>
      <trkpt lat="48.90294" lon="2.37979">
        <ele>99.6</ele>
        <time>2015-03-30T20:15:28.500Z</time>
      </trkpt>
      <trkpt lat="48.90287" lon="2.37984">
        <ele>99.6</ele>
        <time>2015-03-30T20:15:31.578Z</time>
      </trkpt>
      <trkpt lat="48.90285" lon="2.37987">
        <ele>99.8</ele>
        <time>2015-03-30T20:15:32.503Z</time>
      </trkpt>
      <trkpt lat="48.9028" lon="2.37993">
        <ele>100.1</ele>
        <time>2015-03-30T20:15:35.505Z</time>
      </trkpt>
      <trkpt lat="48.90277" lon="2.37995">
        <ele>100.1</ele>
        <time>2015-03-30T20:15:36.513Z</time>
      </trkpt>
      <trkpt lat="48.9027" lon="2.37998">
        <ele>100</ele>
        <time>2015-03-30T20:15:53.475Z</time>
      </trkpt>
      <trkpt lat="48.90255" lon="2.38001">
        <ele>100.6</ele>
        <time>2015-03-30T20:15:54.515Z</time>
      </trkpt>
      <trkpt lat="48.90248" lon="2.38009">
        <ele>99.4</ele>
        <time>2015-03-30T20:15:57.514Z</time>
      </trkpt>
      <trkpt lat="48.90245" lon="2.38011">
        <ele>99.2</ele>
        <time>2015-03-30T20:15:58.525Z</time>
      </trkpt>
      <trkpt lat="48.90239" lon="2.38014">
        <ele>98.1</ele>
        <time>2015-03-30T20:16:00.462Z</time>
      </trkpt>
      <trkpt lat="48.90237" lon="2.38015">
        <ele>98.2</ele>
        <time>2015-03-30T20:16:01.594Z</time>
      </trkpt>
      <trkpt lat="48.9023" lon="2.38018">
        <ele>97.9</ele>
        <time>2015-03-30T20:16:04.469Z</time>
      </trkpt>
      <trkpt lat="48.90228" lon="2.38018">
        <ele>98.1</ele>
        <time>2015-03-30T20:16:05.487Z</time>
      </trkpt>
      <trkpt lat="48.90222" lon="2.38022">
        <ele>98.1</ele>
        <time>2015-03-30T20:16:08.563Z</time>
      </trkpt>
      <trkpt lat="48.90219" lon="2.38023">
        <ele>98.2</ele>
        <time>2015-03-30T20:16:09.502Z</time>
      </trkpt>
      <trkpt lat="48.90213" lon="2.38028">
        <ele>98.2</ele>
        <time>2015-03-30T20:16:12.520Z</time>
      </trkpt>
      <trkpt lat="48.90211" lon="2.38029">
        <ele>98.4</ele>
        <time>2015-03-30T20:16:13.568Z</time>
      </trkpt>
      <trkpt lat="48.90204" lon="2.38033">
        <ele>98.7</ele>
        <time>2015-03-30T20:16:16.580Z</time>
      </trkpt>
      <trkpt lat="48.90202" lon="2.38035">
        <ele>98.9</ele>
        <time>2015-03-30T20:16:17.502Z</time>
      </trkpt>
      <trkpt lat="48.90195" lon="2.3804">
        <ele>99.1</ele>
        <time>2015-03-30T20:16:20.542Z</time>
      </trkpt>
      <trkpt lat="48.90193" lon="2.38041">
        <ele>99.3</ele>
        <time>2015-03-30T20:16:21.562Z</time>
      </trkpt>
      <trkpt lat="48.90185" lon="2.38047">
        <ele>100.3</ele>
        <time>2015-03-30T20:16:25.534Z</time>
      </trkpt>
      <trkpt lat="48.90184" lon="2.38047">
        <ele>100</ele>
        <time>2015-03-30T20:16:26.545Z</time>
      </trkpt>
      <trkpt lat="48.90179" lon="2.38058">
        <ele>101.2</ele>
        <time>2015-03-30T20:17:23.486Z</time>
      </trkpt>
      <trkpt lat="48.90177" lon="2.38059">
        <ele>101.3</ele>
        <time>2015-03-30T20:17:24.511Z</time>
      </trkpt>
      <trkpt lat="48.90171" lon="2.38062">
        <ele>101.5</ele>
        <time>2015-03-30T20:17:26.464Z</time>
      </trkpt>
      <trkpt lat="48.90167" lon="2.38062">
        <ele>101.8</ele>
        <time>2015-03-30T20:17:27.474Z</time>
      </trkpt>
      <trkpt lat="48.9016" lon="2.38065">
        <ele>101</ele>
        <time>2015-03-30T20:17:29.508Z</time>
      </trkpt>
      <trkpt lat="48.90157" lon="2.38067">
        <ele>100.9</ele>
        <time>2015-03-30T20:17:30.527Z</time>
      </trkpt>
      <trkpt lat="48.9015" lon="2.3807">
        <ele>100.7</ele>
        <time>2015-03-30T20:17:32.553Z</time>
      </trkpt>
      <trkpt lat="48.90148" lon="2.38072">
        <ele>100.6</ele>
        <time>2015-03-30T20:17:33.609Z</time>
      </trkpt>
      <trkpt lat="48.9014" lon="2.38076">
        <ele>100</ele>
        <time>2015-03-30T20:17:36.462Z</time>
      </trkpt>
      <trkpt lat="48.90137" lon="2.38077">
        <ele>99.8</ele>
        <time>2015-03-30T20:17:37.541Z</time>
      </trkpt>
      <trkpt lat="48.9013" lon="2.38083">
        <ele>99.7</ele>
        <time>2015-03-30T20:17:40.482Z</time>
      </trkpt>
      <trkpt lat="48.90127" lon="2.38085">
        <ele>99.4</ele>
        <time>2015-03-30T20:17:41.565Z</time>
      </trkpt>
      <trkpt lat="48.90121" lon="2.38087">
        <ele>99.6</ele>
        <time>2015-03-30T20:17:43.730Z</time>
      </trkpt>
      <trkpt lat="48.90118" lon="2.38089">
        <ele>99.6</ele>
        <time>2015-03-30T20:17:44.566Z</time>
      </trkpt>
      <trkpt lat="48.90112" lon="2.38093">
        <ele>99.6</ele>
        <time>2015-03-30T20:17:46.571Z</time>
      </trkpt>
      <trkpt lat="48.90109" lon="2.38096">
        <ele>99.4</ele>
        <time>2015-03-30T20:17:47.517Z</time>
      </trkpt>
      <trkpt lat="48.90103" lon="2.38101">
        <ele>99.7</ele>
        <time>2015-03-30T20:17:49.538Z</time>
      </trkpt>
      <trkpt lat="48.90099" lon="2.38104">
        <ele>99.9</ele>
        <time>2015-03-30T20:17:50.541Z</time>
      </trkpt>
      <trkpt lat="48.90092" lon="2.38108">
        <ele>99.1</ele>
        <time>2015-03-30T20:17:52.507Z</time>
      </trkpt>
      <trkpt lat="48.90088" lon="2.3811">
        <ele>99.1</ele>
        <time>2015-03-30T20:17:53.479Z</time>
      </trkpt>
      <trkpt lat="48.9008" lon="2.38114">
        <ele>98.9</ele>
        <time>2015-03-30T20:17:55.538Z</time>
      </trkpt>
      <trkpt lat="48.90076" lon="2.38116">
        <ele>99</ele>
        <time>2015-03-30T20:17:56.531Z</time>
      </trkpt>
      <trkpt lat="48.90068" lon="2.3812">
        <ele>99.5</ele>
        <time>2015-03-30T20:17:58.554Z</time>
      </trkpt>
      <trkpt lat="48.90063" lon="2.38122">
        <ele>99.7</ele>
        <time>2015-03-30T20:17:59.709Z</time>
      </trkpt>
      <trkpt lat="48.90057" lon="2.38126">
        <ele>100.4</ele>
        <time>2015-03-30T20:18:01.517Z</time>
      </trkpt>
      <trkpt lat="48.90055" lon="2.38127">
        <ele>100.5</ele>
        <time>2015-03-30T20:18:02.580Z</time>
      </trkpt>
      <trkpt lat="48.90018" lon="2.38141">
        <ele>100.1</ele>
        <time>2015-03-30T20:18:13.542Z</time>
      </trkpt>
      <trkpt lat="48.90002" lon="2.38161">
        <ele>96</ele>
        <time>2015-03-30T20:18:16.497Z</time>
      </trkpt>
      <trkpt lat="48.89996" lon="2.38164">
        <ele>94.9</ele>
        <time>2015-03-30T20:18:17.500Z</time>
      </trkpt>
      <trkpt lat="48.8999" lon="2.38167">
        <ele>93.5</ele>
        <time>2015-03-30T20:18:18.511Z</time>
      </trkpt>
      <trkpt lat="48.89984" lon="2.3817">
        <ele>91.6</ele>
        <time>2015-03-30T20:18:19.524Z</time>
      </trkpt>
      <trkpt lat="48.89979" lon="2.38175">
        <ele>91</ele>
        <time>2015-03-30T20:18:20.532Z</time>
      </trkpt>
      <trkpt lat="48.89974" lon="2.38178">
        <ele>90.8</ele>
        <time>2015-03-30T20:18:21.462Z</time>
      </trkpt>
      <trkpt lat="48.8997" lon="2.38181">
        <ele>90</ele>
        <time>2015-03-30T20:18:22.455Z</time>
      </trkpt>
      <trkpt lat="48.89965" lon="2.38183">
        <ele>90</ele>
        <time>2015-03-30T20:18:23.483Z</time>
      </trkpt>
      <trkpt lat="48.89961" lon="2.38185">
        <ele>90.1</ele>
        <time>2015-03-30T20:18:24.531Z</time>
      </trkpt>
      <trkpt lat="48.89953" lon="2.38191">
        <ele>90.6</ele>
        <time>2015-03-30T20:18:26.590Z</time>
      </trkpt>
      <trkpt lat="48.89948" lon="2.38194">
        <ele>90.5</ele>
        <time>2015-03-30T20:18:27.489Z</time>
      </trkpt>
      <trkpt lat="48.89944" lon="2.38196">
        <ele>90.2</ele>
        <time>2015-03-30T20:18:28.532Z</time>
      </trkpt>
      <trkpt lat="48.89939" lon="2.38199">
        <ele>90.4</ele>
        <time>2015-03-30T20:18:29.452Z</time>
      </trkpt>
      <trkpt lat="48.89935" lon="2.38202">
        <ele>90.8</ele>
        <time>2015-03-30T20:18:30.487Z</time>
      </trkpt>
      <trkpt lat="48.8993" lon="2.38205">
        <ele>90.1</ele>
        <time>2015-03-30T20:18:31.516Z</time>
      </trkpt>
      <trkpt lat="48.89926" lon="2.38207">
        <ele>90.5</ele>
        <time>2015-03-30T20:18:32.531Z</time>
      </trkpt>
      <trkpt lat="48.89922" lon="2.38211">
        <ele>91.2</ele>
        <time>2015-03-30T20:18:33.552Z</time>
      </trkpt>
      <trkpt lat="48.89914" lon="2.38217">
        <ele>93.3</ele>
        <time>2015-03-30T20:18:35.468Z</time>
      </trkpt>
      <trkpt lat="48.89911" lon="2.38218">
        <ele>93.5</ele>
        <time>2015-03-30T20:18:36.482Z</time>
      </trkpt>
      <trkpt lat="48.89908" lon="2.38219">
        <ele>93.5</ele>
        <time>2015-03-30T20:18:37.510Z</time>
      </trkpt>
      <trkpt lat="48.89872" lon="2.38239">
        <ele>94.5</ele>
        <time>2015-03-30T20:18:46.531Z</time>
      </trkpt>
      <trkpt lat="48.89864" lon="2.38246">
        <ele>94.6</ele>
        <time>2015-03-30T20:18:49.488Z</time>
      </trkpt>
      <trkpt lat="48.8986" lon="2.38249">
        <ele>94.9</ele>
        <time>2015-03-30T20:18:50.495Z</time>
      </trkpt>
      <trkpt lat="48.89855" lon="2.38254">
        <ele>95.1</ele>
        <time>2015-03-30T20:18:51.502Z</time>
      </trkpt>
      <trkpt lat="48.89851" lon="2.38257">
        <ele>95.7</ele>
        <time>2015-03-30T20:18:52.505Z</time>
      </trkpt>
      <trkpt lat="48.89846" lon="2.38259">
        <ele>96.1</ele>
        <time>2015-03-30T20:18:53.522Z</time>
      </trkpt>
      <trkpt lat="48.89841" lon="2.38262">
        <ele>96.5</ele>
        <time>2015-03-30T20:18:54.461Z</time>
      </trkpt>
      <trkpt lat="48.89837" lon="2.38266">
        <ele>97.1</ele>
        <time>2015-03-30T20:18:55.567Z</time>
      </trkpt>
      <trkpt lat="48.89833" lon="2.38269">
        <ele>97.7</ele>
        <time>2015-03-30T20:18:56.462Z</time>
      </trkpt>
      <trkpt lat="48.89828" lon="2.38271">
        <ele>98.8</ele>
        <time>2015-03-30T20:18:57.470Z</time>
      </trkpt>
      <trkpt lat="48.89823" lon="2.38275">
        <ele>100.1</ele>
        <time>2015-03-30T20:18:58.487Z</time>
      </trkpt>
      <trkpt lat="48.89819" lon="2.38278">
        <ele>100.8</ele>
        <time>2015-03-30T20:18:59.533Z</time>
      </trkpt>
      <trkpt lat="48.89815" lon="2.38281">
        <ele>101.5</ele>
        <time>2015-03-30T20:19:00.426Z</time>
      </trkpt>
      <trkpt lat="48.8981" lon="2.38284">
        <ele>102.6</ele>
        <time>2015-03-30T20:19:01.540Z</time>
      </trkpt>
      <trkpt lat="48.89802" lon="2.38289">
        <ele>104</ele>
        <time>2015-03-30T20:19:03.440Z</time>
      </trkpt>
      <trkpt lat="48.89799" lon="2.38291">
        <ele>104.1</ele>
        <time>2015-03-30T20:19:04.493Z</time>
      </trkpt>
      <trkpt lat="48.89794" lon="2.38301">
        <ele>104</ele>
        <time>2015-03-30T20:19:07.470Z</time>
      </trkpt>
      <trkpt lat="48.89792" lon="2.38304">
        <ele>103.7</ele>
        <time>2015-03-30T20:19:08.476Z</time>
      </trkpt>
      <trkpt lat="48.89773" lon="2.38315">
        <ele>102.9</ele>
        <time>2015-03-30T20:19:19.509Z</time>
      </trkpt>
      <trkpt lat="48.89777" lon="2.38305">
        <ele>103.7</ele>
        <time>2015-03-30T20:19:28.489Z</time>
      </trkpt>
      <trkpt lat="48.8978" lon="2.38304">
        <ele>103.2</ele>
        <time>2015-03-30T20:19:29.498Z</time>
      </trkpt>
      <trkpt lat="48.89787" lon="2.38301">
        <ele>102.3</ele>
        <time>2015-03-30T20:19:31.528Z</time>
      </trkpt>
      <trkpt lat="48.8979" lon="2.38301">
        <ele>101.9</ele>
        <time>2015-03-30T20:19:32.547Z</time>
      </trkpt>
      <trkpt lat="48.89804" lon="2.38294">
        <ele>101.4</ele>
        <time>2015-03-30T20:19:37.520Z</time>
      </trkpt>
      <trkpt lat="48.89809" lon="2.38278">
        <ele>98.4</ele>
        <time>2015-03-30T20:19:40.488Z</time>
      </trkpt>
      <trkpt lat="48.89816" lon="2.38271">
        <ele>99.8</ele>
        <time>2015-03-30T20:19:44.493Z</time>
      </trkpt>
      <trkpt lat="48.89819" lon="2.38271">
        <ele>100.4</ele>
        <time>2015-03-30T20:19:45.517Z</time>
      </trkpt>
      <trkpt lat="48.89825" lon="2.38265">
        <ele>100.3</ele>
        <time>2015-03-30T20:19:48.570Z</time>
      </trkpt>
      <trkpt lat="48.89827" lon="2.38263">
        <ele>99.7</ele>
        <time>2015-03-30T20:19:49.540Z</time>
      </trkpt>
      <trkpt lat="48.89834" lon="2.38259">
        <ele>95.9</ele>
        <time>2015-03-30T20:19:52.462Z</time>
      </trkpt>
      <trkpt lat="48.89837" lon="2.38257">
        <ele>95.5</ele>
        <time>2015-03-30T20:19:53.449Z</time>
      </trkpt>
      <trkpt lat="48.89844" lon="2.38253">
        <ele>97.4</ele>
        <time>2015-03-30T20:19:55.509Z</time>
      </trkpt>
      <trkpt lat="48.89847" lon="2.38251">
        <ele>97.1</ele>
        <time>2015-03-30T20:19:56.428Z</time>
      </trkpt>
      <trkpt lat="48.89855" lon="2.38248">
        <ele>96.5</ele>
        <time>2015-03-30T20:19:59.616Z</time>
      </trkpt>
      <trkpt lat="48.89856" lon="2.38249">
        <ele>95.8</ele>
        <time>2015-03-30T20:20:00.456Z</time>
      </trkpt>
      <trkpt lat="48.89851" lon="2.38258">
        <ele>89.7</ele>
        <time>2015-03-30T20:20:03.597Z</time>
      </trkpt>
      <trkpt lat="48.89848" lon="2.38262">
        <ele>88</ele>
        <time>2015-03-30T20:20:04.455Z</time>
      </trkpt>
      <trkpt lat="48.89844" lon="2.38266">
        <ele>87.9</ele>
        <time>2015-03-30T20:20:06.485Z</time>
      </trkpt>
      <trkpt lat="48.8984" lon="2.38268">
        <ele>86.9</ele>
        <time>2015-03-30T20:20:07.498Z</time>
      </trkpt>
      <trkpt lat="48.89836" lon="2.3827">
        <ele>87.4</ele>
        <time>2015-03-30T20:20:08.509Z</time>
      </trkpt>
      <trkpt lat="48.89831" lon="2.38272">
        <ele>85.8</ele>
        <time>2015-03-30T20:20:09.514Z</time>
      </trkpt>
      <trkpt lat="48.89825" lon="2.38275">
        <ele>83.4</ele>
        <time>2015-03-30T20:20:10.455Z</time>
      </trkpt>
      <trkpt lat="48.89821" lon="2.38278">
        <ele>84</ele>
        <time>2015-03-30T20:20:11.463Z</time>
      </trkpt>
      <trkpt lat="48.89814" lon="2.38287">
        <ele>85.6</ele>
        <time>2015-03-30T20:20:13.501Z</time>
      </trkpt>
      <trkpt lat="48.8981" lon="2.3829">
        <ele>86.5</ele>
        <time>2015-03-30T20:20:14.507Z</time>
      </trkpt>
      <trkpt lat="48.89804" lon="2.38297">
        <ele>88.5</ele>
        <time>2015-03-30T20:20:16.541Z</time>
      </trkpt>
      <trkpt lat="48.89801" lon="2.38301">
        <ele>88.4</ele>
        <time>2015-03-30T20:20:17.551Z</time>
      </trkpt>
      <trkpt lat="48.89798" lon="2.38305">
        <ele>91</ele>
        <time>2015-03-30T20:20:20.548Z</time>
      </trkpt>
      <trkpt lat="48.90164" lon="2.38063">
        <ele>91.2</ele>
        <time>2015-03-30T20:20:21.436Z</time>
      </trkpt>
      <trkpt lat="48.90164" lon="2.3806">
        <ele>92.1</ele>
        <time>2015-03-30T20:20:29.686Z</time>
      </trkpt>
      <trkpt lat="48.90156" lon="2.38067">
        <ele>91.9</ele>
        <time>2015-03-30T20:20:31.468Z</time>
      </trkpt>
      <trkpt lat="48.90146" lon="2.38074">
        <ele>92.2</ele>
        <time>2015-03-30T20:20:32.478Z</time>
      </trkpt>
      <trkpt lat="48.90138" lon="2.38083">
        <ele>92.9</ele>
        <time>2015-03-30T20:20:33.487Z</time>
      </trkpt>
      <trkpt lat="48.9013" lon="2.38091">
        <ele>93.5</ele>
        <time>2015-03-30T20:20:34.510Z</time>
      </trkpt>
      <trkpt lat="48.9013" lon="2.38091">
        <ele>93.5</ele>
        <time>2015-03-30T20:20:34.734Z</time>
      </trkpt>
      <trkpt lat="48.90121" lon="2.38098">
        <ele>93</ele>
        <time>2015-03-30T20:20:35.528Z</time>
      </trkpt>
      <trkpt lat="48.90112" lon="2.38105">
        <ele>93.1</ele>
        <time>2015-03-30T20:20:36.531Z</time>
      </trkpt>
      <trkpt lat="48.90092" lon="2.38121">
        <ele>92.2</ele>
        <time>2015-03-30T20:20:37.535Z</time>
      </trkpt>
      <trkpt lat="48.90072" lon="2.38136">
        <ele>92.6</ele>
        <time>2015-03-30T20:20:38.440Z</time>
      </trkpt>
      <trkpt lat="48.90054" lon="2.38151">
        <ele>92.9</ele>
        <time>2015-03-30T20:20:39.453Z</time>
      </trkpt>
      <trkpt lat="48.90053" lon="2.3815">
        <ele>92.9</ele>
        <time>2015-03-30T20:20:39.756Z</time>
      </trkpt>
      <trkpt lat="48.90034" lon="2.38165">
        <ele>93.3</ele>
        <time>2015-03-30T20:20:40.451Z</time>
      </trkpt>
      <trkpt lat="48.90016" lon="2.38177">
        <ele>94</ele>
        <time>2015-03-30T20:20:41.469Z</time>
      </trkpt>
      <trkpt lat="48.89999" lon="2.38189">
        <ele>94.1</ele>
        <time>2015-03-30T20:20:42.472Z</time>
      </trkpt>
      <trkpt lat="48.89983" lon="2.38201">
        <ele>95.6</ele>
        <time>2015-03-30T20:20:43.490Z</time>
      </trkpt>
      <trkpt lat="48.89967" lon="2.38211">
        <ele>97.7</ele>
        <time>2015-03-30T20:20:44.497Z</time>
      </trkpt>
      <trkpt lat="48.89967" lon="2.38211">
        <ele>97.7</ele>
        <time>2015-03-30T20:20:44.846Z</time>
      </trkpt>
      <trkpt lat="48.89953" lon="2.38221">
        <ele>98.2</ele>
        <time>2015-03-30T20:20:45.505Z</time>
      </trkpt>
      <trkpt lat="48.89939" lon="2.38231">
        <ele>97.8</ele>
        <time>2015-03-30T20:20:46.516Z</time>
      </trkpt>
      <trkpt lat="48.89926" lon="2.3824">
        <ele>100.1</ele>
        <time>2015-03-30T20:20:47.430Z</time>
      </trkpt>
      <trkpt lat="48.89913" lon="2.38248">
        <ele>101.2</ele>
        <time>2015-03-30T20:20:48.436Z</time>
      </trkpt>
      <trkpt lat="48.899" lon="2.38257">
        <ele>101.2</ele>
        <time>2015-03-30T20:20:49.468Z</time>
      </trkpt>
      <trkpt lat="48.89889" lon="2.38264">
        <ele>102.9</ele>
        <time>2015-03-30T20:20:50.462Z</time>
      </trkpt>
      <trkpt lat="48.89878" lon="2.38272">
        <ele>103.9</ele>
        <time>2015-03-30T20:20:51.480Z</time>
      </trkpt>
      <trkpt lat="48.89878" lon="2.38272">
        <ele>103.9</ele>
        <time>2015-03-30T20:20:49.968Z</time>
      </trkpt>
      <trkpt lat="48.89869" lon="2.3828">
        <ele>104.7</ele>
        <time>2015-03-30T20:20:52.490Z</time>
      </trkpt>
      <trkpt lat="48.89858" lon="2.38286">
        <ele>105.1</ele>
        <time>2015-03-30T20:20:53.491Z</time>
      </trkpt>
      <trkpt lat="48.89849" lon="2.38293">
        <ele>105.5</ele>
        <time>2015-03-30T20:20:54.511Z</time>
      </trkpt>
      <trkpt lat="48.89849" lon="2.38293">
        <ele>105.5</ele>
        <time>2015-03-30T20:20:54.990Z</time>
      </trkpt>
      <trkpt lat="48.8984" lon="2.38299">
        <ele>106.6</ele>
        <time>2015-03-30T20:20:55.525Z</time>
      </trkpt>
      <trkpt lat="48.89831" lon="2.38304">
        <ele>107.2</ele>
        <time>2015-03-30T20:20:56.435Z</time>
      </trkpt>
      <trkpt lat="48.89822" lon="2.3831">
        <ele>106.6</ele>
        <time>2015-03-30T20:20:57.433Z</time>
      </trkpt>
      <trkpt lat="48.89814" lon="2.38315">
        <ele>107.8</ele>
        <time>2015-03-30T20:20:58.476Z</time>
      </trkpt>
      <trkpt lat="48.89806" lon="2.38319">
        <ele>108.8</ele>
        <time>2015-03-30T20:20:59.491Z</time>
      </trkpt>
      <trkpt lat="48.89799" lon="2.38323">
        <ele>110.2</ele>
        <time>2015-03-30T20:21:00.497Z</time>
      </trkpt>
      <trkpt lat="48.89791" lon="2.38327">
        <ele>109</ele>
        <time>2015-03-30T20:21:01.516Z</time>
      </trkpt>
      <trkpt lat="48.89784" lon="2.38331">
        <ele>109.1</ele>
        <time>2015-03-30T20:21:02.458Z</time>
      </trkpt>
      <trkpt lat="48.89777" lon="2.38334">
        <ele>109.7</ele>
        <time>2015-03-30T20:21:03.529Z</time>
      </trkpt>
      <trkpt lat="48.8977" lon="2.38337">
        <ele>109.6</ele>
        <time>2015-03-30T20:21:05.152Z</time>
      </trkpt>
      <trkpt lat="48.89764" lon="2.3834">
        <ele>109.4</ele>
        <time>2015-03-30T20:21:05.464Z</time>
      </trkpt>
      <trkpt lat="48.89758" lon="2.38343">
        <ele>109.8</ele>
        <time>2015-03-30T20:21:06.480Z</time>
      </trkpt>
      <trkpt lat="48.89752" lon="2.38345">
        <ele>110.5</ele>
        <time>2015-03-30T20:21:07.488Z</time>
      </trkpt>
      <trkpt lat="48.89747" lon="2.38348">
        <ele>111.1</ele>
        <time>2015-03-30T20:21:08.500Z</time>
      </trkpt>
      <trkpt lat="48.89742" lon="2.38351">
        <ele>111.6</ele>
        <time>2015-03-30T20:21:09.514Z</time>
      </trkpt>
      <trkpt lat="48.89734" lon="2.38354">
        <ele>114.3</ele>
        <time>2015-03-30T20:21:11.536Z</time>
      </trkpt>
      <trkpt lat="48.8973" lon="2.38356">
        <ele>114.5</ele>
        <time>2015-03-30T20:21:12.441Z</time>
      </trkpt>
      <trkpt lat="48.89727" lon="2.38358">
        <ele>114.5</ele>
        <time>2015-03-30T20:21:13.515Z</time>
      </trkpt>
      <trkpt lat="48.89715" lon="2.38362">
        <ele>114.5</ele>
        <time>2015-03-30T20:21:14.542Z</time>
      </trkpt>
      <trkpt lat="48.89707" lon="2.38366">
        <ele>114.5</ele>
        <time>2015-03-30T20:21:16.151Z</time>
      </trkpt>
      <trkpt lat="48.897" lon="2.38369">
        <ele>114.5</ele>
        <time>2015-03-30T20:21:16.469Z</time>
      </trkpt>
      <trkpt lat="48.89694" lon="2.38371">
        <ele>114.5</ele>
        <time>2015-03-30T20:21:17.487Z</time>
      </trkpt>
      <trkpt lat="48.8969" lon="2.38372">
        <ele>114.5</ele>
        <time>2015-03-30T20:21:18.496Z</time>
      </trkpt>
      <trkpt lat="48.89683" lon="2.38375">
        <ele>114.5</ele>
        <time>2015-03-30T20:21:21.251Z</time>
      </trkpt>
      <trkpt lat="48.8968" lon="2.38376">
        <ele>114.5</ele>
        <time>2015-03-30T20:21:21.466Z</time>
      </trkpt>
      <trkpt lat="48.89671" lon="2.38379">
        <ele>114.5</ele>
        <time>2015-03-30T20:21:26.271Z</time>
      </trkpt>
      <trkpt lat="48.8967" lon="2.38379">
        <ele>114.5</ele>
        <time>2015-03-30T20:21:26.443Z</time>
      </trkpt>
      <trkpt lat="48.89662" lon="2.38382">
        <ele>114.5</ele>
        <time>2015-03-30T20:21:34.485Z</time>
      </trkpt>
      <trkpt lat="48.89661" lon="2.38382">
        <ele>114.5</ele>
        <time>2015-03-30T20:21:35.502Z</time>
      </trkpt>
      <trkpt lat="48.89653" lon="2.38387">
        <ele>114.5</ele>
        <time>2015-03-30T20:21:43.475Z</time>
      </trkpt>
      <trkpt lat="48.89652" lon="2.38387">
        <ele>114.5</ele>
        <time>2015-03-30T20:21:44.484Z</time>
      </trkpt>
      <trkpt lat="48.89646" lon="2.38388">
        <ele>114.5</ele>
        <time>2015-03-30T20:22:02.537Z</time>
      </trkpt>
      <trkpt lat="48.89642" lon="2.38388">
        <ele>114.5</ele>
        <time>2015-03-30T20:22:03.588Z</time>
      </trkpt>
      <trkpt lat="48.89636" lon="2.38397">
        <ele>108.6</ele>
        <time>2015-03-30T20:22:31.416Z</time>
      </trkpt>
      <trkpt lat="48.89635" lon="2.38399">
        <ele>108.6</ele>
        <time>2015-03-30T20:22:31.504Z</time>
      </trkpt>
      <trkpt lat="48.8963" lon="2.38408">
        <ele>110</ele>
        <time>2015-03-30T20:22:36.476Z</time>
      </trkpt>
      <trkpt lat="48.89628" lon="2.38409">
        <ele>110.1</ele>
        <time>2015-03-30T20:22:37.497Z</time>
      </trkpt>
      <trkpt lat="48.8962" lon="2.38411">
        <ele>111.7</ele>
        <time>2015-03-30T20:22:41.568Z</time>
      </trkpt>
      <trkpt lat="48.89618" lon="2.38412">
        <ele>111.8</ele>
        <time>2015-03-30T20:22:42.573Z</time>
      </trkpt>
      <trkpt lat="48.89612" lon="2.38406">
        <ele>110.5</ele>
        <time>2015-03-30T20:22:46.483Z</time>
      </trkpt>
      <trkpt lat="48.8961" lon="2.38404">
        <ele>110.1</ele>
        <time>2015-03-30T20:22:47.580Z</time>
      </trkpt>
      <trkpt lat="48.89603" lon="2.38397">
        <ele>109.7</ele>
        <time>2015-03-30T20:22:51.657Z</time>
      </trkpt>
      <trkpt lat="48.89601" lon="2.38394">
        <ele>109.9</ele>
        <time>2015-03-30T20:22:52.570Z</time>
      </trkpt>
      <trkpt lat="48.89593" lon="2.38387">
        <ele>109.7</ele>
        <time>2015-03-30T20:22:55.507Z</time>
      </trkpt>
      <trkpt lat="48.8959" lon="2.38385">
        <ele>109.2</ele>
        <time>2015-03-30T20:22:56.553Z</time>
      </trkpt>
      <trkpt lat="48.89584" lon="2.38382">
        <ele>108.5</ele>
        <time>2015-03-30T20:22:58.465Z</time>
      </trkpt>
      <trkpt lat="48.89581" lon="2.38381">
        <ele>108.6</ele>
        <time>2015-03-30T20:22:59.484Z</time>
      </trkpt>
      <trkpt lat="48.89574" lon="2.38379">
        <ele>107.5</ele>
        <time>2015-03-30T20:23:02.506Z</time>
      </trkpt>
      <trkpt lat="48.89572" lon="2.38379">
        <ele>107.3</ele>
        <time>2015-03-30T20:23:03.512Z</time>
      </trkpt>
      <trkpt lat="48.89565" lon="2.38383">
        <ele>106.9</ele>
        <time>2015-03-30T20:23:08.461Z</time>
      </trkpt>
      <trkpt lat="48.89563" lon="2.38384">
        <ele>106.4</ele>
        <time>2015-03-30T20:23:09.438Z</time>
      </trkpt>
      <trkpt lat="48.89556" lon="2.38388">
        <ele>105.7</ele>
        <time>2015-03-30T20:23:13.511Z</time>
      </trkpt>
      <trkpt lat="48.89554" lon="2.3839">
        <ele>105.5</ele>
        <time>2015-03-30T20:23:14.525Z</time>
      </trkpt>
      <trkpt lat="48.8955" lon="2.38393">
        <ele>105.5</ele>
        <time>2015-03-30T20:23:16.542Z</time>
      </trkpt>
      <trkpt lat="48.89497" lon="2.38415">
        <ele>105.3</ele>
        <time>2015-03-30T20:23:17.426Z</time>
      </trkpt>
      <trkpt lat="48.89494" lon="2.38419">
        <ele>105.3</ele>
        <time>2015-03-30T20:23:18.465Z</time>
      </trkpt>
      <trkpt lat="48.89489" lon="2.38422">
        <ele>105.1</ele>
        <time>2015-03-30T20:23:19.640Z</time>
      </trkpt>
      <trkpt lat="48.89485" lon="2.38425">
        <ele>104.9</ele>
        <time>2015-03-30T20:23:21.203Z</time>
      </trkpt>
      <trkpt lat="48.8948" lon="2.38428">
        <ele>104.7</ele>
        <time>2015-03-30T20:23:21.459Z</time>
      </trkpt>
      <trkpt lat="48.89475" lon="2.38432">
        <ele>104.7</ele>
        <time>2015-03-30T20:23:22.471Z</time>
      </trkpt>
      <trkpt lat="48.8947" lon="2.38434">
        <ele>104.5</ele>
        <time>2015-03-30T20:23:23.496Z</time>
      </trkpt>
      <trkpt lat="48.89466" lon="2.38436">
        <ele>104.5</ele>
        <time>2015-03-30T20:23:24.550Z</time>
      </trkpt>
      <trkpt lat="48.89461" lon="2.38439">
        <ele>104.3</ele>
        <time>2015-03-30T20:23:25.516Z</time>
      </trkpt>
      <trkpt lat="48.89456" lon="2.38441">
        <ele>104.2</ele>
        <time>2015-03-30T20:23:26.449Z</time>
      </trkpt>
      <trkpt lat="48.89452" lon="2.38443">
        <ele>104</ele>
        <time>2015-03-30T20:23:27.465Z</time>
      </trkpt>
      <trkpt lat="48.89448" lon="2.38446">
        <ele>104</ele>
        <time>2015-03-30T20:23:28.487Z</time>
      </trkpt>
      <trkpt lat="48.89444" lon="2.38451">
        <ele>104.1</ele>
        <time>2015-03-30T20:23:29.499Z</time>
      </trkpt>
      <trkpt lat="48.89439" lon="2.38455">
        <ele>104</ele>
        <time>2015-03-30T20:23:30.512Z</time>
      </trkpt>
      <trkpt lat="48.89435" lon="2.38458">
        <ele>104.1</ele>
        <time>2015-03-30T20:23:31.526Z</time>
      </trkpt>
      <trkpt lat="48.89431" lon="2.38463">
        <ele>104.1</ele>
        <time>2015-03-30T20:23:32.432Z</time>
      </trkpt>
      <trkpt lat="48.89426" lon="2.38468">
        <ele>104.2</ele>
        <time>2015-03-30T20:23:33.447Z</time>
      </trkpt>
      <trkpt lat="48.89421" lon="2.38472">
        <ele>104.3</ele>
        <time>2015-03-30T20:23:34.463Z</time>
      </trkpt>
      <trkpt lat="48.89416" lon="2.38475">
        <ele>104.4</ele>
        <time>2015-03-30T20:23:35.483Z</time>
      </trkpt>
      <trkpt lat="48.89411" lon="2.38478">
        <ele>104.6</ele>
        <time>2015-03-30T20:23:36.488Z</time>
      </trkpt>
      <trkpt lat="48.89406" lon="2.3848">
        <ele>104.9</ele>
        <time>2015-03-30T20:23:37.595Z</time>
      </trkpt>
      <trkpt lat="48.89397" lon="2.38483">
        <ele>105.3</ele>
        <time>2015-03-30T20:23:39.458Z</time>
      </trkpt>
      <trkpt lat="48.89371" lon="2.38499">
        <ele>106.4</ele>
        <time>2015-03-30T20:23:45.504Z</time>
      </trkpt>
      <trkpt lat="48.89366" lon="2.38501">
        <ele>106.6</ele>
        <time>2015-03-30T20:23:46.528Z</time>
      </trkpt>
      <trkpt lat="48.89362" lon="2.38504">
        <ele>106.9</ele>
        <time>2015-03-30T20:23:47.461Z</time>
      </trkpt>
      <trkpt lat="48.89356" lon="2.38508">
        <ele>107.2</ele>
        <time>2015-03-30T20:23:48.445Z</time>
      </trkpt>
      <trkpt lat="48.89351" lon="2.3851">
        <ele>107.4</ele>
        <time>2015-03-30T20:23:49.500Z</time>
      </trkpt>
      <trkpt lat="48.89347" lon="2.38513">
        <ele>107.8</ele>
        <time>2015-03-30T20:23:50.496Z</time>
      </trkpt>
      <trkpt lat="48.89343" lon="2.38516">
        <ele>108.1</ele>
        <time>2015-03-30T20:23:51.511Z</time>
      </trkpt>
      <trkpt lat="48.89339" lon="2.3852">
        <ele>108.4</ele>
        <time>2015-03-30T20:23:52.525Z</time>
      </trkpt>
      <trkpt lat="48.89335" lon="2.38523">
        <ele>108.5</ele>
        <time>2015-03-30T20:23:53.556Z</time>
      </trkpt>
      <trkpt lat="48.8933" lon="2.38525">
        <ele>108.6</ele>
        <time>2015-03-30T20:23:54.450Z</time>
      </trkpt>
      <trkpt lat="48.89325" lon="2.38528">
        <ele>108.9</ele>
        <time>2015-03-30T20:23:55.560Z</time>
      </trkpt>
      <trkpt lat="48.89317" lon="2.38532">
        <ele>109.2</ele>
        <time>2015-03-30T20:23:57.448Z</time>
      </trkpt>
      <trkpt lat="48.89313" lon="2.38534">
        <ele>109.4</ele>
        <time>2015-03-30T20:23:58.682Z</time>
      </trkpt>
      <trkpt lat="48.89306" lon="2.38539">
        <ele>109.3</ele>
        <time>2015-03-30T20:24:00.517Z</time>
      </trkpt>
      <trkpt lat="48.89302" lon="2.38542">
        <ele>108.9</ele>
        <time>2015-03-30T20:24:01.535Z</time>
      </trkpt>
      <trkpt lat="48.89298" lon="2.38545">
        <ele>108.8</ele>
        <time>2015-03-30T20:24:02.457Z</time>
      </trkpt>
      <trkpt lat="48.89293" lon="2.38548">
        <ele>109</ele>
        <time>2015-03-30T20:24:03.471Z</time>
      </trkpt>
      <trkpt lat="48.89288" lon="2.38552">
        <ele>109</ele>
        <time>2015-03-30T20:24:04.487Z</time>
      </trkpt>
      <trkpt lat="48.89284" lon="2.38555">
        <ele>109</ele>
        <time>2015-03-30T20:24:05.525Z</time>
      </trkpt>
      <trkpt lat="48.89276" lon="2.3856">
        <ele>108.9</ele>
        <time>2015-03-30T20:24:07.492Z</time>
      </trkpt>
      <trkpt lat="48.89272" lon="2.38562">
        <ele>108</ele>
        <time>2015-03-30T20:24:08.496Z</time>
      </trkpt>
      <trkpt lat="48.89267" lon="2.38565">
        <ele>107.9</ele>
        <time>2015-03-30T20:24:09.522Z</time>
      </trkpt>
      <trkpt lat="48.89263" lon="2.38568">
        <ele>107.9</ele>
        <time>2015-03-30T20:24:10.450Z</time>
      </trkpt>
      <trkpt lat="48.89256" lon="2.38571">
        <ele>107.3</ele>
        <time>2015-03-30T20:24:12.582Z</time>
      </trkpt>
      <trkpt lat="48.89251" lon="2.3857">
        <ele>107.1</ele>
        <time>2015-03-30T20:24:13.531Z</time>
      </trkpt>
      <trkpt lat="48.89244" lon="2.38567">
        <ele>107.3</ele>
        <time>2015-03-30T20:24:15.458Z</time>
      </trkpt>
      <trkpt lat="48.89241" lon="2.38563">
        <ele>107</ele>
        <time>2015-03-30T20:24:16.538Z</time>
      </trkpt>
      <trkpt lat="48.89234" lon="2.38557">
        <ele>107.2</ele>
        <time>2015-03-30T20:24:18.457Z</time>
      </trkpt>
      <trkpt lat="48.89231" lon="2.38554">
        <ele>107.7</ele>
        <time>2015-03-30T20:24:19.523Z</time>
      </trkpt>
      <trkpt lat="48.89224" lon="2.38546">
        <ele>108.4</ele>
        <time>2015-03-30T20:24:21.431Z</time>
      </trkpt>
      <trkpt lat="48.89367" lon="2.385">
        <ele>108.1</ele>
        <time>2015-03-30T20:24:22.450Z</time>
      </trkpt>
      <trkpt lat="48.89354" lon="2.38504">
        <ele>108.1</ele>
        <time>2015-03-30T20:24:23.502Z</time>
      </trkpt>
      <trkpt lat="48.89342" lon="2.38506">
        <ele>108.4</ele>
        <time>2015-03-30T20:24:24.494Z</time>
      </trkpt>
      <trkpt lat="48.89329" lon="2.38507">
        <ele>108.3</ele>
        <time>2015-03-30T20:24:25.500Z</time>
      </trkpt>
      <trkpt lat="48.89317" lon="2.3851">
        <ele>108.3</ele>
        <time>2015-03-30T20:24:26.511Z</time>
      </trkpt>
      <trkpt lat="48.89318" lon="2.38509">
        <ele>108.3</ele>
        <time>2015-03-30T20:24:25.273Z</time>
      </trkpt>
      <trkpt lat="48.89306" lon="2.38511">
        <ele>108.2</ele>
        <time>2015-03-30T20:24:27.515Z</time>
      </trkpt>
      <trkpt lat="48.89295" lon="2.38513">
        <ele>108.5</ele>
        <time>2015-03-30T20:24:28.534Z</time>
      </trkpt>
      <trkpt lat="48.89286" lon="2.38515">
        <ele>108.7</ele>
        <time>2015-03-30T20:24:29.600Z</time>
      </trkpt>
      <trkpt lat="48.89278" lon="2.38517">
        <ele>108.9</ele>
        <time>2015-03-30T20:24:30.359Z</time>
      </trkpt>
      <trkpt lat="48.89269" lon="2.3852">
        <ele>108.5</ele>
        <time>2015-03-30T20:24:31.531Z</time>
      </trkpt>
      <trkpt lat="48.89259" lon="2.38522">
        <ele>108.2</ele>
        <time>2015-03-30T20:24:32.531Z</time>
      </trkpt>
      <trkpt lat="48.89249" lon="2.38524">
        <ele>107.7</ele>
        <time>2015-03-30T20:24:33.532Z</time>
      </trkpt>
      <trkpt lat="48.89241" lon="2.38527">
        <ele>107.5</ele>
        <time>2015-03-30T20:24:34.438Z</time>
      </trkpt>
      <trkpt lat="48.89233" lon="2.38529">
        <ele>107.6</ele>
        <time>2015-03-30T20:24:35.459Z</time>
      </trkpt>
      <trkpt lat="48.89225" lon="2.3853">
        <ele>107.1</ele>
        <time>2015-03-30T20:24:36.481Z</time>
      </trkpt>
      <trkpt lat="48.89219" lon="2.3853">
        <ele>107</ele>
        <time>2015-03-30T20:24:37.509Z</time>
      </trkpt>
      <trkpt lat="48.8921" lon="2.38528">
        <ele>107.6</ele>
        <time>2015-03-30T20:24:43.528Z</time>
      </trkpt>
      <trkpt lat="48.89144" lon="2.38495">
        <ele>108.3</ele>
        <time>2015-03-30T20:24:44.516Z</time>
      </trkpt>
      <trkpt lat="48.8914" lon="2.3849">
        <ele>108.9</ele>
        <time>2015-03-30T20:24:45.540Z</time>
      </trkpt>
      <trkpt lat="48.89137" lon="2.38485">
        <ele>109.2</ele>
        <time>2015-03-30T20:24:46.462Z</time>
      </trkpt>
      <trkpt lat="48.89131" lon="2.38474">
        <ele>109.7</ele>
        <time>2015-03-30T20:24:48.479Z</time>
      </trkpt>
      <trkpt lat="48.89128" lon="2.3847">
        <ele>109.8</ele>
        <time>2015-03-30T20:24:49.551Z</time>
      </trkpt>
      <trkpt lat="48.89109" lon="2.38445">
        <ele>110.2</ele>
        <time>2015-03-30T20:24:54.458Z</time>
      </trkpt>
      <trkpt lat="48.89106" lon="2.38436">
        <ele>110.6</ele>
        <time>2015-03-30T20:24:55.525Z</time>
      </trkpt>
      <trkpt lat="48.89103" lon="2.38428">
        <ele>110.8</ele>
        <time>2015-03-30T20:24:56.535Z</time>
      </trkpt>
      <trkpt lat="48.891" lon="2.38422">
        <ele>111.1</ele>
        <time>2015-03-30T20:24:57.488Z</time>
      </trkpt>
      <trkpt lat="48.89097" lon="2.38416">
        <ele>111.2</ele>
        <time>2015-03-30T20:24:58.452Z</time>
      </trkpt>
      <trkpt lat="48.89094" lon="2.38409">
        <ele>111.5</ele>
        <time>2015-03-30T20:24:59.476Z</time>
      </trkpt>
      <trkpt lat="48.8909" lon="2.38405">
        <ele>112</ele>
        <time>2015-03-30T20:25:00.512Z</time>
      </trkpt>
      <trkpt lat="48.89084" lon="2.38395">
        <ele>112.3</ele>
        <time>2015-03-30T20:25:02.445Z</time>
      </trkpt>
      <trkpt lat="48.89081" lon="2.38388">
        <ele>112.4</ele>
        <time>2015-03-30T20:25:03.462Z</time>
      </trkpt>
      <trkpt lat="48.89078" lon="2.38382">
        <ele>112.4</ele>
        <time>2015-03-30T20:25:04.457Z</time>
      </trkpt>
      <trkpt lat="48.89076" lon="2.38376">
        <ele>112.4</ele>
        <time>2015-03-30T20:25:05.466Z</time>
      </trkpt>
      <trkpt lat="48.89072" lon="2.38365">
        <ele>112.7</ele>
        <time>2015-03-30T20:25:07.492Z</time>
      </trkpt>
      <trkpt lat="48.89071" lon="2.3836">
        <ele>112.7</ele>
        <time>2015-03-30T20:25:08.513Z</time>
      </trkpt>
      <trkpt lat="48.89067" lon="2.38349">
        <ele>112.8</ele>
        <time>2015-03-30T20:25:10.462Z</time>
      </trkpt>
      <trkpt lat="48.89064" lon="2.38343">
        <ele>112.9</ele>
        <time>2015-03-30T20:25:11.577Z</time>
      </trkpt>
      <trkpt lat="48.89061" lon="2.38337">
        <ele>112.8</ele>
        <time>2015-03-30T20:25:12.464Z</time>
      </trkpt>
      <trkpt lat="48.89058" lon="2.38331">
        <ele>112.7</ele>
        <time>2015-03-30T20:25:13.498Z</time>
      </trkpt>
      <trkpt lat="48.89056" lon="2.38325">
        <ele>112.7</ele>
        <time>2015-03-30T20:25:14.502Z</time>
      </trkpt>
      <trkpt lat="48.89052" lon="2.38318">
        <ele>112.9</ele>
        <time>2015-03-30T20:25:15.515Z</time>
      </trkpt>
      <trkpt lat="48.89048" lon="2.38311">
        <ele>113.9</ele>
        <time>2015-03-30T20:25:16.550Z</time>
      </trkpt>
      <trkpt lat="48.89043" lon="2.38304">
        <ele>115</ele>
        <time>2015-03-30T20:25:17.422Z</time>
      </trkpt>
      <trkpt lat="48.89038" lon="2.38298">
        <ele>116</ele>
        <time>2015-03-30T20:25:18.439Z</time>
      </trkpt>
      <trkpt lat="48.89032" lon="2.38291">
        <ele>116.7</ele>
        <time>2015-03-30T20:25:19.497Z</time>
      </trkpt>
      <trkpt lat="48.89028" lon="2.38284">
        <ele>116.6</ele>
        <time>2015-03-30T20:25:20.501Z</time>
      </trkpt>
      <trkpt lat="48.89022" lon="2.38275">
        <ele>117</ele>
        <time>2015-03-30T20:25:22.431Z</time>
      </trkpt>
      <trkpt lat="48.89019" lon="2.3827">
        <ele>117.2</ele>
        <time>2015-03-30T20:25:23.474Z</time>
      </trkpt>
      <trkpt lat="48.89015" lon="2.38263">
        <ele>117.5</ele>
        <time>2015-03-30T20:25:24.467Z</time>
      </trkpt>
      <trkpt lat="48.89012" lon="2.38255">
        <ele>117.5</ele>
        <time>2015-03-30T20:25:25.493Z</time>
      </trkpt>
      <trkpt lat="48.89009" lon="2.38249">
        <ele>117.5</ele>
        <time>2015-03-30T20:25:26.492Z</time>
      </trkpt>
      <trkpt lat="48.89006" lon="2.38242">
        <ele>117.6</ele>
        <time>2015-03-30T20:25:27.441Z</time>
      </trkpt>
      <trkpt lat="48.89003" lon="2.38236">
        <ele>118</ele>
        <time>2015-03-30T20:25:28.437Z</time>
      </trkpt>
      <trkpt lat="48.88999" lon="2.38232">
        <ele>119.2</ele>
        <time>2015-03-30T20:25:29.458Z</time>
      </trkpt>
      <trkpt lat="48.88996" lon="2.38226">
        <ele>119.5</ele>
        <time>2015-03-30T20:25:30.473Z</time>
      </trkpt>
      <trkpt lat="48.88993" lon="2.3822">
        <ele>119.3</ele>
        <time>2015-03-30T20:25:31.504Z</time>
      </trkpt>
      <trkpt lat="48.8899" lon="2.38214">
        <ele>119.1</ele>
        <time>2015-03-30T20:25:32.410Z</time>
      </trkpt>
      <trkpt lat="48.88987" lon="2.38207">
        <ele>119.4</ele>
        <time>2015-03-30T20:25:33.480Z</time>
      </trkpt>
      <trkpt lat="48.88984" lon="2.382">
        <ele>119.4</ele>
        <time>2015-03-30T20:25:34.467Z</time>
      </trkpt>
      <trkpt lat="48.8898" lon="2.38193">
        <ele>119.3</ele>
        <time>2015-03-30T20:25:35.436Z</time>
      </trkpt>
      <trkpt lat="48.88977" lon="2.38186">
        <ele>119.2</ele>
        <time>2015-03-30T20:25:36.443Z</time>
      </trkpt>
      <trkpt lat="48.88973" lon="2.38179">
        <ele>119.1</ele>
        <time>2015-03-30T20:25:37.540Z</time>
      </trkpt>
      <trkpt lat="48.88969" lon="2.38171">
        <ele>119</ele>
        <time>2015-03-30T20:25:38.522Z</time>
      </trkpt>
      <trkpt lat="48.88965" lon="2.38163">
        <ele>119.2</ele>
        <time>2015-03-30T20:25:39.430Z</time>
      </trkpt>
      <trkpt lat="48.88961" lon="2.38156">
        <ele>119.8</ele>
        <time>2015-03-30T20:25:40.464Z</time>
      </trkpt>
      <trkpt lat="48.88957" lon="2.38148">
        <ele>120</ele>
        <time>2015-03-30T20:25:41.499Z</time>
      </trkpt>
      <trkpt lat="48.88954" lon="2.38141">
        <ele>120.4</ele>
        <time>2015-03-30T20:25:42.503Z</time>
      </trkpt>
      <trkpt lat="48.8895" lon="2.38133">
        <ele>119.9</ele>
        <time>2015-03-30T20:25:43.522Z</time>
      </trkpt>
      <trkpt lat="48.88946" lon="2.38126">
        <ele>119.8</ele>
        <time>2015-03-30T20:25:44.462Z</time>
      </trkpt>
      <trkpt lat="48.88943" lon="2.38118">
        <ele>119.8</ele>
        <time>2015-03-30T20:25:45.441Z</time>
      </trkpt>
      <trkpt lat="48.88939" lon="2.3811">
        <ele>120.5</ele>
        <time>2015-03-30T20:25:46.447Z</time>
      </trkpt>
      <trkpt lat="48.88934" lon="2.38103">
        <ele>121.3</ele>
        <time>2015-03-30T20:25:47.459Z</time>
      </trkpt>
      <trkpt lat="48.88931" lon="2.38096">
        <ele>121.2</ele>
        <time>2015-03-30T20:25:48.462Z</time>
      </trkpt>
      <trkpt lat="48.88927" lon="2.3809">
        <ele>122.3</ele>
        <time>2015-03-30T20:25:49.483Z</time>
      </trkpt>
      <trkpt lat="48.88923" lon="2.38084">
        <ele>122.6</ele>
        <time>2015-03-30T20:25:50.495Z</time>
      </trkpt>
      <trkpt lat="48.88919" lon="2.38076">
        <ele>122.8</ele>
        <time>2015-03-30T20:25:51.517Z</time>
      </trkpt>
      <trkpt lat="48.88915" lon="2.38069">
        <ele>123.3</ele>
        <time>2015-03-30T20:25:52.533Z</time>
      </trkpt>
      <trkpt lat="48.88911" lon="2.38063">
        <ele>123.9</ele>
        <time>2015-03-30T20:25:53.416Z</time>
      </trkpt>
      <trkpt lat="48.88907" lon="2.38056">
        <ele>123.8</ele>
        <time>2015-03-30T20:25:54.441Z</time>
      </trkpt>
      <trkpt lat="48.88904" lon="2.38049">
        <ele>124</ele>
        <time>2015-03-30T20:25:55.504Z</time>
      </trkpt>
      <trkpt lat="48.88901" lon="2.38042">
        <ele>123.9</ele>
        <time>2015-03-30T20:25:56.554Z</time>
      </trkpt>
      <trkpt lat="48.88899" lon="2.38035">
        <ele>123.6</ele>
        <time>2015-03-30T20:25:57.445Z</time>
      </trkpt>
      <trkpt lat="48.88896" lon="2.38029">
        <ele>123.6</ele>
        <time>2015-03-30T20:25:58.516Z</time>
      </trkpt>
      <trkpt lat="48.88893" lon="2.38023">
        <ele>123</ele>
        <time>2015-03-30T20:25:59.506Z</time>
      </trkpt>
      <trkpt lat="48.8889" lon="2.38016">
        <ele>123.2</ele>
        <time>2015-03-30T20:26:00.435Z</time>
      </trkpt>
      <trkpt lat="48.88886" lon="2.38009">
        <ele>123</ele>
        <time>2015-03-30T20:26:01.481Z</time>
      </trkpt>
      <trkpt lat="48.88883" lon="2.38002">
        <ele>122.8</ele>
        <time>2015-03-30T20:26:02.497Z</time>
      </trkpt>
      <trkpt lat="48.8888" lon="2.37995">
        <ele>123.2</ele>
        <time>2015-03-30T20:26:03.509Z</time>
      </trkpt>
      <trkpt lat="48.88877" lon="2.37989">
        <ele>123.6</ele>
        <time>2015-03-30T20:26:04.440Z</time>
      </trkpt>
      <trkpt lat="48.88872" lon="2.37978">
        <ele>123.7</ele>
        <time>2015-03-30T20:26:06.478Z</time>
      </trkpt>
      <trkpt lat="48.88868" lon="2.37974">
        <ele>124.9</ele>
        <time>2015-03-30T20:26:07.524Z</time>
      </trkpt>
      <trkpt lat="48.88863" lon="2.37963">
        <ele>123</ele>
        <time>2015-03-30T20:26:09.463Z</time>
      </trkpt>
      <trkpt lat="48.88862" lon="2.37958">
        <ele>122.9</ele>
        <time>2015-03-30T20:26:10.501Z</time>
      </trkpt>
      <trkpt lat="48.88859" lon="2.37949">
        <ele>121.9</ele>
        <time>2015-03-30T20:26:12.453Z</time>
      </trkpt>
      <trkpt lat="48.88857" lon="2.37945">
        <ele>121.7</ele>
        <time>2015-03-30T20:26:13.498Z</time>
      </trkpt>
      <trkpt lat="48.88855" lon="2.37933">
        <ele>118.7</ele>
        <time>2015-03-30T20:26:16.415Z</time>
      </trkpt>
      <trkpt lat="48.88854" lon="2.37931">
        <ele>118.7</ele>
        <time>2015-03-30T20:26:17.452Z</time>
      </trkpt>
      <trkpt lat="48.88854" lon="2.37931">
        <ele>118.7</ele>
        <time>2015-03-30T20:27:34.469Z</time>
      </trkpt>
      <trkpt lat="48.88865" lon="2.37917">
        <ele>111.8</ele>
        <time>2015-03-30T20:27:35.477Z</time>
      </trkpt>
      <trkpt lat="48.88869" lon="2.37908">
        <ele>110.1</ele>
        <time>2015-03-30T20:27:39.452Z</time>
      </trkpt>
      <trkpt lat="48.8887" lon="2.37906">
        <ele>109.6</ele>
        <time>2015-03-30T20:27:40.454Z</time>
      </trkpt>
      <trkpt lat="48.88875" lon="2.37898">
        <ele>109</ele>
        <time>2015-03-30T20:27:43.513Z</time>
      </trkpt>
      <trkpt lat="48.88877" lon="2.37895">
        <ele>108.5</ele>
        <time>2015-03-30T20:27:44.526Z</time>
      </trkpt>
      <trkpt lat="48.88878" lon="2.37882">
        <ele>106.3</ele>
        <time>2015-03-30T20:27:49.523Z</time>
      </trkpt>
      <trkpt lat="48.88876" lon="2.37879">
        <ele>106.3</ele>
        <time>2015-03-30T20:27:50.546Z</time>
      </trkpt>
      <trkpt lat="48.88871" lon="2.37869">
        <ele>106.3</ele>
        <time>2015-03-30T20:27:52.460Z</time>
      </trkpt>
      <trkpt lat="48.88868" lon="2.37864">
        <ele>106.4</ele>
        <time>2015-03-30T20:27:53.479Z</time>
      </trkpt>
      <trkpt lat="48.88864" lon="2.37854">
        <ele>106.8</ele>
        <time>2015-03-30T20:27:55.549Z</time>
      </trkpt>
      <trkpt lat="48.88862" lon="2.3785">
        <ele>107.2</ele>
        <time>2015-03-30T20:27:56.472Z</time>
      </trkpt>
      <trkpt lat="48.88859" lon="2.3784">
        <ele>107.8</ele>
        <time>2015-03-30T20:27:58.465Z</time>
      </trkpt>
      <trkpt lat="48.88857" lon="2.37835">
        <ele>108</ele>
        <time>2015-03-30T20:27:59.481Z</time>
      </trkpt>
      <trkpt lat="48.88853" lon="2.37825">
        <ele>108.2</ele>
        <time>2015-03-30T20:28:01.530Z</time>
      </trkpt>
      <trkpt lat="48.88852" lon="2.3782">
        <ele>108.6</ele>
        <time>2015-03-30T20:28:02.472Z</time>
      </trkpt>
      <trkpt lat="48.88848" lon="2.3781">
        <ele>109.4</ele>
        <time>2015-03-30T20:28:04.448Z</time>
      </trkpt>
      <trkpt lat="48.88847" lon="2.37804">
        <ele>109.6</ele>
        <time>2015-03-30T20:28:05.472Z</time>
      </trkpt>
      <trkpt lat="48.88841" lon="2.37796">
        <ele>109.9</ele>
        <time>2015-03-30T20:28:07.493Z</time>
      </trkpt>
      <trkpt lat="48.88838" lon="2.3779">
        <ele>109.9</ele>
        <time>2015-03-30T20:28:08.502Z</time>
      </trkpt>
      <trkpt lat="48.88835" lon="2.37786">
        <ele>109.7</ele>
        <time>2015-03-30T20:28:09.513Z</time>
      </trkpt>
      <trkpt lat="48.88906" lon="2.38009">
        <ele>109.7</ele>
        <time>2015-03-30T20:28:10.517Z</time>
      </trkpt>
      <trkpt lat="48.88905" lon="2.38003">
        <ele>109.7</ele>
        <time>2015-03-30T20:28:11.450Z</time>
      </trkpt>
      <trkpt lat="48.88825" lon="2.37768">
        <ele>109.4</ele>
        <time>2015-03-30T20:28:12.436Z</time>
      </trkpt>
      <trkpt lat="48.8882" lon="2.37759">
        <ele>109.3</ele>
        <time>2015-03-30T20:28:13.457Z</time>
      </trkpt>
      <trkpt lat="48.88816" lon="2.37752">
        <ele>109.1</ele>
        <time>2015-03-30T20:28:14.455Z</time>
      </trkpt>
      <trkpt lat="48.88812" lon="2.37745">
        <ele>109</ele>
        <time>2015-03-30T20:28:15.473Z</time>
      </trkpt>
      <trkpt lat="48.88808" lon="2.37738">
        <ele>108.8</ele>
        <time>2015-03-30T20:28:16.482Z</time>
      </trkpt>
      <trkpt lat="48.88804" lon="2.37731">
        <ele>108.5</ele>
        <time>2015-03-30T20:28:18.368Z</time>
      </trkpt>
      <trkpt lat="48.888" lon="2.37725">
        <ele>108</ele>
        <time>2015-03-30T20:28:18.462Z</time>
      </trkpt>
      <trkpt lat="48.88797" lon="2.37719">
        <ele>107.8</ele>
        <time>2015-03-30T20:28:19.485Z</time>
      </trkpt>
      <trkpt lat="48.88793" lon="2.37714">
        <ele>107.8</ele>
        <time>2015-03-30T20:28:20.486Z</time>
      </trkpt>
      <trkpt lat="48.88786" lon="2.37705">
        <ele>107.9</ele>
        <time>2015-03-30T20:28:22.437Z</time>
      </trkpt>
      <trkpt lat="48.88783" lon="2.37699">
        <ele>108.1</ele>
        <time>2015-03-30T20:28:23.439Z</time>
      </trkpt>
      <trkpt lat="48.8878" lon="2.37688">
        <ele>108.3</ele>
        <time>2015-03-30T20:28:25.502Z</time>
      </trkpt>
      <trkpt lat="48.88778" lon="2.37683">
        <ele>108.7</ele>
        <time>2015-03-30T20:28:26.537Z</time>
      </trkpt>
      <trkpt lat="48.88773" lon="2.37673">
        <ele>108.5</ele>
        <time>2015-03-30T20:28:28.444Z</time>
      </trkpt>
      <trkpt lat="48.8877" lon="2.37669">
        <ele>108.4</ele>
        <time>2015-03-30T20:28:29.476Z</time>
      </trkpt>
      <trkpt lat="48.88767" lon="2.37661">
        <ele>108.3</ele>
        <time>2015-03-30T20:28:31.536Z</time>
      </trkpt>
      <trkpt lat="48.88768" lon="2.37655">
        <ele>108.2</ele>
        <time>2015-03-30T20:28:32.397Z</time>
      </trkpt>
      <trkpt lat="48.88854" lon="2.37855">
        <ele>108.1</ele>
        <time>2015-03-30T20:28:33.430Z</time>
      </trkpt>
      <trkpt lat="48.88851" lon="2.37845">
        <ele>108.2</ele>
        <time>2015-03-30T20:28:34.454Z</time>
      </trkpt>
      <trkpt lat="48.88847" lon="2.37834">
        <ele>108.5</ele>
        <time>2015-03-30T20:28:35.436Z</time>
      </trkpt>
      <trkpt lat="48.88842" lon="2.37824">
        <ele>108.8</ele>
        <time>2015-03-30T20:28:36.440Z</time>
      </trkpt>
      <trkpt lat="48.88838" lon="2.37815">
        <ele>109</ele>
        <time>2015-03-30T20:28:37.499Z</time>
      </trkpt>
      <trkpt lat="48.88834" lon="2.37804">
        <ele>109.2</ele>
        <time>2015-03-30T20:28:38.490Z</time>
      </trkpt>
      <trkpt lat="48.8883" lon="2.37794">
        <ele>109.8</ele>
        <time>2015-03-30T20:28:39.505Z</time>
      </trkpt>
      <trkpt lat="48.88826" lon="2.37783">
        <ele>110.5</ele>
        <time>2015-03-30T20:28:41.155Z</time>
      </trkpt>
      <trkpt lat="48.88746" lon="2.37599">
        <ele>110.9</ele>
        <time>2015-03-30T20:28:41.419Z</time>
      </trkpt>
      <trkpt lat="48.88817" lon="2.37761">
        <ele>111.4</ele>
        <time>2015-03-30T20:28:42.435Z</time>
      </trkpt>
      <trkpt lat="48.88737" lon="2.37587">
        <ele>111.7</ele>
        <time>2015-03-30T20:28:43.470Z</time>
      </trkpt>
      <trkpt lat="48.88733" lon="2.3758">
        <ele>111.8</ele>
        <time>2015-03-30T20:28:44.465Z</time>
      </trkpt>
      <trkpt lat="48.88728" lon="2.37571">
        <ele>112.1</ele>
        <time>2015-03-30T20:28:45.482Z</time>
      </trkpt>
      <trkpt lat="48.88724" lon="2.37564">
        <ele>112.2</ele>
        <time>2015-03-30T20:28:46.407Z</time>
      </trkpt>
      <trkpt lat="48.88722" lon="2.37558">
        <ele>111.8</ele>
        <time>2015-03-30T20:28:47.412Z</time>
      </trkpt>
      <trkpt lat="48.88719" lon="2.37553">
        <ele>111.8</ele>
        <time>2015-03-30T20:28:48.478Z</time>
      </trkpt>
      <trkpt lat="48.88787" lon="2.37692">
        <ele>112.2</ele>
        <time>2015-03-30T20:28:49.491Z</time>
      </trkpt>
      <trkpt lat="48.88712" lon="2.37537">
        <ele>112.2</ele>
        <time>2015-03-30T20:28:50.495Z</time>
      </trkpt>
      <trkpt lat="48.88707" lon="2.37528">
        <ele>112.2</ele>
        <time>2015-03-30T20:28:51.514Z</time>
      </trkpt>
      <trkpt lat="48.88702" lon="2.3752">
        <ele>112</ele>
        <time>2015-03-30T20:28:52.503Z</time>
      </trkpt>
      <trkpt lat="48.88696" lon="2.37512">
        <ele>111.5</ele>
        <time>2015-03-30T20:28:54.159Z</time>
      </trkpt>
      <trkpt lat="48.88691" lon="2.37506">
        <ele>111.4</ele>
        <time>2015-03-30T20:28:54.445Z</time>
      </trkpt>
      <trkpt lat="48.88686" lon="2.37497">
        <ele>111.1</ele>
        <time>2015-03-30T20:28:55.495Z</time>
      </trkpt>
      <trkpt lat="48.88681" lon="2.3749">
        <ele>110.9</ele>
        <time>2015-03-30T20:28:56.500Z</time>
      </trkpt>
      <trkpt lat="48.88677" lon="2.37482">
        <ele>110.6</ele>
        <time>2015-03-30T20:28:57.773Z</time>
      </trkpt>
      <trkpt lat="48.88672" lon="2.37475">
        <ele>110.2</ele>
        <time>2015-03-30T20:28:58.489Z</time>
      </trkpt>
      <trkpt lat="48.8867" lon="2.37467">
        <ele>110.5</ele>
        <time>2015-03-30T20:28:59.502Z</time>
      </trkpt>
      <trkpt lat="48.88666" lon="2.37461">
        <ele>110.3</ele>
        <time>2015-03-30T20:29:00.413Z</time>
      </trkpt>
      <trkpt lat="48.88663" lon="2.37454">
        <ele>110.5</ele>
        <time>2015-03-30T20:29:01.485Z</time>
      </trkpt>
      <trkpt lat="48.8866" lon="2.37447">
        <ele>110.6</ele>
        <time>2015-03-30T20:29:02.479Z</time>
      </trkpt>
      <trkpt lat="48.88657" lon="2.37441">
        <ele>110.7</ele>
        <time>2015-03-30T20:29:03.526Z</time>
      </trkpt>
      <trkpt lat="48.88654" lon="2.37435">
        <ele>110.7</ele>
        <time>2015-03-30T20:29:04.436Z</time>
      </trkpt>
      <trkpt lat="48.8865" lon="2.37428">
        <ele>110.9</ele>
        <time>2015-03-30T20:29:05.457Z</time>
      </trkpt>
      <trkpt lat="48.88646" lon="2.37421">
        <ele>110.9</ele>
        <time>2015-03-30T20:29:06.469Z</time>
      </trkpt>
      <trkpt lat="48.88643" lon="2.37413">
        <ele>110.9</ele>
        <time>2015-03-30T20:29:07.473Z</time>
      </trkpt>
      <trkpt lat="48.88641" lon="2.37405">
        <ele>111</ele>
        <time>2015-03-30T20:29:08.479Z</time>
      </trkpt>
      <trkpt lat="48.88638" lon="2.37398">
        <ele>111.1</ele>
        <time>2015-03-30T20:29:09.493Z</time>
      </trkpt>
      <trkpt lat="48.88635" lon="2.37391">
        <ele>111.1</ele>
        <time>2015-03-30T20:29:10.501Z</time>
      </trkpt>
      <trkpt lat="48.88632" lon="2.37384">
        <ele>111.3</ele>
        <time>2015-03-30T20:29:11.518Z</time>
      </trkpt>
      <trkpt lat="48.88629" lon="2.37377">
        <ele>111.3</ele>
        <time>2015-03-30T20:29:12.538Z</time>
      </trkpt>
      <trkpt lat="48.88625" lon="2.37372">
        <ele>111.2</ele>
        <time>2015-03-30T20:29:13.566Z</time>
      </trkpt>
      <trkpt lat="48.88621" lon="2.37366">
        <ele>111.3</ele>
        <time>2015-03-30T20:29:14.475Z</time>
      </trkpt>
      <trkpt lat="48.88617" lon="2.37359">
        <ele>111.2</ele>
        <time>2015-03-30T20:29:15.532Z</time>
      </trkpt>
      <trkpt lat="48.88613" lon="2.37353">
        <ele>111.2</ele>
        <time>2015-03-30T20:29:16.437Z</time>
      </trkpt>
      <trkpt lat="48.88608" lon="2.37346">
        <ele>111</ele>
        <time>2015-03-30T20:29:17.457Z</time>
      </trkpt>
      <trkpt lat="48.88604" lon="2.37339">
        <ele>110.7</ele>
        <time>2015-03-30T20:29:18.471Z</time>
      </trkpt>
      <trkpt lat="48.886" lon="2.37332">
        <ele>110.7</ele>
        <time>2015-03-30T20:29:19.481Z</time>
      </trkpt>
      <trkpt lat="48.88597" lon="2.37327">
        <ele>110.8</ele>
        <time>2015-03-30T20:29:20.494Z</time>
      </trkpt>
      <trkpt lat="48.88594" lon="2.37321">
        <ele>111.1</ele>
        <time>2015-03-30T20:29:21.510Z</time>
      </trkpt>
      <trkpt lat="48.88592" lon="2.37315">
        <ele>111.6</ele>
        <time>2015-03-30T20:29:22.518Z</time>
      </trkpt>
      <trkpt lat="48.88588" lon="2.37305">
        <ele>112.4</ele>
        <time>2015-03-30T20:29:24.426Z</time>
      </trkpt>
      <trkpt lat="48.88586" lon="2.37299">
        <ele>112.8</ele>
        <time>2015-03-30T20:29:25.508Z</time>
      </trkpt>
      <trkpt lat="48.88584" lon="2.37291">
        <ele>112.8</ele>
        <time>2015-03-30T20:29:26.416Z</time>
      </trkpt>
      <trkpt lat="48.88582" lon="2.37285">
        <ele>112.7</ele>
        <time>2015-03-30T20:29:27.429Z</time>
      </trkpt>
      <trkpt lat="48.88581" lon="2.37278">
        <ele>113.3</ele>
        <time>2015-03-30T20:29:28.458Z</time>
      </trkpt>
      <trkpt lat="48.88581" lon="2.37271">
        <ele>113.7</ele>
        <time>2015-03-30T20:29:29.478Z</time>
      </trkpt>
      <trkpt lat="48.88579" lon="2.37258">
        <ele>114.1</ele>
        <time>2015-03-30T20:29:31.475Z</time>
      </trkpt>
      <trkpt lat="48.88577" lon="2.37251">
        <ele>113.9</ele>
        <time>2015-03-30T20:29:32.480Z</time>
      </trkpt>
      <trkpt lat="48.88575" lon="2.37245">
        <ele>114.1</ele>
        <time>2015-03-30T20:29:33.406Z</time>
      </trkpt>
      <trkpt lat="48.88572" lon="2.37239">
        <ele>114.1</ele>
        <time>2015-03-30T20:29:34.434Z</time>
      </trkpt>
      <trkpt lat="48.88566" lon="2.37229">
        <ele>114.5</ele>
        <time>2015-03-30T20:29:36.439Z</time>
      </trkpt>
      <trkpt lat="48.88563" lon="2.37222">
        <ele>114.7</ele>
        <time>2015-03-30T20:29:37.502Z</time>
      </trkpt>
      <trkpt lat="48.8856" lon="2.37216">
        <ele>114.9</ele>
        <time>2015-03-30T20:29:38.456Z</time>
      </trkpt>
      <trkpt lat="48.88557" lon="2.37209">
        <ele>115</ele>
        <time>2015-03-30T20:29:39.430Z</time>
      </trkpt>
      <trkpt lat="48.88554" lon="2.37203">
        <ele>115.3</ele>
        <time>2015-03-30T20:29:40.456Z</time>
      </trkpt>
      <trkpt lat="48.88549" lon="2.37197">
        <ele>115.5</ele>
        <time>2015-03-30T20:29:41.474Z</time>
      </trkpt>
      <trkpt lat="48.88546" lon="2.37191">
        <ele>115.5</ele>
        <time>2015-03-30T20:29:42.509Z</time>
      </trkpt>
      <trkpt lat="48.88542" lon="2.37186">
        <ele>115.6</ele>
        <time>2015-03-30T20:29:43.519Z</time>
      </trkpt>
      <trkpt lat="48.8854" lon="2.37179">
        <ele>116</ele>
        <time>2015-03-30T20:29:44.486Z</time>
      </trkpt>
      <trkpt lat="48.88537" lon="2.37172">
        <ele>116.1</ele>
        <time>2015-03-30T20:29:45.474Z</time>
      </trkpt>
      <trkpt lat="48.88533" lon="2.37165">
        <ele>116.2</ele>
        <time>2015-03-30T20:29:46.479Z</time>
      </trkpt>
      <trkpt lat="48.8853" lon="2.37158">
        <ele>116.1</ele>
        <time>2015-03-30T20:29:47.482Z</time>
      </trkpt>
      <trkpt lat="48.88527" lon="2.37152">
        <ele>116.2</ele>
        <time>2015-03-30T20:29:48.496Z</time>
      </trkpt>
      <trkpt lat="48.88525" lon="2.37144">
        <ele>116</ele>
        <time>2015-03-30T20:29:49.509Z</time>
      </trkpt>
      <trkpt lat="48.88522" lon="2.37137">
        <ele>116</ele>
        <time>2015-03-30T20:29:50.514Z</time>
      </trkpt>
      <trkpt lat="48.88519" lon="2.37131">
        <ele>115.9</ele>
        <time>2015-03-30T20:29:51.523Z</time>
      </trkpt>
      <trkpt lat="48.88517" lon="2.37124">
        <ele>115.8</ele>
        <time>2015-03-30T20:29:52.451Z</time>
      </trkpt>
      <trkpt lat="48.88514" lon="2.37118">
        <ele>115.7</ele>
        <time>2015-03-30T20:29:53.451Z</time>
      </trkpt>
      <trkpt lat="48.88511" lon="2.37111">
        <ele>115.8</ele>
        <time>2015-03-30T20:29:54.451Z</time>
      </trkpt>
      <trkpt lat="48.88507" lon="2.37104">
        <ele>116</ele>
        <time>2015-03-30T20:29:55.479Z</time>
      </trkpt>
      <trkpt lat="48.88501" lon="2.37097">
        <ele>115.7</ele>
        <time>2015-03-30T20:29:56.481Z</time>
      </trkpt>
      <trkpt lat="48.88496" lon="2.3709">
        <ele>115.8</ele>
        <time>2015-03-30T20:29:57.488Z</time>
      </trkpt>
      <trkpt lat="48.88493" lon="2.37085">
        <ele>115.7</ele>
        <time>2015-03-30T20:29:58.529Z</time>
      </trkpt>
      <trkpt lat="48.8849" lon="2.37078">
        <ele>115.6</ele>
        <time>2015-03-30T20:29:59.439Z</time>
      </trkpt>
      <trkpt lat="48.88486" lon="2.3707">
        <ele>115.3</ele>
        <time>2015-03-30T20:30:00.438Z</time>
      </trkpt>
      <trkpt lat="48.88482" lon="2.37062">
        <ele>115.1</ele>
        <time>2015-03-30T20:30:01.478Z</time>
      </trkpt>
      <trkpt lat="48.88478" lon="2.37055">
        <ele>114.9</ele>
        <time>2015-03-30T20:30:02.491Z</time>
      </trkpt>
      <trkpt lat="48.88474" lon="2.37048">
        <ele>114.9</ele>
        <time>2015-03-30T20:30:03.436Z</time>
      </trkpt>
      <trkpt lat="48.88472" lon="2.37041">
        <ele>115</ele>
        <time>2015-03-30T20:30:04.444Z</time>
      </trkpt>
      <trkpt lat="48.8847" lon="2.37033">
        <ele>114.9</ele>
        <time>2015-03-30T20:30:05.473Z</time>
      </trkpt>
      <trkpt lat="48.88467" lon="2.37026">
        <ele>114.6</ele>
        <time>2015-03-30T20:30:06.484Z</time>
      </trkpt>
      <trkpt lat="48.88464" lon="2.3702">
        <ele>113.8</ele>
        <time>2015-03-30T20:30:07.497Z</time>
      </trkpt>
      <trkpt lat="48.88459" lon="2.37009">
        <ele>113.2</ele>
        <time>2015-03-30T20:30:09.424Z</time>
      </trkpt>
      <trkpt lat="48.88456" lon="2.37005">
        <ele>112.8</ele>
        <time>2015-03-30T20:30:10.450Z</time>
      </trkpt>
      <trkpt lat="48.88452" lon="2.36999">
        <ele>112.8</ele>
        <time>2015-03-30T20:30:11.491Z</time>
      </trkpt>
      <trkpt lat="48.88448" lon="2.36993">
        <ele>112.4</ele>
        <time>2015-03-30T20:30:12.498Z</time>
      </trkpt>
      <trkpt lat="48.88443" lon="2.36982">
        <ele>111.9</ele>
        <time>2015-03-30T20:30:14.458Z</time>
      </trkpt>
      <trkpt lat="48.88598" lon="2.37305">
        <ele>112.2</ele>
        <time>2015-03-30T20:30:15.463Z</time>
      </trkpt>
      <trkpt lat="48.88594" lon="2.37293">
        <ele>113.2</ele>
        <time>2015-03-30T20:30:18.465Z</time>
      </trkpt>
      <trkpt lat="48.88593" lon="2.37289">
        <ele>113.4</ele>
        <time>2015-03-30T20:30:19.511Z</time>
      </trkpt>
      <trkpt lat="48.8859" lon="2.37282">
        <ele>113</ele>
        <time>2015-03-30T20:30:21.434Z</time>
      </trkpt>
      <trkpt lat="48.88588" lon="2.37277">
        <ele>113</ele>
        <time>2015-03-30T20:30:22.453Z</time>
      </trkpt>
      <trkpt lat="48.88584" lon="2.37267">
        <ele>113.1</ele>
        <time>2015-03-30T20:30:24.472Z</time>
      </trkpt>
      <trkpt lat="48.88582" lon="2.37262">
        <ele>112.9</ele>
        <time>2015-03-30T20:30:25.499Z</time>
      </trkpt>
      <trkpt lat="48.88578" lon="2.37252">
        <ele>112.9</ele>
        <time>2015-03-30T20:30:27.440Z</time>
      </trkpt>
      <trkpt lat="48.88576" lon="2.37246">
        <ele>112.8</ele>
        <time>2015-03-30T20:30:28.441Z</time>
      </trkpt>
      <trkpt lat="48.88573" lon="2.37239">
        <ele>112.9</ele>
        <time>2015-03-30T20:30:29.460Z</time>
      </trkpt>
      <trkpt lat="48.88571" lon="2.37233">
        <ele>113.7</ele>
        <time>2015-03-30T20:30:30.500Z</time>
      </trkpt>
      <trkpt lat="48.88569" lon="2.37227">
        <ele>113.7</ele>
        <time>2015-03-30T20:30:31.449Z</time>
      </trkpt>
      <trkpt lat="48.8856" lon="2.37207">
        <ele>113.7</ele>
        <time>2015-03-30T20:30:32.495Z</time>
      </trkpt>
      <trkpt lat="48.88553" lon="2.37189">
        <ele>113.7</ele>
        <time>2015-03-30T20:30:33.520Z</time>
      </trkpt>
      <trkpt lat="48.88547" lon="2.37173">
        <ele>113.7</ele>
        <time>2015-03-30T20:30:34.518Z</time>
      </trkpt>
      <trkpt lat="48.88541" lon="2.37159">
        <ele>113.7</ele>
        <time>2015-03-30T20:30:35.473Z</time>
      </trkpt>
      <trkpt lat="48.88536" lon="2.37146">
        <ele>113.7</ele>
        <time>2015-03-30T20:30:36.458Z</time>
      </trkpt>
      <trkpt lat="48.88531" lon="2.37135">
        <ele>113.7</ele>
        <time>2015-03-30T20:30:37.485Z</time>
      </trkpt>
      <trkpt lat="48.88526" lon="2.37125">
        <ele>113.7</ele>
        <time>2015-03-30T20:30:38.486Z</time>
      </trkpt>
      <trkpt lat="48.88522" lon="2.37115">
        <ele>113.7</ele>
        <time>2015-03-30T20:30:39.499Z</time>
      </trkpt>
      <trkpt lat="48.88519" lon="2.37107">
        <ele>113.7</ele>
        <time>2015-03-30T20:30:40.503Z</time>
      </trkpt>
      <trkpt lat="48.88515" lon="2.37099">
        <ele>113.7</ele>
        <time>2015-03-30T20:30:41.505Z</time>
      </trkpt>
      <trkpt lat="48.88512" lon="2.37092">
        <ele>113.7</ele>
        <time>2015-03-30T20:30:42.442Z</time>
      </trkpt>
      <trkpt lat="48.88509" lon="2.37086">
        <ele>113.7</ele>
        <time>2015-03-30T20:30:43.481Z</time>
      </trkpt>
      <trkpt lat="48.88506" lon="2.3708">
        <ele>113.7</ele>
        <time>2015-03-30T20:30:44.481Z</time>
      </trkpt>
      <trkpt lat="48.88501" lon="2.37069">
        <ele>113.7</ele>
        <time>2015-03-30T20:30:46.558Z</time>
      </trkpt>
      <trkpt lat="48.88499" lon="2.37064">
        <ele>113.7</ele>
        <time>2015-03-30T20:30:47.499Z</time>
      </trkpt>
      <trkpt lat="48.88495" lon="2.37056">
        <ele>113.7</ele>
        <time>2015-03-30T20:30:49.493Z</time>
      </trkpt>
      <trkpt lat="48.88493" lon="2.37052">
        <ele>113.7</ele>
        <time>2015-03-30T20:30:50.488Z</time>
      </trkpt>
      <trkpt lat="48.88488" lon="2.37041">
        <ele>113.7</ele>
        <time>2015-03-30T20:30:53.487Z</time>
      </trkpt>
      <trkpt lat="48.88486" lon="2.37038">
        <ele>113.7</ele>
        <time>2015-03-30T20:30:54.459Z</time>
      </trkpt>
      <trkpt lat="48.88481" lon="2.37027">
        <ele>113.7</ele>
        <time>2015-03-30T20:30:58.571Z</time>
      </trkpt>
      <trkpt lat="48.8848" lon="2.37024">
        <ele>113.7</ele>
        <time>2015-03-30T20:30:59.425Z</time>
      </trkpt>
      <trkpt lat="48.88475" lon="2.37014">
        <ele>113.7</ele>
        <time>2015-03-30T20:31:04.506Z</time>
      </trkpt>
      <trkpt lat="48.88474" lon="2.37012">
        <ele>113.7</ele>
        <time>2015-03-30T20:31:05.415Z</time>
      </trkpt>
      <trkpt lat="48.88468" lon="2.37002">
        <ele>113.7</ele>
        <time>2015-03-30T20:31:20.535Z</time>
      </trkpt>
      <trkpt lat="48.88467" lon="2.37002">
        <ele>113.7</ele>
        <time>2015-03-30T20:31:21.223Z</time>
      </trkpt>
      <trkpt lat="48.88465" lon="2.36998">
        <ele>113.7</ele>
        <time>2015-03-30T20:31:22.417Z</time>
      </trkpt>
      <trkpt lat="48.88461" lon="2.36991">
        <ele>113.7</ele>
        <time>2015-03-30T20:31:23.438Z</time>
      </trkpt>
      <trkpt lat="48.88457" lon="2.36982">
        <ele>113.7</ele>
        <time>2015-03-30T20:31:24.461Z</time>
      </trkpt>
      <trkpt lat="48.88452" lon="2.36973">
        <ele>123.4</ele>
        <time>2015-03-30T20:31:25.547Z</time>
      </trkpt>
      <trkpt lat="48.88448" lon="2.36966">
        <ele>123.6</ele>
        <time>2015-03-30T20:31:26.578Z</time>
      </trkpt>
      <trkpt lat="48.88444" lon="2.36958">
        <ele>123.9</ele>
        <time>2015-03-30T20:31:27.451Z</time>
      </trkpt>
      <trkpt lat="48.88441" lon="2.36952">
        <ele>124.8</ele>
        <time>2015-03-30T20:31:28.456Z</time>
      </trkpt>
      <trkpt lat="48.88437" lon="2.36945">
        <ele>125.6</ele>
        <time>2015-03-30T20:31:29.471Z</time>
      </trkpt>
      <trkpt lat="48.88433" lon="2.36938">
        <ele>126.2</ele>
        <time>2015-03-30T20:31:31.383Z</time>
      </trkpt>
      <trkpt lat="48.8843" lon="2.36933">
        <ele>126.5</ele>
        <time>2015-03-30T20:31:31.481Z</time>
      </trkpt>
      <trkpt lat="48.88428" lon="2.36928">
        <ele>126.9</ele>
        <time>2015-03-30T20:31:32.504Z</time>
      </trkpt>
      <trkpt lat="48.88425" lon="2.36921">
        <ele>127.6</ele>
        <time>2015-03-30T20:31:33.438Z</time>
      </trkpt>
      <trkpt lat="48.8842" lon="2.36912">
        <ele>127.2</ele>
        <time>2015-03-30T20:31:37.498Z</time>
      </trkpt>
      <trkpt lat="48.88419" lon="2.3691">
        <ele>127.3</ele>
        <time>2015-03-30T20:31:38.401Z</time>
      </trkpt>
      <trkpt lat="48.88416" lon="2.36898">
        <ele>127.1</ele>
        <time>2015-03-30T20:31:40.431Z</time>
      </trkpt>
      <trkpt lat="48.88415" lon="2.36896">
        <ele>127.2</ele>
        <time>2015-03-30T20:31:41.402Z</time>
      </trkpt>
      <trkpt lat="48.88414" lon="2.36892">
        <ele>127.3</ele>
        <time>2015-03-30T20:31:43.475Z</time>
      </trkpt>
      <trkpt lat="48.8841" lon="2.36882">
        <ele>126.9</ele>
        <time>2015-03-30T20:31:44.490Z</time>
      </trkpt>
      <trkpt lat="48.88402" lon="2.36865">
        <ele>126.7</ele>
        <time>2015-03-30T20:31:45.501Z</time>
      </trkpt>
      <trkpt lat="48.88398" lon="2.36859">
        <ele>126.6</ele>
        <time>2015-03-30T20:31:46.839Z</time>
      </trkpt>
      <trkpt lat="48.88392" lon="2.36853">
        <ele>126.9</ele>
        <time>2015-03-30T20:31:47.524Z</time>
      </trkpt>
      <trkpt lat="48.88384" lon="2.3685">
        <ele>126.9</ele>
        <time>2015-03-30T20:31:48.442Z</time>
      </trkpt>
      <trkpt lat="48.88381" lon="2.36851">
        <ele>126.9</ele>
        <time>2015-03-30T20:31:49.490Z</time>
      </trkpt>
      <trkpt lat="48.88374" lon="2.3685">
        <ele>126.6</ele>
        <time>2015-03-30T20:31:51.961Z</time>
      </trkpt>
      <trkpt lat="48.88371" lon="2.36848">
        <ele>126.8</ele>
        <time>2015-03-30T20:31:52.480Z</time>
      </trkpt>
      <trkpt lat="48.88364" lon="2.36841">
        <ele>128</ele>
        <time>2015-03-30T20:31:57.075Z</time>
      </trkpt>
      <trkpt lat="48.88361" lon="2.36838">
        <ele>128</ele>
        <time>2015-03-30T20:31:57.493Z</time>
      </trkpt>
      <trkpt lat="48.88355" lon="2.36831">
        <ele>127.5</ele>
        <time>2015-03-30T20:31:59.513Z</time>
      </trkpt>
      <trkpt lat="48.88352" lon="2.36827">
        <ele>127.3</ele>
        <time>2015-03-30T20:32:00.391Z</time>
      </trkpt>
      <trkpt lat="48.88346" lon="2.36818">
        <ele>126.8</ele>
        <time>2015-03-30T20:32:02.483Z</time>
      </trkpt>
      <trkpt lat="48.88343" lon="2.36814">
        <ele>126.6</ele>
        <time>2015-03-30T20:32:03.508Z</time>
      </trkpt>
      <trkpt lat="48.88338" lon="2.36805">
        <ele>126.2</ele>
        <time>2015-03-30T20:32:06.424Z</time>
      </trkpt>
      <trkpt lat="48.88333" lon="2.36798">
        <ele>126.1</ele>
        <time>2015-03-30T20:32:07.440Z</time>
      </trkpt>
      <trkpt lat="48.88328" lon="2.36792">
        <ele>126.1</ele>
        <time>2015-03-30T20:32:08.460Z</time>
      </trkpt>
      <trkpt lat="48.88325" lon="2.36787">
        <ele>126.1</ele>
        <time>2015-03-30T20:32:09.458Z</time>
      </trkpt>
      <trkpt lat="48.88319" lon="2.36779">
        <ele>126.7</ele>
        <time>2015-03-30T20:32:12.356Z</time>
      </trkpt>
      <trkpt lat="48.88315" lon="2.36774">
        <ele>126.8</ele>
        <time>2015-03-30T20:32:12.396Z</time>
      </trkpt>
      <trkpt lat="48.8831" lon="2.36767">
        <ele>127.4</ele>
        <time>2015-03-30T20:32:14.441Z</time>
      </trkpt>
      <trkpt lat="48.88306" lon="2.36761">
        <ele>127.6</ele>
        <time>2015-03-30T20:32:15.461Z</time>
      </trkpt>
      <trkpt lat="48.88301" lon="2.36753">
        <ele>128.6</ele>
        <time>2015-03-30T20:32:17.472Z</time>
      </trkpt>
      <trkpt lat="48.88297" lon="2.36747">
        <ele>128.9</ele>
        <time>2015-03-30T20:32:18.499Z</time>
      </trkpt>
      <trkpt lat="48.88294" lon="2.36741">
        <ele>129.3</ele>
        <time>2015-03-30T20:32:19.529Z</time>
      </trkpt>
      <trkpt lat="48.8829" lon="2.36734">
        <ele>129.7</ele>
        <time>2015-03-30T20:32:20.429Z</time>
      </trkpt>
      <trkpt lat="48.88287" lon="2.36729">
        <ele>130</ele>
        <time>2015-03-30T20:32:21.440Z</time>
      </trkpt>
      <trkpt lat="48.88283" lon="2.36724">
        <ele>130.3</ele>
        <time>2015-03-30T20:32:22.504Z</time>
      </trkpt>
      <trkpt lat="48.88276" lon="2.36715">
        <ele>130.4</ele>
        <time>2015-03-30T20:32:24.438Z</time>
      </trkpt>
      <trkpt lat="48.88273" lon="2.36711">
        <ele>130.5</ele>
        <time>2015-03-30T20:32:25.496Z</time>
      </trkpt>
      <trkpt lat="48.88273" lon="2.36711">
        <ele>130.5</ele>
        <time>2015-03-30T20:32:26.247Z</time>
      </trkpt>
      <trkpt lat="48.88265" lon="2.36699">
        <ele>130.3</ele>
        <time>2015-03-30T20:32:26.396Z</time>
      </trkpt>
      <trkpt lat="48.88262" lon="2.36694">
        <ele>130.1</ele>
        <time>2015-03-30T20:32:27.444Z</time>
      </trkpt>
      <trkpt lat="48.88258" lon="2.36688">
        <ele>130.1</ele>
        <time>2015-03-30T20:32:28.505Z</time>
      </trkpt>
      <trkpt lat="48.88253" lon="2.36683">
        <ele>130.2</ele>
        <time>2015-03-30T20:32:29.442Z</time>
      </trkpt>
      <trkpt lat="48.88249" lon="2.36677">
        <ele>130.1</ele>
        <time>2015-03-30T20:32:30.462Z</time>
      </trkpt>
      <trkpt lat="48.88244" lon="2.36672">
        <ele>130.1</ele>
        <time>2015-03-30T20:32:31.499Z</time>
      </trkpt>
      <trkpt lat="48.88241" lon="2.36667">
        <ele>130.3</ele>
        <time>2015-03-30T20:32:32.418Z</time>
      </trkpt>
      <trkpt lat="48.88237" lon="2.36662">
        <ele>130.2</ele>
        <time>2015-03-30T20:32:33.442Z</time>
      </trkpt>
      <trkpt lat="48.88233" lon="2.36657">
        <ele>130.2</ele>
        <time>2015-03-30T20:32:34.452Z</time>
      </trkpt>
      <trkpt lat="48.88229" lon="2.36652">
        <ele>130</ele>
        <time>2015-03-30T20:32:35.482Z</time>
      </trkpt>
      <trkpt lat="48.88224" lon="2.36648">
        <ele>130</ele>
        <time>2015-03-30T20:32:36.393Z</time>
      </trkpt>
      <trkpt lat="48.88219" lon="2.36642">
        <ele>129.8</ele>
        <time>2015-03-30T20:32:37.461Z</time>
      </trkpt>
      <trkpt lat="48.88215" lon="2.36638">
        <ele>129.9</ele>
        <time>2015-03-30T20:32:38.465Z</time>
      </trkpt>
      <trkpt lat="48.8821" lon="2.36635">
        <ele>130</ele>
        <time>2015-03-30T20:32:39.500Z</time>
      </trkpt>
      <trkpt lat="48.88206" lon="2.36629">
        <ele>130.2</ele>
        <time>2015-03-30T20:32:40.506Z</time>
      </trkpt>
      <trkpt lat="48.88201" lon="2.36624">
        <ele>130.4</ele>
        <time>2015-03-30T20:32:41.418Z</time>
      </trkpt>
      <trkpt lat="48.88197" lon="2.3662">
        <ele>130.6</ele>
        <time>2015-03-30T20:32:42.423Z</time>
      </trkpt>
      <trkpt lat="48.88194" lon="2.36616">
        <ele>131.1</ele>
        <time>2015-03-30T20:32:43.477Z</time>
      </trkpt>
      <trkpt lat="48.8819" lon="2.36612">
        <ele>131.2</ele>
        <time>2015-03-30T20:32:44.488Z</time>
      </trkpt>
      <trkpt lat="48.88185" lon="2.36609">
        <ele>130.9</ele>
        <time>2015-03-30T20:32:45.492Z</time>
      </trkpt>
      <trkpt lat="48.8818" lon="2.36606">
        <ele>130.6</ele>
        <time>2015-03-30T20:32:46.511Z</time>
      </trkpt>
      <trkpt lat="48.88176" lon="2.366">
        <ele>130.8</ele>
        <time>2015-03-30T20:32:47.410Z</time>
      </trkpt>
      <trkpt lat="48.88173" lon="2.36595">
        <ele>131.1</ele>
        <time>2015-03-30T20:32:48.407Z</time>
      </trkpt>
      <trkpt lat="48.88165" lon="2.36587">
        <ele>131.3</ele>
        <time>2015-03-30T20:32:50.444Z</time>
      </trkpt>
      <trkpt lat="48.88162" lon="2.36582">
        <ele>131.1</ele>
        <time>2015-03-30T20:32:51.468Z</time>
      </trkpt>
      <trkpt lat="48.88158" lon="2.36574">
        <ele>131.5</ele>
        <time>2015-03-30T20:32:53.512Z</time>
      </trkpt>
      <trkpt lat="48.88156" lon="2.3657">
        <ele>131.6</ele>
        <time>2015-03-30T20:32:54.453Z</time>
      </trkpt>
      <trkpt lat="48.88149" lon="2.36563">
        <ele>132.2</ele>
        <time>2015-03-30T20:32:57.446Z</time>
      </trkpt>
      <trkpt lat="48.88146" lon="2.3656">
        <ele>132.5</ele>
        <time>2015-03-30T20:32:58.472Z</time>
      </trkpt>
      <trkpt lat="48.88141" lon="2.36553">
        <ele>133.2</ele>
        <time>2015-03-30T20:33:00.401Z</time>
      </trkpt>
      <trkpt lat="48.88138" lon="2.36549">
        <ele>133.6</ele>
        <time>2015-03-30T20:33:01.495Z</time>
      </trkpt>
      <trkpt lat="48.88132" lon="2.36541">
        <ele>134.7</ele>
        <time>2015-03-30T20:33:03.425Z</time>
      </trkpt>
      <trkpt lat="48.88128" lon="2.36536">
        <ele>135.2</ele>
        <time>2015-03-30T20:33:04.447Z</time>
      </trkpt>
      <trkpt lat="48.88122" lon="2.36527">
        <ele>136.1</ele>
        <time>2015-03-30T20:33:06.446Z</time>
      </trkpt>
      <trkpt lat="48.88119" lon="2.36522">
        <ele>136.6</ele>
        <time>2015-03-30T20:33:07.493Z</time>
      </trkpt>
      <trkpt lat="48.88113" lon="2.36514">
        <ele>136.4</ele>
        <time>2015-03-30T20:33:09.434Z</time>
      </trkpt>
      <trkpt lat="48.88109" lon="2.36511">
        <ele>135.4</ele>
        <time>2015-03-30T20:33:10.440Z</time>
      </trkpt>
      <trkpt lat="48.88103" lon="2.36502">
        <ele>135.2</ele>
        <time>2015-03-30T20:33:12.469Z</time>
      </trkpt>
      <trkpt lat="48.88097" lon="2.36492">
        <ele>134.9</ele>
        <time>2015-03-30T20:33:14.508Z</time>
      </trkpt>
      <trkpt lat="48.88093" lon="2.36486">
        <ele>134.8</ele>
        <time>2015-03-30T20:33:15.422Z</time>
      </trkpt>
      <trkpt lat="48.88089" lon="2.36481">
        <ele>134.8</ele>
        <time>2015-03-30T20:33:16.411Z</time>
      </trkpt>
      <trkpt lat="48.88084" lon="2.36477">
        <ele>134.7</ele>
        <time>2015-03-30T20:33:17.491Z</time>
      </trkpt>
      <trkpt lat="48.88079" lon="2.36473">
        <ele>134.8</ele>
        <time>2015-03-30T20:33:18.507Z</time>
      </trkpt>
      <trkpt lat="48.88075" lon="2.36469">
        <ele>134.7</ele>
        <time>2015-03-30T20:33:19.532Z</time>
      </trkpt>
      <trkpt lat="48.88072" lon="2.36464">
        <ele>134.7</ele>
        <time>2015-03-30T20:33:20.437Z</time>
      </trkpt>
      <trkpt lat="48.88068" lon="2.36459">
        <ele>134.6</ele>
        <time>2015-03-30T20:33:21.459Z</time>
      </trkpt>
      <trkpt lat="48.88063" lon="2.36453">
        <ele>134.6</ele>
        <time>2015-03-30T20:33:22.464Z</time>
      </trkpt>
      <trkpt lat="48.88059" lon="2.36447">
        <ele>134.6</ele>
        <time>2015-03-30T20:33:23.488Z</time>
      </trkpt>
      <trkpt lat="48.88055" lon="2.36442">
        <ele>134.7</ele>
        <time>2015-03-30T20:33:24.509Z</time>
      </trkpt>
      <trkpt lat="48.88052" lon="2.36435">
        <ele>134.7</ele>
        <time>2015-03-30T20:33:25.548Z</time>
      </trkpt>
      <trkpt lat="48.88048" lon="2.3643">
        <ele>134.7</ele>
        <time>2015-03-30T20:33:26.415Z</time>
      </trkpt>
      <trkpt lat="48.88043" lon="2.36426">
        <ele>134.3</ele>
        <time>2015-03-30T20:33:27.449Z</time>
      </trkpt>
      <trkpt lat="48.88039" lon="2.36421">
        <ele>134.5</ele>
        <time>2015-03-30T20:33:28.472Z</time>
      </trkpt>
      <trkpt lat="48.88032" lon="2.36416">
        <ele>134.4</ele>
        <time>2015-03-30T20:33:29.475Z</time>
      </trkpt>
      <trkpt lat="48.88028" lon="2.36411">
        <ele>134.4</ele>
        <time>2015-03-30T20:33:30.488Z</time>
      </trkpt>
      <trkpt lat="48.88024" lon="2.36406">
        <ele>134.5</ele>
        <time>2015-03-30T20:33:31.533Z</time>
      </trkpt>
      <trkpt lat="48.8802" lon="2.36402">
        <ele>134.6</ele>
        <time>2015-03-30T20:33:32.418Z</time>
      </trkpt>
      <trkpt lat="48.88013" lon="2.36395">
        <ele>134.6</ele>
        <time>2015-03-30T20:33:34.435Z</time>
      </trkpt>
      <trkpt lat="48.88011" lon="2.3639">
        <ele>134.7</ele>
        <time>2015-03-30T20:33:35.452Z</time>
      </trkpt>
      <trkpt lat="48.88008" lon="2.36383">
        <ele>134.8</ele>
        <time>2015-03-30T20:33:36.482Z</time>
      </trkpt>
      <trkpt lat="48.88005" lon="2.36377">
        <ele>134.8</ele>
        <time>2015-03-30T20:33:37.492Z</time>
      </trkpt>
      <trkpt lat="48.88002" lon="2.36371">
        <ele>134.9</ele>
        <time>2015-03-30T20:33:38.500Z</time>
      </trkpt>
      <trkpt lat="48.87998" lon="2.36364">
        <ele>134.9</ele>
        <time>2015-03-30T20:33:39.507Z</time>
      </trkpt>
      <trkpt lat="48.87993" lon="2.36359">
        <ele>134.9</ele>
        <time>2015-03-30T20:33:40.828Z</time>
      </trkpt>
      <trkpt lat="48.87989" lon="2.36355">
        <ele>134.7</ele>
        <time>2015-03-30T20:33:41.443Z</time>
      </trkpt>
      <trkpt lat="48.87983" lon="2.3635">
        <ele>134.2</ele>
        <time>2015-03-30T20:33:42.427Z</time>
      </trkpt>
      <trkpt lat="48.87978" lon="2.36344">
        <ele>134.1</ele>
        <time>2015-03-30T20:33:43.459Z</time>
      </trkpt>
      <trkpt lat="48.87971" lon="2.3634">
        <ele>134.1</ele>
        <time>2015-03-30T20:33:44.491Z</time>
      </trkpt>
      <trkpt lat="48.87966" lon="2.36334">
        <ele>134</ele>
        <time>2015-03-30T20:33:45.492Z</time>
      </trkpt>
      <trkpt lat="48.87962" lon="2.36327">
        <ele>134</ele>
        <time>2015-03-30T20:33:46.379Z</time>
      </trkpt>
      <trkpt lat="48.87959" lon="2.36321">
        <ele>134.1</ele>
        <time>2015-03-30T20:33:47.406Z</time>
      </trkpt>
      <trkpt lat="48.87958" lon="2.36312">
        <ele>134.3</ele>
        <time>2015-03-30T20:33:48.412Z</time>
      </trkpt>
      <trkpt lat="48.87955" lon="2.36306">
        <ele>134.3</ele>
        <time>2015-03-30T20:33:49.438Z</time>
      </trkpt>
      <trkpt lat="48.8795" lon="2.36301">
        <ele>134.3</ele>
        <time>2015-03-30T20:33:50.452Z</time>
      </trkpt>
      <trkpt lat="48.87946" lon="2.36296">
        <ele>134.4</ele>
        <time>2015-03-30T20:33:51.541Z</time>
      </trkpt>
      <trkpt lat="48.87942" lon="2.36293">
        <ele>134.2</ele>
        <time>2015-03-30T20:33:52.409Z</time>
      </trkpt>
      <trkpt lat="48.87937" lon="2.36289">
        <ele>134.1</ele>
        <time>2015-03-30T20:33:53.416Z</time>
      </trkpt>
      <trkpt lat="48.87932" lon="2.36285">
        <ele>133.7</ele>
        <time>2015-03-30T20:33:54.436Z</time>
      </trkpt>
      <trkpt lat="48.87927" lon="2.36282">
        <ele>132.4</ele>
        <time>2015-03-30T20:33:55.480Z</time>
      </trkpt>
      <trkpt lat="48.87924" lon="2.36277">
        <ele>132.1</ele>
        <time>2015-03-30T20:33:56.485Z</time>
      </trkpt>
      <trkpt lat="48.87921" lon="2.36272">
        <ele>132.3</ele>
        <time>2015-03-30T20:33:57.501Z</time>
      </trkpt>
      <trkpt lat="48.87917" lon="2.36267">
        <ele>132.8</ele>
        <time>2015-03-30T20:33:58.417Z</time>
      </trkpt>
      <trkpt lat="48.87913" lon="2.36261">
        <ele>133.4</ele>
        <time>2015-03-30T20:33:59.422Z</time>
      </trkpt>
      <trkpt lat="48.87908" lon="2.36251">
        <ele>134.9</ele>
        <time>2015-03-30T20:34:01.509Z</time>
      </trkpt>
      <trkpt lat="48.87906" lon="2.36246">
        <ele>135.2</ele>
        <time>2015-03-30T20:34:02.586Z</time>
      </trkpt>
      <trkpt lat="48.87903" lon="2.36242">
        <ele>135.8</ele>
        <time>2015-03-30T20:34:03.411Z</time>
      </trkpt>
      <trkpt lat="48.87899" lon="2.36237">
        <ele>136.1</ele>
        <time>2015-03-30T20:34:04.443Z</time>
      </trkpt>
      <trkpt lat="48.87895" lon="2.3623">
        <ele>136.4</ele>
        <time>2015-03-30T20:34:05.411Z</time>
      </trkpt>
      <trkpt lat="48.87889" lon="2.36224">
        <ele>136.7</ele>
        <time>2015-03-30T20:34:06.422Z</time>
      </trkpt>
      <trkpt lat="48.87886" lon="2.36219">
        <ele>136.3</ele>
        <time>2015-03-30T20:34:07.467Z</time>
      </trkpt>
      <trkpt lat="48.87882" lon="2.36214">
        <ele>136</ele>
        <time>2015-03-30T20:34:08.462Z</time>
      </trkpt>
      <trkpt lat="48.87873" lon="2.3621">
        <ele>136.9</ele>
        <time>2015-03-30T20:34:11.507Z</time>
      </trkpt>
      <trkpt lat="48.87869" lon="2.3621">
        <ele>137.3</ele>
        <time>2015-03-30T20:34:12.503Z</time>
      </trkpt>
      <trkpt lat="48.87862" lon="2.36205">
        <ele>137.5</ele>
        <time>2015-03-30T20:34:15.470Z</time>
      </trkpt>
      <trkpt lat="48.87858" lon="2.36204">
        <ele>136.2</ele>
        <time>2015-03-30T20:34:16.486Z</time>
      </trkpt>
      <trkpt lat="48.87853" lon="2.36203">
        <ele>135.6</ele>
        <time>2015-03-30T20:34:17.452Z</time>
      </trkpt>
      <trkpt lat="48.87849" lon="2.36202">
        <ele>134.9</ele>
        <time>2015-03-30T20:34:18.467Z</time>
      </trkpt>
      <trkpt lat="48.87845" lon="2.362">
        <ele>134.2</ele>
        <time>2015-03-30T20:34:19.480Z</time>
      </trkpt>
      <trkpt lat="48.8784" lon="2.36196">
        <ele>134.7</ele>
        <time>2015-03-30T20:34:20.483Z</time>
      </trkpt>
      <trkpt lat="48.87836" lon="2.36192">
        <ele>135.1</ele>
        <time>2015-03-30T20:34:21.494Z</time>
      </trkpt>
      <trkpt lat="48.87831" lon="2.36188">
        <ele>135.5</ele>
        <time>2015-03-30T20:34:22.498Z</time>
      </trkpt>
      <trkpt lat="48.87826" lon="2.36186">
        <ele>135.7</ele>
        <time>2015-03-30T20:34:23.515Z</time>
      </trkpt>
      <trkpt lat="48.87821" lon="2.36183">
        <ele>136.1</ele>
        <time>2015-03-30T20:34:24.523Z</time>
      </trkpt>
      <trkpt lat="48.87815" lon="2.3618">
        <ele>136.5</ele>
        <time>2015-03-30T20:34:25.538Z</time>
      </trkpt>
      <trkpt lat="48.87809" lon="2.36175">
        <ele>136.6</ele>
        <time>2015-03-30T20:34:26.435Z</time>
      </trkpt>
      <trkpt lat="48.87804" lon="2.36172">
        <ele>136.5</ele>
        <time>2015-03-30T20:34:27.446Z</time>
      </trkpt>
      <trkpt lat="48.87799" lon="2.36169">
        <ele>136.8</ele>
        <time>2015-03-30T20:34:28.458Z</time>
      </trkpt>
      <trkpt lat="48.87794" lon="2.36166">
        <ele>136.6</ele>
        <time>2015-03-30T20:34:29.468Z</time>
      </trkpt>
      <trkpt lat="48.87789" lon="2.36164">
        <ele>136.1</ele>
        <time>2015-03-30T20:34:30.476Z</time>
      </trkpt>
      <trkpt lat="48.87785" lon="2.3616">
        <ele>135.9</ele>
        <time>2015-03-30T20:34:31.484Z</time>
      </trkpt>
      <trkpt lat="48.87779" lon="2.36157">
        <ele>135.5</ele>
        <time>2015-03-30T20:34:32.486Z</time>
      </trkpt>
      <trkpt lat="48.87772" lon="2.36156">
        <ele>135</ele>
        <time>2015-03-30T20:34:33.531Z</time>
      </trkpt>
      <trkpt lat="48.87765" lon="2.36154">
        <ele>135.4</ele>
        <time>2015-03-30T20:34:34.437Z</time>
      </trkpt>
      <trkpt lat="48.87759" lon="2.36152">
        <ele>136.3</ele>
        <time>2015-03-30T20:34:35.446Z</time>
      </trkpt>
      <trkpt lat="48.87753" lon="2.36149">
        <ele>137.1</ele>
        <time>2015-03-30T20:34:36.459Z</time>
      </trkpt>
      <trkpt lat="48.87747" lon="2.36145">
        <ele>138</ele>
        <time>2015-03-30T20:34:37.482Z</time>
      </trkpt>
      <trkpt lat="48.87741" lon="2.36141">
        <ele>138.5</ele>
        <time>2015-03-30T20:34:38.491Z</time>
      </trkpt>
      <trkpt lat="48.87736" lon="2.36139">
        <ele>138.6</ele>
        <time>2015-03-30T20:34:39.552Z</time>
      </trkpt>
      <trkpt lat="48.87731" lon="2.36137">
        <ele>138.1</ele>
        <time>2015-03-30T20:34:40.521Z</time>
      </trkpt>
      <trkpt lat="48.87725" lon="2.36134">
        <ele>137.7</ele>
        <time>2015-03-30T20:34:41.438Z</time>
      </trkpt>
      <trkpt lat="48.8772" lon="2.36131">
        <ele>137.5</ele>
        <time>2015-03-30T20:34:42.440Z</time>
      </trkpt>
      <trkpt lat="48.87713" lon="2.36124">
        <ele>137.9</ele>
        <time>2015-03-30T20:34:44.476Z</time>
      </trkpt>
      <trkpt lat="48.87708" lon="2.3612">
        <ele>137.8</ele>
        <time>2015-03-30T20:34:45.494Z</time>
      </trkpt>
      <trkpt lat="48.87703" lon="2.36116">
        <ele>137.7</ele>
        <time>2015-03-30T20:34:46.451Z</time>
      </trkpt>
      <trkpt lat="48.87698" lon="2.36112">
        <ele>137.9</ele>
        <time>2015-03-30T20:34:47.442Z</time>
      </trkpt>
      <trkpt lat="48.87694" lon="2.36107">
        <ele>138.3</ele>
        <time>2015-03-30T20:34:48.447Z</time>
      </trkpt>
      <trkpt lat="48.87675" lon="2.36091">
        <ele>138.8</ele>
        <time>2015-03-30T20:34:52.453Z</time>
      </trkpt>
      <trkpt lat="48.8767" lon="2.36088">
        <ele>139</ele>
        <time>2015-03-30T20:34:53.423Z</time>
      </trkpt>
      <trkpt lat="48.87665" lon="2.36084">
        <ele>139.1</ele>
        <time>2015-03-30T20:34:54.423Z</time>
      </trkpt>
      <trkpt lat="48.87657" lon="2.36078">
        <ele>139.4</ele>
        <time>2015-03-30T20:34:56.417Z</time>
      </trkpt>
      <trkpt lat="48.87654" lon="2.36075">
        <ele>139.8</ele>
        <time>2015-03-30T20:34:57.428Z</time>
      </trkpt>
      <trkpt lat="48.87646" lon="2.36068">
        <ele>140.5</ele>
        <time>2015-03-30T20:34:59.474Z</time>
      </trkpt>
      <trkpt lat="48.87642" lon="2.36066">
        <ele>140.5</ele>
        <time>2015-03-30T20:35:00.428Z</time>
      </trkpt>
      <trkpt lat="48.87604" lon="2.36049">
        <ele>131.6</ele>
        <time>2015-03-30T20:35:08.430Z</time>
      </trkpt>
      <trkpt lat="48.87598" lon="2.36041">
        <ele>130.5</ele>
        <time>2015-03-30T20:35:10.418Z</time>
      </trkpt>
      <trkpt lat="48.87595" lon="2.36037">
        <ele>129.9</ele>
        <time>2015-03-30T20:35:11.472Z</time>
      </trkpt>
      <trkpt lat="48.87592" lon="2.36029">
        <ele>128.8</ele>
        <time>2015-03-30T20:35:13.443Z</time>
      </trkpt>
      <trkpt lat="48.8759" lon="2.36023">
        <ele>127.4</ele>
        <time>2015-03-30T20:35:14.481Z</time>
      </trkpt>
      <trkpt lat="48.87585" lon="2.36016">
        <ele>125.7</ele>
        <time>2015-03-30T20:35:16.398Z</time>
      </trkpt>
      <trkpt lat="48.87581" lon="2.36012">
        <ele>125</ele>
        <time>2015-03-30T20:35:17.457Z</time>
      </trkpt>
      <trkpt lat="48.87575" lon="2.36005">
        <ele>124.7</ele>
        <time>2015-03-30T20:35:19.538Z</time>
      </trkpt>
      <trkpt lat="48.87572" lon="2.36002">
        <ele>124.7</ele>
        <time>2015-03-30T20:35:20.498Z</time>
      </trkpt>
      <trkpt lat="48.87566" lon="2.35997">
        <ele>123.2</ele>
        <time>2015-03-30T20:35:22.480Z</time>
      </trkpt>
      <trkpt lat="48.87562" lon="2.35995">
        <ele>122.8</ele>
        <time>2015-03-30T20:35:23.431Z</time>
      </trkpt>
      <trkpt lat="48.87558" lon="2.35988">
        <ele>122.3</ele>
        <time>2015-03-30T20:35:25.472Z</time>
      </trkpt>
      <trkpt lat="48.87555" lon="2.35984">
        <ele>122</ele>
        <time>2015-03-30T20:35:26.493Z</time>
      </trkpt>
      <trkpt lat="48.8755" lon="2.35975">
        <ele>121.6</ele>
        <time>2015-03-30T20:35:28.440Z</time>
      </trkpt>
      <trkpt lat="48.87548" lon="2.35971">
        <ele>121.3</ele>
        <time>2015-03-30T20:35:29.462Z</time>
      </trkpt>
      <trkpt lat="48.87543" lon="2.35961">
        <ele>121.4</ele>
        <time>2015-03-30T20:35:31.492Z</time>
      </trkpt>
      <trkpt lat="48.8754" lon="2.35958">
        <ele>121.1</ele>
        <time>2015-03-30T20:35:32.505Z</time>
      </trkpt>
      <trkpt lat="48.87534" lon="2.3595">
        <ele>120.6</ele>
        <time>2015-03-30T20:35:34.413Z</time>
      </trkpt>
      <trkpt lat="48.87532" lon="2.35945">
        <ele>120.3</ele>
        <time>2015-03-30T20:35:35.450Z</time>
      </trkpt>
      <trkpt lat="48.87526" lon="2.35936">
        <ele>119.7</ele>
        <time>2015-03-30T20:35:37.505Z</time>
      </trkpt>
      <trkpt lat="48.87523" lon="2.3593">
        <ele>119.9</ele>
        <time>2015-03-30T20:35:38.434Z</time>
      </trkpt>
      <trkpt lat="48.87516" lon="2.35922">
        <ele>120.1</ele>
        <time>2015-03-30T20:35:40.423Z</time>
      </trkpt>
      <trkpt lat="48.87512" lon="2.35921">
        <ele>120.9</ele>
        <time>2015-03-30T20:35:41.440Z</time>
      </trkpt>
      <trkpt lat="48.87504" lon="2.35916">
        <ele>121.7</ele>
        <time>2015-03-30T20:35:43.504Z</time>
      </trkpt>
      <trkpt lat="48.875" lon="2.35912">
        <ele>121.8</ele>
        <time>2015-03-30T20:35:44.562Z</time>
      </trkpt>
      <trkpt lat="48.87496" lon="2.35908">
        <ele>121.9</ele>
        <time>2015-03-30T20:35:45.423Z</time>
      </trkpt>
      <trkpt lat="48.87492" lon="2.35904">
        <ele>122</ele>
        <time>2015-03-30T20:35:46.423Z</time>
      </trkpt>
      <trkpt lat="48.87487" lon="2.359">
        <ele>122.2</ele>
        <time>2015-03-30T20:35:47.449Z</time>
      </trkpt>
      <trkpt lat="48.87483" lon="2.35898">
        <ele>122.4</ele>
        <time>2015-03-30T20:35:48.461Z</time>
      </trkpt>
      <trkpt lat="48.87478" lon="2.35895">
        <ele>122.7</ele>
        <time>2015-03-30T20:35:49.477Z</time>
      </trkpt>
      <trkpt lat="48.87474" lon="2.3589">
        <ele>122.7</ele>
        <time>2015-03-30T20:35:50.401Z</time>
      </trkpt>
      <trkpt lat="48.87465" lon="2.35883">
        <ele>123.1</ele>
        <time>2015-03-30T20:35:52.456Z</time>
      </trkpt>
      <trkpt lat="48.87456" lon="2.35875">
        <ele>123.4</ele>
        <time>2015-03-30T20:35:54.443Z</time>
      </trkpt>
      <trkpt lat="48.87451" lon="2.35873">
        <ele>123.6</ele>
        <time>2015-03-30T20:35:55.437Z</time>
      </trkpt>
      <trkpt lat="48.87447" lon="2.35869">
        <ele>123.7</ele>
        <time>2015-03-30T20:35:56.448Z</time>
      </trkpt>
      <trkpt lat="48.87442" lon="2.35865">
        <ele>123.9</ele>
        <time>2015-03-30T20:35:57.458Z</time>
      </trkpt>
      <trkpt lat="48.87438" lon="2.3586">
        <ele>124</ele>
        <time>2015-03-30T20:35:58.454Z</time>
      </trkpt>
      <trkpt lat="48.87433" lon="2.35857">
        <ele>123.7</ele>
        <time>2015-03-30T20:35:59.458Z</time>
      </trkpt>
      <trkpt lat="48.87428" lon="2.35855">
        <ele>123.9</ele>
        <time>2015-03-30T20:36:00.384Z</time>
      </trkpt>
      <trkpt lat="48.87424" lon="2.35852">
        <ele>124.1</ele>
        <time>2015-03-30T20:36:01.430Z</time>
      </trkpt>
      <trkpt lat="48.87419" lon="2.3585">
        <ele>124.1</ele>
        <time>2015-03-30T20:36:02.441Z</time>
      </trkpt>
      <trkpt lat="48.87411" lon="2.35845">
        <ele>124.3</ele>
        <time>2015-03-30T20:36:04.447Z</time>
      </trkpt>
      <trkpt lat="48.87407" lon="2.35842">
        <ele>124.3</ele>
        <time>2015-03-30T20:36:05.455Z</time>
      </trkpt>
      <trkpt lat="48.87399" lon="2.35838">
        <ele>123.8</ele>
        <time>2015-03-30T20:36:07.476Z</time>
      </trkpt>
      <trkpt lat="48.87396" lon="2.35836">
        <ele>123.5</ele>
        <time>2015-03-30T20:36:08.398Z</time>
      </trkpt>
      <trkpt lat="48.87389" lon="2.35829">
        <ele>124.1</ele>
        <time>2015-03-30T20:36:12.485Z</time>
      </trkpt>
      <trkpt lat="48.87391" lon="2.35825">
        <ele>123.5</ele>
        <time>2015-03-30T20:36:13.533Z</time>
      </trkpt>
      <trkpt lat="48.87391" lon="2.35825">
        <ele>123.5</ele>
        <time>2015-03-30T20:37:00.482Z</time>
      </trkpt>
      <trkpt lat="48.87373" lon="2.35816">
        <ele>118.3</ele>
        <time>2015-03-30T20:37:01.495Z</time>
      </trkpt>
      <trkpt lat="48.87364" lon="2.35814">
        <ele>114.3</ele>
        <time>2015-03-30T20:37:04.428Z</time>
      </trkpt>
      <trkpt lat="48.87361" lon="2.35813">
        <ele>113.5</ele>
        <time>2015-03-30T20:37:05.451Z</time>
      </trkpt>
      <trkpt lat="48.87354" lon="2.35807">
        <ele>113.8</ele>
        <time>2015-03-30T20:37:07.442Z</time>
      </trkpt>
      <trkpt lat="48.87351" lon="2.35804">
        <ele>114.1</ele>
        <time>2015-03-30T20:37:08.451Z</time>
      </trkpt>
      <trkpt lat="48.87346" lon="2.35801">
        <ele>114.3</ele>
        <time>2015-03-30T20:37:10.460Z</time>
      </trkpt>
      <trkpt lat="48.87342" lon="2.35798">
        <ele>114.1</ele>
        <time>2015-03-30T20:37:11.472Z</time>
      </trkpt>
      <trkpt lat="48.87337" lon="2.3579">
        <ele>114.1</ele>
        <time>2015-03-30T20:37:13.457Z</time>
      </trkpt>
      <trkpt lat="48.87335" lon="2.35786">
        <ele>114.2</ele>
        <time>2015-03-30T20:37:14.456Z</time>
      </trkpt>
      <trkpt lat="48.87329" lon="2.35778">
        <ele>114.4</ele>
        <time>2015-03-30T20:37:16.483Z</time>
      </trkpt>
      <trkpt lat="48.87327" lon="2.35774">
        <ele>114.5</ele>
        <time>2015-03-30T20:37:17.444Z</time>
      </trkpt>
      <trkpt lat="48.87321" lon="2.35767">
        <ele>114.6</ele>
        <time>2015-03-30T20:37:19.478Z</time>
      </trkpt>
      <trkpt lat="48.87318" lon="2.35764">
        <ele>114.6</ele>
        <time>2015-03-30T20:37:20.479Z</time>
      </trkpt>
      <trkpt lat="48.87311" lon="2.3576">
        <ele>114.7</ele>
        <time>2015-03-30T20:37:22.497Z</time>
      </trkpt>
      <trkpt lat="48.87307" lon="2.35758">
        <ele>114.7</ele>
        <time>2015-03-30T20:37:23.513Z</time>
      </trkpt>
      <trkpt lat="48.87302" lon="2.35756">
        <ele>114.3</ele>
        <time>2015-03-30T20:37:24.463Z</time>
      </trkpt>
      <trkpt lat="48.87298" lon="2.35753">
        <ele>113.8</ele>
        <time>2015-03-30T20:37:25.466Z</time>
      </trkpt>
      <trkpt lat="48.87293" lon="2.3575">
        <ele>113.7</ele>
        <time>2015-03-30T20:37:26.478Z</time>
      </trkpt>
      <trkpt lat="48.87288" lon="2.35747">
        <ele>113.7</ele>
        <time>2015-03-30T20:37:27.477Z</time>
      </trkpt>
      <trkpt lat="48.87281" lon="2.35744">
        <ele>113.9</ele>
        <time>2015-03-30T20:37:28.491Z</time>
      </trkpt>
      <trkpt lat="48.87274" lon="2.35741">
        <ele>114.1</ele>
        <time>2015-03-30T20:37:29.386Z</time>
      </trkpt>
      <trkpt lat="48.87265" lon="2.35737">
        <ele>114.1</ele>
        <time>2015-03-30T20:37:30.427Z</time>
      </trkpt>
      <trkpt lat="48.87255" lon="2.35735">
        <ele>113.6</ele>
        <time>2015-03-30T20:37:31.442Z</time>
      </trkpt>
      <trkpt lat="48.87244" lon="2.35732">
        <ele>112.9</ele>
        <time>2015-03-30T20:37:32.382Z</time>
      </trkpt>
      <trkpt lat="48.87235" lon="2.35732">
        <ele>110.8</ele>
        <time>2015-03-30T20:37:33.373Z</time>
      </trkpt>
      <trkpt lat="48.87189" lon="2.35716">
        <ele>114.9</ele>
        <time>2015-03-30T20:37:40.468Z</time>
      </trkpt>
      <trkpt lat="48.8718" lon="2.35714">
        <ele>114.9</ele>
        <time>2015-03-30T20:37:41.488Z</time>
      </trkpt>
      <trkpt lat="48.87173" lon="2.35712">
        <ele>114.5</ele>
        <time>2015-03-30T20:37:42.379Z</time>
      </trkpt>
      <trkpt lat="48.87164" lon="2.3571">
        <ele>113.8</ele>
        <time>2015-03-30T20:37:43.424Z</time>
      </trkpt>
      <trkpt lat="48.87158" lon="2.35707">
        <ele>113.5</ele>
        <time>2015-03-30T20:37:44.426Z</time>
      </trkpt>
      <trkpt lat="48.87146" lon="2.35697">
        <ele>115</ele>
        <time>2015-03-30T20:37:48.472Z</time>
      </trkpt>
      <trkpt lat="48.87141" lon="2.35694">
        <ele>115.2</ele>
        <time>2015-03-30T20:37:49.475Z</time>
      </trkpt>
      <trkpt lat="48.87136" lon="2.35691">
        <ele>115.3</ele>
        <time>2015-03-30T20:37:50.412Z</time>
      </trkpt>
      <trkpt lat="48.87129" lon="2.35688">
        <ele>115.3</ele>
        <time>2015-03-30T20:37:51.410Z</time>
      </trkpt>
      <trkpt lat="48.87124" lon="2.35685">
        <ele>115.5</ele>
        <time>2015-03-30T20:37:52.423Z</time>
      </trkpt>
      <trkpt lat="48.87117" lon="2.35684">
        <ele>115.8</ele>
        <time>2015-03-30T20:37:53.436Z</time>
      </trkpt>
      <trkpt lat="48.87111" lon="2.35682">
        <ele>115.9</ele>
        <time>2015-03-30T20:37:54.442Z</time>
      </trkpt>
      <trkpt lat="48.87106" lon="2.35678">
        <ele>116</ele>
        <time>2015-03-30T20:37:55.453Z</time>
      </trkpt>
      <trkpt lat="48.871" lon="2.35675">
        <ele>116.4</ele>
        <time>2015-03-30T20:37:56.456Z</time>
      </trkpt>
      <trkpt lat="48.87095" lon="2.35673">
        <ele>116.7</ele>
        <time>2015-03-30T20:37:57.436Z</time>
      </trkpt>
      <trkpt lat="48.87091" lon="2.3567">
        <ele>117</ele>
        <time>2015-03-30T20:37:58.423Z</time>
      </trkpt>
      <trkpt lat="48.87087" lon="2.35665">
        <ele>117.3</ele>
        <time>2015-03-30T20:37:59.487Z</time>
      </trkpt>
      <trkpt lat="48.87003" lon="2.35611">
        <ele>118.3</ele>
        <time>2015-03-30T20:38:16.439Z</time>
      </trkpt>
      <trkpt lat="48.86999" lon="2.35607">
        <ele>118.5</ele>
        <time>2015-03-30T20:38:17.484Z</time>
      </trkpt>
      <trkpt lat="48.86995" lon="2.35603">
        <ele>118.7</ele>
        <time>2015-03-30T20:38:18.510Z</time>
      </trkpt>
      <trkpt lat="48.86986" lon="2.35599">
        <ele>119.1</ele>
        <time>2015-03-30T20:38:20.398Z</time>
      </trkpt>
      <trkpt lat="48.86982" lon="2.35597">
        <ele>119.4</ele>
        <time>2015-03-30T20:38:21.421Z</time>
      </trkpt>
      <trkpt lat="48.86974" lon="2.35595">
        <ele>120.1</ele>
        <time>2015-03-30T20:38:23.467Z</time>
      </trkpt>
      <trkpt lat="48.86969" lon="2.35593">
        <ele>120.4</ele>
        <time>2015-03-30T20:38:24.573Z</time>
      </trkpt>
      <trkpt lat="48.86965" lon="2.35591">
        <ele>120.5</ele>
        <time>2015-03-30T20:38:25.416Z</time>
      </trkpt>
      <trkpt lat="48.86961" lon="2.35588">
        <ele>120.7</ele>
        <time>2015-03-30T20:38:26.477Z</time>
      </trkpt>
      <trkpt lat="48.86954" lon="2.35582">
        <ele>121.3</ele>
        <time>2015-03-30T20:38:28.433Z</time>
      </trkpt>
      <trkpt lat="48.86951" lon="2.35579">
        <ele>121.6</ele>
        <time>2015-03-30T20:38:29.476Z</time>
      </trkpt>
      <trkpt lat="48.86945" lon="2.35568">
        <ele>122.4</ele>
        <time>2015-03-30T20:38:32.475Z</time>
      </trkpt>
      <trkpt lat="48.86943" lon="2.35565">
        <ele>122.6</ele>
        <time>2015-03-30T20:38:33.491Z</time>
      </trkpt>
      <trkpt lat="48.86936" lon="2.3556">
        <ele>121.8</ele>
        <time>2015-03-30T20:38:36.419Z</time>
      </trkpt>
      <trkpt lat="48.86935" lon="2.35559">
        <ele>121.2</ele>
        <time>2015-03-30T20:38:37.435Z</time>
      </trkpt>
      <trkpt lat="48.8693" lon="2.3555">
        <ele>120</ele>
        <time>2015-03-30T20:38:40.468Z</time>
      </trkpt>
      <trkpt lat="48.86928" lon="2.35548">
        <ele>119.2</ele>
        <time>2015-03-30T20:38:41.499Z</time>
      </trkpt>
      <trkpt lat="48.86921" lon="2.35541">
        <ele>119.2</ele>
        <time>2015-03-30T20:38:43.445Z</time>
      </trkpt>
      <trkpt lat="48.86918" lon="2.35538">
        <ele>119.4</ele>
        <time>2015-03-30T20:38:44.455Z</time>
      </trkpt>
      <trkpt lat="48.86913" lon="2.35528">
        <ele>120.2</ele>
        <time>2015-03-30T20:38:47.487Z</time>
      </trkpt>
      <trkpt lat="48.86913" lon="2.35526">
        <ele>119.8</ele>
        <time>2015-03-30T20:38:48.496Z</time>
      </trkpt>
      <trkpt lat="48.86909" lon="2.35524">
        <ele>117.2</ele>
        <time>2015-03-30T20:39:49.492Z</time>
      </trkpt>
      <trkpt lat="48.86908" lon="2.35556">
        <ele>105.9</ele>
        <time>2015-03-30T20:39:50.426Z</time>
      </trkpt>
      <trkpt lat="48.869" lon="2.35558">
        <ele>105.7</ele>
        <time>2015-03-30T20:39:54.487Z</time>
      </trkpt>
      <trkpt lat="48.86897" lon="2.35556">
        <ele>105.8</ele>
        <time>2015-03-30T20:39:55.511Z</time>
      </trkpt>
      <trkpt lat="48.8689" lon="2.35551">
        <ele>106.4</ele>
        <time>2015-03-30T20:39:57.420Z</time>
      </trkpt>
      <trkpt lat="48.86886" lon="2.35549">
        <ele>106.9</ele>
        <time>2015-03-30T20:39:58.463Z</time>
      </trkpt>
      <trkpt lat="48.8688" lon="2.35543">
        <ele>107.6</ele>
        <time>2015-03-30T20:40:00.398Z</time>
      </trkpt>
      <trkpt lat="48.86876" lon="2.35542">
        <ele>107.9</ele>
        <time>2015-03-30T20:40:01.486Z</time>
      </trkpt>
      <trkpt lat="48.86869" lon="2.35538">
        <ele>108.2</ele>
        <time>2015-03-30T20:40:03.422Z</time>
      </trkpt>
      <trkpt lat="48.86865" lon="2.35536">
        <ele>108.6</ele>
        <time>2015-03-30T20:40:04.444Z</time>
      </trkpt>
      <trkpt lat="48.86857" lon="2.35533">
        <ele>109</ele>
        <time>2015-03-30T20:40:06.465Z</time>
      </trkpt>
      <trkpt lat="48.86853" lon="2.35531">
        <ele>109.2</ele>
        <time>2015-03-30T20:40:07.477Z</time>
      </trkpt>
      <trkpt lat="48.86846" lon="2.35526">
        <ele>109.7</ele>
        <time>2015-03-30T20:40:09.516Z</time>
      </trkpt>
      <trkpt lat="48.86842" lon="2.35523">
        <ele>109.9</ele>
        <time>2015-03-30T20:40:10.512Z</time>
      </trkpt>
      <trkpt lat="48.86834" lon="2.35518">
        <ele>110.4</ele>
        <time>2015-03-30T20:40:12.417Z</time>
      </trkpt>
      <trkpt lat="48.86829" lon="2.35515">
        <ele>110.6</ele>
        <time>2015-03-30T20:40:13.469Z</time>
      </trkpt>
      <trkpt lat="48.86822" lon="2.35509">
        <ele>111.2</ele>
        <time>2015-03-30T20:40:15.476Z</time>
      </trkpt>
      <trkpt lat="48.86819" lon="2.35507">
        <ele>111.5</ele>
        <time>2015-03-30T20:40:16.495Z</time>
      </trkpt>
      <trkpt lat="48.86812" lon="2.35501">
        <ele>112.2</ele>
        <time>2015-03-30T20:40:18.411Z</time>
      </trkpt>
      <trkpt lat="48.86809" lon="2.35497">
        <ele>112.4</ele>
        <time>2015-03-30T20:40:19.486Z</time>
      </trkpt>
      <trkpt lat="48.86801" lon="2.3549">
        <ele>112.4</ele>
        <time>2015-03-30T20:40:21.425Z</time>
      </trkpt>
      <trkpt lat="48.86797" lon="2.35487">
        <ele>112.4</ele>
        <time>2015-03-30T20:40:22.452Z</time>
      </trkpt>
      <trkpt lat="48.86791" lon="2.35485">
        <ele>112.5</ele>
        <time>2015-03-30T20:40:23.479Z</time>
      </trkpt>
      <trkpt lat="48.86784" lon="2.35483">
        <ele>112</ele>
        <time>2015-03-30T20:40:24.489Z</time>
      </trkpt>
      <trkpt lat="48.86777" lon="2.35478">
        <ele>112.5</ele>
        <time>2015-03-30T20:40:26.427Z</time>
      </trkpt>
      <trkpt lat="48.86773" lon="2.35474">
        <ele>112.6</ele>
        <time>2015-03-30T20:40:27.416Z</time>
      </trkpt>
      <trkpt lat="48.86767" lon="2.35464">
        <ele>112.6</ele>
        <time>2015-03-30T20:40:29.468Z</time>
      </trkpt>
      <trkpt lat="48.86765" lon="2.3546">
        <ele>112.6</ele>
        <time>2015-03-30T20:40:30.471Z</time>
      </trkpt>
      <trkpt lat="48.86759" lon="2.35456">
        <ele>112.7</ele>
        <time>2015-03-30T20:40:31.452Z</time>
      </trkpt>
      <trkpt lat="48.86753" lon="2.35452">
        <ele>112.6</ele>
        <time>2015-03-30T20:40:32.383Z</time>
      </trkpt>
      <trkpt lat="48.86749" lon="2.3545">
        <ele>112.6</ele>
        <time>2015-03-30T20:40:33.435Z</time>
      </trkpt>
      <trkpt lat="48.86744" lon="2.35448">
        <ele>112.5</ele>
        <time>2015-03-30T20:40:34.451Z</time>
      </trkpt>
      <trkpt lat="48.86738" lon="2.35447">
        <ele>112.4</ele>
        <time>2015-03-30T20:40:35.454Z</time>
      </trkpt>
      <trkpt lat="48.8681" lon="2.3549">
        <ele>112.5</ele>
        <time>2015-03-30T20:40:36.472Z</time>
      </trkpt>
      <trkpt lat="48.86792" lon="2.35479">
        <ele>112.5</ele>
        <time>2015-03-30T20:40:37.510Z</time>
      </trkpt>
      <trkpt lat="48.8677" lon="2.35466">
        <ele>112.5</ele>
        <time>2015-03-30T20:40:38.391Z</time>
      </trkpt>
      <trkpt lat="48.86747" lon="2.35453">
        <ele>112.4</ele>
        <time>2015-03-30T20:40:39.576Z</time>
      </trkpt>
      <trkpt lat="48.86734" lon="2.35445">
        <ele>112.2</ele>
        <time>2015-03-30T20:40:40.391Z</time>
      </trkpt>
      <trkpt lat="48.86724" lon="2.3544">
        <ele>112.2</ele>
        <time>2015-03-30T20:40:41.410Z</time>
      </trkpt>
      <trkpt lat="48.86715" lon="2.35435">
        <ele>112.2</ele>
        <time>2015-03-30T20:40:42.414Z</time>
      </trkpt>
      <trkpt lat="48.86708" lon="2.35432">
        <ele>112.3</ele>
        <time>2015-03-30T20:40:43.463Z</time>
      </trkpt>
      <trkpt lat="48.86703" lon="2.35429">
        <ele>112.4</ele>
        <time>2015-03-30T20:40:44.481Z</time>
      </trkpt>
      <trkpt lat="48.86697" lon="2.35427">
        <ele>112.5</ele>
        <time>2015-03-30T20:40:45.376Z</time>
      </trkpt>
      <trkpt lat="48.86692" lon="2.35425">
        <ele>112.3</ele>
        <time>2015-03-30T20:40:46.459Z</time>
      </trkpt>
      <trkpt lat="48.86687" lon="2.35423">
        <ele>112.5</ele>
        <time>2015-03-30T20:40:47.456Z</time>
      </trkpt>
      <trkpt lat="48.86674" lon="2.35418">
        <ele>112.4</ele>
        <time>2015-03-30T20:40:48.411Z</time>
      </trkpt>
      <trkpt lat="48.86669" lon="2.35415">
        <ele>112.4</ele>
        <time>2015-03-30T20:40:49.433Z</time>
      </trkpt>
      <trkpt lat="48.86664" lon="2.35412">
        <ele>112.5</ele>
        <time>2015-03-30T20:40:50.534Z</time>
      </trkpt>
      <trkpt lat="48.86659" lon="2.35409">
        <ele>112.5</ele>
        <time>2015-03-30T20:40:51.445Z</time>
      </trkpt>
      <trkpt lat="48.86654" lon="2.35407">
        <ele>112.4</ele>
        <time>2015-03-30T20:40:52.467Z</time>
      </trkpt>
      <trkpt lat="48.86649" lon="2.35405">
        <ele>112.3</ele>
        <time>2015-03-30T20:40:53.369Z</time>
      </trkpt>
      <trkpt lat="48.86645" lon="2.35401">
        <ele>112.5</ele>
        <time>2015-03-30T20:40:54.401Z</time>
      </trkpt>
      <trkpt lat="48.8664" lon="2.35399">
        <ele>112.6</ele>
        <time>2015-03-30T20:40:55.425Z</time>
      </trkpt>
      <trkpt lat="48.86636" lon="2.35396">
        <ele>112.8</ele>
        <time>2015-03-30T20:40:56.435Z</time>
      </trkpt>
      <trkpt lat="48.8663" lon="2.35396">
        <ele>113</ele>
        <time>2015-03-30T20:40:57.453Z</time>
      </trkpt>
      <trkpt lat="48.86625" lon="2.35395">
        <ele>113</ele>
        <time>2015-03-30T20:40:58.444Z</time>
      </trkpt>
      <trkpt lat="48.86618" lon="2.35392">
        <ele>112.8</ele>
        <time>2015-03-30T20:41:03.133Z</time>
      </trkpt>
      <trkpt lat="48.86615" lon="2.35391">
        <ele>111.4</ele>
        <time>2015-03-30T20:41:03.392Z</time>
      </trkpt>
      <trkpt lat="48.8661" lon="2.35389">
        <ele>111</ele>
        <time>2015-03-30T20:41:04.432Z</time>
      </trkpt>
      <trkpt lat="48.86606" lon="2.35388">
        <ele>109.6</ele>
        <time>2015-03-30T20:41:05.473Z</time>
      </trkpt>
      <trkpt lat="48.86598" lon="2.35385">
        <ele>109.7</ele>
        <time>2015-03-30T20:41:08.199Z</time>
      </trkpt>
      <trkpt lat="48.86591" lon="2.35381">
        <ele>109.5</ele>
        <time>2015-03-30T20:41:08.411Z</time>
      </trkpt>
      <trkpt lat="48.86585" lon="2.35371">
        <ele>109.2</ele>
        <time>2015-03-30T20:41:13.285Z</time>
      </trkpt>
      <trkpt lat="48.86584" lon="2.35369">
        <ele>109.4</ele>
        <time>2015-03-30T20:41:13.419Z</time>
      </trkpt>
      <trkpt lat="48.86579" lon="2.35361">
        <ele>110.7</ele>
        <time>2015-03-30T20:41:17.463Z</time>
      </trkpt>
      <trkpt lat="48.86577" lon="2.35361">
        <ele>111.1</ele>
        <time>2015-03-30T20:41:18.492Z</time>
      </trkpt>
      <trkpt lat="48.86569" lon="2.35357">
        <ele>113</ele>
        <time>2015-03-30T20:41:21.305Z</time>
      </trkpt>
      <trkpt lat="48.86567" lon="2.35356">
        <ele>113.3</ele>
        <time>2015-03-30T20:41:23.479Z</time>
      </trkpt>
      <trkpt lat="48.86564" lon="2.35354">
        <ele>113.5</ele>
        <time>2015-03-30T20:41:24.493Z</time>
      </trkpt>
      <trkpt lat="48.86557" lon="2.35351">
        <ele>113.8</ele>
        <time>2015-03-30T20:41:25.511Z</time>
      </trkpt>
      <trkpt lat="48.86549" lon="2.3535">
        <ele>114.1</ele>
        <time>2015-03-30T20:41:28.461Z</time>
      </trkpt>
      <trkpt lat="48.86545" lon="2.35351">
        <ele>112.4</ele>
        <time>2015-03-30T20:41:29.464Z</time>
      </trkpt>
      <trkpt lat="48.86541" lon="2.35354">
        <ele>110.7</ele>
        <time>2015-03-30T20:41:32.495Z</time>
      </trkpt>
      <trkpt lat="48.86534" lon="2.35354">
        <ele>110.7</ele>
        <time>2015-03-30T20:41:33.425Z</time>
      </trkpt>
      <trkpt lat="48.86531" lon="2.35352">
        <ele>111.6</ele>
        <time>2015-03-30T20:41:36.494Z</time>
      </trkpt>
      <trkpt lat="48.86524" lon="2.35348">
        <ele>111.9</ele>
        <time>2015-03-30T20:41:37.485Z</time>
      </trkpt>
      <trkpt lat="48.8652" lon="2.35344">
        <ele>112.3</ele>
        <time>2015-03-30T20:41:40.451Z</time>
      </trkpt>
      <trkpt lat="48.86515" lon="2.3534">
        <ele>112.4</ele>
        <time>2015-03-30T20:41:41.452Z</time>
      </trkpt>
      <trkpt lat="48.86511" lon="2.35338">
        <ele>112.7</ele>
        <time>2015-03-30T20:41:42.457Z</time>
      </trkpt>
      <trkpt lat="48.86496" lon="2.35333">
        <ele>112.9</ele>
        <time>2015-03-30T20:41:43.469Z</time>
      </trkpt>
      <trkpt lat="48.86488" lon="2.35331">
        <ele>112.9</ele>
        <time>2015-03-30T20:41:44.504Z</time>
      </trkpt>
      <trkpt lat="48.86483" lon="2.35329">
        <ele>113</ele>
        <time>2015-03-30T20:41:45.417Z</time>
      </trkpt>
      <trkpt lat="48.86475" lon="2.35328">
        <ele>109.8</ele>
        <time>2015-03-30T20:41:50.427Z</time>
      </trkpt>
      <trkpt lat="48.86473" lon="2.35329">
        <ele>108.8</ele>
        <time>2015-03-30T20:41:51.431Z</time>
      </trkpt>
      <trkpt lat="48.86466" lon="2.35325">
        <ele>107.9</ele>
        <time>2015-03-30T20:41:56.503Z</time>
      </trkpt>
      <trkpt lat="48.86463" lon="2.35323">
        <ele>107.9</ele>
        <time>2015-03-30T20:41:57.517Z</time>
      </trkpt>
      <trkpt lat="48.86456" lon="2.35319">
        <ele>107.9</ele>
        <time>2015-03-30T20:42:00.441Z</time>
      </trkpt>
      <trkpt lat="48.86454" lon="2.35317">
        <ele>107.8</ele>
        <time>2015-03-30T20:42:01.470Z</time>
      </trkpt>
      <trkpt lat="48.86446" lon="2.35314">
        <ele>107.2</ele>
        <time>2015-03-30T20:42:04.430Z</time>
      </trkpt>
      <trkpt lat="48.86441" lon="2.35311">
        <ele>106.7</ele>
        <time>2015-03-30T20:42:05.480Z</time>
      </trkpt>
      <trkpt lat="48.86435" lon="2.35304">
        <ele>106.6</ele>
        <time>2015-03-30T20:42:07.423Z</time>
      </trkpt>
      <trkpt lat="48.86433" lon="2.35299">
        <ele>106.5</ele>
        <time>2015-03-30T20:42:08.443Z</time>
      </trkpt>
      <trkpt lat="48.8643" lon="2.35295">
        <ele>106.6</ele>
        <time>2015-03-30T20:42:09.468Z</time>
      </trkpt>
      <trkpt lat="48.8638" lon="2.35264">
        <ele>108</ele>
        <time>2015-03-30T20:42:20.414Z</time>
      </trkpt>
      <trkpt lat="48.86374" lon="2.35263">
        <ele>107.9</ele>
        <time>2015-03-30T20:42:21.437Z</time>
      </trkpt>
      <trkpt lat="48.86368" lon="2.35262">
        <ele>107.9</ele>
        <time>2015-03-30T20:42:22.457Z</time>
      </trkpt>
      <trkpt lat="48.8636" lon="2.35259">
        <ele>108</ele>
        <time>2015-03-30T20:42:24.474Z</time>
      </trkpt>
      <trkpt lat="48.86329" lon="2.35243">
        <ele>108.2</ele>
        <time>2015-03-30T20:42:30.393Z</time>
      </trkpt>
      <trkpt lat="48.86323" lon="2.35245">
        <ele>107.5</ele>
        <time>2015-03-30T20:42:31.422Z</time>
      </trkpt>
      <trkpt lat="48.86314" lon="2.35244">
        <ele>107.2</ele>
        <time>2015-03-30T20:42:32.485Z</time>
      </trkpt>
      <trkpt lat="48.86306" lon="2.35241">
        <ele>107</ele>
        <time>2015-03-30T20:42:33.395Z</time>
      </trkpt>
      <trkpt lat="48.86294" lon="2.35239">
        <ele>106.8</ele>
        <time>2015-03-30T20:42:34.404Z</time>
      </trkpt>
      <trkpt lat="48.86294" lon="2.35235">
        <ele>106.1</ele>
        <time>2015-03-30T20:42:37.475Z</time>
      </trkpt>
      <trkpt lat="48.8617" lon="2.35161">
        <ele>106.1</ele>
        <time>2015-03-30T20:43:12.553Z</time>
      </trkpt>
      <trkpt lat="48.86163" lon="2.35162">
        <ele>102.6</ele>
        <time>2015-03-30T20:43:14.397Z</time>
      </trkpt>
      <trkpt lat="48.86156" lon="2.35162">
        <ele>103.1</ele>
        <time>2015-03-30T20:43:15.417Z</time>
      </trkpt>
      <trkpt lat="48.86149" lon="2.35164">
        <ele>99.7</ele>
        <time>2015-03-30T20:43:17.452Z</time>
      </trkpt>
      <trkpt lat="48.86146" lon="2.35164">
        <ele>99.2</ele>
        <time>2015-03-30T20:43:18.408Z</time>
      </trkpt>
      <trkpt lat="48.86141" lon="2.35164">
        <ele>99</ele>
        <time>2015-03-30T20:43:20.443Z</time>
      </trkpt>
      <trkpt lat="48.86134" lon="2.35162">
        <ele>99.7</ele>
        <time>2015-03-30T20:43:21.452Z</time>
      </trkpt>
      <trkpt lat="48.86126" lon="2.35158">
        <ele>102.5</ele>
        <time>2015-03-30T20:43:24.435Z</time>
      </trkpt>
      <trkpt lat="48.86123" lon="2.35157">
        <ele>104.7</ele>
        <time>2015-03-30T20:43:25.480Z</time>
      </trkpt>
      <trkpt lat="48.86116" lon="2.35152">
        <ele>114.6</ele>
        <time>2015-03-30T20:43:29.460Z</time>
      </trkpt>
      <trkpt lat="48.86114" lon="2.3515">
        <ele>115.1</ele>
        <time>2015-03-30T20:43:30.502Z</time>
      </trkpt>
      <trkpt lat="48.86107" lon="2.35145">
        <ele>117</ele>
        <time>2015-03-30T20:43:33.447Z</time>
      </trkpt>
      <trkpt lat="48.86105" lon="2.35144">
        <ele>117.9</ele>
        <time>2015-03-30T20:43:34.463Z</time>
      </trkpt>
      <trkpt lat="48.86098" lon="2.35138">
        <ele>117.8</ele>
        <time>2015-03-30T20:43:37.525Z</time>
      </trkpt>
      <trkpt lat="48.86095" lon="2.35137">
        <ele>117.2</ele>
        <time>2015-03-30T20:43:38.447Z</time>
      </trkpt>
      <trkpt lat="48.86094" lon="2.35136">
        <ele>116.5</ele>
        <time>2015-03-30T20:43:40.451Z</time>
      </trkpt>
      <trkpt lat="48.86086" lon="2.35131">
        <ele>116.9</ele>
        <time>2015-03-30T20:43:41.457Z</time>
      </trkpt>
      <trkpt lat="48.8608" lon="2.35125">
        <ele>116</ele>
        <time>2015-03-30T20:43:45.445Z</time>
      </trkpt>
      <trkpt lat="48.86076" lon="2.35122">
        <ele>116.9</ele>
        <time>2015-03-30T20:43:46.513Z</time>
      </trkpt>
      <trkpt lat="48.86069" lon="2.35118">
        <ele>117.7</ele>
        <time>2015-03-30T20:43:48.399Z</time>
      </trkpt>
      <trkpt lat="48.86066" lon="2.35116">
        <ele>117.7</ele>
        <time>2015-03-30T20:43:49.495Z</time>
      </trkpt>
      <trkpt lat="48.86059" lon="2.3511">
        <ele>116.6</ele>
        <time>2015-03-30T20:43:48.107Z</time>
      </trkpt>
      <trkpt lat="48.86056" lon="2.35107">
        <ele>116.4</ele>
        <time>2015-03-30T20:43:53.723Z</time>
      </trkpt>
      <trkpt lat="48.8605" lon="2.35102">
        <ele>115.4</ele>
        <time>2015-03-30T20:43:55.723Z</time>
      </trkpt>
      <trkpt lat="48.86043" lon="2.35096">
        <ele>115.5</ele>
        <time>2015-03-30T20:43:56.737Z</time>
      </trkpt>
      <trkpt lat="48.86039" lon="2.35089">
        <ele>109.7</ele>
        <time>2015-03-30T20:43:59.668Z</time>
      </trkpt>
      <trkpt lat="48.86035" lon="2.35085">
        <ele>110.5</ele>
        <time>2015-03-30T20:44:00.740Z</time>
      </trkpt>
      <trkpt lat="48.86033" lon="2.35081">
        <ele>111.5</ele>
        <time>2015-03-30T20:44:01.732Z</time>
      </trkpt>
      <trkpt lat="48.86029" lon="2.35071">
        <ele>112.2</ele>
        <time>2015-03-30T20:44:02.861Z</time>
      </trkpt>
      <trkpt lat="48.86032" lon="2.35066">
        <ele>111.7</ele>
        <time>2015-03-30T20:44:05.715Z</time>
      </trkpt>
      <trkpt lat="48.86035" lon="2.35055">
        <ele>110.9</ele>
        <time>2015-03-30T20:44:06.719Z</time>
      </trkpt>
      <trkpt lat="48.86039" lon="2.35046">
        <ele>110.2</ele>
        <time>2015-03-30T20:44:08.755Z</time>
      </trkpt>
      <trkpt lat="48.86041" lon="2.35043">
        <ele>110.3</ele>
        <time>2015-03-30T20:44:09.782Z</time>
      </trkpt>
      <trkpt lat="48.86045" lon="2.35036">
        <ele>109.7</ele>
        <time>2015-03-30T20:44:11.684Z</time>
      </trkpt>
      <trkpt lat="48.86048" lon="2.35033">
        <ele>109.1</ele>
        <time>2015-03-30T20:44:12.674Z</time>
      </trkpt>
      <trkpt lat="48.86055" lon="2.35029">
        <ele>108.2</ele>
        <time>2015-03-30T20:44:15.752Z</time>
      </trkpt>
      <trkpt lat="48.86057" lon="2.35027">
        <ele>108</ele>
        <time>2015-03-30T20:44:16.762Z</time>
      </trkpt>
      <trkpt lat="48.86062" lon="2.35017">
        <ele>107.4</ele>
        <time>2015-03-30T20:44:20.712Z</time>
      </trkpt>
      <trkpt lat="48.86063" lon="2.35015">
        <ele>107.3</ele>
        <time>2015-03-30T20:44:22.123Z</time>
      </trkpt>
      <trkpt lat="48.86066" lon="2.35003">
        <ele>107</ele>
        <time>2015-03-30T20:44:28.098Z</time>
      </trkpt>
      <trkpt lat="48.86066" lon="2.34998">
        <ele>107</ele>
        <time>2015-03-30T20:44:28.950Z</time>
      </trkpt>
      <trkpt lat="48.86066" lon="2.34993">
        <ele>107</ele>
        <time>2015-03-30T20:44:29.960Z</time>
      </trkpt>
      <trkpt lat="48.86067" lon="2.34984">
        <ele>107</ele>
        <time>2015-03-30T20:44:31.004Z</time>
      </trkpt>
      <trkpt lat="48.86067" lon="2.34984">
        <ele>107</ele>
        <time>2015-03-30T20:44:46.942Z</time>
      </trkpt>
      <trkpt lat="48.86058" lon="2.34954">
        <ele>106.5</ele>
        <time>2015-03-30T20:44:47.966Z</time>
      </trkpt>
      <trkpt lat="48.86058" lon="2.34954">
        <ele>106.5</ele>
        <time>2015-03-30T20:44:48.386Z</time>
      </trkpt>
      <trkpt lat="48.86052" lon="2.34938">
        <ele>106.1</ele>
        <time>2015-03-30T20:44:48.966Z</time>
      </trkpt>
      <trkpt lat="48.86047" lon="2.34928">
        <ele>106.5</ele>
        <time>2015-03-30T20:44:49.984Z</time>
      </trkpt>
      <trkpt lat="48.86044" lon="2.34925">
        <ele>106.4</ele>
        <time>2015-03-30T20:44:50.996Z</time>
      </trkpt>
      <trkpt lat="48.86037" lon="2.3492">
        <ele>107</ele>
        <time>2015-03-30T20:44:53.444Z</time>
      </trkpt>
      <trkpt lat="48.86034" lon="2.34917">
        <ele>107.2</ele>
        <time>2015-03-30T20:44:53.900Z</time>
      </trkpt>
      <trkpt lat="48.86028" lon="2.34907">
        <ele>107</ele>
        <time>2015-03-30T20:44:57.139Z</time>
      </trkpt>
      <trkpt lat="48.86025" lon="2.34904">
        <ele>106.8</ele>
        <time>2015-03-30T20:44:57.999Z</time>
      </trkpt>
      <trkpt lat="48.86022" lon="2.34902">
        <ele>106.6</ele>
        <time>2015-03-30T20:45:01.056Z</time>
      </trkpt>
      <trkpt lat="48.86016" lon="2.34895">
        <ele>106.5</ele>
        <time>2015-03-30T20:45:02.075Z</time>
      </trkpt>
      <trkpt lat="48.86014" lon="2.34884">
        <ele>103.9</ele>
        <time>2015-03-30T20:45:06.935Z</time>
      </trkpt>
      <trkpt lat="48.86016" lon="2.34881">
        <ele>103</ele>
        <time>2015-03-30T20:45:07.927Z</time>
      </trkpt>
      <trkpt lat="48.86021" lon="2.34873">
        <ele>100.8</ele>
        <time>2015-03-30T20:45:14.082Z</time>
      </trkpt>
      <trkpt lat="48.86019" lon="2.34868">
        <ele>101.8</ele>
        <time>2015-03-30T20:45:15.092Z</time>
      </trkpt>
      <trkpt lat="48.86018" lon="2.34857">
        <ele>101.9</ele>
        <time>2015-03-30T20:45:18.035Z</time>
      </trkpt>
      <trkpt lat="48.86017" lon="2.34852">
        <ele>102</ele>
        <time>2015-03-30T20:45:19.042Z</time>
      </trkpt>
      <trkpt lat="48.86012" lon="2.34845">
        <ele>100.5</ele>
        <time>2015-03-30T20:45:22.755Z</time>
      </trkpt>
      <trkpt lat="48.8601" lon="2.34841">
        <ele>100</ele>
        <time>2015-03-30T20:45:22.956Z</time>
      </trkpt>
      <trkpt lat="48.86007" lon="2.34838">
        <ele>100</ele>
        <time>2015-03-30T20:45:24.022Z</time>
      </trkpt>
      <trkpt lat="48.86002" lon="2.34832">
        <ele>100.1</ele>
        <time>2015-03-30T20:45:25.024Z</time>
      </trkpt>
      <trkpt lat="48.85995" lon="2.3483">
        <ele>100.7</ele>
        <time>2015-03-30T20:45:31.042Z</time>
      </trkpt>
      <trkpt lat="48.8599" lon="2.34825">
        <ele>100.8</ele>
        <time>2015-03-30T20:45:32.063Z</time>
      </trkpt>
      <trkpt lat="48.85989" lon="2.34817">
        <ele>99.9</ele>
        <time>2015-03-30T20:45:36.033Z</time>
      </trkpt>
      <trkpt lat="48.85984" lon="2.34807">
        <ele>99.5</ele>
        <time>2015-03-30T20:45:37.055Z</time>
      </trkpt>
      <trkpt lat="48.85979" lon="2.34805">
        <ele>99.9</ele>
        <time>2015-03-30T20:45:40.004Z</time>
      </trkpt>
      <trkpt lat="48.85976" lon="2.34802">
        <ele>100.4</ele>
        <time>2015-03-30T20:45:41.045Z</time>
      </trkpt>
      <trkpt lat="48.85972" lon="2.348">
        <ele>100.7</ele>
        <time>2015-03-30T20:45:42.084Z</time>
      </trkpt>
      <trkpt lat="48.85964" lon="2.34796">
        <ele>100.9</ele>
        <time>2015-03-30T20:45:43.000Z</time>
      </trkpt>
      <trkpt lat="48.85963" lon="2.34794">
        <ele>101.4</ele>
        <time>2015-03-30T20:46:03.248Z</time>
      </trkpt>
      <trkpt lat="48.85968" lon="2.34738">
        <ele>101.3</ele>
        <time>2015-03-30T20:46:12.996Z</time>
      </trkpt>
    </trkseg>
  </trk>
</gpx>